<?xml version="1.0" encoding="UTF-8" standalone="no" ?><gpx xmlns="http://www.topografix.com/GPX/1/1" xmlns:gpxx="http://www.garmin.com/xmlschemas/GpxExtensions/v3" xmlns:wptx1="http://www.garmin.com/xmlschemas/WaypointExtension/v1" xmlns:gpxtpx="http://www.garmin.com/xmlschemas/TrackPointExtension/v1" creator="Montana 650" version="1.1" xmlns:xsi="http://www.w3.org/2001/XMLSchema-instance" xsi:schemaLocation="http://www.topografix.com/GPX/1/1 http://www.topografix.com/GPX/1/1/gpx.xsd http://www.garmin.com/xmlschemas/GpxExtensions/v3 http://www8.garmin.com/xmlschemas/GpxExtensionsv3.xsd http://www.garmin.com/xmlschemas/WaypointExtension/v1 http://www8.garmin.com/xmlschemas/WaypointExtensionv1.xsd http://www.garmin.com/xmlschemas/TrackPointExtension/v1 http://www.garmin.com/xmlschemas/TrackPointExtensionv1.xsd"><metadata><link href="http://www.garmin.com"><text>Garmin International</text></link><time>2014-09-01T06:04:34Z</time></metadata><trk><name>01-SEP-14 08:04:29</name><extensions><gpxx:TrackExtension><gpxx:DisplayColor>DarkBlue</gpxx:DisplayColor></gpxx:TrackExtension></extensions><trkseg><trkpt lat="39.9179870635" lon="3.0542922579"><ele>19.36</ele><time>2014-08-31T07:49:34Z</time></trkpt><trkpt lat="39.9179736525" lon="3.0542998854"><ele>19.36</ele><time>2014-08-31T07:49:51Z</time></trkpt><trkpt lat="39.9179736525" lon="3.0542998854"><ele>18.40</ele><time>2014-08-31T07:50:14Z</time></trkpt><trkpt lat="39.9179713055" lon="3.0542929284"><ele>18.88</ele><time>2014-08-31T07:50:32Z</time></trkpt><trkpt lat="39.9179611634" lon="3.0542925932"><ele>17.92</ele><time>2014-08-31T07:50:43Z</time></trkpt><trkpt lat="39.9179611634" lon="3.0542925932"><ele>17.92</ele><time>2014-08-31T07:50:44Z</time></trkpt><trkpt lat="39.9179822020" lon="3.0543303117"><ele>17.44</ele><time>2014-08-31T07:50:47Z</time></trkpt><trkpt lat="39.9179839622" lon="3.0543810222"><ele>16.96</ele><time>2014-08-31T07:50:57Z</time></trkpt><trkpt lat="39.9179843813" lon="3.0543712154"><ele>17.44</ele><time>2014-08-31T07:51:08Z</time></trkpt><trkpt lat="39.9179596547" lon="3.0543326586"><ele>17.44</ele><time>2014-08-31T07:51:24Z</time></trkpt><trkpt lat="39.9179559667" lon="3.0543269590"><ele>17.92</ele><time>2014-08-31T07:51:37Z</time></trkpt><trkpt lat="39.9179618340" lon="3.0543398671"><ele>17.92</ele><time>2014-08-31T07:52:06Z</time></trkpt><trkpt lat="39.9179678690" lon="3.0543486681"><ele>17.44</ele><time>2014-08-31T07:52:09Z</time></trkpt><trkpt lat="39.9179960322" lon="3.0543733947"><ele>17.44</ele><time>2014-08-31T07:52:17Z</time></trkpt><trkpt lat="39.9179811962" lon="3.0543446448"><ele>17.44</ele><time>2014-08-31T07:52:28Z</time></trkpt><trkpt lat="39.9179816991" lon="3.0543185771"><ele>17.44</ele><time>2014-08-31T07:52:41Z</time></trkpt><trkpt lat="39.9179811962" lon="3.0543225165"><ele>17.44</ele><time>2014-08-31T07:52:55Z</time></trkpt><trkpt lat="39.9179881532" lon="3.0543200020"><ele>17.44</ele><time>2014-08-31T07:53:03Z</time></trkpt><trkpt lat="39.9180100299" lon="3.0543568823"><ele>16.96</ele><time>2014-08-31T07:53:09Z</time></trkpt><trkpt lat="39.9180401210" lon="3.0543833692"><ele>17.44</ele><time>2014-08-31T07:53:11Z</time></trkpt><trkpt lat="39.9180547893" lon="3.0544035695"><ele>17.44</ele><time>2014-08-31T07:53:12Z</time></trkpt><trkpt lat="39.9180672783" lon="3.0544190761"><ele>17.44</ele><time>2014-08-31T07:53:13Z</time></trkpt><trkpt lat="39.9180864729" lon="3.0544426292"><ele>17.44</ele><time>2014-08-31T07:53:16Z</time></trkpt><trkpt lat="39.9181018118" lon="3.0544379354"><ele>16.48</ele><time>2014-08-31T07:53:17Z</time></trkpt><trkpt lat="39.9181360099" lon="3.0544781685"><ele>17.44</ele><time>2014-08-31T07:53:21Z</time></trkpt><trkpt lat="39.9181438889" lon="3.0544898193"><ele>16.96</ele><time>2014-08-31T07:53:22Z</time></trkpt><trkpt lat="39.9181553721" lon="3.0545013864"><ele>16.96</ele><time>2014-08-31T07:53:23Z</time></trkpt><trkpt lat="39.9182430468" lon="3.0546404421"><ele>16.48</ele><time>2014-08-31T07:53:35Z</time></trkpt><trkpt lat="39.9182790052" lon="3.0547095928"><ele>16.48</ele><time>2014-08-31T07:53:49Z</time></trkpt><trkpt lat="39.9182862975" lon="3.0547181424"><ele>16.96</ele><time>2014-08-31T07:53:50Z</time></trkpt><trkpt lat="39.9182994571" lon="3.0547305476"><ele>16.48</ele><time>2014-08-31T07:53:51Z</time></trkpt><trkpt lat="39.9183343258" lon="3.0547979381"><ele>16.00</ele><time>2014-08-31T07:53:58Z</time></trkpt><trkpt lat="39.9183416180" lon="3.0548015423"><ele>16.00</ele><time>2014-08-31T07:53:59Z</time></trkpt><trkpt lat="39.9183521792" lon="3.0548178032"><ele>16.48</ele><time>2014-08-31T07:54:00Z</time></trkpt><trkpt lat="39.9183988664" lon="3.0549019575"><ele>15.52</ele><time>2014-08-31T07:54:07Z</time></trkpt><trkpt lat="39.9184000399" lon="3.0549085792"><ele>16.00</ele><time>2014-08-31T07:54:10Z</time></trkpt><trkpt lat="39.9184145406" lon="3.0549271032"><ele>16.00</ele><time>2014-08-31T07:54:11Z</time></trkpt><trkpt lat="39.9184478167" lon="3.0549552664"><ele>16.48</ele><time>2014-08-31T07:54:15Z</time></trkpt><trkpt lat="39.9184603058" lon="3.0549664982"><ele>15.52</ele><time>2014-08-31T07:54:16Z</time></trkpt><trkpt lat="39.9184710346" lon="3.0549771432"><ele>15.52</ele><time>2014-08-31T07:54:17Z</time></trkpt><trkpt lat="39.9185085017" lon="3.0550237466"><ele>16.00</ele><time>2014-08-31T07:54:24Z</time></trkpt><trkpt lat="39.9185201526" lon="3.0550375767"><ele>15.52</ele><time>2014-08-31T07:54:25Z</time></trkpt><trkpt lat="39.9185279477" lon="3.0550522450"><ele>15.04</ele><time>2014-08-31T07:54:26Z</time></trkpt><trkpt lat="39.9185256008" lon="3.0550588667"><ele>16.00</ele><time>2014-08-31T07:54:29Z</time></trkpt><trkpt lat="39.9185359105" lon="3.0550666619"><ele>15.52</ele><time>2014-08-31T07:54:30Z</time></trkpt><trkpt lat="39.9185437057" lon="3.0550804082"><ele>15.52</ele><time>2014-08-31T07:54:33Z</time></trkpt><trkpt lat="39.9185553566" lon="3.0550957471"><ele>15.52</ele><time>2014-08-31T07:54:34Z</time></trkpt><trkpt lat="39.9185616430" lon="3.0551136006"><ele>15.04</ele><time>2014-08-31T07:54:37Z</time></trkpt><trkpt lat="39.9185775686" lon="3.0551187973"><ele>14.56</ele><time>2014-08-31T07:54:38Z</time></trkpt><trkpt lat="39.9186052289" lon="3.0551147740"><ele>15.04</ele><time>2014-08-31T07:54:42Z</time></trkpt><trkpt lat="39.9186288659" lon="3.0550787318"><ele>16.00</ele><time>2014-08-31T07:54:46Z</time></trkpt><trkpt lat="39.9186466355" lon="3.0550564360"><ele>16.48</ele><time>2014-08-31T07:54:49Z</time></trkpt><trkpt lat="39.9186716136" lon="3.0550370738"><ele>16.48</ele><time>2014-08-31T07:54:52Z</time></trkpt><trkpt lat="39.9186967593" lon="3.0549978465"><ele>16.96</ele><time>2014-08-31T07:54:59Z</time></trkpt><trkpt lat="39.9187083263" lon="3.0549894646"><ele>17.44</ele><time>2014-08-31T07:55:03Z</time></trkpt><trkpt lat="39.9187544268" lon="3.0549329706"><ele>19.36</ele><time>2014-08-31T07:55:11Z</time></trkpt><trkpt lat="39.9187858589" lon="3.0549088307"><ele>19.84</ele><time>2014-08-31T07:55:14Z</time></trkpt><trkpt lat="39.9188044667" lon="3.0548925698"><ele>19.84</ele><time>2014-08-31T07:55:16Z</time></trkpt><trkpt lat="39.9188421853" lon="3.0548579525"><ele>21.29</ele><time>2014-08-31T07:55:23Z</time></trkpt><trkpt lat="39.9188987631" lon="3.0548069905"><ele>23.69</ele><time>2014-08-31T07:55:32Z</time></trkpt><trkpt lat="39.9189179577" lon="3.0547802523"><ele>25.13</ele><time>2014-08-31T07:55:41Z</time></trkpt><trkpt lat="39.9189179577" lon="3.0547802523"><ele>24.65</ele><time>2014-08-31T07:56:06Z</time></trkpt><trkpt lat="39.9189329613" lon="3.0547862872"><ele>26.09</ele><time>2014-08-31T07:56:41Z</time></trkpt><trkpt lat="39.9189352244" lon="3.0547900591"><ele>25.13</ele><time>2014-08-31T07:57:12Z</time></trkpt><trkpt lat="39.9189503957" lon="3.0547857005"><ele>25.61</ele><time>2014-08-31T07:57:20Z</time></trkpt><trkpt lat="39.9189798161" lon="3.0547386780"><ele>25.13</ele><time>2014-08-31T07:57:25Z</time></trkpt><trkpt lat="39.9190264195" lon="3.0546060763"><ele>26.09</ele><time>2014-08-31T07:57:35Z</time></trkpt><trkpt lat="39.9190236535" lon="3.0546093453"><ele>26.09</ele><time>2014-08-31T07:57:49Z</time></trkpt><trkpt lat="39.9190220609" lon="3.0545878876"><ele>26.57</ele><time>2014-08-31T07:57:50Z</time></trkpt><trkpt lat="39.9190203007" lon="3.0544623267"><ele>27.05</ele><time>2014-08-31T07:57:58Z</time></trkpt><trkpt lat="39.9190243240" lon="3.0544342473"><ele>27.53</ele><time>2014-08-31T07:57:59Z</time></trkpt><trkpt lat="39.9190233182" lon="3.0543071777"><ele>27.05</ele><time>2014-08-31T07:58:08Z</time></trkpt><trkpt lat="39.9190217257" lon="3.0542847142"><ele>27.05</ele><time>2014-08-31T07:58:09Z</time></trkpt><trkpt lat="39.9190219771" lon="3.0542583950"><ele>27.05</ele><time>2014-08-31T07:58:10Z</time></trkpt><trkpt lat="39.9190251622" lon="3.0542308185"><ele>27.53</ele><time>2014-08-31T07:58:11Z</time></trkpt><trkpt lat="39.9190278444" lon="3.0542062595"><ele>28.02</ele><time>2014-08-31T07:58:12Z</time></trkpt><trkpt lat="39.9190293532" lon="3.0541873164"><ele>27.53</ele><time>2014-08-31T07:58:13Z</time></trkpt><trkpt lat="39.9190230668" lon="3.0541340075"><ele>28.50</ele><time>2014-08-31T07:58:18Z</time></trkpt><trkpt lat="39.9190228991" lon="3.0541003123"><ele>28.02</ele><time>2014-08-31T07:58:20Z</time></trkpt><trkpt lat="39.9190247431" lon="3.0540779326"><ele>28.98</ele><time>2014-08-31T07:58:21Z</time></trkpt><trkpt lat="39.9190226477" lon="3.0540581513"><ele>28.50</ele><time>2014-08-31T07:58:22Z</time></trkpt><trkpt lat="39.9190128408" lon="3.0539777689"><ele>28.50</ele><time>2014-08-31T07:58:28Z</time></trkpt><trkpt lat="39.9190089852" lon="3.0539557245"><ele>28.50</ele><time>2014-08-31T07:58:29Z</time></trkpt><trkpt lat="39.9189890362" lon="3.0538398027"><ele>29.46</ele><time>2014-08-31T07:58:34Z</time></trkpt><trkpt lat="39.9189595319" lon="3.0538035929"><ele>29.46</ele><time>2014-08-31T07:58:40Z</time></trkpt><trkpt lat="39.9189488031" lon="3.0537858233"><ele>29.46</ele><time>2014-08-31T07:58:41Z</time></trkpt><trkpt lat="39.9189383257" lon="3.0537635274"><ele>29.94</ele><time>2014-08-31T07:58:42Z</time></trkpt><trkpt lat="39.9189287703" lon="3.0537436623"><ele>29.94</ele><time>2014-08-31T07:58:43Z</time></trkpt><trkpt lat="39.9189156946" lon="3.0537261441"><ele>29.94</ele><time>2014-08-31T07:58:44Z</time></trkpt><trkpt lat="39.9189054687" lon="3.0537107214"><ele>29.94</ele><time>2014-08-31T07:58:45Z</time></trkpt><trkpt lat="39.9188978411" lon="3.0536979809"><ele>29.94</ele><time>2014-08-31T07:58:46Z</time></trkpt><trkpt lat="39.9188861065" lon="3.0536884256"><ele>29.46</ele><time>2014-08-31T07:58:47Z</time></trkpt><trkpt lat="39.9188467115" lon="3.0536026787"><ele>29.94</ele><time>2014-08-31T07:58:56Z</time></trkpt><trkpt lat="39.9188349769" lon="3.0535826460"><ele>29.94</ele><time>2014-08-31T07:58:57Z</time></trkpt><trkpt lat="39.9188217334" lon="3.0535611045"><ele>30.42</ele><time>2014-08-31T07:58:58Z</time></trkpt><trkpt lat="39.9187340587" lon="3.0534253176"><ele>30.90</ele><time>2014-08-31T07:59:08Z</time></trkpt><trkpt lat="39.9186516646" lon="3.0533639621"><ele>31.86</ele><time>2014-08-31T07:59:17Z</time></trkpt><trkpt lat="39.9186438695" lon="3.0533303507"><ele>32.34</ele><time>2014-08-31T07:59:27Z</time></trkpt><trkpt lat="39.9185927399" lon="3.0532828253"><ele>32.82</ele><time>2014-08-31T07:59:37Z</time></trkpt><trkpt lat="39.9185810052" lon="3.0532663967"><ele>32.82</ele><time>2014-08-31T07:59:39Z</time></trkpt><trkpt lat="39.9185660854" lon="3.0532425921"><ele>32.82</ele><time>2014-08-31T07:59:43Z</time></trkpt><trkpt lat="39.9185329769" lon="3.0532084778"><ele>33.30</ele><time>2014-08-31T07:59:52Z</time></trkpt><trkpt lat="39.9185084179" lon="3.0531247426"><ele>33.30</ele><time>2014-08-31T07:59:58Z</time></trkpt><trkpt lat="39.9184504990" lon="3.0530678295"><ele>33.78</ele><time>2014-08-31T08:00:05Z</time></trkpt><trkpt lat="39.9184247665" lon="3.0530515686"><ele>33.78</ele><time>2014-08-31T08:00:07Z</time></trkpt><trkpt lat="39.9184059072" lon="3.0530405045"><ele>33.78</ele><time>2014-08-31T08:00:08Z</time></trkpt><trkpt lat="39.9183779955" lon="3.0530146044"><ele>34.74</ele><time>2014-08-31T08:00:13Z</time></trkpt><trkpt lat="39.9183643330" lon="3.0530066416"><ele>33.78</ele><time>2014-08-31T08:00:14Z</time></trkpt><trkpt lat="39.9183478206" lon="3.0529996846"><ele>34.26</ele><time>2014-08-31T08:00:15Z</time></trkpt><trkpt lat="39.9183298834" lon="3.0529902969"><ele>34.26</ele><time>2014-08-31T08:00:16Z</time></trkpt><trkpt lat="39.9182909913" lon="3.0529791489"><ele>34.26</ele><time>2014-08-31T08:00:21Z</time></trkpt><trkpt lat="39.9182755686" lon="3.0529868603"><ele>34.26</ele><time>2014-08-31T08:00:22Z</time></trkpt><trkpt lat="39.9182072561" lon="3.0529856030"><ele>34.26</ele><time>2014-08-31T08:00:31Z</time></trkpt><trkpt lat="39.9181991257" lon="3.0529777240"><ele>33.78</ele><time>2014-08-31T08:00:34Z</time></trkpt><trkpt lat="39.9181626644" lon="3.0529304501"><ele>34.74</ele><time>2014-08-31T08:00:39Z</time></trkpt><trkpt lat="39.9181498401" lon="3.0529113393"><ele>34.74</ele><time>2014-08-31T08:00:40Z</time></trkpt><trkpt lat="39.9181209225" lon="3.0528704356"><ele>34.74</ele><time>2014-08-31T08:00:46Z</time></trkpt><trkpt lat="39.9181042425" lon="3.0528593715"><ele>34.74</ele><time>2014-08-31T08:00:47Z</time></trkpt><trkpt lat="39.9180878140" lon="3.0528494809"><ele>34.74</ele><time>2014-08-31T08:00:48Z</time></trkpt><trkpt lat="39.9180749059" lon="3.0528337229"><ele>34.26</ele><time>2014-08-31T08:00:49Z</time></trkpt><trkpt lat="39.9180638418" lon="3.0528198928"><ele>34.74</ele><time>2014-08-31T08:00:50Z</time></trkpt><trkpt lat="39.9179987982" lon="3.0527266022"><ele>35.23</ele><time>2014-08-31T08:00:58Z</time></trkpt><trkpt lat="39.9179982953" lon="3.0526976008"><ele>35.23</ele><time>2014-08-31T08:00:59Z</time></trkpt><trkpt lat="39.9179728143" lon="3.0526274443"><ele>35.23</ele><time>2014-08-31T08:01:06Z</time></trkpt><trkpt lat="39.9179645162" lon="3.0526136979"><ele>34.74</ele><time>2014-08-31T08:01:07Z</time></trkpt><trkpt lat="39.9179562181" lon="3.0525981076"><ele>35.23</ele><time>2014-08-31T08:01:08Z</time></trkpt><trkpt lat="39.9179494288" lon="3.0525769852"><ele>34.74</ele><time>2014-08-31T08:01:09Z</time></trkpt><trkpt lat="39.9179480039" lon="3.0525513366"><ele>34.74</ele><time>2014-08-31T08:01:10Z</time></trkpt><trkpt lat="39.9179516919" lon="3.0525292922"><ele>34.74</ele><time>2014-08-31T08:01:11Z</time></trkpt><trkpt lat="39.9179584812" lon="3.0525116064"><ele>35.23</ele><time>2014-08-31T08:01:12Z</time></trkpt><trkpt lat="39.9179683719" lon="3.0524990335"><ele>35.71</ele><time>2014-08-31T08:01:13Z</time></trkpt><trkpt lat="39.9179796875" lon="3.0524882209"><ele>36.19</ele><time>2014-08-31T08:01:14Z</time></trkpt><trkpt lat="39.9179899134" lon="3.0524753965"><ele>35.71</ele><time>2014-08-31T08:01:15Z</time></trkpt><trkpt lat="39.9180012289" lon="3.0524642486"><ele>36.19</ele><time>2014-08-31T08:01:16Z</time></trkpt><trkpt lat="39.9180796836" lon="3.0523463991"><ele>37.63</ele><time>2014-08-31T08:01:27Z</time></trkpt><trkpt lat="39.9180930946" lon="3.0523236003"><ele>38.11</ele><time>2014-08-31T08:01:28Z</time></trkpt><trkpt lat="39.9180992972" lon="3.0522989575"><ele>38.11</ele><time>2014-08-31T08:01:29Z</time></trkpt><trkpt lat="39.9181046616" lon="3.0522795953"><ele>38.11</ele><time>2014-08-31T08:01:30Z</time></trkpt><trkpt lat="39.9181024823" lon="3.0522514321"><ele>38.11</ele><time>2014-08-31T08:01:34Z</time></trkpt><trkpt lat="39.9181223474" lon="3.0521652661"><ele>38.59</ele><time>2014-08-31T08:01:43Z</time></trkpt><trkpt lat="39.9181846250" lon="3.0520785134"><ele>38.11</ele><time>2014-08-31T08:01:51Z</time></trkpt><trkpt lat="39.9182118662" lon="3.0520271324"><ele>38.11</ele><time>2014-08-31T08:01:57Z</time></trkpt><trkpt lat="39.9182297196" lon="3.0520050041"><ele>38.11</ele><time>2014-08-31T08:01:58Z</time></trkpt><trkpt lat="39.9182504229" lon="3.0519832112"><ele>38.11</ele><time>2014-08-31T08:01:59Z</time></trkpt><trkpt lat="39.9182863813" lon="3.0519332550"><ele>38.11</ele><time>2014-08-31T08:02:05Z</time></trkpt><trkpt lat="39.9183003791" lon="3.0519186705"><ele>37.63</ele><time>2014-08-31T08:02:06Z</time></trkpt><trkpt lat="39.9183127005" lon="3.0518955365"><ele>37.63</ele><time>2014-08-31T08:02:07Z</time></trkpt><trkpt lat="39.9184166361" lon="3.0517471768"><ele>37.63</ele><time>2014-08-31T08:02:16Z</time></trkpt><trkpt lat="39.9184927437" lon="3.0515662115"><ele>38.59</ele><time>2014-08-31T08:02:28Z</time></trkpt><trkpt lat="39.9185955059" lon="3.0514839012"><ele>38.11</ele><time>2014-08-31T08:02:38Z</time></trkpt><trkpt lat="39.9186010379" lon="3.0514733400"><ele>38.59</ele><time>2014-08-31T08:02:39Z</time></trkpt><trkpt lat="39.9186128564" lon="3.0514614377"><ele>38.59</ele><time>2014-08-31T08:02:40Z</time></trkpt><trkpt lat="39.9186279438" lon="3.0514432490"><ele>38.59</ele><time>2014-08-31T08:02:41Z</time></trkpt><trkpt lat="39.9186410196" lon="3.0514254794"><ele>39.07</ele><time>2014-08-31T08:02:42Z</time></trkpt><trkpt lat="39.9186494015" lon="3.0514134094"><ele>39.07</ele><time>2014-08-31T08:02:43Z</time></trkpt><trkpt lat="39.9186648242" lon="3.0513943825"><ele>39.07</ele><time>2014-08-31T08:02:48Z</time></trkpt><trkpt lat="39.9186889641" lon="3.0513741821"><ele>39.07</ele><time>2014-08-31T08:02:52Z</time></trkpt><trkpt lat="39.9187035486" lon="3.0513432529"><ele>39.07</ele><time>2014-08-31T08:02:54Z</time></trkpt><trkpt lat="39.9187353160" lon="3.0513056181"><ele>39.55</ele><time>2014-08-31T08:02:58Z</time></trkpt><trkpt lat="39.9187476374" lon="3.0512937997"><ele>39.55</ele><time>2014-08-31T08:02:59Z</time></trkpt><trkpt lat="39.9187651556" lon="3.0512673967"><ele>40.03</ele><time>2014-08-31T08:03:01Z</time></trkpt><trkpt lat="39.9188055564" lon="3.0512252357"><ele>40.51</ele><time>2014-08-31T08:03:06Z</time></trkpt><trkpt lat="39.9188177940" lon="3.0512025207"><ele>40.51</ele><time>2014-08-31T08:03:07Z</time></trkpt><trkpt lat="39.9188811611" lon="3.0510706734"><ele>40.03</ele><time>2014-08-31T08:03:16Z</time></trkpt><trkpt lat="39.9189211428" lon="3.0509684142"><ele>40.03</ele><time>2014-08-31T08:03:26Z</time></trkpt><trkpt lat="39.9189393315" lon="3.0509555899"><ele>40.51</ele><time>2014-08-31T08:03:27Z</time></trkpt><trkpt lat="39.9189735297" lon="3.0509063043"><ele>40.99</ele><time>2014-08-31T08:03:31Z</time></trkpt><trkpt lat="39.9190065544" lon="3.0508578569"><ele>40.99</ele><time>2014-08-31T08:03:34Z</time></trkpt><trkpt lat="39.9191750307" lon="3.0507076532"><ele>41.95</ele><time>2014-08-31T08:03:47Z</time></trkpt><trkpt lat="39.9192636274" lon="3.0505843554"><ele>41.95</ele><time>2014-08-31T08:03:57Z</time></trkpt><trkpt lat="39.9192970712" lon="3.0505523365"><ele>41.95</ele><time>2014-08-31T08:04:00Z</time></trkpt><trkpt lat="39.9193069618" lon="3.0505399313"><ele>41.95</ele><time>2014-08-31T08:04:01Z</time></trkpt><trkpt lat="39.9193435069" lon="3.0505047273"><ele>42.44</ele><time>2014-08-31T08:04:06Z</time></trkpt><trkpt lat="39.9193568341" lon="3.0504898913"><ele>42.44</ele><time>2014-08-31T08:04:07Z</time></trkpt><trkpt lat="39.9194094725" lon="3.0504319724"><ele>42.92</ele><time>2014-08-31T08:04:16Z</time></trkpt><trkpt lat="39.9194270745" lon="3.0504230876"><ele>43.40</ele><time>2014-08-31T08:04:20Z</time></trkpt><trkpt lat="39.9194808025" lon="3.0503729638"><ele>43.40</ele><time>2014-08-31T08:04:25Z</time></trkpt><trkpt lat="39.9194947165" lon="3.0503546074"><ele>42.92</ele><time>2014-08-31T08:04:26Z</time></trkpt><trkpt lat="39.9195320159" lon="3.0502914917"><ele>43.40</ele><time>2014-08-31T08:04:32Z</time></trkpt><trkpt lat="39.9195433315" lon="3.0502676871"><ele>42.92</ele><time>2014-08-31T08:04:33Z</time></trkpt><trkpt lat="39.9195558205" lon="3.0502470676"><ele>42.92</ele><time>2014-08-31T08:04:34Z</time></trkpt><trkpt lat="39.9195696507" lon="3.0502337404"><ele>42.44</ele><time>2014-08-31T08:04:35Z</time></trkpt><trkpt lat="39.9196229596" lon="3.0501696188"><ele>40.99</ele><time>2014-08-31T08:04:45Z</time></trkpt><trkpt lat="39.9196376279" lon="3.0500206724"><ele>38.59</ele><time>2014-08-31T08:04:55Z</time></trkpt><trkpt lat="39.9196528830" lon="3.0499671958"><ele>38.59</ele><time>2014-08-31T08:05:03Z</time></trkpt><trkpt lat="39.9196927808" lon="3.0499679502"><ele>38.11</ele><time>2014-08-31T08:05:08Z</time></trkpt><trkpt lat="39.9197341036" lon="3.0499950238"><ele>38.11</ele><time>2014-08-31T08:05:16Z</time></trkpt><trkpt lat="39.9197025038" lon="3.0500229355"><ele>38.59</ele><time>2014-08-31T08:05:22Z</time></trkpt><trkpt lat="39.9196970556" lon="3.0500568822"><ele>38.59</ele><time>2014-08-31T08:05:33Z</time></trkpt><trkpt lat="39.9197250511" lon="3.0500846263"><ele>38.11</ele><time>2014-08-31T08:05:45Z</time></trkpt><trkpt lat="39.9197814614" lon="3.0501375161"><ele>37.15</ele><time>2014-08-31T08:06:06Z</time></trkpt><trkpt lat="39.9198111333" lon="3.0501451436"><ele>37.15</ele><time>2014-08-31T08:06:23Z</time></trkpt><trkpt lat="39.9198111333" lon="3.0501451436"><ele>36.19</ele><time>2014-08-31T08:06:50Z</time></trkpt><trkpt lat="39.9197982252" lon="3.0501733068"><ele>29.46</ele><time>2014-08-31T08:07:05Z</time></trkpt><trkpt lat="39.9197982252" lon="3.0501733068"><ele>37.15</ele><time>2014-08-31T08:07:06Z</time></trkpt><trkpt lat="39.9197984766" lon="3.0501554534"><ele>33.78</ele><time>2014-08-31T08:07:12Z</time></trkpt><trkpt lat="39.9197469279" lon="3.0502407812"><ele>30.42</ele><time>2014-08-31T08:07:34Z</time></trkpt><trkpt lat="39.9197433237" lon="3.0502458103"><ele>31.38</ele><time>2014-08-31T08:07:35Z</time></trkpt><trkpt lat="39.9197393842" lon="3.0502512585"><ele>35.71</ele><time>2014-08-31T08:07:36Z</time></trkpt><trkpt lat="39.9197358638" lon="3.0502563715"><ele>33.30</ele><time>2014-08-31T08:07:37Z</time></trkpt><trkpt lat="39.9197217822" lon="3.0502760690"><ele>30.42</ele><time>2014-08-31T08:07:41Z</time></trkpt><trkpt lat="39.9197182618" lon="3.0502810981"><ele>33.78</ele><time>2014-08-31T08:07:42Z</time></trkpt><trkpt lat="39.9197001569" lon="3.0503065791"><ele>24.17</ele><time>2014-08-31T08:07:47Z</time></trkpt><trkpt lat="39.9196929485" lon="3.0503167212"><ele>40.03</ele><time>2014-08-31T08:07:49Z</time></trkpt><trkpt lat="39.9196893442" lon="3.0503217503"><ele>35.23</ele><time>2014-08-31T08:07:50Z</time></trkpt><trkpt lat="39.9196821358" lon="3.0503318924"><ele>29.94</ele><time>2014-08-31T08:07:52Z</time></trkpt><trkpt lat="39.9197720736" lon="3.0502034817"><ele>35.71</ele><time>2014-08-31T08:19:01Z</time></trkpt><trkpt lat="39.9197833054" lon="3.0501820240"><ele>35.23</ele><time>2014-08-31T08:19:26Z</time></trkpt><trkpt lat="39.9197376240" lon="3.0502318125"><ele>35.71</ele><time>2014-08-31T08:19:48Z</time></trkpt><trkpt lat="39.9196624383" lon="3.0502163898"><ele>35.71</ele><time>2014-08-31T08:20:15Z</time></trkpt><trkpt lat="39.9198588263" lon="3.0501230154"><ele>35.23</ele><time>2014-08-31T08:20:38Z</time></trkpt><trkpt lat="39.9197289906" lon="3.0501830298"><ele>35.71</ele><time>2014-08-31T08:20:57Z</time></trkpt><trkpt lat="39.9197340198" lon="3.0501366779"><ele>34.74</ele><time>2014-08-31T08:21:24Z</time></trkpt><trkpt lat="39.9197341874" lon="3.0501494184"><ele>36.19</ele><time>2014-08-31T08:21:40Z</time></trkpt><trkpt lat="39.9197644461" lon="3.0501115322"><ele>36.19</ele><time>2014-08-31T08:21:56Z</time></trkpt><trkpt lat="39.9197322596" lon="3.0501049943"><ele>36.19</ele><time>2014-08-31T08:22:14Z</time></trkpt><trkpt lat="39.9197352771" lon="3.0500867218"><ele>37.15</ele><time>2014-08-31T08:22:26Z</time></trkpt><trkpt lat="39.9196818005" lon="3.0501018092"><ele>39.07</ele><time>2014-08-31T08:22:36Z</time></trkpt><trkpt lat="39.9196587503" lon="3.0501023959"><ele>39.07</ele><time>2014-08-31T08:22:47Z</time></trkpt><trkpt lat="39.9196524639" lon="3.0501070898"><ele>39.07</ele><time>2014-08-31T08:22:50Z</time></trkpt><trkpt lat="39.9196263123" lon="3.0501383543"><ele>35.71</ele><time>2014-08-31T08:22:53Z</time></trkpt><trkpt lat="39.9196274020" lon="3.0501513463"><ele>40.51</ele><time>2014-08-31T08:22:54Z</time></trkpt><trkpt lat="39.9196159188" lon="3.0501713790"><ele>40.03</ele><time>2014-08-31T08:23:08Z</time></trkpt><trkpt lat="39.9196304195" lon="3.0501571298"><ele>37.63</ele><time>2014-08-31T08:23:16Z</time></trkpt><trkpt lat="39.9196709879" lon="3.0500533618"><ele>38.59</ele><time>2014-08-31T08:23:25Z</time></trkpt><trkpt lat="39.9196483567" lon="3.0499706324"><ele>36.67</ele><time>2014-08-31T08:23:31Z</time></trkpt><trkpt lat="39.9196357839" lon="3.0498957820"><ele>36.19</ele><time>2014-08-31T08:23:34Z</time></trkpt><trkpt lat="39.9196364544" lon="3.0498665292"><ele>35.71</ele><time>2014-08-31T08:23:37Z</time></trkpt><trkpt lat="39.9196361192" lon="3.0498003960"><ele>35.71</ele><time>2014-08-31T08:23:42Z</time></trkpt><trkpt lat="39.9196049385" lon="3.0496691354"><ele>36.67</ele><time>2014-08-31T08:23:52Z</time></trkpt><trkpt lat="39.9195615202" lon="3.0495967157"><ele>37.15</ele><time>2014-08-31T08:24:01Z</time></trkpt><trkpt lat="39.9195601791" lon="3.0495944526"><ele>37.15</ele><time>2014-08-31T08:24:02Z</time></trkpt><trkpt lat="39.9195136596" lon="3.0495704804"><ele>37.15</ele><time>2014-08-31T08:24:07Z</time></trkpt><trkpt lat="39.9194818921" lon="3.0495646130"><ele>37.15</ele><time>2014-08-31T08:24:10Z</time></trkpt><trkpt lat="39.9194212910" lon="3.0495133158"><ele>36.67</ele><time>2014-08-31T08:24:16Z</time></trkpt><trkpt lat="39.9193476979" lon="3.0495066941"><ele>36.19</ele><time>2014-08-31T08:24:22Z</time></trkpt><trkpt lat="39.9193126615" lon="3.0495011620"><ele>36.19</ele><time>2014-08-31T08:24:27Z</time></trkpt><trkpt lat="39.9192975741" lon="3.0494911876"><ele>36.19</ele><time>2014-08-31T08:24:30Z</time></trkpt><trkpt lat="39.9193413276" lon="3.0493968911"><ele>36.67</ele><time>2014-08-31T08:24:42Z</time></trkpt><trkpt lat="39.9194208719" lon="3.0494312569"><ele>37.15</ele><time>2014-08-31T08:24:55Z</time></trkpt><trkpt lat="39.9194313493" lon="3.0493239686"><ele>37.63</ele><time>2014-08-31T08:25:07Z</time></trkpt><trkpt lat="39.9194254819" lon="3.0493102223"><ele>37.15</ele><time>2014-08-31T08:25:21Z</time></trkpt><trkpt lat="39.9194343667" lon="3.0493248068"><ele>37.63</ele><time>2014-08-31T08:25:27Z</time></trkpt><trkpt lat="39.9194822274" lon="3.0493095517"><ele>37.63</ele><time>2014-08-31T08:25:35Z</time></trkpt><trkpt lat="39.9194736779" lon="3.0492823943"><ele>37.15</ele><time>2014-08-31T08:25:48Z</time></trkpt><trkpt lat="39.9194668885" lon="3.0492803827"><ele>37.15</ele><time>2014-08-31T08:25:57Z</time></trkpt><trkpt lat="39.9194341991" lon="3.0492262356"><ele>36.19</ele><time>2014-08-31T08:26:10Z</time></trkpt><trkpt lat="39.9194565788" lon="3.0492225476"><ele>36.67</ele><time>2014-08-31T08:26:25Z</time></trkpt><trkpt lat="39.9194658827" lon="3.0492267385"><ele>38.59</ele><time>2014-08-31T08:26:31Z</time></trkpt><trkpt lat="39.9194657151" lon="3.0491932947"><ele>38.11</ele><time>2014-08-31T08:26:38Z</time></trkpt><trkpt lat="39.9194368813" lon="3.0491543189"><ele>37.63</ele><time>2014-08-31T08:26:54Z</time></trkpt><trkpt lat="39.9194049463" lon="3.0491455179"><ele>37.15</ele><time>2014-08-31T08:27:01Z</time></trkpt><trkpt lat="39.9194044434" lon="3.0491258204"><ele>37.15</ele><time>2014-08-31T08:27:15Z</time></trkpt><trkpt lat="39.9194038566" lon="3.0491245631"><ele>36.67</ele><time>2014-08-31T08:27:49Z</time></trkpt><trkpt lat="39.9194046948" lon="3.0491251498"><ele>37.15</ele><time>2014-08-31T08:28:23Z</time></trkpt><trkpt lat="39.9194046948" lon="3.0491251498"><ele>36.67</ele><time>2014-08-31T08:28:59Z</time></trkpt><trkpt lat="39.9193917867" lon="3.0491077155"><ele>38.11</ele><time>2014-08-31T08:29:30Z</time></trkpt><trkpt lat="39.9194471072" lon="3.0490637105"><ele>38.11</ele><time>2014-08-31T08:29:42Z</time></trkpt><trkpt lat="39.9194887653" lon="3.0490948074"><ele>37.63</ele><time>2014-08-31T08:29:55Z</time></trkpt><trkpt lat="39.9195020087" lon="3.0491140857"><ele>38.11</ele><time>2014-08-31T08:30:00Z</time></trkpt><trkpt lat="39.9195253104" lon="3.0491574202"><ele>37.63</ele><time>2014-08-31T08:30:02Z</time></trkpt><trkpt lat="39.9195238017" lon="3.0491914507"><ele>37.15</ele><time>2014-08-31T08:30:05Z</time></trkpt><trkpt lat="39.9195324350" lon="3.0492673907"><ele>37.15</ele><time>2014-08-31T08:30:14Z</time></trkpt><trkpt lat="39.9195474386" lon="3.0492854957"><ele>37.15</ele><time>2014-08-31T08:30:16Z</time></trkpt><trkpt lat="39.9195780326" lon="3.0493767746"><ele>36.19</ele><time>2014-08-31T08:30:22Z</time></trkpt><trkpt lat="39.9195854925" lon="3.0494186841"><ele>36.67</ele><time>2014-08-31T08:30:27Z</time></trkpt><trkpt lat="39.9195947964" lon="3.0494463444"><ele>36.67</ele><time>2014-08-31T08:30:30Z</time></trkpt><trkpt lat="39.9195745122" lon="3.0494934507"><ele>35.23</ele><time>2014-08-31T08:30:35Z</time></trkpt><trkpt lat="39.9195786193" lon="3.0495505314"><ele>35.23</ele><time>2014-08-31T08:30:40Z</time></trkpt><trkpt lat="39.9195691478" lon="3.0496367812"><ele>34.74</ele><time>2014-08-31T08:30:49Z</time></trkpt><trkpt lat="39.9195901863" lon="3.0496901739"><ele>34.26</ele><time>2014-08-31T08:30:56Z</time></trkpt><trkpt lat="39.9196009990" lon="3.0497496016"><ele>34.74</ele><time>2014-08-31T08:31:07Z</time></trkpt><trkpt lat="39.9196058605" lon="3.0498079397"><ele>33.78</ele><time>2014-08-31T08:31:15Z</time></trkpt><trkpt lat="39.9196266476" lon="3.0498958658"><ele>33.78</ele><time>2014-08-31T08:31:24Z</time></trkpt><trkpt lat="39.9195018411" lon="3.0498064309"><ele>34.26</ele><time>2014-08-31T08:31:31Z</time></trkpt><trkpt lat="39.9194573332" lon="3.0497711431"><ele>33.78</ele><time>2014-08-31T08:31:34Z</time></trkpt><trkpt lat="39.9194346182" lon="3.0497340113"><ele>32.82</ele><time>2014-08-31T08:31:36Z</time></trkpt><trkpt lat="39.9193228874" lon="3.0496312492"><ele>33.78</ele><time>2014-08-31T08:31:47Z</time></trkpt><trkpt lat="39.9193232227" lon="3.0496282317"><ele>33.78</ele><time>2014-08-31T08:32:00Z</time></trkpt><trkpt lat="39.9193232227" lon="3.0496282317"><ele>33.30</ele><time>2014-08-31T08:32:18Z</time></trkpt><trkpt lat="39.9193217978" lon="3.0496274773"><ele>33.30</ele><time>2014-08-31T08:32:54Z</time></trkpt><trkpt lat="39.9193192832" lon="3.0496231187"><ele>32.82</ele><time>2014-08-31T08:33:24Z</time></trkpt><trkpt lat="39.9193226360" lon="3.0496217776"><ele>32.82</ele><time>2014-08-31T08:33:59Z</time></trkpt><trkpt lat="39.9193309341" lon="3.0496152397"><ele>36.67</ele><time>2014-08-31T08:34:11Z</time></trkpt><trkpt lat="39.9193280004" lon="3.0496136472"><ele>33.30</ele><time>2014-08-31T08:34:12Z</time></trkpt><trkpt lat="39.9193714187" lon="3.0496588256"><ele>31.86</ele><time>2014-08-31T08:34:28Z</time></trkpt><trkpt lat="39.9194154236" lon="3.0497050937"><ele>33.30</ele><time>2014-08-31T08:34:45Z</time></trkpt><trkpt lat="39.9194437545" lon="3.0497634318"><ele>33.30</ele><time>2014-08-31T08:35:16Z</time></trkpt><trkpt lat="39.9194525555" lon="3.0497692991"><ele>33.30</ele><time>2014-08-31T08:35:17Z</time></trkpt><trkpt lat="39.9195575807" lon="3.0498689599"><ele>32.82</ele><time>2014-08-31T08:35:28Z</time></trkpt><trkpt lat="39.9195990711" lon="3.0499159824"><ele>32.34</ele><time>2014-08-31T08:35:33Z</time></trkpt><trkpt lat="39.9196295813" lon="3.0499939341"><ele>33.30</ele><time>2014-08-31T08:35:39Z</time></trkpt><trkpt lat="39.9196527153" lon="3.0500503443"><ele>34.26</ele><time>2014-08-31T08:35:45Z</time></trkpt><trkpt lat="39.9196167570" lon="3.0500906613"><ele>35.23</ele><time>2014-08-31T08:35:49Z</time></trkpt><trkpt lat="39.9195746798" lon="3.0501438025"><ele>36.19</ele><time>2014-08-31T08:35:54Z</time></trkpt><trkpt lat="39.9195513781" lon="3.0501865502"><ele>37.15</ele><time>2014-08-31T08:36:07Z</time></trkpt><trkpt lat="39.9195343629" lon="3.0501890648"><ele>36.67</ele><time>2014-08-31T08:36:08Z</time></trkpt><trkpt lat="39.9195222091" lon="3.0501991231"><ele>36.67</ele><time>2014-08-31T08:36:17Z</time></trkpt><trkpt lat="39.9195118994" lon="3.0502057448"><ele>36.67</ele><time>2014-08-31T08:36:18Z</time></trkpt><trkpt lat="39.9194948841" lon="3.0502212513"><ele>36.67</ele><time>2014-08-31T08:36:22Z</time></trkpt><trkpt lat="39.9195103068" lon="3.0502660107"><ele>37.15</ele><time>2014-08-31T08:36:28Z</time></trkpt><trkpt lat="39.9195745960" lon="3.0503307190"><ele>36.67</ele><time>2014-08-31T08:36:36Z</time></trkpt><trkpt lat="39.9197117239" lon="3.0504698586"><ele>37.15</ele><time>2014-08-31T08:36:50Z</time></trkpt><trkpt lat="39.9197320081" lon="3.0504803360"><ele>36.19</ele><time>2014-08-31T08:36:59Z</time></trkpt><trkpt lat="39.9197509512" lon="3.0504967645"><ele>36.67</ele><time>2014-08-31T08:37:02Z</time></trkpt><trkpt lat="39.9197853170" lon="3.0505527556"><ele>36.67</ele><time>2014-08-31T08:37:09Z</time></trkpt><trkpt lat="39.9198309984" lon="3.0506050587"><ele>36.19</ele><time>2014-08-31T08:37:16Z</time></trkpt><trkpt lat="39.9199590739" lon="3.0507167056"><ele>36.19</ele><time>2014-08-31T08:37:27Z</time></trkpt><trkpt lat="39.9200717267" lon="3.0507910531"><ele>36.67</ele><time>2014-08-31T08:37:37Z</time></trkpt><trkpt lat="39.9200962856" lon="3.0508016143"><ele>36.67</ele><time>2014-08-31T08:37:40Z</time></trkpt><trkpt lat="39.9201891571" lon="3.0508471280"><ele>37.15</ele><time>2014-08-31T08:37:51Z</time></trkpt><trkpt lat="39.9202214275" lon="3.0508712679"><ele>36.19</ele><time>2014-08-31T08:37:56Z</time></trkpt><trkpt lat="39.9202839565" lon="3.0509565119"><ele>37.15</ele><time>2014-08-31T08:38:03Z</time></trkpt><trkpt lat="39.9203799292" lon="3.0509845074"><ele>37.15</ele><time>2014-08-31T08:38:11Z</time></trkpt><trkpt lat="39.9204892293" lon="3.0510776304"><ele>37.15</ele><time>2014-08-31T08:38:19Z</time></trkpt><trkpt lat="39.9205698632" lon="3.0510881077"><ele>37.15</ele><time>2014-08-31T08:38:25Z</time></trkpt><trkpt lat="39.9206365831" lon="3.0511458591"><ele>16.48</ele><time>2014-08-31T08:38:30Z</time></trkpt><trkpt lat="39.9206467252" lon="3.0511512235"><ele>57.34</ele><time>2014-08-31T08:38:31Z</time></trkpt><trkpt lat="39.9206557777" lon="3.0511585996"><ele>52.53</ele><time>2014-08-31T08:38:32Z</time></trkpt><trkpt lat="39.9206650816" lon="3.0511675682"><ele>40.03</ele><time>2014-08-31T08:38:33Z</time></trkpt><trkpt lat="39.9206753075" lon="3.0511749443"><ele>37.15</ele><time>2014-08-31T08:38:34Z</time></trkpt><trkpt lat="39.9206831027" lon="3.0511790514"><ele>37.15</ele><time>2014-08-31T08:38:35Z</time></trkpt><trkpt lat="39.9207053147" lon="3.0511912052"><ele>39.55</ele><time>2014-08-31T08:38:37Z</time></trkpt><trkpt lat="39.9207540974" lon="3.0512058735"><ele>36.67</ele><time>2014-08-31T08:38:40Z</time></trkpt><trkpt lat="39.9208515789" lon="3.0512812268"><ele>36.67</ele><time>2014-08-31T08:38:49Z</time></trkpt><trkpt lat="39.9209493119" lon="3.0513808038"><ele>37.15</ele><time>2014-08-31T08:39:00Z</time></trkpt><trkpt lat="39.9209578615" lon="3.0513884313"><ele>37.15</ele><time>2014-08-31T08:39:01Z</time></trkpt><trkpt lat="39.9210688379" lon="3.0514682271"><ele>36.67</ele><time>2014-08-31T08:39:10Z</time></trkpt><trkpt lat="39.9211324565" lon="3.0515027605"><ele>37.15</ele><time>2014-08-31T08:39:16Z</time></trkpt><trkpt lat="39.9211918004" lon="3.0515585840"><ele>37.15</ele><time>2014-08-31T08:39:22Z</time></trkpt><trkpt lat="39.9212409183" lon="3.0515947938"><ele>37.63</ele><time>2014-08-31T08:39:26Z</time></trkpt><trkpt lat="39.9213102367" lon="3.0516657047"><ele>37.63</ele><time>2014-08-31T08:39:35Z</time></trkpt><trkpt lat="39.9213431776" lon="3.0517102126"><ele>37.15</ele><time>2014-08-31T08:39:39Z</time></trkpt><trkpt lat="39.9213655572" lon="3.0517089553"><ele>37.63</ele><time>2014-08-31T08:39:42Z</time></trkpt><trkpt lat="39.9214145914" lon="3.0517462548"><ele>37.63</ele><time>2014-08-31T08:39:51Z</time></trkpt><trkpt lat="39.9214284215" lon="3.0517572351"><ele>37.63</ele><time>2014-08-31T08:40:06Z</time></trkpt><trkpt lat="39.9214294273" lon="3.0517456681"><ele>38.11</ele><time>2014-08-31T08:40:07Z</time></trkpt><trkpt lat="39.9214280862" lon="3.0516985618"><ele>38.11</ele><time>2014-08-31T08:40:12Z</time></trkpt><trkpt lat="39.9214488734" lon="3.0517004058"><ele>38.59</ele><time>2014-08-31T08:40:22Z</time></trkpt><trkpt lat="39.9214567523" lon="3.0516694766"><ele>38.59</ele><time>2014-08-31T08:40:31Z</time></trkpt><trkpt lat="39.9214676488" lon="3.0516531318"><ele>38.11</ele><time>2014-08-31T08:40:32Z</time></trkpt><trkpt lat="39.9214863405" lon="3.0516349431"><ele>39.07</ele><time>2014-08-31T08:40:33Z</time></trkpt><trkpt lat="39.9215117376" lon="3.0516159162"><ele>38.11</ele><time>2014-08-31T08:40:35Z</time></trkpt><trkpt lat="39.9215248134" lon="3.0516078696"><ele>38.59</ele><time>2014-08-31T08:40:36Z</time></trkpt><trkpt lat="39.9215581734" lon="3.0515858252"><ele>39.55</ele><time>2014-08-31T08:40:41Z</time></trkpt><trkpt lat="39.9215844087" lon="3.0515433289"><ele>37.63</ele><time>2014-08-31T08:40:53Z</time></trkpt><trkpt lat="39.9216589238" lon="3.0515131541"><ele>37.63</ele><time>2014-08-31T08:40:58Z</time></trkpt><trkpt lat="39.9216761906" lon="3.0515092146"><ele>39.55</ele><time>2014-08-31T08:41:00Z</time></trkpt><trkpt lat="39.9216850754" lon="3.0515043531"><ele>38.59</ele><time>2014-08-31T08:41:01Z</time></trkpt><trkpt lat="39.9217258953" lon="3.0514707416"><ele>40.99</ele><time>2014-08-31T08:41:05Z</time></trkpt><trkpt lat="39.9217750132" lon="3.0514211208"><ele>39.55</ele><time>2014-08-31T08:41:11Z</time></trkpt><trkpt lat="39.9217929505" lon="3.0513951369"><ele>39.55</ele><time>2014-08-31T08:41:14Z</time></trkpt><trkpt lat="39.9218261428" lon="3.0513548199"><ele>38.11</ele><time>2014-08-31T08:41:18Z</time></trkpt><trkpt lat="39.9218439125" lon="3.0513412412"><ele>41.95</ele><time>2014-08-31T08:41:20Z</time></trkpt><trkpt lat="39.9218500312" lon="3.0513301771"><ele>40.03</ele><time>2014-08-31T08:41:21Z</time></trkpt><trkpt lat="39.9218624365" lon="3.0513111502"><ele>39.55</ele><time>2014-08-31T08:41:23Z</time></trkpt><trkpt lat="39.9218737520" lon="3.0513024330"><ele>40.51</ele><time>2014-08-31T08:41:24Z</time></trkpt><trkpt lat="39.9219672102" lon="3.0512254033"><ele>41.47</ele><time>2014-08-31T08:41:33Z</time></trkpt><trkpt lat="39.9219953734" lon="3.0512104835"><ele>39.07</ele><time>2014-08-31T08:41:35Z</time></trkpt><trkpt lat="39.9220580701" lon="3.0511579290"><ele>40.99</ele><time>2014-08-31T08:41:42Z</time></trkpt><trkpt lat="39.9220512807" lon="3.0510845035"><ele>40.51</ele><time>2014-08-31T08:41:54Z</time></trkpt><trkpt lat="39.9220554717" lon="3.0510792229"><ele>34.74</ele><time>2014-08-31T08:42:01Z</time></trkpt><trkpt lat="39.9220537115" lon="3.0510828272"><ele>38.59</ele><time>2014-08-31T08:42:02Z</time></trkpt><trkpt lat="39.9220537115" lon="3.0510828272"><ele>43.40</ele><time>2014-08-31T08:42:03Z</time></trkpt><trkpt lat="39.9220589083" lon="3.0510798097"><ele>40.51</ele><time>2014-08-31T08:42:04Z</time></trkpt><trkpt lat="39.9220774323" lon="3.0510616209"><ele>41.95</ele><time>2014-08-31T08:42:07Z</time></trkpt><trkpt lat="39.9220430665" lon="3.0509900395"><ele>42.44</ele><time>2014-08-31T08:42:17Z</time></trkpt><trkpt lat="39.9220453296" lon="3.0509859324"><ele>50.13</ele><time>2014-08-31T08:42:21Z</time></trkpt><trkpt lat="39.9220444914" lon="3.0509858485"><ele>42.44</ele><time>2014-08-31T08:42:22Z</time></trkpt><trkpt lat="39.9220444914" lon="3.0509858485"><ele>42.44</ele><time>2014-08-31T08:42:23Z</time></trkpt><trkpt lat="39.9220444914" lon="3.0509858485"><ele>42.44</ele><time>2014-08-31T08:42:24Z</time></trkpt><trkpt lat="39.9220674578" lon="3.0509763770"><ele>42.44</ele><time>2014-08-31T08:42:26Z</time></trkpt><trkpt lat="39.9220810365" lon="3.0509677436"><ele>44.84</ele><time>2014-08-31T08:42:29Z</time></trkpt><trkpt lat="39.9220810365" lon="3.0509677436"><ele>43.88</ele><time>2014-08-31T08:42:30Z</time></trkpt><trkpt lat="39.9220925197" lon="3.0509206373"><ele>45.32</ele><time>2014-08-31T08:42:36Z</time></trkpt><trkpt lat="39.9220956210" lon="3.0508994311"><ele>46.28</ele><time>2014-08-31T08:42:38Z</time></trkpt><trkpt lat="39.9220983032" lon="3.0508912168"><ele>46.76</ele><time>2014-08-31T08:42:40Z</time></trkpt><trkpt lat="39.9221273046" lon="3.0508605391"><ele>48.20</ele><time>2014-08-31T08:42:53Z</time></trkpt><trkpt lat="39.9221250415" lon="3.0508700106"><ele>48.20</ele><time>2014-08-31T08:43:03Z</time></trkpt><trkpt lat="39.9221317470" lon="3.0508855172"><ele>47.72</ele><time>2014-08-31T08:43:06Z</time></trkpt><trkpt lat="39.9221498519" lon="3.0508928932"><ele>47.24</ele><time>2014-08-31T08:43:10Z</time></trkpt><trkpt lat="39.9221145641" lon="3.0508664064"><ele>48.68</ele><time>2014-08-31T08:43:15Z</time></trkpt><trkpt lat="39.9220998958" lon="3.0508329626"><ele>48.20</ele><time>2014-08-31T08:43:19Z</time></trkpt><trkpt lat="39.9221245386" lon="3.0507793184"><ele>50.13</ele><time>2014-08-31T08:43:29Z</time></trkpt><trkpt lat="39.9221254606" lon="3.0507580284"><ele>50.61</ele><time>2014-08-31T08:43:40Z</time></trkpt><trkpt lat="39.9221310765" lon="3.0507447850"><ele>50.61</ele><time>2014-08-31T08:43:58Z</time></trkpt><trkpt lat="39.9221310765" lon="3.0507447850"><ele>50.61</ele><time>2014-08-31T08:44:16Z</time></trkpt><trkpt lat="39.9221336748" lon="3.0507374927"><ele>52.05</ele><time>2014-08-31T08:44:39Z</time></trkpt><trkpt lat="39.9221309088" lon="3.0507376604"><ele>46.28</ele><time>2014-08-31T08:44:40Z</time></trkpt><trkpt lat="39.9221044220" lon="3.0507288594"><ele>59.74</ele><time>2014-08-31T08:44:43Z</time></trkpt><trkpt lat="39.9220969621" lon="3.0507215671"><ele>50.13</ele><time>2014-08-31T08:44:44Z</time></trkpt><trkpt lat="39.9220898375" lon="3.0507146940"><ele>53.97</ele><time>2014-08-31T08:44:45Z</time></trkpt><trkpt lat="39.9220898375" lon="3.0507146940"><ele>51.09</ele><time>2014-08-31T08:44:57Z</time></trkpt><trkpt lat="39.9220984709" lon="3.0507229920"><ele>51.09</ele><time>2014-08-31T08:45:16Z</time></trkpt><trkpt lat="39.9220984709" lon="3.0507229920"><ele>54.45</ele><time>2014-08-31T08:45:17Z</time></trkpt><trkpt lat="39.9220984709" lon="3.0507229920"><ele>51.57</ele><time>2014-08-31T08:45:18Z</time></trkpt><trkpt lat="39.9220984709" lon="3.0507229920"><ele>51.09</ele><time>2014-08-31T08:45:41Z</time></trkpt><trkpt lat="39.9221327528" lon="3.0507579446"><ele>46.76</ele><time>2014-08-31T08:45:52Z</time></trkpt><trkpt lat="39.9221310765" lon="3.0507614650"><ele>52.05</ele><time>2014-08-31T08:45:54Z</time></trkpt><trkpt lat="39.9221251253" lon="3.0507665779"><ele>51.57</ele><time>2014-08-31T08:45:57Z</time></trkpt><trkpt lat="39.9221209344" lon="3.0507819168"><ele>53.49</ele><time>2014-08-31T08:45:59Z</time></trkpt><trkpt lat="39.9221196771" lon="3.0507949926"><ele>50.61</ele><time>2014-08-31T08:46:00Z</time></trkpt><trkpt lat="39.9221196771" lon="3.0507949926"><ele>46.28</ele><time>2014-08-31T08:46:02Z</time></trkpt><trkpt lat="39.9221196771" lon="3.0507949926"><ele>49.65</ele><time>2014-08-31T08:46:03Z</time></trkpt><trkpt lat="39.9221266340" lon="3.0508381594"><ele>48.20</ele><time>2014-08-31T08:46:07Z</time></trkpt><trkpt lat="39.9221066013" lon="3.0508579407"><ele>47.24</ele><time>2014-08-31T08:46:09Z</time></trkpt><trkpt lat="39.9221084453" lon="3.0509331264"><ele>45.32</ele><time>2014-08-31T08:46:16Z</time></trkpt><trkpt lat="39.9220777676" lon="3.0509802327"><ele>43.40</ele><time>2014-08-31T08:46:23Z</time></trkpt><trkpt lat="39.9220563937" lon="3.0509859324"><ele>40.51</ele><time>2014-08-31T08:46:25Z</time></trkpt><trkpt lat="39.9220593274" lon="3.0510115810"><ele>43.88</ele><time>2014-08-31T08:46:30Z</time></trkpt><trkpt lat="39.9220654462" lon="3.0510426778"><ele>43.40</ele><time>2014-08-31T08:46:33Z</time></trkpt><trkpt lat="39.9220203515" lon="3.0511443503"><ele>36.19</ele><time>2014-08-31T08:46:41Z</time></trkpt><trkpt lat="39.9220189266" lon="3.0511483736"><ele>39.07</ele><time>2014-08-31T08:46:42Z</time></trkpt><trkpt lat="39.9221201800" lon="3.0511260778"><ele>41.95</ele><time>2014-08-31T08:46:51Z</time></trkpt><trkpt lat="39.9221596587" lon="3.0511170253"><ele>41.47</ele><time>2014-08-31T08:46:57Z</time></trkpt><trkpt lat="39.9221959524" lon="3.0511156004"><ele>42.44</ele><time>2014-08-31T08:47:01Z</time></trkpt><trkpt lat="39.9223250337" lon="3.0511014350"><ele>45.80</ele><time>2014-08-31T08:47:12Z</time></trkpt><trkpt lat="39.9223309848" lon="3.0511013512"><ele>42.44</ele><time>2014-08-31T08:47:13Z</time></trkpt><trkpt lat="39.9224222638" lon="3.0510645546"><ele>42.92</ele><time>2014-08-31T08:47:25Z</time></trkpt><trkpt lat="39.9224660173" lon="3.0510408338"><ele>40.03</ele><time>2014-08-31T08:47:28Z</time></trkpt><trkpt lat="39.9224780034" lon="3.0510385707"><ele>40.03</ele><time>2014-08-31T08:47:29Z</time></trkpt><trkpt lat="39.9224886484" lon="3.0510364752"><ele>42.92</ele><time>2014-08-31T08:47:30Z</time></trkpt><trkpt lat="39.9225391075" lon="3.0510434322"><ele>42.92</ele><time>2014-08-31T08:47:35Z</time></trkpt><trkpt lat="39.9225969426" lon="3.0510874372"><ele>43.40</ele><time>2014-08-31T08:47:41Z</time></trkpt><trkpt lat="39.9226728827" lon="3.0512026884"><ele>43.88</ele><time>2014-08-31T08:47:50Z</time></trkpt><trkpt lat="39.9227098469" lon="3.0512694921"><ele>44.36</ele><time>2014-08-31T08:47:56Z</time></trkpt><trkpt lat="39.9227423687" lon="3.0513196997"><ele>44.36</ele><time>2014-08-31T08:47:59Z</time></trkpt><trkpt lat="39.9227527622" lon="3.0513455160"><ele>44.36</ele><time>2014-08-31T08:48:02Z</time></trkpt><trkpt lat="39.9227955099" lon="3.0513942987"><ele>44.84</ele><time>2014-08-31T08:48:06Z</time></trkpt><trkpt lat="39.9228294566" lon="3.0514394771"><ele>44.84</ele><time>2014-08-31T08:48:11Z</time></trkpt><trkpt lat="39.9228668399" lon="3.0514872540"><ele>44.36</ele><time>2014-08-31T08:48:16Z</time></trkpt><trkpt lat="39.9228622299" lon="3.0514846556"><ele>44.84</ele><time>2014-08-31T08:48:18Z</time></trkpt><trkpt lat="39.9229654949" lon="3.0516420677"><ele>45.32</ele><time>2014-08-31T08:48:32Z</time></trkpt><trkpt lat="39.9230420217" lon="3.0517551396"><ele>44.84</ele><time>2014-08-31T08:48:40Z</time></trkpt><trkpt lat="39.9230623059" lon="3.0518098734"><ele>44.84</ele><time>2014-08-31T08:48:44Z</time></trkpt><trkpt lat="39.9231046345" lon="3.0518661160"><ele>45.32</ele><time>2014-08-31T08:48:49Z</time></trkpt><trkpt lat="39.9231965002" lon="3.0519764218"><ele>45.80</ele><time>2014-08-31T08:49:00Z</time></trkpt><trkpt lat="39.9232402537" lon="3.0520185828"><ele>45.80</ele><time>2014-08-31T08:49:05Z</time></trkpt><trkpt lat="39.9233838357" lon="3.0520366039"><ele>45.80</ele><time>2014-08-31T08:49:16Z</time></trkpt><trkpt lat="39.9235007633" lon="3.0519707222"><ele>46.28</ele><time>2014-08-31T08:49:25Z</time></trkpt><trkpt lat="39.9235104024" lon="3.0519581493"><ele>45.80</ele><time>2014-08-31T08:49:27Z</time></trkpt><trkpt lat="39.9235533178" lon="3.0519003980"><ele>46.76</ele><time>2014-08-31T08:49:33Z</time></trkpt><trkpt lat="39.9236023519" lon="3.0518211052"><ele>46.76</ele><time>2014-08-31T08:49:40Z</time></trkpt><trkpt lat="39.9236443453" lon="3.0517568160"><ele>46.76</ele><time>2014-08-31T08:49:45Z</time></trkpt><trkpt lat="39.9236984085" lon="3.0516832229"><ele>47.24</ele><time>2014-08-31T08:49:52Z</time></trkpt><trkpt lat="39.9237364624" lon="3.0516636092"><ele>47.24</ele><time>2014-08-31T08:49:56Z</time></trkpt><trkpt lat="39.9237929564" lon="3.0516732484"><ele>46.28</ele><time>2014-08-31T08:50:01Z</time></trkpt><trkpt lat="39.9238413200" lon="3.0516762659"><ele>47.24</ele><time>2014-08-31T08:50:07Z</time></trkpt><trkpt lat="39.9239319284" lon="3.0517631024"><ele>47.24</ele><time>2014-08-31T08:50:16Z</time></trkpt><trkpt lat="39.9239871651" lon="3.0518076941"><ele>47.72</ele><time>2014-08-31T08:50:23Z</time></trkpt><trkpt lat="39.9240460061" lon="3.0518589914"><ele>47.72</ele><time>2014-08-31T08:50:29Z</time></trkpt><trkpt lat="39.9241154920" lon="3.0518826284"><ele>48.20</ele><time>2014-08-31T08:50:35Z</time></trkpt><trkpt lat="39.9241845589" lon="3.0518708937"><ele>48.20</ele><time>2014-08-31T08:50:41Z</time></trkpt><trkpt lat="39.9243212678" lon="3.0518720672"><ele>48.20</ele><time>2014-08-31T08:50:51Z</time></trkpt><trkpt lat="39.9244007282" lon="3.0518655293"><ele>47.72</ele><time>2014-08-31T08:50:57Z</time></trkpt><trkpt lat="39.9244948570" lon="3.0518611707"><ele>49.65</ele><time>2014-08-31T08:51:06Z</time></trkpt><trkpt lat="39.9245550390" lon="3.0518496037"><ele>48.20</ele><time>2014-08-31T08:51:12Z</time></trkpt><trkpt lat="39.9247125350" lon="3.0518274754"><ele>49.16</ele><time>2014-08-31T08:51:22Z</time></trkpt><trkpt lat="39.9247182347" lon="3.0518287327"><ele>48.68</ele><time>2014-08-31T08:51:24Z</time></trkpt><trkpt lat="39.9247210845" lon="3.0518189259"><ele>50.13</ele><time>2014-08-31T08:51:33Z</time></trkpt><trkpt lat="39.9247403629" lon="3.0518148188"><ele>49.16</ele><time>2014-08-31T08:51:36Z</time></trkpt><trkpt lat="39.9247846194" lon="3.0517919362"><ele>49.16</ele><time>2014-08-31T08:51:40Z</time></trkpt><trkpt lat="39.9248448852" lon="3.0517199356"><ele>49.16</ele><time>2014-08-31T08:51:46Z</time></trkpt><trkpt lat="39.9248733837" lon="3.0516508687"><ele>49.65</ele><time>2014-08-31T08:51:53Z</time></trkpt><trkpt lat="39.9249423668" lon="3.0514938757"><ele>50.13</ele><time>2014-08-31T08:52:03Z</time></trkpt><trkpt lat="39.9249494914" lon="3.0514880084"><ele>50.61</ele><time>2014-08-31T08:52:04Z</time></trkpt><trkpt lat="39.9249851983" lon="3.0514771957"><ele>49.65</ele><time>2014-08-31T08:52:07Z</time></trkpt><trkpt lat="39.9250051472" lon="3.0514678918"><ele>50.61</ele><time>2014-08-31T08:52:09Z</time></trkpt><trkpt lat="39.9250781536" lon="3.0514523853"><ele>50.61</ele><time>2014-08-31T08:52:15Z</time></trkpt><trkpt lat="39.9251608830" lon="3.0513338652"><ele>52.05</ele><time>2014-08-31T08:52:25Z</time></trkpt><trkpt lat="39.9251785688" lon="3.0513050314"><ele>49.16</ele><time>2014-08-31T08:52:27Z</time></trkpt><trkpt lat="39.9251889624" lon="3.0512643792"><ele>52.53</ele><time>2014-08-31T08:52:30Z</time></trkpt><trkpt lat="39.9252093304" lon="3.0511939712"><ele>52.05</ele><time>2014-08-31T08:52:35Z</time></trkpt><trkpt lat="39.9252219032" lon="3.0511494633"><ele>49.16</ele><time>2014-08-31T08:52:38Z</time></trkpt><trkpt lat="39.9252359010" lon="3.0511261616"><ele>52.53</ele><time>2014-08-31T08:52:40Z</time></trkpt><trkpt lat="39.9252679199" lon="3.0510867666"><ele>50.13</ele><time>2014-08-31T08:52:44Z</time></trkpt><trkpt lat="39.9252745416" lon="3.0510801449"><ele>52.53</ele><time>2014-08-31T08:52:45Z</time></trkpt><trkpt lat="39.9252883717" lon="3.0510591064"><ele>52.53</ele><time>2014-08-31T08:52:47Z</time></trkpt><trkpt lat="39.9253004417" lon="3.0510468688"><ele>50.13</ele><time>2014-08-31T08:52:49Z</time></trkpt><trkpt lat="39.9253275990" lon="3.0510159396"><ele>53.01</ele><time>2014-08-31T08:52:52Z</time></trkpt><trkpt lat="39.9253470451" lon="3.0509916320"><ele>49.65</ele><time>2014-08-31T08:52:54Z</time></trkpt><trkpt lat="39.9253626354" lon="3.0509704258"><ele>53.01</ele><time>2014-08-31T08:52:56Z</time></trkpt><trkpt lat="39.9253948219" lon="3.0509166140"><ele>50.13</ele><time>2014-08-31T08:53:00Z</time></trkpt><trkpt lat="39.9253997672" lon="3.0509094056"><ele>51.57</ele><time>2014-08-31T08:53:01Z</time></trkpt><trkpt lat="39.9254499748" lon="3.0508208927"><ele>51.09</ele><time>2014-08-31T08:53:07Z</time></trkpt><trkpt lat="39.9254544172" lon="3.0507915560"><ele>54.93</ele><time>2014-08-31T08:53:09Z</time></trkpt><trkpt lat="39.9254518189" lon="3.0507269315"><ele>49.65</ele><time>2014-08-31T08:53:13Z</time></trkpt><trkpt lat="39.9254514836" lon="3.0507136881"><ele>52.05</ele><time>2014-08-31T08:53:14Z</time></trkpt><trkpt lat="39.9254363123" lon="3.0506326351"><ele>50.61</ele><time>2014-08-31T08:53:19Z</time></trkpt><trkpt lat="39.9254344683" lon="3.0506181344"><ele>51.09</ele><time>2014-08-31T08:53:20Z</time></trkpt><trkpt lat="39.9254328758" lon="3.0505836010"><ele>54.45</ele><time>2014-08-31T08:53:22Z</time></trkpt><trkpt lat="39.9254333787" lon="3.0505650770"><ele>54.45</ele><time>2014-08-31T08:53:23Z</time></trkpt><trkpt lat="39.9254231527" lon="3.0505207367"><ele>51.09</ele><time>2014-08-31T08:53:26Z</time></trkpt><trkpt lat="39.9254230689" lon="3.0505062360"><ele>53.01</ele><time>2014-08-31T08:53:27Z</time></trkpt><trkpt lat="39.9254180398" lon="3.0504752230"><ele>54.93</ele><time>2014-08-31T08:53:29Z</time></trkpt><trkpt lat="39.9254155252" lon="3.0504495744"><ele>47.24</ele><time>2014-08-31T08:53:31Z</time></trkpt><trkpt lat="39.9254155252" lon="3.0504344031"><ele>51.09</ele><time>2014-08-31T08:53:32Z</time></trkpt><trkpt lat="39.9254121725" lon="3.0504219979"><ele>54.45</ele><time>2014-08-31T08:53:33Z</time></trkpt><trkpt lat="39.9254068919" lon="3.0504037254"><ele>53.97</ele><time>2014-08-31T08:53:34Z</time></trkpt><trkpt lat="39.9253927264" lon="3.0503452197"><ele>50.61</ele><time>2014-08-31T08:53:38Z</time></trkpt><trkpt lat="39.9253900442" lon="3.0503350776"><ele>53.49</ele><time>2014-08-31T08:53:39Z</time></trkpt><trkpt lat="39.9253695086" lon="3.0502867978"><ele>52.53</ele><time>2014-08-31T08:53:43Z</time></trkpt><trkpt lat="39.9253624678" lon="3.0502731353"><ele>53.49</ele><time>2014-08-31T08:53:44Z</time></trkpt><trkpt lat="39.9253519904" lon="3.0502421223"><ele>56.86</ele><time>2014-08-31T08:53:46Z</time></trkpt><trkpt lat="39.9253410101" lon="3.0502148811"><ele>51.57</ele><time>2014-08-31T08:53:48Z</time></trkpt><trkpt lat="39.9253336340" lon="3.0502001289"><ele>52.53</ele><time>2014-08-31T08:53:49Z</time></trkpt><trkpt lat="39.9253048841" lon="3.0501515977"><ele>56.86</ele><time>2014-08-31T08:53:53Z</time></trkpt><trkpt lat="39.9252809118" lon="3.0501181539"><ele>51.57</ele><time>2014-08-31T08:53:56Z</time></trkpt><trkpt lat="39.9252759665" lon="3.0501072574"><ele>52.53</ele><time>2014-08-31T08:53:57Z</time></trkpt><trkpt lat="39.9252402596" lon="3.0500467401"><ele>52.53</ele><time>2014-08-31T08:54:02Z</time></trkpt><trkpt lat="39.9252331350" lon="3.0500358436"><ele>53.01</ele><time>2014-08-31T08:54:03Z</time></trkpt><trkpt lat="39.9252165388" lon="3.0500122067"><ele>57.82</ele><time>2014-08-31T08:54:05Z</time></trkpt><trkpt lat="39.9252053071" lon="3.0499666929"><ele>51.57</ele><time>2014-08-31T08:54:08Z</time></trkpt><trkpt lat="39.9252011161" lon="3.0499552097"><ele>54.45</ele><time>2014-08-31T08:54:09Z</time></trkpt><trkpt lat="39.9251890462" lon="3.0499300640"><ele>55.41</ele><time>2014-08-31T08:54:11Z</time></trkpt><trkpt lat="39.9251468852" lon="3.0498330854"><ele>54.45</ele><time>2014-08-31T08:54:19Z</time></trkpt><trkpt lat="39.9251354858" lon="3.0497739930"><ele>52.53</ele><time>2014-08-31T08:54:23Z</time></trkpt><trkpt lat="39.9251239188" lon="3.0497460812"><ele>57.34</ele><time>2014-08-31T08:54:25Z</time></trkpt><trkpt lat="39.9251107592" lon="3.0497059319"><ele>54.93</ele><time>2014-08-31T08:54:28Z</time></trkpt><trkpt lat="39.9251022097" lon="3.0496588256"><ele>58.78</ele><time>2014-08-31T08:54:31Z</time></trkpt><trkpt lat="39.9251027126" lon="3.0496397987"><ele>54.93</ele><time>2014-08-31T08:54:33Z</time></trkpt><trkpt lat="39.9250966776" lon="3.0496124737"><ele>56.86</ele><time>2014-08-31T08:54:36Z</time></trkpt><trkpt lat="39.9250966776" lon="3.0496124737"><ele>53.49</ele><time>2014-08-31T08:54:41Z</time></trkpt><trkpt lat="39.9250922352" lon="3.0495968834"><ele>54.93</ele><time>2014-08-31T08:54:42Z</time></trkpt><trkpt lat="39.9250936601" lon="3.0495626852"><ele>57.34</ele><time>2014-08-31T08:54:44Z</time></trkpt><trkpt lat="39.9250969291" lon="3.0494802911"><ele>55.41</ele><time>2014-08-31T08:54:49Z</time></trkpt><trkpt lat="39.9251057301" lon="3.0494490266"><ele>59.26</ele><time>2014-08-31T08:54:51Z</time></trkpt><trkpt lat="39.9251126871" lon="3.0494327657"><ele>57.82</ele><time>2014-08-31T08:54:52Z</time></trkpt><trkpt lat="39.9251215719" lon="3.0494078714"><ele>55.41</ele><time>2014-08-31T08:54:54Z</time></trkpt><trkpt lat="39.9251276907" lon="3.0493959691"><ele>57.34</ele><time>2014-08-31T08:54:56Z</time></trkpt><trkpt lat="39.9251378328" lon="3.0493953824"><ele>60.70</ele><time>2014-08-31T08:55:02Z</time></trkpt><trkpt lat="39.9251566920" lon="3.0493973941"><ele>53.97</ele><time>2014-08-31T08:55:04Z</time></trkpt><trkpt lat="39.9251775630" lon="3.0494111404"><ele>58.30</ele><time>2014-08-31T08:55:06Z</time></trkpt><trkpt lat="39.9252096657" lon="3.0494398903"><ele>55.41</ele><time>2014-08-31T08:55:09Z</time></trkpt><trkpt lat="39.9252156168" lon="3.0494488589"><ele>54.93</ele><time>2014-08-31T08:55:10Z</time></trkpt><trkpt lat="39.9252364039" lon="3.0494919419"><ele>60.22</ele><time>2014-08-31T08:55:13Z</time></trkpt><trkpt lat="39.9252521619" lon="3.0495239608"><ele>55.41</ele><time>2014-08-31T08:55:15Z</time></trkpt><trkpt lat="39.9252706859" lon="3.0495611764"><ele>59.74</ele><time>2014-08-31T08:55:18Z</time></trkpt><trkpt lat="39.9252786487" lon="3.0495762639"><ele>58.78</ele><time>2014-08-31T08:55:19Z</time></trkpt><trkpt lat="39.9252976757" lon="3.0496022478"><ele>53.97</ele><time>2014-08-31T08:55:21Z</time></trkpt><trkpt lat="39.9253042135" lon="3.0496117193"><ele>56.37</ele><time>2014-08-31T08:55:22Z</time></trkpt><trkpt lat="39.9253307004" lon="3.0496483482"><ele>60.70</ele><time>2014-08-31T08:55:25Z</time></trkpt><trkpt lat="39.9253512360" lon="3.0496829655"><ele>56.86</ele><time>2014-08-31T08:55:27Z</time></trkpt><trkpt lat="39.9253621325" lon="3.0496903416"><ele>56.86</ele><time>2014-08-31T08:55:28Z</time></trkpt><trkpt lat="39.9253736995" lon="3.0497029983"><ele>57.82</ele><time>2014-08-31T08:55:31Z</time></trkpt><trkpt lat="39.9254710972" lon="3.0498226080"><ele>58.30</ele><time>2014-08-31T08:55:41Z</time></trkpt><trkpt lat="39.9255708419" lon="3.0499033257"><ele>58.78</ele><time>2014-08-31T08:55:51Z</time></trkpt><trkpt lat="39.9256835785" lon="3.0499837920"><ele>58.78</ele><time>2014-08-31T08:56:00Z</time></trkpt><trkpt lat="39.9257516395" lon="3.0500485003"><ele>59.26</ele><time>2014-08-31T08:56:08Z</time></trkpt><trkpt lat="39.9257977400" lon="3.0500971992"><ele>59.26</ele><time>2014-08-31T08:56:13Z</time></trkpt><trkpt lat="39.9258450139" lon="3.0501536094"><ele>60.22</ele><time>2014-08-31T08:56:18Z</time></trkpt><trkpt lat="39.9258902762" lon="3.0501938425"><ele>60.22</ele><time>2014-08-31T08:56:23Z</time></trkpt><trkpt lat="39.9259311799" lon="3.0502422899"><ele>60.70</ele><time>2014-08-31T08:56:28Z</time></trkpt><trkpt lat="39.9259974808" lon="3.0503378436"><ele>60.70</ele><time>2014-08-31T08:56:37Z</time></trkpt><trkpt lat="39.9260719959" lon="3.0504319724"><ele>61.18</ele><time>2014-08-31T08:56:46Z</time></trkpt><trkpt lat="39.9261694774" lon="3.0504983570"><ele>60.70</ele><time>2014-08-31T08:56:54Z</time></trkpt><trkpt lat="39.9261955451" lon="3.0505029671"><ele>60.70</ele><time>2014-08-31T08:56:57Z</time></trkpt><trkpt lat="39.9262742512" lon="3.0504935794"><ele>61.18</ele><time>2014-08-31T08:57:04Z</time></trkpt><trkpt lat="39.9263255484" lon="3.0504471436"><ele>61.66</ele><time>2014-08-31T08:57:09Z</time></trkpt><trkpt lat="39.9264171626" lon="3.0503265280"><ele>62.14</ele><time>2014-08-31T08:57:20Z</time></trkpt><trkpt lat="39.9264789373" lon="3.0502005480"><ele>62.62</ele><time>2014-08-31T08:57:30Z</time></trkpt><trkpt lat="39.9264963716" lon="3.0501375999"><ele>63.58</ele><time>2014-08-31T08:57:35Z</time></trkpt><trkpt lat="39.9265061785" lon="3.0500723049"><ele>63.58</ele><time>2014-08-31T08:57:40Z</time></trkpt><trkpt lat="39.9265262950" lon="3.0499215145"><ele>64.55</ele><time>2014-08-31T08:57:50Z</time></trkpt><trkpt lat="39.9265540391" lon="3.0497896671"><ele>65.51</ele><time>2014-08-31T08:57:59Z</time></trkpt><trkpt lat="39.9265547097" lon="3.0497817043"><ele>65.51</ele><time>2014-08-31T08:58:00Z</time></trkpt><trkpt lat="39.9265640974" lon="3.0497066025"><ele>65.99</ele><time>2014-08-31T08:58:05Z</time></trkpt><trkpt lat="39.9265866447" lon="3.0496411398"><ele>65.99</ele><time>2014-08-31T08:58:10Z</time></trkpt><trkpt lat="39.9266578909" lon="3.0496092886"><ele>66.47</ele><time>2014-08-31T08:58:19Z</time></trkpt><trkpt lat="39.9267693702" lon="3.0496965442"><ele>66.47</ele><time>2014-08-31T08:58:30Z</time></trkpt><trkpt lat="39.9268377665" lon="3.0497691315"><ele>66.47</ele><time>2014-08-31T08:58:37Z</time></trkpt><trkpt lat="39.9268746469" lon="3.0498159863"><ele>65.99</ele><time>2014-08-31T08:58:43Z</time></trkpt><trkpt lat="39.9269358348" lon="3.0499638431"><ele>66.47</ele><time>2014-08-31T08:58:53Z</time></trkpt><trkpt lat="39.9269378465" lon="3.0499747396"><ele>66.47</ele><time>2014-08-31T08:58:56Z</time></trkpt><trkpt lat="39.9269361701" lon="3.0500765797"><ele>66.47</ele><time>2014-08-31T08:59:02Z</time></trkpt><trkpt lat="39.9269442167" lon="3.0501653440"><ele>66.95</ele><time>2014-08-31T08:59:08Z</time></trkpt><trkpt lat="39.9269265309" lon="3.0503178947"><ele>66.95</ele><time>2014-08-31T08:59:18Z</time></trkpt><trkpt lat="39.9269237649" lon="3.0503273662"><ele>66.95</ele><time>2014-08-31T08:59:19Z</time></trkpt><trkpt lat="39.9269235134" lon="3.0503687728"><ele>66.95</ele><time>2014-08-31T08:59:22Z</time></trkpt><trkpt lat="39.9269141257" lon="3.0504059885"><ele>66.95</ele><time>2014-08-31T08:59:25Z</time></trkpt><trkpt lat="39.9269179814" lon="3.0505556893"><ele>67.43</ele><time>2014-08-31T08:59:35Z</time></trkpt><trkpt lat="39.9269127846" lon="3.0506681744"><ele>68.39</ele><time>2014-08-31T08:59:44Z</time></trkpt><trkpt lat="39.9269116111" lon="3.0507336371"><ele>68.39</ele><time>2014-08-31T08:59:48Z</time></trkpt><trkpt lat="39.9269169755" lon="3.0508112535"><ele>68.39</ele><time>2014-08-31T08:59:53Z</time></trkpt><trkpt lat="39.9269367568" lon="3.0508964974"><ele>68.39</ele><time>2014-08-31T08:59:59Z</time></trkpt><trkpt lat="39.9269715417" lon="3.0510570947"><ele>69.35</ele><time>2014-08-31T09:00:09Z</time></trkpt><trkpt lat="39.9270309694" lon="3.0511727650"><ele>70.79</ele><time>2014-08-31T09:00:19Z</time></trkpt><trkpt lat="39.9270693585" lon="3.0512217991"><ele>70.31</ele><time>2014-08-31T09:00:24Z</time></trkpt><trkpt lat="39.9271112680" lon="3.0512776226"><ele>70.79</ele><time>2014-08-31T09:00:29Z</time></trkpt><trkpt lat="39.9271644093" lon="3.0513399001"><ele>71.27</ele><time>2014-08-31T09:00:36Z</time></trkpt><trkpt lat="39.9271798320" lon="3.0513667222"><ele>71.27</ele><time>2014-08-31T09:00:39Z</time></trkpt><trkpt lat="39.9272221606" lon="3.0514323525"><ele>71.76</ele><time>2014-08-31T09:00:44Z</time></trkpt><trkpt lat="39.9272654112" lon="3.0514833983"><ele>72.24</ele><time>2014-08-31T09:00:49Z</time></trkpt><trkpt lat="39.9273221567" lon="3.0515864957"><ele>73.20</ele><time>2014-08-31T09:00:59Z</time></trkpt><trkpt lat="39.9273681734" lon="3.0516279023"><ele>73.20</ele><time>2014-08-31T09:01:04Z</time></trkpt><trkpt lat="39.9273996055" lon="3.0516685545"><ele>73.68</ele><time>2014-08-31T09:01:08Z</time></trkpt><trkpt lat="39.9274270143" lon="3.0517185945"><ele>74.16</ele><time>2014-08-31T09:01:13Z</time></trkpt><trkpt lat="39.9274722766" lon="3.0517729092"><ele>74.64</ele><time>2014-08-31T09:01:18Z</time></trkpt><trkpt lat="39.9275548384" lon="3.0518929381"><ele>75.12</ele><time>2014-08-31T09:01:30Z</time></trkpt><trkpt lat="39.9275621306" lon="3.0519148987"><ele>75.12</ele><time>2014-08-31T09:01:32Z</time></trkpt><trkpt lat="39.9276367296" lon="3.0519922636"><ele>75.60</ele><time>2014-08-31T09:01:41Z</time></trkpt><trkpt lat="39.9277005158" lon="3.0521018989"><ele>77.04</ele><time>2014-08-31T09:01:52Z</time></trkpt><trkpt lat="39.9277680740" lon="3.0521930940"><ele>77.04</ele><time>2014-08-31T09:02:00Z</time></trkpt><trkpt lat="39.9278084747" lon="3.0522472411"><ele>77.52</ele><time>2014-08-31T09:02:05Z</time></trkpt><trkpt lat="39.9278808944" lon="3.0523279589"><ele>78.00</ele><time>2014-08-31T09:02:15Z</time></trkpt><trkpt lat="39.9279646296" lon="3.0524211656"><ele>78.00</ele><time>2014-08-31T09:02:24Z</time></trkpt><trkpt lat="39.9280095566" lon="3.0524683557"><ele>78.48</ele><time>2014-08-31T09:02:30Z</time></trkpt><trkpt lat="39.9280512147" lon="3.0525252689"><ele>78.48</ele><time>2014-08-31T09:02:35Z</time></trkpt><trkpt lat="39.9281334411" lon="3.0526115187"><ele>79.45</ele><time>2014-08-31T09:02:44Z</time></trkpt><trkpt lat="39.9281460978" lon="3.0526287016"><ele>79.93</ele><time>2014-08-31T09:02:46Z</time></trkpt><trkpt lat="39.9281895999" lon="3.0526626483"><ele>79.45</ele><time>2014-08-31T09:02:51Z</time></trkpt><trkpt lat="39.9282261450" lon="3.0527112633"><ele>79.45</ele><time>2014-08-31T09:02:56Z</time></trkpt><trkpt lat="39.9282701500" lon="3.0527633987"><ele>80.41</ele><time>2014-08-31T09:03:01Z</time></trkpt><trkpt lat="39.9283451680" lon="3.0528334714"><ele>80.41</ele><time>2014-08-31T09:03:10Z</time></trkpt><trkpt lat="39.9283793662" lon="3.0528806616"><ele>80.89</ele><time>2014-08-31T09:03:15Z</time></trkpt><trkpt lat="39.9284757581" lon="3.0529878661"><ele>80.89</ele><time>2014-08-31T09:03:26Z</time></trkpt><trkpt lat="39.9285021611" lon="3.0530079827"><ele>81.37</ele><time>2014-08-31T09:03:29Z</time></trkpt><trkpt lat="39.9285812024" lon="3.0531119183"><ele>82.33</ele><time>2014-08-31T09:03:40Z</time></trkpt><trkpt lat="39.9286416359" lon="3.0532028619"><ele>81.85</ele><time>2014-08-31T09:03:48Z</time></trkpt><trkpt lat="39.9286789354" lon="3.0532342941"><ele>82.33</ele><time>2014-08-31T09:03:52Z</time></trkpt><trkpt lat="39.9287655205" lon="3.0533053726"><ele>83.29</ele><time>2014-08-31T09:04:01Z</time></trkpt><trkpt lat="39.9287957791" lon="3.0533159338"><ele>83.29</ele><time>2014-08-31T09:04:05Z</time></trkpt><trkpt lat="39.9288966134" lon="3.0533988308"><ele>84.73</ele><time>2014-08-31T09:04:16Z</time></trkpt><trkpt lat="39.9289473239" lon="3.0534566659"><ele>84.25</ele><time>2014-08-31T09:04:23Z</time></trkpt><trkpt lat="39.9289789237" lon="3.0535028502"><ele>84.25</ele><time>2014-08-31T09:04:28Z</time></trkpt><trkpt lat="39.9290047400" lon="3.0535260681"><ele>84.73</ele><time>2014-08-31T09:04:30Z</time></trkpt><trkpt lat="39.9290219229" lon="3.0535476096"><ele>84.73</ele><time>2014-08-31T09:04:32Z</time></trkpt><trkpt lat="39.9290528521" lon="3.0535835680"><ele>84.73</ele><time>2014-08-31T09:04:37Z</time></trkpt><trkpt lat="39.9291557819" lon="3.0536569934"><ele>86.18</ele><time>2014-08-31T09:04:47Z</time></trkpt><trkpt lat="39.9291754793" lon="3.0536796246"><ele>85.69</ele><time>2014-08-31T09:04:50Z</time></trkpt><trkpt lat="39.9291992001" lon="3.0536997411"><ele>86.18</ele><time>2014-08-31T09:04:55Z</time></trkpt><trkpt lat="39.9292862881" lon="3.0537846498"><ele>86.66</ele><time>2014-08-31T09:05:04Z</time></trkpt><trkpt lat="39.9293862842" lon="3.0538833886"><ele>86.66</ele><time>2014-08-31T09:05:15Z</time></trkpt><trkpt lat="39.9294013716" lon="3.0538962968"><ele>86.66</ele><time>2014-08-31T09:05:17Z</time></trkpt><trkpt lat="39.9294287805" lon="3.0539154913"><ele>87.62</ele><time>2014-08-31T09:05:20Z</time></trkpt><trkpt lat="39.9294776469" lon="3.0539387092"><ele>90.98</ele><time>2014-08-31T09:05:26Z</time></trkpt><trkpt lat="39.9294838496" lon="3.0539442413"><ele>87.62</ele><time>2014-08-31T09:05:27Z</time></trkpt><trkpt lat="39.9295313749" lon="3.0539934430"><ele>88.58</ele><time>2014-08-31T09:05:33Z</time></trkpt><trkpt lat="39.9295835942" lon="3.0540518649"><ele>89.06</ele><time>2014-08-31T09:05:43Z</time></trkpt><trkpt lat="39.9296472128" lon="3.0540946964"><ele>89.06</ele><time>2014-08-31T09:05:51Z</time></trkpt><trkpt lat="39.9296739511" lon="3.0541000608"><ele>89.06</ele><time>2014-08-31T09:05:54Z</time></trkpt><trkpt lat="39.9297158606" lon="3.0541160703"><ele>90.02</ele><time>2014-08-31T09:06:01Z</time></trkpt><trkpt lat="39.9297467060" lon="3.0541191716"><ele>90.02</ele><time>2014-08-31T09:06:04Z</time></trkpt><trkpt lat="39.9297954049" lon="3.0541340075"><ele>90.02</ele><time>2014-08-31T09:06:08Z</time></trkpt><trkpt lat="39.9298093189" lon="3.0541494302"><ele>90.02</ele><time>2014-08-31T09:06:12Z</time></trkpt><trkpt lat="39.9298286811" lon="3.0541723128"><ele>90.02</ele><time>2014-08-31T09:06:16Z</time></trkpt><trkpt lat="39.9298260827" lon="3.0542189162"><ele>88.58</ele><time>2014-08-31T09:06:27Z</time></trkpt><trkpt lat="39.9298341293" lon="3.0542785116"><ele>86.66</ele><time>2014-08-31T09:06:37Z</time></trkpt><trkpt lat="39.9298484623" lon="3.0543306470"><ele>85.21</ele><time>2014-08-31T09:06:47Z</time></trkpt><trkpt lat="39.9298461154" lon="3.0543492548"><ele>85.21</ele><time>2014-08-31T09:06:49Z</time></trkpt><trkpt lat="39.9298694171" lon="3.0544502567"><ele>83.77</ele><time>2014-08-31T09:07:00Z</time></trkpt><trkpt lat="39.9298713449" lon="3.0544932559"><ele>82.33</ele><time>2014-08-31T09:07:13Z</time></trkpt><trkpt lat="39.9298760388" lon="3.0545144621"><ele>81.85</ele><time>2014-08-31T09:07:16Z</time></trkpt><trkpt lat="39.9298845045" lon="3.0545509234"><ele>81.37</ele><time>2014-08-31T09:07:19Z</time></trkpt><trkpt lat="39.9299005978" lon="3.0545960180"><ele>80.89</ele><time>2014-08-31T09:07:24Z</time></trkpt><trkpt lat="39.9298774637" lon="3.0546363350"><ele>80.41</ele><time>2014-08-31T09:07:29Z</time></trkpt><trkpt lat="39.9298689980" lon="3.0546895601"><ele>80.89</ele><time>2014-08-31T09:07:32Z</time></trkpt><trkpt lat="39.9298237357" lon="3.0547592137"><ele>80.41</ele><time>2014-08-31T09:07:40Z</time></trkpt><trkpt lat="39.9298384041" lon="3.0548038054"><ele>80.41</ele><time>2014-08-31T09:07:45Z</time></trkpt><trkpt lat="39.9298306927" lon="3.0548290350"><ele>79.45</ele><time>2014-08-31T09:07:47Z</time></trkpt><trkpt lat="39.9298271723" lon="3.0548520852"><ele>80.41</ele><time>2014-08-31T09:07:49Z</time></trkpt><trkpt lat="39.9298565090" lon="3.0548815057"><ele>79.45</ele><time>2014-08-31T09:07:52Z</time></trkpt><trkpt lat="39.9298999272" lon="3.0549846031"><ele>79.93</ele><time>2014-08-31T09:08:02Z</time></trkpt><trkpt lat="39.9299034476" lon="3.0549904704"><ele>79.93</ele><time>2014-08-31T09:08:03Z</time></trkpt><trkpt lat="39.9299072195" lon="3.0550738703"><ele>80.41</ele><time>2014-08-31T09:08:11Z</time></trkpt><trkpt lat="39.9299291801" lon="3.0551265087"><ele>79.93</ele><time>2014-08-31T09:08:15Z</time></trkpt><trkpt lat="39.9299748614" lon="3.0551984254"><ele>79.45</ele><time>2014-08-31T09:08:24Z</time></trkpt><trkpt lat="39.9299940560" lon="3.0552618764"><ele>79.93</ele><time>2014-08-31T09:08:30Z</time></trkpt><trkpt lat="39.9300207943" lon="3.0552954040"><ele>80.41</ele><time>2014-08-31T09:08:36Z</time></trkpt><trkpt lat="39.9300470296" lon="3.0553487968"><ele>80.41</ele><time>2014-08-31T09:08:41Z</time></trkpt><trkpt lat="39.9300435092" lon="3.0553679913"><ele>79.93</ele><time>2014-08-31T09:08:48Z</time></trkpt><trkpt lat="39.9300474487" lon="3.0554257426"><ele>79.93</ele><time>2014-08-31T09:08:58Z</time></trkpt><trkpt lat="39.9300474487" lon="3.0554257426"><ele>76.08</ele><time>2014-08-31T09:08:59Z</time></trkpt><trkpt lat="39.9300474487" lon="3.0554257426"><ele>80.41</ele><time>2014-08-31T09:09:00Z</time></trkpt><trkpt lat="39.9300513882" lon="3.0554328673"><ele>80.41</ele><time>2014-08-31T09:09:01Z</time></trkpt><trkpt lat="39.9300451856" lon="3.0554984976"><ele>79.93</ele><time>2014-08-31T09:09:10Z</time></trkpt><trkpt lat="39.9300634582" lon="3.0555167701"><ele>80.89</ele><time>2014-08-31T09:09:13Z</time></trkpt><trkpt lat="39.9301191978" lon="3.0555911176"><ele>81.85</ele><time>2014-08-31T09:09:25Z</time></trkpt><trkpt lat="39.9301321059" lon="3.0556437559"><ele>82.33</ele><time>2014-08-31T09:09:38Z</time></trkpt><trkpt lat="39.9301399849" lon="3.0556512158"><ele>82.33</ele><time>2014-08-31T09:09:39Z</time></trkpt><trkpt lat="39.9301373865" lon="3.0556929577"><ele>81.85</ele><time>2014-08-31T09:09:44Z</time></trkpt><trkpt lat="39.9301355425" lon="3.0557174329"><ele>77.52</ele><time>2014-08-31T09:09:48Z</time></trkpt><trkpt lat="39.9301323574" lon="3.0557238031"><ele>91.46</ele><time>2014-08-31T09:09:49Z</time></trkpt><trkpt lat="39.9301279150" lon="3.0557245575"><ele>82.81</ele><time>2014-08-31T09:09:50Z</time></trkpt><trkpt lat="39.9301248137" lon="3.0557248928"><ele>82.33</ele><time>2014-08-31T09:10:12Z</time></trkpt><trkpt lat="39.9301246461" lon="3.0557366274"><ele>82.33</ele><time>2014-08-31T09:10:30Z</time></trkpt><trkpt lat="39.9301246461" lon="3.0557366274"><ele>82.33</ele><time>2014-08-31T09:10:52Z</time></trkpt><trkpt lat="39.9300744385" lon="3.0556985736"><ele>81.85</ele><time>2014-08-31T09:11:11Z</time></trkpt><trkpt lat="39.9300465267" lon="3.0556951370"><ele>78.97</ele><time>2014-08-31T09:11:16Z</time></trkpt><trkpt lat="39.9300252367" lon="3.0557113979"><ele>81.85</ele><time>2014-08-31T09:11:19Z</time></trkpt><trkpt lat="39.9300340377" lon="3.0557391420"><ele>82.33</ele><time>2014-08-31T09:11:29Z</time></trkpt><trkpt lat="39.9300379772" lon="3.0557617731"><ele>82.33</ele><time>2014-08-31T09:11:34Z</time></trkpt><trkpt lat="39.9300403241" lon="3.0558023416"><ele>82.81</ele><time>2014-08-31T09:11:37Z</time></trkpt><trkpt lat="39.9300337024" lon="3.0558237154"><ele>82.81</ele><time>2014-08-31T09:11:39Z</time></trkpt><trkpt lat="39.9300240632" lon="3.0558715761"><ele>84.25</ele><time>2014-08-31T09:11:49Z</time></trkpt><trkpt lat="39.9300243985" lon="3.0558766890"><ele>84.25</ele><time>2014-08-31T09:12:02Z</time></trkpt><trkpt lat="39.9300060421" lon="3.0558798742"><ele>83.77</ele><time>2014-08-31T09:12:07Z</time></trkpt><trkpt lat="39.9299599417" lon="3.0559012480"><ele>84.73</ele><time>2014-08-31T09:12:15Z</time></trkpt><trkpt lat="39.9299289286" lon="3.0558577459"><ele>85.21</ele><time>2014-08-31T09:12:24Z</time></trkpt><trkpt lat="39.9299016036" lon="3.0559295788"><ele>87.62</ele><time>2014-08-31T09:12:37Z</time></trkpt><trkpt lat="39.9298977479" lon="3.0559873302"><ele>89.54</ele><time>2014-08-31T09:12:48Z</time></trkpt><trkpt lat="39.9298981670" lon="3.0559959635"><ele>90.50</ele><time>2014-08-31T09:12:50Z</time></trkpt><trkpt lat="39.9298777990" lon="3.0560322572"><ele>90.02</ele><time>2014-08-31T09:13:00Z</time></trkpt><trkpt lat="39.9299075548" lon="3.0560475960"><ele>90.98</ele><time>2014-08-31T09:13:07Z</time></trkpt><trkpt lat="39.9298938923" lon="3.0560272280"><ele>84.73</ele><time>2014-08-31T09:13:15Z</time></trkpt><trkpt lat="39.9298938923" lon="3.0560272280"><ele>95.79</ele><time>2014-08-31T09:13:16Z</time></trkpt><trkpt lat="39.9298910424" lon="3.0560185947"><ele>92.42</ele><time>2014-08-31T09:13:17Z</time></trkpt><trkpt lat="39.9298793916" lon="3.0560116377"><ele>89.54</ele><time>2014-08-31T09:13:18Z</time></trkpt><trkpt lat="39.9298679084" lon="3.0560085364"><ele>92.42</ele><time>2014-08-31T09:13:19Z</time></trkpt><trkpt lat="39.9298640527" lon="3.0560081173"><ele>88.58</ele><time>2014-08-31T09:13:29Z</time></trkpt><trkpt lat="39.9298565928" lon="3.0560092069"><ele>91.46</ele><time>2014-08-31T09:13:34Z</time></trkpt><trkpt lat="39.9298565928" lon="3.0560092069"><ele>91.46</ele><time>2014-08-31T09:13:35Z</time></trkpt><trkpt lat="39.9298714288" lon="3.0559934489"><ele>86.18</ele><time>2014-08-31T09:13:41Z</time></trkpt><trkpt lat="39.9298649747" lon="3.0559934489"><ele>86.66</ele><time>2014-08-31T09:13:42Z</time></trkpt><trkpt lat="39.9298649747" lon="3.0559934489"><ele>91.46</ele><time>2014-08-31T09:13:43Z</time></trkpt><trkpt lat="39.9298654776" lon="3.0559978075"><ele>94.83</ele><time>2014-08-31T09:13:44Z</time></trkpt><trkpt lat="39.9298674893" lon="3.0559999030"><ele>91.46</ele><time>2014-08-31T09:13:45Z</time></trkpt><trkpt lat="39.9298674054" lon="3.0560068600"><ele>87.14</ele><time>2014-08-31T09:13:46Z</time></trkpt><trkpt lat="39.9298697524" lon="3.0560102966"><ele>97.23</ele><time>2014-08-31T09:13:47Z</time></trkpt><trkpt lat="39.9298708420" lon="3.0560125597"><ele>90.02</ele><time>2014-08-31T09:13:48Z</time></trkpt><trkpt lat="39.9298697524" lon="3.0560102966"><ele>89.06</ele><time>2014-08-31T09:13:49Z</time></trkpt><trkpt lat="39.9298834987" lon="3.0559842288"><ele>86.18</ele><time>2014-08-31T09:13:54Z</time></trkpt><trkpt lat="39.9298804812" lon="3.0559833068"><ele>88.10</ele><time>2014-08-31T09:13:55Z</time></trkpt><trkpt lat="39.9298742786" lon="3.0559848156"><ele>91.46</ele><time>2014-08-31T09:13:57Z</time></trkpt><trkpt lat="39.9298730213" lon="3.0559776910"><ele>88.10</ele><time>2014-08-31T09:13:58Z</time></trkpt><trkpt lat="39.9298854265" lon="3.0559561495"><ele>93.39</ele><time>2014-08-31T09:14:04Z</time></trkpt><trkpt lat="39.9298854265" lon="3.0559561495"><ele>89.06</ele><time>2014-08-31T09:14:05Z</time></trkpt><trkpt lat="39.9298764579" lon="3.0559472647"><ele>92.42</ele><time>2014-08-31T09:14:07Z</time></trkpt><trkpt lat="39.9298721831" lon="3.0559338536"><ele>88.58</ele><time>2014-08-31T09:14:08Z</time></trkpt><trkpt lat="39.9298512284" lon="3.0559201073"><ele>87.14</ele><time>2014-08-31T09:14:10Z</time></trkpt><trkpt lat="39.9298263341" lon="3.0559267290"><ele>91.46</ele><time>2014-08-31T09:14:14Z</time></trkpt><trkpt lat="39.9298265856" lon="3.0559239630"><ele>83.29</ele><time>2014-08-31T09:14:15Z</time></trkpt><trkpt lat="39.9298265856" lon="3.0559239630"><ele>85.21</ele><time>2014-08-31T09:14:16Z</time></trkpt><trkpt lat="39.9298265856" lon="3.0559239630"><ele>89.54</ele><time>2014-08-31T09:14:17Z</time></trkpt><trkpt lat="39.9298331235" lon="3.0559257232"><ele>92.90</ele><time>2014-08-31T09:14:18Z</time></trkpt><trkpt lat="39.9298337940" lon="3.0559312552"><ele>91.46</ele><time>2014-08-31T09:14:19Z</time></trkpt><trkpt lat="39.9298320338" lon="3.0559440795"><ele>86.18</ele><time>2014-08-31T09:14:21Z</time></trkpt><trkpt lat="39.9298312794" lon="3.0559454206"><ele>97.23</ele><time>2014-08-31T09:14:22Z</time></trkpt><trkpt lat="39.9298268370" lon="3.0559507012"><ele>92.90</ele><time>2014-08-31T09:14:23Z</time></trkpt><trkpt lat="39.9298182875" lon="3.0559417326"><ele>87.62</ele><time>2014-08-31T09:14:25Z</time></trkpt><trkpt lat="39.9298076425" lon="3.0559455045"><ele>94.35</ele><time>2014-08-31T09:14:26Z</time></trkpt><trkpt lat="39.9298037868" lon="3.0559531320"><ele>84.25</ele><time>2014-08-31T09:14:27Z</time></trkpt><trkpt lat="39.9298034515" lon="3.0559651181"><ele>91.94</ele><time>2014-08-31T09:14:28Z</time></trkpt><trkpt lat="39.9298033677" lon="3.0559727456"><ele>88.58</ele><time>2014-08-31T09:14:29Z</time></trkpt><trkpt lat="39.9298037030" lon="3.0559865758"><ele>91.94</ele><time>2014-08-31T09:14:30Z</time></trkpt><trkpt lat="39.9298057985" lon="3.0559902638"><ele>84.25</ele><time>2014-08-31T09:14:33Z</time></trkpt><trkpt lat="39.9298064690" lon="3.0559927784"><ele>93.87</ele><time>2014-08-31T09:14:34Z</time></trkpt><trkpt lat="39.9298099056" lon="3.0560036749"><ele>89.54</ele><time>2014-08-31T09:14:36Z</time></trkpt><trkpt lat="39.9298090674" lon="3.0560007412"><ele>96.27</ele><time>2014-08-31T09:14:37Z</time></trkpt><trkpt lat="39.9298090674" lon="3.0560007412"><ele>91.46</ele><time>2014-08-31T09:14:38Z</time></trkpt><trkpt lat="39.9298090674" lon="3.0560007412"><ele>84.73</ele><time>2014-08-31T09:14:40Z</time></trkpt><trkpt lat="39.9298090674" lon="3.0560007412"><ele>91.94</ele><time>2014-08-31T09:14:41Z</time></trkpt><trkpt lat="39.9298031162" lon="3.0560012441"><ele>87.62</ele><time>2014-08-31T09:14:42Z</time></trkpt><trkpt lat="39.9297969136" lon="3.0560097937"><ele>92.90</ele><time>2014-08-31T09:14:43Z</time></trkpt><trkpt lat="39.9297959078" lon="3.0560150743"><ele>96.75</ele><time>2014-08-31T09:14:44Z</time></trkpt><trkpt lat="39.9297884479" lon="3.0560163315"><ele>93.87</ele><time>2014-08-31T09:14:45Z</time></trkpt><trkpt lat="39.9297819939" lon="3.0560203549"><ele>87.14</ele><time>2014-08-31T09:14:46Z</time></trkpt><trkpt lat="39.9297805689" lon="3.0560254678"><ele>97.23</ele><time>2014-08-31T09:14:47Z</time></trkpt><trkpt lat="39.9297803175" lon="3.0560354423"><ele>90.50</ele><time>2014-08-31T09:14:48Z</time></trkpt><trkpt lat="39.9297724385" lon="3.0560660362"><ele>94.35</ele><time>2014-08-31T09:14:51Z</time></trkpt><trkpt lat="39.9297726061" lon="3.0560740829"><ele>98.19</ele><time>2014-08-31T09:14:52Z</time></trkpt><trkpt lat="39.9297679961" lon="3.0560838897"><ele>95.79</ele><time>2014-08-31T09:14:53Z</time></trkpt><trkpt lat="39.9297589436" lon="3.0561053474"><ele>94.83</ele><time>2014-08-31T09:14:55Z</time></trkpt><trkpt lat="39.9297624640" lon="3.0561801139"><ele>94.83</ele><time>2014-08-31T09:15:06Z</time></trkpt><trkpt lat="39.9297794793" lon="3.0561816227"><ele>95.79</ele><time>2014-08-31T09:15:10Z</time></trkpt><trkpt lat="39.9298324529" lon="3.0562051758"><ele>96.75</ele><time>2014-08-31T09:15:17Z</time></trkpt><trkpt lat="39.9298483785" lon="3.0562213529"><ele>96.27</ele><time>2014-08-31T09:15:34Z</time></trkpt><trkpt lat="39.9298760388" lon="3.0562019907"><ele>96.75</ele><time>2014-08-31T09:15:46Z</time></trkpt><trkpt lat="39.9298912100" lon="3.0562194251"><ele>97.23</ele><time>2014-08-31T09:15:50Z</time></trkpt><trkpt lat="39.9299057946" lon="3.0562709738"><ele>95.79</ele><time>2014-08-31T09:16:00Z</time></trkpt><trkpt lat="39.9299386516" lon="3.0562673695"><ele>97.23</ele><time>2014-08-31T09:16:06Z</time></trkpt><trkpt lat="39.9299803935" lon="3.0563229416"><ele>96.27</ele><time>2014-08-31T09:16:10Z</time></trkpt><trkpt lat="39.9300132506" lon="3.0563351791"><ele>95.79</ele><time>2014-08-31T09:16:15Z</time></trkpt><trkpt lat="39.9300294276" lon="3.0563542899"><ele>95.31</ele><time>2014-08-31T09:16:19Z</time></trkpt><trkpt lat="39.9300653860" lon="3.0564056709"><ele>96.27</ele><time>2014-08-31T09:16:26Z</time></trkpt><trkpt lat="39.9301155098" lon="3.0564514361"><ele>95.79</ele><time>2014-08-31T09:16:38Z</time></trkpt><trkpt lat="39.9301157612" lon="3.0564371031"><ele>95.79</ele><time>2014-08-31T09:16:53Z</time></trkpt><trkpt lat="39.9301153421" lon="3.0564158130"><ele>100.60</ele><time>2014-08-31T09:16:55Z</time></trkpt><trkpt lat="39.9301153421" lon="3.0564086046"><ele>94.83</ele><time>2014-08-31T09:16:56Z</time></trkpt><trkpt lat="39.9301153421" lon="3.0564086046"><ele>100.60</ele><time>2014-08-31T09:16:57Z</time></trkpt><trkpt lat="39.9301098939" lon="3.0564021505"><ele>96.75</ele><time>2014-08-31T09:16:58Z</time></trkpt><trkpt lat="39.9300868437" lon="3.0563779268"><ele>96.27</ele><time>2014-08-31T09:17:11Z</time></trkpt><trkpt lat="39.9300712533" lon="3.0563521944"><ele>98.67</ele><time>2014-08-31T09:17:20Z</time></trkpt><trkpt lat="39.9300910346" lon="3.0562925152"><ele>99.15</ele><time>2014-08-31T09:17:25Z</time></trkpt><trkpt lat="39.9301191140" lon="3.0562957842"><ele>98.67</ele><time>2014-08-31T09:17:36Z</time></trkpt><trkpt lat="39.9301236402" lon="3.0563231092"><ele>98.67</ele><time>2014-08-31T09:17:49Z</time></trkpt><trkpt lat="39.9301487021" lon="3.0563286413"><ele>98.67</ele><time>2014-08-31T09:17:59Z</time></trkpt><trkpt lat="39.9301419966" lon="3.0563393701"><ele>97.71</ele><time>2014-08-31T09:18:01Z</time></trkpt><trkpt lat="39.9301204551" lon="3.0563361011"><ele>98.67</ele><time>2014-08-31T09:18:15Z</time></trkpt><trkpt lat="39.9301040266" lon="3.0563309044"><ele>98.19</ele><time>2014-08-31T09:18:31Z</time></trkpt><trkpt lat="39.9300940521" lon="3.0563101172"><ele>98.67</ele><time>2014-08-31T09:18:42Z</time></trkpt><trkpt lat="39.9300922081" lon="3.0562785175"><ele>93.87</ele><time>2014-08-31T09:18:48Z</time></trkpt><trkpt lat="39.9300959799" lon="3.0562717281"><ele>99.63</ele><time>2014-08-31T09:18:49Z</time></trkpt><trkpt lat="39.9300943874" lon="3.0562678725"><ele>96.27</ele><time>2014-08-31T09:18:52Z</time></trkpt><trkpt lat="39.9300978240" lon="3.0562709738"><ele>99.63</ele><time>2014-08-31T09:18:57Z</time></trkpt><trkpt lat="39.9300892744" lon="3.0562728178"><ele>96.27</ele><time>2014-08-31T09:18:58Z</time></trkpt><trkpt lat="39.9300834071" lon="3.0562664475"><ele>90.50</ele><time>2014-08-31T09:19:05Z</time></trkpt><trkpt lat="39.9300822336" lon="3.0562698003"><ele>95.79</ele><time>2014-08-31T09:19:06Z</time></trkpt><trkpt lat="39.9300834071" lon="3.0562664475"><ele>100.11</ele><time>2014-08-31T09:19:07Z</time></trkpt><trkpt lat="39.9300834071" lon="3.0562664475"><ele>78.00</ele><time>2014-08-31T09:19:08Z</time></trkpt><trkpt lat="39.9300808087" lon="3.0562663637"><ele>99.15</ele><time>2014-08-31T09:19:09Z</time></trkpt><trkpt lat="39.9300834071" lon="3.0562664475"><ele>91.94</ele><time>2014-08-31T09:19:10Z</time></trkpt><trkpt lat="39.9300834071" lon="3.0562664475"><ele>99.15</ele><time>2014-08-31T09:19:11Z</time></trkpt><trkpt lat="39.9300834071" lon="3.0562664475"><ele>95.31</ele><time>2014-08-31T09:19:12Z</time></trkpt><trkpt lat="39.9300834071" lon="3.0562664475"><ele>102.04</ele><time>2014-08-31T09:19:13Z</time></trkpt><trkpt lat="39.9300787970" lon="3.0562623404"><ele>95.79</ele><time>2014-08-31T09:19:15Z</time></trkpt><trkpt lat="39.9300787970" lon="3.0562623404"><ele>96.27</ele><time>2014-08-31T09:19:16Z</time></trkpt><trkpt lat="39.9300787970" lon="3.0562623404"><ele>96.27</ele><time>2014-08-31T09:19:35Z</time></trkpt><trkpt lat="39.9300787970" lon="3.0562623404"><ele>103.48</ele><time>2014-08-31T09:19:39Z</time></trkpt><trkpt lat="39.9300787970" lon="3.0562623404"><ele>97.23</ele><time>2014-08-31T09:19:40Z</time></trkpt><trkpt lat="39.9300897773" lon="3.0562652741"><ele>98.19</ele><time>2014-08-31T09:19:54Z</time></trkpt><trkpt lat="39.9300891068" lon="3.0562684592"><ele>97.23</ele><time>2014-08-31T09:20:00Z</time></trkpt><trkpt lat="39.9301133305" lon="3.0562589038"><ele>96.27</ele><time>2014-08-31T09:20:11Z</time></trkpt><trkpt lat="39.9301783741" lon="3.0562648550"><ele>95.31</ele><time>2014-08-31T09:20:24Z</time></trkpt><trkpt lat="39.9301725067" lon="3.0562437326"><ele>95.31</ele><time>2014-08-31T09:20:37Z</time></trkpt><trkpt lat="39.9301645439" lon="3.0562354345"><ele>95.79</ele><time>2014-08-31T09:20:47Z</time></trkpt><trkpt lat="39.9301213771" lon="3.0562380329"><ele>96.75</ele><time>2014-08-31T09:20:54Z</time></trkpt><trkpt lat="39.9301276635" lon="3.0562758353"><ele>97.23</ele><time>2014-08-31T09:21:09Z</time></trkpt><trkpt lat="39.9301292561" lon="3.0562760029"><ele>97.71</ele><time>2014-08-31T09:21:41Z</time></trkpt><trkpt lat="39.9301430024" lon="3.0562918447"><ele>98.19</ele><time>2014-08-31T09:21:57Z</time></trkpt><trkpt lat="39.9301331118" lon="3.0562978797"><ele>97.71</ele><time>2014-08-31T09:22:07Z</time></trkpt><trkpt lat="39.9301268253" lon="3.0563136376"><ele>99.15</ele><time>2014-08-31T09:22:18Z</time></trkpt><trkpt lat="39.9301268253" lon="3.0563136376"><ele>99.63</ele><time>2014-08-31T09:22:28Z</time></trkpt><trkpt lat="39.9300522264" lon="3.0563181639"><ele>99.15</ele><time>2014-08-31T09:22:37Z</time></trkpt><trkpt lat="39.9300601054" lon="3.0563439801"><ele>100.11</ele><time>2014-08-31T09:22:39Z</time></trkpt><trkpt lat="39.9300601054" lon="3.0563439801"><ele>98.67</ele><time>2014-08-31T09:22:41Z</time></trkpt><trkpt lat="39.9300697446" lon="3.0563750770"><ele>99.15</ele><time>2014-08-31T09:22:50Z</time></trkpt><trkpt lat="39.9300697446" lon="3.0563750770"><ele>95.31</ele><time>2014-08-31T09:22:54Z</time></trkpt><trkpt lat="39.9300657213" lon="3.0563633423"><ele>102.04</ele><time>2014-08-31T09:22:55Z</time></trkpt><trkpt lat="39.9300482031" lon="3.0563407950"><ele>100.60</ele><time>2014-08-31T09:22:57Z</time></trkpt><trkpt lat="39.9300331995" lon="3.0563409626"><ele>94.83</ele><time>2014-08-31T09:23:06Z</time></trkpt><trkpt lat="39.9300345406" lon="3.0563400406"><ele>100.60</ele><time>2014-08-31T09:23:07Z</time></trkpt><trkpt lat="39.9300331995" lon="3.0563409626"><ele>98.67</ele><time>2014-08-31T09:23:30Z</time></trkpt><trkpt lat="39.9300360493" lon="3.0563390348"><ele>93.87</ele><time>2014-08-31T09:23:40Z</time></trkpt><trkpt lat="39.9300360493" lon="3.0563390348"><ele>99.63</ele><time>2014-08-31T09:23:41Z</time></trkpt><trkpt lat="39.9300360493" lon="3.0563390348"><ele>103.48</ele><time>2014-08-31T09:23:48Z</time></trkpt><trkpt lat="39.9300360493" lon="3.0563390348"><ele>99.15</ele><time>2014-08-31T09:23:49Z</time></trkpt><trkpt lat="39.9300685711" lon="3.0563578103"><ele>99.15</ele><time>2014-08-31T09:23:58Z</time></trkpt><trkpt lat="39.9300730973" lon="3.0563528650"><ele>98.67</ele><time>2014-08-31T09:24:14Z</time></trkpt><trkpt lat="39.9300738517" lon="3.0563518591"><ele>99.15</ele><time>2014-08-31T09:24:43Z</time></trkpt><trkpt lat="39.9300660565" lon="3.0563532002"><ele>99.63</ele><time>2014-08-31T09:24:50Z</time></trkpt><trkpt lat="39.9300677329" lon="3.0563610792"><ele>100.11</ele><time>2014-08-31T09:25:07Z</time></trkpt><trkpt lat="39.9300673138" lon="3.0563531164"><ele>99.63</ele><time>2014-08-31T09:25:30Z</time></trkpt><trkpt lat="39.9300673138" lon="3.0563531164"><ele>99.63</ele><time>2014-08-31T09:26:05Z</time></trkpt><trkpt lat="39.9300772883" lon="3.0563476682"><ele>100.11</ele><time>2014-08-31T09:26:27Z</time></trkpt><trkpt lat="39.9300763663" lon="3.0563466623"><ele>100.11</ele><time>2014-08-31T09:26:59Z</time></trkpt><trkpt lat="39.9300763663" lon="3.0563466623"><ele>99.15</ele><time>2014-08-31T09:27:30Z</time></trkpt><trkpt lat="39.9300762825" lon="3.0563462432"><ele>99.15</ele><time>2014-08-31T09:28:06Z</time></trkpt><trkpt lat="39.9300761987" lon="3.0563459918"><ele>99.63</ele><time>2014-08-31T09:28:24Z</time></trkpt><trkpt lat="39.9300690740" lon="3.0563527811"><ele>99.63</ele><time>2014-08-31T09:28:41Z</time></trkpt><trkpt lat="39.9300715048" lon="3.0563607439"><ele>99.15</ele><time>2014-08-31T09:29:06Z</time></trkpt><trkpt lat="39.9300707504" lon="3.0563619174"><ele>99.15</ele><time>2014-08-31T09:29:38Z</time></trkpt><trkpt lat="39.9300707504" lon="3.0563619174"><ele>99.63</ele><time>2014-08-31T09:30:05Z</time></trkpt><trkpt lat="39.9300715886" lon="3.0563637614"><ele>99.63</ele><time>2014-08-31T09:30:32Z</time></trkpt><trkpt lat="39.9300727621" lon="3.0563605763"><ele>100.11</ele><time>2014-08-31T09:31:06Z</time></trkpt><trkpt lat="39.9300727621" lon="3.0563605763"><ele>96.27</ele><time>2014-08-31T09:31:29Z</time></trkpt><trkpt lat="39.9300716724" lon="3.0563599896"><ele>100.11</ele><time>2014-08-31T09:31:30Z</time></trkpt><trkpt lat="39.9300738517" lon="3.0563573074"><ele>99.63</ele><time>2014-08-31T09:31:46Z</time></trkpt><trkpt lat="39.9300688226" lon="3.0563590676"><ele>100.11</ele><time>2014-08-31T09:31:55Z</time></trkpt><trkpt lat="39.9300900288" lon="3.0563747417"><ele>98.67</ele><time>2014-08-31T09:32:06Z</time></trkpt><trkpt lat="39.9300937168" lon="3.0564102810"><ele>98.67</ele><time>2014-08-31T09:32:16Z</time></trkpt><trkpt lat="39.9300995842" lon="3.0564197525"><ele>98.19</ele><time>2014-08-31T09:32:19Z</time></trkpt><trkpt lat="39.9301233049" lon="3.0564713012"><ele>96.27</ele><time>2014-08-31T09:32:28Z</time></trkpt><trkpt lat="39.9301182758" lon="3.0564709660"><ele>97.71</ele><time>2014-08-31T09:32:41Z</time></trkpt><trkpt lat="39.9301182758" lon="3.0564709660"><ele>94.35</ele><time>2014-08-31T09:32:42Z</time></trkpt><trkpt lat="39.9301182758" lon="3.0564709660"><ele>97.71</ele><time>2014-08-31T09:32:43Z</time></trkpt><trkpt lat="39.9301182758" lon="3.0564709660"><ele>93.87</ele><time>2014-08-31T09:32:51Z</time></trkpt><trkpt lat="39.9301182758" lon="3.0564709660"><ele>97.23</ele><time>2014-08-31T09:32:59Z</time></trkpt><trkpt lat="39.9301182758" lon="3.0564709660"><ele>100.60</ele><time>2014-08-31T09:33:00Z</time></trkpt><trkpt lat="39.9301182758" lon="3.0564709660"><ele>96.27</ele><time>2014-08-31T09:33:01Z</time></trkpt><trkpt lat="39.9301727582" lon="3.0565138813"><ele>92.90</ele><time>2014-08-31T09:33:06Z</time></trkpt><trkpt lat="39.9301945511" lon="3.0565467384"><ele>92.42</ele><time>2014-08-31T09:33:10Z</time></trkpt><trkpt lat="39.9302247260" lon="3.0565702077"><ele>94.35</ele><time>2014-08-31T09:33:14Z</time></trkpt><trkpt lat="39.9302531406" lon="3.0566097703"><ele>93.87</ele><time>2014-08-31T09:33:18Z</time></trkpt><trkpt lat="39.9302943796" lon="3.0566252768"><ele>88.58</ele><time>2014-08-31T09:33:23Z</time></trkpt><trkpt lat="39.9303095508" lon="3.0566261150"><ele>89.06</ele><time>2014-08-31T09:33:25Z</time></trkpt><trkpt lat="39.9303348642" lon="3.0566388555"><ele>92.42</ele><time>2014-08-31T09:33:29Z</time></trkpt><trkpt lat="39.9303577468" lon="3.0566393584"><ele>89.06</ele><time>2014-08-31T09:33:31Z</time></trkpt><trkpt lat="39.9303855747" lon="3.0566404480"><ele>87.62</ele><time>2014-08-31T09:33:35Z</time></trkpt><trkpt lat="39.9304086249" lon="3.0566981155"><ele>87.14</ele><time>2014-08-31T09:33:45Z</time></trkpt><trkpt lat="39.9304074515" lon="3.0567344930"><ele>86.18</ele><time>2014-08-31T09:33:53Z</time></trkpt><trkpt lat="39.9304007459" lon="3.0567677692"><ele>85.69</ele><time>2014-08-31T09:33:55Z</time></trkpt><trkpt lat="39.9304153305" lon="3.0567990337"><ele>85.21</ele><time>2014-08-31T09:33:58Z</time></trkpt><trkpt lat="39.9304518756" lon="3.0568421166"><ele>84.73</ele><time>2014-08-31T09:34:06Z</time></trkpt><trkpt lat="39.9304668792" lon="3.0568626523"><ele>84.25</ele><time>2014-08-31T09:34:08Z</time></trkpt><trkpt lat="39.9304686394" lon="3.0568839423"><ele>83.77</ele><time>2014-08-31T09:34:10Z</time></trkpt><trkpt lat="39.9304688070" lon="3.0569167994"><ele>82.81</ele><time>2014-08-31T09:34:21Z</time></trkpt><trkpt lat="39.9305145722" lon="3.0569625646"><ele>80.89</ele><time>2014-08-31T09:34:29Z</time></trkpt><trkpt lat="39.9305335153" lon="3.0569958407"><ele>81.37</ele><time>2014-08-31T09:34:32Z</time></trkpt><trkpt lat="39.9305605050" lon="3.0570278596"><ele>80.89</ele><time>2014-08-31T09:34:36Z</time></trkpt><trkpt lat="39.9305748381" lon="3.0570647400"><ele>79.93</ele><time>2014-08-31T09:34:44Z</time></trkpt><trkpt lat="39.9305851478" lon="3.0570889637"><ele>79.45</ele><time>2014-08-31T09:34:47Z</time></trkpt><trkpt lat="39.9306050129" lon="3.0571140256"><ele>78.48</ele><time>2014-08-31T09:34:53Z</time></trkpt><trkpt lat="39.9306155741" lon="3.0571602937"><ele>78.00</ele><time>2014-08-31T09:34:59Z</time></trkpt><trkpt lat="39.9306620099" lon="3.0572124291"><ele>77.52</ele><time>2014-08-31T09:35:06Z</time></trkpt><trkpt lat="39.9306831323" lon="3.0572042987"><ele>73.20</ele><time>2014-08-31T09:35:08Z</time></trkpt><trkpt lat="39.9306817073" lon="3.0572092440"><ele>77.52</ele><time>2014-08-31T09:35:09Z</time></trkpt><trkpt lat="39.9306790251" lon="3.0572267622"><ele>77.52</ele><time>2014-08-31T09:35:23Z</time></trkpt><trkpt lat="39.9307105411" lon="3.0573189631"><ele>75.12</ele><time>2014-08-31T09:35:35Z</time></trkpt><trkpt lat="39.9307533726" lon="3.0573913828"><ele>75.12</ele><time>2014-08-31T09:35:45Z</time></trkpt><trkpt lat="39.9307951983" lon="3.0574652273"><ele>73.68</ele><time>2014-08-31T09:35:54Z</time></trkpt><trkpt lat="39.9308045860" lon="3.0574801471"><ele>74.16</ele><time>2014-08-31T09:35:57Z</time></trkpt><trkpt lat="39.9308494292" lon="3.0575518962"><ele>74.16</ele><time>2014-08-31T09:36:04Z</time></trkpt><trkpt lat="39.9308650196" lon="3.0575985834"><ele>74.16</ele><time>2014-08-31T09:36:08Z</time></trkpt><trkpt lat="39.9308883213" lon="3.0576311890"><ele>74.64</ele><time>2014-08-31T09:36:12Z</time></trkpt><trkpt lat="39.9309093598" lon="3.0576942209"><ele>74.16</ele><time>2014-08-31T09:36:18Z</time></trkpt><trkpt lat="39.9309222680" lon="3.0577414110"><ele>74.16</ele><time>2014-08-31T09:36:23Z</time></trkpt><trkpt lat="39.9309367687" lon="3.0577761959"><ele>74.64</ele><time>2014-08-31T09:36:31Z</time></trkpt><trkpt lat="39.9309487548" lon="3.0577987432"><ele>74.64</ele><time>2014-08-31T09:36:33Z</time></trkpt><trkpt lat="39.9309645128" lon="3.0578527227"><ele>74.64</ele><time>2014-08-31T09:36:37Z</time></trkpt><trkpt lat="39.9309773371" lon="3.0578807183"><ele>74.64</ele><time>2014-08-31T09:36:46Z</time></trkpt><trkpt lat="39.9309882335" lon="3.0579067022"><ele>74.64</ele><time>2014-08-31T09:36:51Z</time></trkpt><trkpt lat="39.9310200848" lon="3.0579551496"><ele>74.64</ele><time>2014-08-31T09:36:54Z</time></trkpt><trkpt lat="39.9310204200" lon="3.0579954665"><ele>74.64</ele><time>2014-08-31T09:36:57Z</time></trkpt><trkpt lat="39.9310354237" lon="3.0580098834"><ele>73.68</ele><time>2014-08-31T09:37:00Z</time></trkpt><trkpt lat="39.9310328253" lon="3.0580451712"><ele>73.20</ele><time>2014-08-31T09:37:04Z</time></trkpt><trkpt lat="39.9310381059" lon="3.0580597557"><ele>73.20</ele><time>2014-08-31T09:37:06Z</time></trkpt><trkpt lat="39.9310541991" lon="3.0581005756"><ele>72.72</ele><time>2014-08-31T09:37:10Z</time></trkpt><trkpt lat="39.9310666882" lon="3.0581301637"><ele>72.24</ele><time>2014-08-31T09:37:14Z</time></trkpt><trkpt lat="39.9311013892" lon="3.0581482686"><ele>72.72</ele><time>2014-08-31T09:37:19Z</time></trkpt><trkpt lat="39.9311279599" lon="3.0582379550"><ele>72.24</ele><time>2014-08-31T09:37:27Z</time></trkpt><trkpt lat="39.9311659299" lon="3.0583388731"><ele>71.76</ele><time>2014-08-31T09:37:35Z</time></trkpt><trkpt lat="39.9311698694" lon="3.0583794415"><ele>70.31</ele><time>2014-08-31T09:37:38Z</time></trkpt><trkpt lat="39.9311836995" lon="3.0583971273"><ele>73.68</ele><time>2014-08-31T09:37:40Z</time></trkpt><trkpt lat="39.9311941769" lon="3.0584082752"><ele>70.79</ele><time>2014-08-31T09:37:42Z</time></trkpt><trkpt lat="39.9311945122" lon="3.0584380310"><ele>72.72</ele><time>2014-08-31T09:37:53Z</time></trkpt><trkpt lat="39.9312135391" lon="3.0584659427"><ele>69.83</ele><time>2014-08-31T09:38:15Z</time></trkpt><trkpt lat="39.9312185682" lon="3.0584751628"><ele>71.27</ele><time>2014-08-31T09:38:16Z</time></trkpt><trkpt lat="39.9312223401" lon="3.0584845506"><ele>74.16</ele><time>2014-08-31T09:38:17Z</time></trkpt><trkpt lat="39.9312278721" lon="3.0584914237"><ele>72.72</ele><time>2014-08-31T09:38:18Z</time></trkpt><trkpt lat="39.9312527664" lon="3.0585314892"><ele>72.24</ele><time>2014-08-31T09:38:26Z</time></trkpt><trkpt lat="39.9312530179" lon="3.0585526954"><ele>69.83</ele><time>2014-08-31T09:38:28Z</time></trkpt><trkpt lat="39.9312508386" lon="3.0585956946"><ele>73.20</ele><time>2014-08-31T09:38:34Z</time></trkpt><trkpt lat="39.9312520120" lon="3.0586016458"><ele>68.87</ele><time>2014-08-31T09:38:35Z</time></trkpt><trkpt lat="39.9312711228" lon="3.0586635880"><ele>73.68</ele><time>2014-08-31T09:38:43Z</time></trkpt><trkpt lat="39.9312705360" lon="3.0586722214"><ele>69.83</ele><time>2014-08-31T09:38:44Z</time></trkpt><trkpt lat="39.9312791694" lon="3.0586847942"><ele>63.10</ele><time>2014-08-31T09:38:46Z</time></trkpt><trkpt lat="39.9312872160" lon="3.0587074254"><ele>67.43</ele><time>2014-08-31T09:38:48Z</time></trkpt><trkpt lat="39.9312918261" lon="3.0587174837"><ele>70.79</ele><time>2014-08-31T09:38:49Z</time></trkpt><trkpt lat="39.9313001242" lon="3.0587393604"><ele>66.95</ele><time>2014-08-31T09:38:51Z</time></trkpt><trkpt lat="39.9313007947" lon="3.0587609857"><ele>71.76</ele><time>2014-08-31T09:38:53Z</time></trkpt><trkpt lat="39.9313077517" lon="3.0587764923"><ele>68.39</ele><time>2014-08-31T09:38:55Z</time></trkpt><trkpt lat="39.9313121941" lon="3.0587823596"><ele>71.76</ele><time>2014-08-31T09:38:56Z</time></trkpt><trkpt lat="39.9313122779" lon="3.0588146299"><ele>67.43</ele><time>2014-08-31T09:38:59Z</time></trkpt><trkpt lat="39.9313163012" lon="3.0588249397"><ele>70.79</ele><time>2014-08-31T09:39:00Z</time></trkpt><trkpt lat="39.9313291255" lon="3.0588667654"><ele>69.35</ele><time>2014-08-31T09:39:04Z</time></trkpt><trkpt lat="39.9313564505" lon="3.0589036457"><ele>70.31</ele><time>2014-08-31T09:39:09Z</time></trkpt><trkpt lat="39.9313934986" lon="3.0589057412"><ele>71.27</ele><time>2014-08-31T09:39:23Z</time></trkpt><trkpt lat="39.9313934986" lon="3.0589057412"><ele>71.27</ele><time>2014-08-31T09:39:49Z</time></trkpt><trkpt lat="39.9313950911" lon="3.0589247681"><ele>69.35</ele><time>2014-08-31T09:39:56Z</time></trkpt><trkpt lat="39.9313826859" lon="3.0589864589"><ele>72.24</ele><time>2014-08-31T09:40:07Z</time></trkpt><trkpt lat="39.9313826859" lon="3.0589864589"><ele>71.76</ele><time>2014-08-31T09:40:30Z</time></trkpt><trkpt lat="39.9313922413" lon="3.0589831900"><ele>68.87</ele><time>2014-08-31T09:40:35Z</time></trkpt><trkpt lat="39.9313922413" lon="3.0589831900"><ele>73.20</ele><time>2014-08-31T09:40:36Z</time></trkpt><trkpt lat="39.9313888047" lon="3.0589351617"><ele>70.79</ele><time>2014-08-31T09:40:51Z</time></trkpt><trkpt lat="39.9313888047" lon="3.0589351617"><ele>74.64</ele><time>2014-08-31T09:40:52Z</time></trkpt><trkpt lat="39.9313892238" lon="3.0589447170"><ele>71.76</ele><time>2014-08-31T09:41:10Z</time></trkpt><trkpt lat="39.9313867092" lon="3.0589210801"><ele>70.31</ele><time>2014-08-31T09:41:24Z</time></trkpt><trkpt lat="39.9313675985" lon="3.0589106027"><ele>75.60</ele><time>2014-08-31T09:41:26Z</time></trkpt><trkpt lat="39.9313602224" lon="3.0589173920"><ele>69.35</ele><time>2014-08-31T09:41:27Z</time></trkpt><trkpt lat="39.9313568696" lon="3.0589239299"><ele>72.72</ele><time>2014-08-31T09:41:28Z</time></trkpt><trkpt lat="39.9313593004" lon="3.0589504167"><ele>68.87</ele><time>2014-08-31T09:41:30Z</time></trkpt><trkpt lat="39.9313600548" lon="3.0589650013"><ele>72.24</ele><time>2014-08-31T09:41:31Z</time></trkpt><trkpt lat="39.9313660059" lon="3.0589746404"><ele>71.76</ele><time>2014-08-31T09:41:32Z</time></trkpt><trkpt lat="39.9313673470" lon="3.0589857884"><ele>67.91</ele><time>2014-08-31T09:41:33Z</time></trkpt><trkpt lat="39.9313681014" lon="3.0589947570"><ele>73.20</ele><time>2014-08-31T09:41:34Z</time></trkpt><trkpt lat="39.9313670956" lon="3.0590200704"><ele>67.91</ele><time>2014-08-31T09:41:36Z</time></trkpt><trkpt lat="39.9313678499" lon="3.0590298772"><ele>69.83</ele><time>2014-08-31T09:41:37Z</time></trkpt><trkpt lat="39.9313774053" lon="3.0590792466"><ele>73.20</ele><time>2014-08-31T09:41:41Z</time></trkpt><trkpt lat="39.9313826859" lon="3.0590880476"><ele>71.27</ele><time>2014-08-31T09:41:42Z</time></trkpt><trkpt lat="39.9313855357" lon="3.0590933282"><ele>67.91</ele><time>2014-08-31T09:41:43Z</time></trkpt><trkpt lat="39.9313981086" lon="3.0591264367"><ele>66.95</ele><time>2014-08-31T09:41:46Z</time></trkpt><trkpt lat="39.9314022157" lon="3.0591370817"><ele>70.79</ele><time>2014-08-31T09:41:47Z</time></trkpt><trkpt lat="39.9314085022" lon="3.0591587070"><ele>67.43</ele><time>2014-08-31T09:41:49Z</time></trkpt><trkpt lat="39.9314172193" lon="3.0592190567"><ele>74.16</ele><time>2014-08-31T09:41:56Z</time></trkpt><trkpt lat="39.9314175546" lon="3.0592170451"><ele>70.79</ele><time>2014-08-31T09:41:57Z</time></trkpt><trkpt lat="39.9314545188" lon="3.0592333060"><ele>69.83</ele><time>2014-08-31T09:42:14Z</time></trkpt><trkpt lat="39.9314569496" lon="3.0592397600"><ele>74.64</ele><time>2014-08-31T09:42:15Z</time></trkpt><trkpt lat="39.9314605538" lon="3.0592469685"><ele>70.31</ele><time>2014-08-31T09:42:16Z</time></trkpt><trkpt lat="39.9314669240" lon="3.0592587870"><ele>71.27</ele><time>2014-08-31T09:42:22Z</time></trkpt><trkpt lat="39.9314719532" lon="3.0592651572"><ele>70.79</ele><time>2014-08-31T09:42:24Z</time></trkpt><trkpt lat="39.9314779043" lon="3.0592830107"><ele>71.27</ele><time>2014-08-31T09:42:34Z</time></trkpt><trkpt lat="39.9314635713" lon="3.0592723656"><ele>71.76</ele><time>2014-08-31T09:42:39Z</time></trkpt><trkpt lat="39.9314544350" lon="3.0592352338"><ele>70.79</ele><time>2014-08-31T09:42:43Z</time></trkpt><trkpt lat="39.9314609729" lon="3.0591986887"><ele>71.76</ele><time>2014-08-31T09:42:51Z</time></trkpt><trkpt lat="39.9314622302" lon="3.0592082441"><ele>72.24</ele><time>2014-08-31T09:42:55Z</time></trkpt><trkpt lat="39.9314369168" lon="3.0591845233"><ele>70.79</ele><time>2014-08-31T09:42:59Z</time></trkpt><trkpt lat="39.9314153753" lon="3.0592624750"><ele>70.31</ele><time>2014-08-31T09:43:09Z</time></trkpt><trkpt lat="39.9314269423" lon="3.0593255069"><ele>68.39</ele><time>2014-08-31T09:43:20Z</time></trkpt><trkpt lat="39.9314269423" lon="3.0593255069"><ele>67.43</ele><time>2014-08-31T09:43:38Z</time></trkpt><trkpt lat="39.9314193148" lon="3.0593488086"><ele>67.43</ele><time>2014-08-31T09:43:46Z</time></trkpt><trkpt lat="39.9314248469" lon="3.0593784805"><ele>67.91</ele><time>2014-08-31T09:43:54Z</time></trkpt><trkpt lat="39.9314432871" lon="3.0593839288"><ele>66.95</ele><time>2014-08-31T09:43:56Z</time></trkpt><trkpt lat="39.9314565305" lon="3.0593748763"><ele>68.39</ele><time>2014-08-31T09:44:01Z</time></trkpt><trkpt lat="39.9314776529" lon="3.0593353976"><ele>70.31</ele><time>2014-08-31T09:44:13Z</time></trkpt><trkpt lat="39.9314856157" lon="3.0593284406"><ele>70.31</ele><time>2014-08-31T09:44:18Z</time></trkpt><trkpt lat="39.9315005355" lon="3.0593586992"><ele>69.83</ele><time>2014-08-31T09:44:29Z</time></trkpt><trkpt lat="39.9314966798" lon="3.0593378283"><ele>69.83</ele><time>2014-08-31T09:44:32Z</time></trkpt><trkpt lat="39.9314908125" lon="3.0593457911"><ele>69.83</ele><time>2014-08-31T09:44:34Z</time></trkpt><trkpt lat="39.9315014575" lon="3.0593794025"><ele>71.27</ele><time>2014-08-31T09:44:42Z</time></trkpt><trkpt lat="39.9315460492" lon="3.0593651533"><ele>72.24</ele><time>2014-08-31T09:44:50Z</time></trkpt><trkpt lat="39.9315572809" lon="3.0593628902"><ele>73.20</ele><time>2014-08-31T09:45:00Z</time></trkpt><trkpt lat="39.9315430317" lon="3.0593622196"><ele>71.76</ele><time>2014-08-31T09:45:02Z</time></trkpt><trkpt lat="39.9315323029" lon="3.0593150295"><ele>73.68</ele><time>2014-08-31T09:45:15Z</time></trkpt><trkpt lat="39.9315307103" lon="3.0593011994"><ele>73.68</ele><time>2014-08-31T09:45:34Z</time></trkpt><trkpt lat="39.9315271061" lon="3.0593105033"><ele>72.72</ele><time>2014-08-31T09:45:50Z</time></trkpt><trkpt lat="39.9315109290" lon="3.0593680032"><ele>72.24</ele><time>2014-08-31T09:46:05Z</time></trkpt><trkpt lat="39.9314926565" lon="3.0593653210"><ele>70.79</ele><time>2014-08-31T09:46:16Z</time></trkpt><trkpt lat="39.9314848613" lon="3.0593437795"><ele>70.31</ele><time>2014-08-31T09:46:24Z</time></trkpt><trkpt lat="39.9314627331" lon="3.0593915563"><ele>68.87</ele><time>2014-08-31T09:46:30Z</time></trkpt><trkpt lat="39.9314582068" lon="3.0594552588"><ele>68.87</ele><time>2014-08-31T09:46:43Z</time></trkpt><trkpt lat="39.9314531777" lon="3.0594664905"><ele>68.39</ele><time>2014-08-31T09:46:54Z</time></trkpt><trkpt lat="39.9314541835" lon="3.0594465416"><ele>67.43</ele><time>2014-08-31T09:47:11Z</time></trkpt><trkpt lat="39.9314556085" lon="3.0594243295"><ele>63.58</ele><time>2014-08-31T09:47:13Z</time></trkpt><trkpt lat="39.9314568657" lon="3.0594156124"><ele>73.20</ele><time>2014-08-31T09:47:14Z</time></trkpt><trkpt lat="39.9314545188" lon="3.0594206415"><ele>68.39</ele><time>2014-08-31T09:47:15Z</time></trkpt><trkpt lat="39.9314287864" lon="3.0593726132"><ele>68.39</ele><time>2014-08-31T09:47:23Z</time></trkpt><trkpt lat="39.9314174708" lon="3.0593721941"><ele>68.39</ele><time>2014-08-31T09:47:26Z</time></trkpt><trkpt lat="39.9313769862" lon="3.0592752993"><ele>69.83</ele><time>2014-08-31T09:47:38Z</time></trkpt><trkpt lat="39.9313869607" lon="3.0592136923"><ele>71.27</ele><time>2014-08-31T09:47:50Z</time></trkpt><trkpt lat="39.9314416107" lon="3.0592053942"><ele>72.72</ele><time>2014-08-31T09:48:00Z</time></trkpt><trkpt lat="39.9314704444" lon="3.0591934919"><ele>72.24</ele><time>2014-08-31T09:48:09Z</time></trkpt><trkpt lat="39.9314695224" lon="3.0592105910"><ele>71.76</ele><time>2014-08-31T09:48:18Z</time></trkpt><trkpt lat="39.9314709473" lon="3.0592140276"><ele>71.76</ele><time>2014-08-31T09:48:30Z</time></trkpt><trkpt lat="39.9314645771" lon="3.0591744650"><ele>72.24</ele><time>2014-08-31T09:48:35Z</time></trkpt><trkpt lat="39.9314454664" lon="3.0591714475"><ele>72.72</ele><time>2014-08-31T09:48:48Z</time></trkpt><trkpt lat="39.9314313848" lon="3.0591803323"><ele>71.76</ele><time>2014-08-31T09:48:51Z</time></trkpt><trkpt lat="39.9314168841" lon="3.0592382513"><ele>71.27</ele><time>2014-08-31T09:49:02Z</time></trkpt><trkpt lat="39.9314099271" lon="3.0592092499"><ele>71.76</ele><time>2014-08-31T09:49:19Z</time></trkpt><trkpt lat="39.9314552732" lon="3.0592071544"><ele>71.76</ele><time>2014-08-31T09:49:30Z</time></trkpt><trkpt lat="39.9314640742" lon="3.0592127703"><ele>71.76</ele><time>2014-08-31T09:49:40Z</time></trkpt><trkpt lat="39.9314654153" lon="3.0592152849"><ele>71.76</ele><time>2014-08-31T09:49:42Z</time></trkpt><trkpt lat="39.9314531777" lon="3.0592211522"><ele>71.27</ele><time>2014-08-31T09:49:51Z</time></trkpt><trkpt lat="39.9314665888" lon="3.0592235830"><ele>71.27</ele><time>2014-08-31T09:50:01Z</time></trkpt><trkpt lat="39.9314665888" lon="3.0592235830"><ele>71.27</ele><time>2014-08-31T09:50:02Z</time></trkpt><trkpt lat="39.9314415269" lon="3.0591917317"><ele>71.76</ele><time>2014-08-31T09:50:10Z</time></trkpt><trkpt lat="39.9314421136" lon="3.0591923185"><ele>71.76</ele><time>2014-08-31T09:50:36Z</time></trkpt><trkpt lat="39.9314623140" lon="3.0592162069"><ele>69.83</ele><time>2014-08-31T09:50:47Z</time></trkpt><trkpt lat="39.9314693548" lon="3.0592866987"><ele>69.35</ele><time>2014-08-31T09:50:58Z</time></trkpt><trkpt lat="39.9314590450" lon="3.0592960026"><ele>68.87</ele><time>2014-08-31T09:51:07Z</time></trkpt><trkpt lat="39.9314981047" lon="3.0593489762"><ele>69.83</ele><time>2014-08-31T09:51:17Z</time></trkpt><trkpt lat="39.9314974342" lon="3.0593028758"><ele>70.31</ele><time>2014-08-31T09:51:27Z</time></trkpt><trkpt lat="39.9314924050" lon="3.0592937395"><ele>70.79</ele><time>2014-08-31T09:51:40Z</time></trkpt><trkpt lat="39.9314815924" lon="3.0592655763"><ele>70.79</ele><time>2014-08-31T09:51:56Z</time></trkpt><trkpt lat="39.9314975180" lon="3.0592785683"><ele>71.76</ele><time>2014-08-31T09:52:07Z</time></trkpt><trkpt lat="39.9314975180" lon="3.0592785683"><ele>75.60</ele><time>2014-08-31T09:52:09Z</time></trkpt><trkpt lat="39.9314975180" lon="3.0592785683"><ele>70.79</ele><time>2014-08-31T09:52:10Z</time></trkpt><trkpt lat="39.9314975180" lon="3.0592785683"><ele>70.31</ele><time>2014-08-31T09:52:12Z</time></trkpt><trkpt lat="39.9315275252" lon="3.0592931528"><ele>69.83</ele><time>2014-08-31T09:52:33Z</time></trkpt><trkpt lat="39.9314837717" lon="3.0592882074"><ele>70.31</ele><time>2014-08-31T09:52:57Z</time></trkpt><trkpt lat="39.9314748030" lon="3.0593213160"><ele>70.31</ele><time>2014-08-31T09:53:20Z</time></trkpt><trkpt lat="39.9314801674" lon="3.0593420193"><ele>69.83</ele><time>2014-08-31T09:53:23Z</time></trkpt><trkpt lat="39.9314654991" lon="3.0593587831"><ele>68.87</ele><time>2014-08-31T09:53:31Z</time></trkpt><trkpt lat="39.9314659182" lon="3.0593607109"><ele>68.39</ele><time>2014-08-31T09:53:35Z</time></trkpt><trkpt lat="39.9314293731" lon="3.0593566876"><ele>68.39</ele><time>2014-08-31T09:53:44Z</time></trkpt><trkpt lat="39.9314111844" lon="3.0592711922"><ele>69.83</ele><time>2014-08-31T09:53:56Z</time></trkpt><trkpt lat="39.9314175546" lon="3.0592356529"><ele>70.31</ele><time>2014-08-31T09:54:12Z</time></trkpt><trkpt lat="39.9314163812" lon="3.0592092499"><ele>70.31</ele><time>2014-08-31T09:54:15Z</time></trkpt><trkpt lat="39.9314245954" lon="3.0591912288"><ele>71.76</ele><time>2014-08-31T09:54:17Z</time></trkpt><trkpt lat="39.9314243440" lon="3.0590647459"><ele>71.27</ele><time>2014-08-31T09:54:25Z</time></trkpt><trkpt lat="39.9313867092" lon="3.0590209924"><ele>70.31</ele><time>2014-08-31T09:54:31Z</time></trkpt><trkpt lat="39.9313721247" lon="3.0590058211"><ele>70.31</ele><time>2014-08-31T09:54:33Z</time></trkpt><trkpt lat="39.9313527625" lon="3.0590048991"><ele>70.79</ele><time>2014-08-31T09:54:35Z</time></trkpt><trkpt lat="39.9313280359" lon="3.0589338206"><ele>70.79</ele><time>2014-08-31T09:54:45Z</time></trkpt><trkpt lat="39.9313194025" lon="3.0588913243"><ele>70.79</ele><time>2014-08-31T09:54:48Z</time></trkpt><trkpt lat="39.9312994536" lon="3.0588113610"><ele>70.79</ele><time>2014-08-31T09:54:53Z</time></trkpt><trkpt lat="39.9312846176" lon="3.0587752350"><ele>70.31</ele><time>2014-08-31T09:54:56Z</time></trkpt><trkpt lat="39.9312651716" lon="3.0587302241"><ele>70.79</ele><time>2014-08-31T09:55:03Z</time></trkpt><trkpt lat="39.9312586337" lon="3.0587163940"><ele>70.31</ele><time>2014-08-31T09:55:05Z</time></trkpt><trkpt lat="39.9312292971" lon="3.0586462375"><ele>69.83</ele><time>2014-08-31T09:55:16Z</time></trkpt><trkpt lat="39.9312280398" lon="3.0586433038"><ele>69.83</ele><time>2014-08-31T09:55:18Z</time></trkpt><trkpt lat="39.9312390201" lon="3.0586334970"><ele>69.83</ele><time>2014-08-31T09:55:20Z</time></trkpt><trkpt lat="39.9312117789" lon="3.0585621670"><ele>70.31</ele><time>2014-08-31T09:55:28Z</time></trkpt><trkpt lat="39.9312083423" lon="3.0585407931"><ele>70.31</ele><time>2014-08-31T09:55:30Z</time></trkpt><trkpt lat="39.9311826099" lon="3.0584890768"><ele>70.79</ele><time>2014-08-31T09:55:34Z</time></trkpt><trkpt lat="39.9311311450" lon="3.0584474187"><ele>71.76</ele><time>2014-08-31T09:55:45Z</time></trkpt><trkpt lat="39.9311085138" lon="3.0584416352"><ele>71.27</ele><time>2014-08-31T09:55:50Z</time></trkpt><trkpt lat="39.9311115313" lon="3.0584526155"><ele>70.79</ele><time>2014-08-31T09:56:01Z</time></trkpt><trkpt lat="39.9311140459" lon="3.0584387854"><ele>71.27</ele><time>2014-08-31T09:56:03Z</time></trkpt><trkpt lat="39.9311191589" lon="3.0584106222"><ele>71.76</ele><time>2014-08-31T09:56:06Z</time></trkpt><trkpt lat="39.9311171472" lon="3.0583903380"><ele>71.76</ele><time>2014-08-31T09:56:09Z</time></trkpt><trkpt lat="39.9311112799" lon="3.0583707243"><ele>71.76</ele><time>2014-08-31T09:56:12Z</time></trkpt><trkpt lat="39.9310822785" lon="3.0583303235"><ele>72.72</ele><time>2014-08-31T09:56:19Z</time></trkpt><trkpt lat="39.9310759921" lon="3.0583029147"><ele>72.72</ele><time>2014-08-31T09:56:23Z</time></trkpt><trkpt lat="39.9310739804" lon="3.0582689680"><ele>73.20</ele><time>2014-08-31T09:56:26Z</time></trkpt><trkpt lat="39.9310225155" lon="3.0581436586"><ele>72.24</ele><time>2014-08-31T09:56:33Z</time></trkpt><trkpt lat="39.9310051650" lon="3.0580787826"><ele>73.20</ele><time>2014-08-31T09:56:42Z</time></trkpt><trkpt lat="39.9309979565" lon="3.0580469314"><ele>73.68</ele><time>2014-08-31T09:56:45Z</time></trkpt><trkpt lat="39.9309828691" lon="3.0580149963"><ele>74.64</ele><time>2014-08-31T09:56:48Z</time></trkpt><trkpt lat="39.9309582263" lon="3.0579346977"><ele>75.60</ele><time>2014-08-31T09:56:59Z</time></trkpt><trkpt lat="39.9309448991" lon="3.0578281637"><ele>75.60</ele><time>2014-08-31T09:57:08Z</time></trkpt><trkpt lat="39.9309530295" lon="3.0577925406"><ele>76.08</ele><time>2014-08-31T09:57:11Z</time></trkpt><trkpt lat="39.9309598189" lon="3.0577547383"><ele>77.04</ele><time>2014-08-31T09:57:16Z</time></trkpt><trkpt lat="39.9309766665" lon="3.0576968193"><ele>77.52</ele><time>2014-08-31T09:57:22Z</time></trkpt><trkpt lat="39.9309952743" lon="3.0576675665"><ele>77.52</ele><time>2014-08-31T09:57:27Z</time></trkpt><trkpt lat="39.9310071766" lon="3.0575820711"><ele>78.48</ele><time>2014-08-31T09:57:39Z</time></trkpt><trkpt lat="39.9310094398" lon="3.0575501360"><ele>79.93</ele><time>2014-08-31T09:57:43Z</time></trkpt><trkpt lat="39.9309949391" lon="3.0574965756"><ele>80.89</ele><time>2014-08-31T09:57:53Z</time></trkpt><trkpt lat="39.9309532810" lon="3.0574564263"><ele>80.41</ele><time>2014-08-31T09:57:57Z</time></trkpt><trkpt lat="39.9309627526" lon="3.0574329570"><ele>82.33</ele><time>2014-08-31T09:58:06Z</time></trkpt><trkpt lat="39.9309459049" lon="3.0573722720"><ele>82.81</ele><time>2014-08-31T09:58:19Z</time></trkpt><trkpt lat="39.9309497606" lon="3.0573181249"><ele>81.37</ele><time>2014-08-31T09:58:29Z</time></trkpt><trkpt lat="39.9309603218" lon="3.0573076475"><ele>80.89</ele><time>2014-08-31T09:58:31Z</time></trkpt><trkpt lat="39.9309920892" lon="3.0572650675"><ele>79.93</ele><time>2014-08-31T09:58:37Z</time></trkpt><trkpt lat="39.9310209230" lon="3.0572687555"><ele>79.93</ele><time>2014-08-31T09:58:42Z</time></trkpt><trkpt lat="39.9310614076" lon="3.0572555121"><ele>79.93</ele><time>2014-08-31T09:58:53Z</time></trkpt><trkpt lat="39.9310969468" lon="3.0572729465"><ele>79.93</ele><time>2014-08-31T09:58:59Z</time></trkpt><trkpt lat="39.9311020598" lon="3.0572458729"><ele>83.77</ele><time>2014-08-31T09:59:03Z</time></trkpt><trkpt lat="39.9311029818" lon="3.0572432745"><ele>80.41</ele><time>2014-08-31T09:59:04Z</time></trkpt><trkpt lat="39.9311018921" lon="3.0572442804"><ele>79.93</ele><time>2014-08-31T09:59:17Z</time></trkpt><trkpt lat="39.9311298877" lon="3.0572499800"><ele>79.45</ele><time>2014-08-31T09:59:20Z</time></trkpt><trkpt lat="39.9311698694" lon="3.0572731979"><ele>79.45</ele><time>2014-08-31T09:59:24Z</time></trkpt><trkpt lat="39.9311801791" lon="3.0572734494"><ele>78.97</ele><time>2014-08-31T09:59:26Z</time></trkpt><trkpt lat="39.9312175624" lon="3.0572133511"><ele>78.97</ele><time>2014-08-31T09:59:34Z</time></trkpt><trkpt lat="39.9312169757" lon="3.0571957491"><ele>78.00</ele><time>2014-08-31T09:59:39Z</time></trkpt><trkpt lat="39.9312158860" lon="3.0571676698"><ele>78.97</ele><time>2014-08-31T09:59:43Z</time></trkpt><trkpt lat="39.9312182330" lon="3.0571389198"><ele>78.48</ele><time>2014-08-31T09:59:46Z</time></trkpt><trkpt lat="39.9312172271" lon="3.0570706911"><ele>78.97</ele><time>2014-08-31T09:59:51Z</time></trkpt><trkpt lat="39.9311656784" lon="3.0570112634"><ele>78.97</ele><time>2014-08-31T09:59:57Z</time></trkpt><trkpt lat="39.9311851244" lon="3.0570100062"><ele>78.97</ele><time>2014-08-31T10:00:00Z</time></trkpt><trkpt lat="39.9312067498" lon="3.0569358263"><ele>79.45</ele><time>2014-08-31T10:00:07Z</time></trkpt><trkpt lat="39.9312163889" lon="3.0569303781"><ele>79.45</ele><time>2014-08-31T10:00:09Z</time></trkpt><trkpt lat="39.9312455580" lon="3.0569115188"><ele>79.93</ele><time>2014-08-31T10:00:19Z</time></trkpt><trkpt lat="39.9312816001" lon="3.0569031369"><ele>78.97</ele><time>2014-08-31T10:00:23Z</time></trkpt><trkpt lat="39.9313574564" lon="3.0568958446"><ele>78.97</ele><time>2014-08-31T10:00:30Z</time></trkpt><trkpt lat="39.9313972704" lon="3.0568877142"><ele>78.97</ele><time>2014-08-31T10:00:34Z</time></trkpt><trkpt lat="39.9314302951" lon="3.0568927433"><ele>78.97</ele><time>2014-08-31T10:00:37Z</time></trkpt><trkpt lat="39.9314811733" lon="3.0568274483"><ele>79.93</ele><time>2014-08-31T10:00:45Z</time></trkpt><trkpt lat="39.9314988591" lon="3.0568188988"><ele>80.41</ele><time>2014-08-31T10:00:47Z</time></trkpt><trkpt lat="39.9315564428" lon="3.0567892268"><ele>79.93</ele><time>2014-08-31T10:00:56Z</time></trkpt><trkpt lat="39.9315804150" lon="3.0567569565"><ele>80.89</ele><time>2014-08-31T10:01:02Z</time></trkpt><trkpt lat="39.9315587897" lon="3.0567383487"><ele>81.37</ele><time>2014-08-31T10:01:13Z</time></trkpt><trkpt lat="39.9315603822" lon="3.0567406118"><ele>81.37</ele><time>2014-08-31T10:01:18Z</time></trkpt><trkpt lat="39.9316277727" lon="3.0567253567"><ele>81.37</ele><time>2014-08-31T10:01:29Z</time></trkpt><trkpt lat="39.9316434469" lon="3.0567075871"><ele>81.85</ele><time>2014-08-31T10:01:33Z</time></trkpt><trkpt lat="39.9317134358" lon="3.0566649232"><ele>83.29</ele><time>2014-08-31T10:01:41Z</time></trkpt><trkpt lat="39.9317288585" lon="3.0566589721"><ele>83.29</ele><time>2014-08-31T10:01:43Z</time></trkpt><trkpt lat="39.9317452032" lon="3.0566596426"><ele>83.77</ele><time>2014-08-31T10:01:46Z</time></trkpt><trkpt lat="39.9317722768" lon="3.0566461477"><ele>85.21</ele><time>2014-08-31T10:01:56Z</time></trkpt><trkpt lat="39.9317965843" lon="3.0566120334"><ele>85.21</ele><time>2014-08-31T10:02:06Z</time></trkpt><trkpt lat="39.9318289384" lon="3.0565947667"><ele>85.69</ele><time>2014-08-31T10:02:12Z</time></trkpt><trkpt lat="39.9318591971" lon="3.0565840378"><ele>85.69</ele><time>2014-08-31T10:02:17Z</time></trkpt><trkpt lat="39.9318980891" lon="3.0565997958"><ele>87.14</ele><time>2014-08-31T10:02:25Z</time></trkpt><trkpt lat="39.9319098238" lon="3.0565951020"><ele>86.66</ele><time>2014-08-31T10:02:28Z</time></trkpt><trkpt lat="39.9319425970" lon="3.0565324891"><ele>88.58</ele><time>2014-08-31T10:02:39Z</time></trkpt><trkpt lat="39.9319468718" lon="3.0564972013"><ele>90.02</ele><time>2014-08-31T10:02:45Z</time></trkpt><trkpt lat="39.9319710117" lon="3.0564718042"><ele>89.54</ele><time>2014-08-31T10:02:48Z</time></trkpt><trkpt lat="39.9320078082" lon="3.0564593151"><ele>91.94</ele><time>2014-08-31T10:02:54Z</time></trkpt><trkpt lat="39.9320033658" lon="3.0564492568"><ele>92.90</ele><time>2014-08-31T10:03:03Z</time></trkpt><trkpt lat="39.9320572615" lon="3.0564537831"><ele>92.90</ele><time>2014-08-31T10:03:15Z</time></trkpt><trkpt lat="39.9320636317" lon="3.0564060062"><ele>93.87</ele><time>2014-08-31T10:03:20Z</time></trkpt><trkpt lat="39.9321130849" lon="3.0563978758"><ele>95.31</ele><time>2014-08-31T10:03:30Z</time></trkpt><trkpt lat="39.9321547430" lon="3.0563842133"><ele>95.79</ele><time>2014-08-31T10:03:40Z</time></trkpt><trkpt lat="39.9321730155" lon="3.0563718081"><ele>96.75</ele><time>2014-08-31T10:03:42Z</time></trkpt><trkpt lat="39.9321933836" lon="3.0563490931"><ele>97.71</ele><time>2014-08-31T10:03:46Z</time></trkpt><trkpt lat="39.9321849179" lon="3.0563168228"><ele>99.63</ele><time>2014-08-31T10:03:51Z</time></trkpt><trkpt lat="39.9321837444" lon="3.0563070159"><ele>99.15</ele><time>2014-08-31T10:03:52Z</time></trkpt><trkpt lat="39.9321773741" lon="3.0562645197"><ele>100.60</ele><time>2014-08-31T10:03:55Z</time></trkpt><trkpt lat="39.9321711715" lon="3.0562561378"><ele>101.08</ele><time>2014-08-31T10:03:56Z</time></trkpt><trkpt lat="39.9321652204" lon="3.0562206823"><ele>101.56</ele><time>2014-08-31T10:04:00Z</time></trkpt><trkpt lat="39.9321757816" lon="3.0562193412"><ele>101.08</ele><time>2014-08-31T10:04:02Z</time></trkpt><trkpt lat="39.9321714230" lon="3.0561768450"><ele>103.00</ele><time>2014-08-31T10:04:09Z</time></trkpt><trkpt lat="39.9321611971" lon="3.0561431497"><ele>103.96</ele><time>2014-08-31T10:04:15Z</time></trkpt><trkpt lat="39.9321441818" lon="3.0560913496"><ele>104.44</ele><time>2014-08-31T10:04:22Z</time></trkpt><trkpt lat="39.9321489595" lon="3.0560652819"><ele>106.36</ele><time>2014-08-31T10:04:25Z</time></trkpt><trkpt lat="39.9321612809" lon="3.0559957121"><ele>107.32</ele><time>2014-08-31T10:04:36Z</time></trkpt><trkpt lat="39.9321868457" lon="3.0559743382"><ele>108.29</ele><time>2014-08-31T10:04:44Z</time></trkpt><trkpt lat="39.9322194513" lon="3.0559460074"><ele>109.73</ele><time>2014-08-31T10:04:50Z</time></trkpt><trkpt lat="39.9322405737" lon="3.0559442472"><ele>110.69</ele><time>2014-08-31T10:04:55Z</time></trkpt><trkpt lat="39.9322264921" lon="3.0559127312"><ele>111.65</ele><time>2014-08-31T10:05:00Z</time></trkpt><trkpt lat="39.9321962334" lon="3.0558642838"><ele>111.65</ele><time>2014-08-31T10:05:09Z</time></trkpt><trkpt lat="39.9321993347" lon="3.0558270682"><ele>112.61</ele><time>2014-08-31T10:05:15Z</time></trkpt><trkpt lat="39.9322024360" lon="3.0557756033"><ele>114.53</ele><time>2014-08-31T10:05:25Z</time></trkpt><trkpt lat="39.9322359636" lon="3.0557793751"><ele>116.46</ele><time>2014-08-31T10:05:31Z</time></trkpt><trkpt lat="39.9322544038" lon="3.0557181034"><ele>118.38</ele><time>2014-08-31T10:05:40Z</time></trkpt><trkpt lat="39.9322564155" lon="3.0557107273"><ele>119.34</ele><time>2014-08-31T10:05:42Z</time></trkpt><trkpt lat="39.9322511349" lon="3.0556828156"><ele>120.30</ele><time>2014-08-31T10:05:46Z</time></trkpt><trkpt lat="39.9321784638" lon="3.0555202067"><ele>122.22</ele><time>2014-08-31T10:06:01Z</time></trkpt><trkpt lat="39.9321750272" lon="3.0555010960"><ele>122.71</ele><time>2014-08-31T10:06:03Z</time></trkpt><trkpt lat="39.9321570899" lon="3.0554726813"><ele>122.22</ele><time>2014-08-31T10:06:07Z</time></trkpt><trkpt lat="39.9321480375" lon="3.0554509722"><ele>122.71</ele><time>2014-08-31T10:06:21Z</time></trkpt><trkpt lat="39.9320995063" lon="3.0553472880"><ele>123.19</ele><time>2014-08-31T10:06:30Z</time></trkpt><trkpt lat="39.9320911244" lon="3.0553011876"><ele>123.19</ele><time>2014-08-31T10:06:33Z</time></trkpt><trkpt lat="39.9320717622" lon="3.0552765448"><ele>123.67</ele><time>2014-08-31T10:06:36Z</time></trkpt><trkpt lat="39.9320588540" lon="3.0552270077"><ele>123.67</ele><time>2014-08-31T10:06:42Z</time></trkpt><trkpt lat="39.9320287630" lon="3.0551613774"><ele>123.19</ele><time>2014-08-31T10:06:48Z</time></trkpt><trkpt lat="39.9320571776" lon="3.0551415961"><ele>123.67</ele><time>2014-08-31T10:07:03Z</time></trkpt><trkpt lat="39.9319669046" lon="3.0551762972"><ele>123.67</ele><time>2014-08-31T10:11:40Z</time></trkpt><trkpt lat="39.9319760408" lon="3.0551648978"><ele>123.67</ele><time>2014-08-31T10:11:41Z</time></trkpt><trkpt lat="39.9319480453" lon="3.0550929811"><ele>123.19</ele><time>2014-08-31T10:11:53Z</time></trkpt><trkpt lat="39.9318924733" lon="3.0549853574"><ele>125.11</ele><time>2014-08-31T10:12:06Z</time></trkpt><trkpt lat="39.9319337122" lon="3.0549432803"><ele>124.15</ele><time>2014-08-31T10:12:16Z</time></trkpt><trkpt lat="39.9319293536" lon="3.0549418554"><ele>125.59</ele><time>2014-08-31T10:12:19Z</time></trkpt><trkpt lat="39.9319207203" lon="3.0549598765"><ele>125.11</ele><time>2014-08-31T10:12:29Z</time></trkpt><trkpt lat="39.9319101591" lon="3.0549873691"><ele>125.11</ele><time>2014-08-31T10:12:37Z</time></trkpt><trkpt lat="39.9319023639" lon="3.0549213197"><ele>125.59</ele><time>2014-08-31T10:12:44Z</time></trkpt><trkpt lat="39.9318804033" lon="3.0548159592"><ele>125.59</ele><time>2014-08-31T10:12:54Z</time></trkpt><trkpt lat="39.9318674114" lon="3.0547847785"><ele>126.07</ele><time>2014-08-31T10:12:57Z</time></trkpt><trkpt lat="39.9318450317" lon="3.0547668412"><ele>126.55</ele><time>2014-08-31T10:13:02Z</time></trkpt><trkpt lat="39.9317895435" lon="3.0546958465"><ele>127.99</ele><time>2014-08-31T10:13:14Z</time></trkpt><trkpt lat="39.9317319598" lon="3.0546235945"><ele>131.84</ele><time>2014-08-31T10:13:22Z</time></trkpt><trkpt lat="39.9317221530" lon="3.0545805953"><ele>126.55</ele><time>2014-08-31T10:13:26Z</time></trkpt><trkpt lat="39.9317208957" lon="3.0545720458"><ele>129.92</ele><time>2014-08-31T10:13:27Z</time></trkpt><trkpt lat="39.9316346459" lon="3.0545033142"><ele>129.92</ele><time>2014-08-31T10:13:39Z</time></trkpt><trkpt lat="39.9316082429" lon="3.0544888135"><ele>130.40</ele><time>2014-08-31T10:13:42Z</time></trkpt><trkpt lat="39.9315561075" lon="3.0544562079"><ele>130.40</ele><time>2014-08-31T10:13:49Z</time></trkpt><trkpt lat="39.9315031338" lon="3.0543593969"><ele>131.36</ele><time>2014-08-31T10:14:00Z</time></trkpt><trkpt lat="39.9314781558" lon="3.0543099437"><ele>132.32</ele><time>2014-08-31T10:14:08Z</time></trkpt><trkpt lat="39.9314729590" lon="3.0542733148"><ele>132.80</ele><time>2014-08-31T10:14:15Z</time></trkpt><trkpt lat="39.9314647447" lon="3.0542464927"><ele>133.28</ele><time>2014-08-31T10:14:17Z</time></trkpt><trkpt lat="39.9314626493" lon="3.0541367736"><ele>134.24</ele><time>2014-08-31T10:14:27Z</time></trkpt><trkpt lat="39.9314642418" lon="3.0540884100"><ele>134.24</ele><time>2014-08-31T10:14:30Z</time></trkpt><trkpt lat="39.9314664211" lon="3.0540529545"><ele>135.20</ele><time>2014-08-31T10:14:33Z</time></trkpt><trkpt lat="39.9314827658" lon="3.0540487636"><ele>135.68</ele><time>2014-08-31T10:14:43Z</time></trkpt><trkpt lat="39.9314794131" lon="3.0539879110"><ele>137.13</ele><time>2014-08-31T10:14:51Z</time></trkpt><trkpt lat="39.9314805027" lon="3.0539628491"><ele>138.57</ele><time>2014-08-31T10:14:56Z</time></trkpt><trkpt lat="39.9314646609" lon="3.0539034214"><ele>137.13</ele><time>2014-08-31T10:15:05Z</time></trkpt><trkpt lat="39.9314504955" lon="3.0539608374"><ele>137.13</ele><time>2014-08-31T10:15:15Z</time></trkpt><trkpt lat="39.9314854480" lon="3.0540028308"><ele>139.05</ele><time>2014-08-31T10:15:23Z</time></trkpt><trkpt lat="39.9315597955" lon="3.0540584866"><ele>141.45</ele><time>2014-08-31T10:15:33Z</time></trkpt><trkpt lat="39.9315817561" lon="3.0541031621"><ele>142.41</ele><time>2014-08-31T10:15:38Z</time></trkpt><trkpt lat="39.9316160381" lon="3.0540920142"><ele>143.37</ele><time>2014-08-31T10:15:44Z</time></trkpt><trkpt lat="39.9316566065" lon="3.0541135557"><ele>144.34</ele><time>2014-08-31T10:15:52Z</time></trkpt><trkpt lat="39.9316798244" lon="3.0541165732"><ele>144.82</ele><time>2014-08-31T10:15:55Z</time></trkpt><trkpt lat="39.9316879548" lon="3.0541383661"><ele>144.82</ele><time>2014-08-31T10:15:59Z</time></trkpt><trkpt lat="39.9316962529" lon="3.0541506037"><ele>145.30</ele><time>2014-08-31T10:16:01Z</time></trkpt><trkpt lat="39.9317581113" lon="3.0541350134"><ele>146.26</ele><time>2014-08-31T10:16:11Z</time></trkpt><trkpt lat="39.9317669962" lon="3.0541310739"><ele>146.26</ele><time>2014-08-31T10:16:15Z</time></trkpt><trkpt lat="39.9317991827" lon="3.0541469995"><ele>146.26</ele><time>2014-08-31T10:16:20Z</time></trkpt><trkpt lat="39.9318576884" lon="3.0541681219"><ele>146.26</ele><time>2014-08-31T10:16:29Z</time></trkpt><trkpt lat="39.9318757933" lon="3.0541625060"><ele>146.74</ele><time>2014-08-31T10:16:33Z</time></trkpt><trkpt lat="39.9318970833" lon="3.0541344266"><ele>147.22</ele><time>2014-08-31T10:16:37Z</time></trkpt><trkpt lat="39.9319291022" lon="3.0541179143"><ele>146.74</ele><time>2014-08-31T10:16:44Z</time></trkpt><trkpt lat="39.9319600314" lon="3.0541144777"><ele>146.74</ele><time>2014-08-31T10:16:47Z</time></trkpt><trkpt lat="39.9319735263" lon="3.0541153159"><ele>147.70</ele><time>2014-08-31T10:16:59Z</time></trkpt><trkpt lat="39.9319817405" lon="3.0540926009"><ele>144.34</ele><time>2014-08-31T10:17:12Z</time></trkpt><trkpt lat="39.9319779687" lon="3.0540717300"><ele>147.22</ele><time>2014-08-31T10:17:32Z</time></trkpt><trkpt lat="39.9319827463" lon="3.0540725682"><ele>147.22</ele><time>2014-08-31T10:17:39Z</time></trkpt><trkpt lat="39.9319774657" lon="3.0540708918"><ele>147.22</ele><time>2014-08-31T10:17:48Z</time></trkpt><trkpt lat="39.9319671560" lon="3.0541064311"><ele>146.74</ele><time>2014-08-31T10:17:52Z</time></trkpt><trkpt lat="39.9319645576" lon="3.0541032460"><ele>146.74</ele><time>2014-08-31T10:17:55Z</time></trkpt><trkpt lat="39.9319645576" lon="3.0541376956"><ele>147.22</ele><time>2014-08-31T10:17:59Z</time></trkpt><trkpt lat="39.9319589417" lon="3.0541719776"><ele>146.26</ele><time>2014-08-31T10:18:03Z</time></trkpt><trkpt lat="39.9319581874" lon="3.0542385299"><ele>145.30</ele><time>2014-08-31T10:18:10Z</time></trkpt><trkpt lat="39.9319599476" lon="3.0542340036"><ele>144.82</ele><time>2014-08-31T10:18:17Z</time></trkpt><trkpt lat="39.9319958221" lon="3.0543004721"><ele>143.85</ele><time>2014-08-31T10:18:25Z</time></trkpt><trkpt lat="39.9320456944" lon="3.0543214269"><ele>143.85</ele><time>2014-08-31T10:18:34Z</time></trkpt><trkpt lat="39.9320523161" lon="3.0543194152"><ele>142.41</ele><time>2014-08-31T10:18:45Z</time></trkpt><trkpt lat="39.9320674036" lon="3.0543104466"><ele>141.45</ele><time>2014-08-31T10:18:51Z</time></trkpt><trkpt lat="39.9320828263" lon="3.0542819481"><ele>141.45</ele><time>2014-08-31T10:18:55Z</time></trkpt><trkpt lat="39.9320955668" lon="3.0542546231"><ele>140.49</ele><time>2014-08-31T10:19:00Z</time></trkpt><trkpt lat="39.9320954829" lon="3.0542176589"><ele>140.01</ele><time>2014-08-31T10:19:04Z</time></trkpt><trkpt lat="39.9321046192" lon="3.0541884061"><ele>139.05</ele><time>2014-08-31T10:19:07Z</time></trkpt><trkpt lat="39.9321098998" lon="3.0541532021"><ele>140.49</ele><time>2014-08-31T10:19:10Z</time></trkpt><trkpt lat="39.9321354646" lon="3.0540734902"><ele>140.01</ele><time>2014-08-31T10:19:19Z</time></trkpt><trkpt lat="39.9321400747" lon="3.0540645216"><ele>140.01</ele><time>2014-08-31T10:19:22Z</time></trkpt><trkpt lat="39.9321377277" lon="3.0540188402"><ele>139.53</ele><time>2014-08-31T10:19:26Z</time></trkpt><trkpt lat="39.9321516417" lon="3.0539732426"><ele>139.53</ele><time>2014-08-31T10:19:30Z</time></trkpt><trkpt lat="39.9321642984" lon="3.0538582429"><ele>139.53</ele><time>2014-08-31T10:19:40Z</time></trkpt><trkpt lat="39.9321636278" lon="3.0538423173"><ele>138.57</ele><time>2014-08-31T10:19:50Z</time></trkpt><trkpt lat="39.9321709201" lon="3.0537719931"><ele>138.09</ele><time>2014-08-31T10:19:58Z</time></trkpt><trkpt lat="39.9321709201" lon="3.0537543911"><ele>139.05</ele><time>2014-08-31T10:20:00Z</time></trkpt><trkpt lat="39.9321725126" lon="3.0537150800"><ele>138.09</ele><time>2014-08-31T10:20:03Z</time></trkpt><trkpt lat="39.9321898632" lon="3.0536542274"><ele>137.13</ele><time>2014-08-31T10:20:07Z</time></trkpt><trkpt lat="39.9321696628" lon="3.0536001641"><ele>138.57</ele><time>2014-08-31T10:20:13Z</time></trkpt><trkpt lat="39.9321552459" lon="3.0535690673"><ele>139.53</ele><time>2014-08-31T10:20:16Z</time></trkpt><trkpt lat="39.9321534019" lon="3.0535143334"><ele>140.01</ele><time>2014-08-31T10:20:20Z</time></trkpt><trkpt lat="39.9321431760" lon="3.0534480326"><ele>140.01</ele><time>2014-08-31T10:20:24Z</time></trkpt><trkpt lat="39.9321548268" lon="3.0534235574"><ele>139.53</ele><time>2014-08-31T10:20:28Z</time></trkpt><trkpt lat="39.9321507197" lon="3.0533899460"><ele>140.49</ele><time>2014-08-31T10:20:32Z</time></trkpt><trkpt lat="39.9321612809" lon="3.0533540715"><ele>140.01</ele><time>2014-08-31T10:20:35Z</time></trkpt><trkpt lat="39.9321570899" lon="3.0532816518"><ele>140.49</ele><time>2014-08-31T10:20:40Z</time></trkpt><trkpt lat="39.9321480375" lon="3.0532610323"><ele>140.49</ele><time>2014-08-31T10:20:42Z</time></trkpt><trkpt lat="39.9321460258" lon="3.0531913787"><ele>140.97</ele><time>2014-08-31T10:20:51Z</time></trkpt><trkpt lat="39.9321627896" lon="3.0531383213"><ele>141.45</ele><time>2014-08-31T10:20:55Z</time></trkpt><trkpt lat="39.9321642146" lon="3.0530909635"><ele>141.93</ele><time>2014-08-31T10:20:59Z</time></trkpt><trkpt lat="39.9321590178" lon="3.0530683324"><ele>142.41</ele><time>2014-08-31T10:21:03Z</time></trkpt><trkpt lat="39.9321958981" lon="3.0530068092"><ele>142.89</ele><time>2014-08-31T10:21:10Z</time></trkpt><trkpt lat="39.9321907852" lon="3.0529106688"><ele>142.41</ele><time>2014-08-31T10:21:19Z</time></trkpt><trkpt lat="39.9321906175" lon="3.0529063102"><ele>142.89</ele><time>2014-08-31T10:21:32Z</time></trkpt><trkpt lat="39.9321906175" lon="3.0529063102"><ele>143.37</ele><time>2014-08-31T10:21:35Z</time></trkpt><trkpt lat="39.9321860913" lon="3.0528934021"><ele>142.89</ele><time>2014-08-31T10:21:49Z</time></trkpt><trkpt lat="39.9321860913" lon="3.0528934021"><ele>142.41</ele><time>2014-08-31T10:22:13Z</time></trkpt><trkpt lat="39.9321860913" lon="3.0528934021"><ele>145.30</ele><time>2014-08-31T10:22:14Z</time></trkpt><trkpt lat="39.9321860913" lon="3.0528934021"><ele>140.01</ele><time>2014-08-31T10:22:15Z</time></trkpt><trkpt lat="39.9321663938" lon="3.0529497284"><ele>143.85</ele><time>2014-08-31T10:22:25Z</time></trkpt><trkpt lat="39.9321167730" lon="3.0529677495"><ele>144.82</ele><time>2014-08-31T10:22:33Z</time></trkpt><trkpt lat="39.9320800602" lon="3.0529660732"><ele>145.78</ele><time>2014-08-31T10:22:39Z</time></trkpt><trkpt lat="39.9320424255" lon="3.0529546738"><ele>147.22</ele><time>2014-08-31T10:22:45Z</time></trkpt><trkpt lat="39.9320142623" lon="3.0529637262"><ele>147.70</ele><time>2014-08-31T10:22:48Z</time></trkpt><trkpt lat="39.9320068024" lon="3.0529980082"><ele>149.14</ele><time>2014-08-31T10:22:57Z</time></trkpt><trkpt lat="39.9320022762" lon="3.0530078989"><ele>146.26</ele><time>2014-08-31T10:23:12Z</time></trkpt><trkpt lat="39.9319987558" lon="3.0530142691"><ele>153.95</ele><time>2014-08-31T10:23:13Z</time></trkpt><trkpt lat="39.9319953192" lon="3.0530172866"><ele>146.26</ele><time>2014-08-31T10:23:14Z</time></trkpt><trkpt lat="39.9319870211" lon="3.0530207232"><ele>153.95</ele><time>2014-08-31T10:23:15Z</time></trkpt><trkpt lat="39.9319788069" lon="3.0530280992"><ele>143.85</ele><time>2014-08-31T10:23:16Z</time></trkpt><trkpt lat="39.9319728557" lon="3.0530353915"><ele>150.10</ele><time>2014-08-31T10:23:17Z</time></trkpt><trkpt lat="39.9319643900" lon="3.0530320387"><ele>151.06</ele><time>2014-08-31T10:23:27Z</time></trkpt><trkpt lat="39.9319664855" lon="3.0530301109"><ele>152.03</ele><time>2014-08-31T10:23:32Z</time></trkpt><trkpt lat="39.9319529068" lon="3.0530232377"><ele>152.03</ele><time>2014-08-31T10:23:34Z</time></trkpt><trkpt lat="39.9319214746" lon="3.0529982597"><ele>153.47</ele><time>2014-08-31T10:23:45Z</time></trkpt><trkpt lat="39.9318810739" lon="3.0529601220"><ele>154.43</ele><time>2014-08-31T10:23:51Z</time></trkpt><trkpt lat="39.9318419304" lon="3.0529452860"><ele>155.39</ele><time>2014-08-31T10:23:58Z</time></trkpt><trkpt lat="39.9318296928" lon="3.0529421009"><ele>155.87</ele><time>2014-08-31T10:24:03Z</time></trkpt><trkpt lat="39.9318120070" lon="3.0529096629"><ele>156.35</ele><time>2014-08-31T10:24:08Z</time></trkpt><trkpt lat="39.9317930639" lon="3.0528658256"><ele>157.31</ele><time>2014-08-31T10:24:11Z</time></trkpt><trkpt lat="39.9317850173" lon="3.0528073199"><ele>158.75</ele><time>2014-08-31T10:24:20Z</time></trkpt><trkpt lat="39.9317546748" lon="3.0527328048"><ele>158.27</ele><time>2014-08-31T10:24:28Z</time></trkpt><trkpt lat="39.9317146931" lon="3.0526271090"><ele>157.79</ele><time>2014-08-31T10:24:37Z</time></trkpt><trkpt lat="39.9316799920" lon="3.0525754765"><ele>157.31</ele><time>2014-08-31T10:24:44Z</time></trkpt><trkpt lat="39.9316723645" lon="3.0525552761"><ele>157.31</ele><time>2014-08-31T10:24:46Z</time></trkpt><trkpt lat="39.9316724483" lon="3.0525178090"><ele>157.31</ele><time>2014-08-31T10:24:50Z</time></trkpt><trkpt lat="39.9316665810" lon="3.0525048170"><ele>157.79</ele><time>2014-08-31T10:24:53Z</time></trkpt><trkpt lat="39.9316622224" lon="3.0524774920"><ele>157.79</ele><time>2014-08-31T10:24:57Z</time></trkpt><trkpt lat="39.9316566065" lon="3.0524184834"><ele>159.24</ele><time>2014-08-31T10:25:07Z</time></trkpt><trkpt lat="39.9316401780" lon="3.0523939244"><ele>159.24</ele><time>2014-08-31T10:25:10Z</time></trkpt><trkpt lat="39.9316281080" lon="3.0522950180"><ele>161.64</ele><time>2014-08-31T10:25:20Z</time></trkpt><trkpt lat="39.9316254258" lon="3.0522432178"><ele>161.64</ele><time>2014-08-31T10:25:24Z</time></trkpt><trkpt lat="39.9316291977" lon="3.0521917529"><ele>162.60</ele><time>2014-08-31T10:25:32Z</time></trkpt><trkpt lat="39.9316291977" lon="3.0521653499"><ele>163.08</ele><time>2014-08-31T10:25:36Z</time></trkpt><trkpt lat="39.9316649046" lon="3.0521341693"><ele>163.08</ele><time>2014-08-31T10:25:39Z</time></trkpt><trkpt lat="39.9316607974" lon="3.0521063413"><ele>163.08</ele><time>2014-08-31T10:25:41Z</time></trkpt><trkpt lat="39.9316328019" lon="3.0519719794"><ele>164.04</ele><time>2014-08-31T10:25:49Z</time></trkpt><trkpt lat="39.9316360708" lon="3.0519199278"><ele>164.04</ele><time>2014-08-31T10:25:52Z</time></trkpt><trkpt lat="39.9316372443" lon="3.0518750008"><ele>164.04</ele><time>2014-08-31T10:25:55Z</time></trkpt><trkpt lat="39.9316367414" lon="3.0518351030"><ele>164.04</ele><time>2014-08-31T10:25:59Z</time></trkpt><trkpt lat="39.9316450395" lon="3.0517669581"><ele>165.48</ele><time>2014-08-31T10:26:05Z</time></trkpt><trkpt lat="39.9316578638" lon="3.0517477635"><ele>165.00</ele><time>2014-08-31T10:26:15Z</time></trkpt><trkpt lat="39.9316489790" lon="3.0517467577"><ele>164.52</ele><time>2014-08-31T10:26:17Z</time></trkpt><trkpt lat="39.9316508230" lon="3.0517399684"><ele>166.93</ele><time>2014-08-31T10:26:27Z</time></trkpt><trkpt lat="39.9316467997" lon="3.0517273955"><ele>164.04</ele><time>2014-08-31T10:26:39Z</time></trkpt><trkpt lat="39.9316467997" lon="3.0517273955"><ele>165.00</ele><time>2014-08-31T10:27:08Z</time></trkpt><trkpt lat="39.9316462968" lon="3.0517267250"><ele>165.00</ele><time>2014-08-31T10:27:35Z</time></trkpt><trkpt lat="39.9316462968" lon="3.0517267250"><ele>165.00</ele><time>2014-08-31T10:27:45Z</time></trkpt><trkpt lat="39.9316521641" lon="3.0517233722"><ele>165.00</ele><time>2014-08-31T10:27:48Z</time></trkpt><trkpt lat="39.9316608813" lon="3.0517437402"><ele>165.96</ele><time>2014-08-31T10:27:54Z</time></trkpt><trkpt lat="39.9317229912" lon="3.0517651979"><ele>164.52</ele><time>2014-08-31T10:28:02Z</time></trkpt><trkpt lat="39.9317502324" lon="3.0517935287"><ele>163.56</ele><time>2014-08-31T10:28:13Z</time></trkpt><trkpt lat="39.9317469634" lon="3.0517799500"><ele>163.08</ele><time>2014-08-31T10:28:25Z</time></trkpt><trkpt lat="39.9317469634" lon="3.0517799500"><ele>163.56</ele><time>2014-08-31T10:28:45Z</time></trkpt><trkpt lat="39.9317437783" lon="3.0517741665"><ele>164.04</ele><time>2014-08-31T10:28:57Z</time></trkpt><trkpt lat="39.9317437783" lon="3.0517741665"><ele>163.56</ele><time>2014-08-31T10:29:25Z</time></trkpt><trkpt lat="39.9317446165" lon="3.0517745018"><ele>163.56</ele><time>2014-08-31T10:29:50Z</time></trkpt><trkpt lat="39.9317470472" lon="3.0517735798"><ele>163.08</ele><time>2014-08-31T10:30:25Z</time></trkpt><trkpt lat="39.9317470472" lon="3.0517735798"><ele>162.60</ele><time>2014-08-31T10:30:44Z</time></trkpt><trkpt lat="39.9317477178" lon="3.0517715681"><ele>164.04</ele><time>2014-08-31T10:31:14Z</time></trkpt><trkpt lat="39.9317477178" lon="3.0517715681"><ele>163.56</ele><time>2014-08-31T10:31:31Z</time></trkpt><trkpt lat="39.9317566864" lon="3.0517413095"><ele>164.04</ele><time>2014-08-31T10:31:42Z</time></trkpt><trkpt lat="39.9317631405" lon="3.0517404713"><ele>164.04</ele><time>2014-08-31T10:31:58Z</time></trkpt><trkpt lat="39.9317631405" lon="3.0517404713"><ele>164.52</ele><time>2014-08-31T10:32:01Z</time></trkpt><trkpt lat="39.9317167047" lon="3.0517460033"><ele>165.48</ele><time>2014-08-31T10:32:11Z</time></trkpt><trkpt lat="39.9317020364" lon="3.0517496914"><ele>165.48</ele><time>2014-08-31T10:32:27Z</time></trkpt><trkpt lat="39.9317020364" lon="3.0517496914"><ele>165.96</ele><time>2014-08-31T10:32:30Z</time></trkpt><trkpt lat="39.9316940736" lon="3.0517277308"><ele>165.96</ele><time>2014-08-31T10:32:33Z</time></trkpt><trkpt lat="39.9316781480" lon="3.0517041776"><ele>165.96</ele><time>2014-08-31T10:32:39Z</time></trkpt><trkpt lat="39.9316592049" lon="3.0516805407"><ele>165.48</ele><time>2014-08-31T10:32:42Z</time></trkpt><trkpt lat="39.9316155352" lon="3.0516401399"><ele>165.96</ele><time>2014-08-31T10:32:47Z</time></trkpt><trkpt lat="39.9315691832" lon="3.0515921116"><ele>166.93</ele><time>2014-08-31T10:32:55Z</time></trkpt><trkpt lat="39.9315144494" lon="3.0515111424"><ele>168.37</ele><time>2014-08-31T10:33:04Z</time></trkpt><trkpt lat="39.9314967636" lon="3.0515003297"><ele>168.85</ele><time>2014-08-31T10:33:06Z</time></trkpt><trkpt lat="39.9314334802" lon="3.0514549837"><ele>169.33</ele><time>2014-08-31T10:33:15Z</time></trkpt><trkpt lat="39.9314098433" lon="3.0514399800"><ele>169.81</ele><time>2014-08-31T10:33:17Z</time></trkpt><trkpt lat="39.9313570373" lon="3.0513973162"><ele>171.73</ele><time>2014-08-31T10:33:25Z</time></trkpt><trkpt lat="39.9313332327" lon="3.0513459351"><ele>173.66</ele><time>2014-08-31T10:33:37Z</time></trkpt><trkpt lat="39.9313248508" lon="3.0513432529"><ele>173.66</ele><time>2014-08-31T10:33:43Z</time></trkpt><trkpt lat="39.9312544428" lon="3.0513159279"><ele>175.10</ele><time>2014-08-31T10:33:53Z</time></trkpt><trkpt lat="39.9312339071" lon="3.0513103958"><ele>176.06</ele><time>2014-08-31T10:33:56Z</time></trkpt><trkpt lat="39.9312359188" lon="3.0512482859"><ele>177.02</ele><time>2014-08-31T10:34:04Z</time></trkpt><trkpt lat="39.9311953504" lon="3.0512099806"><ele>179.90</ele><time>2014-08-31T10:34:16Z</time></trkpt><trkpt lat="39.9311486632" lon="3.0511554983"><ele>182.31</ele><time>2014-08-31T10:34:27Z</time></trkpt><trkpt lat="39.9311407842" lon="3.0511526484"><ele>182.31</ele><time>2014-08-31T10:34:28Z</time></trkpt><trkpt lat="39.9310590606" lon="3.0510928854"><ele>184.23</ele><time>2014-08-31T10:34:41Z</time></trkpt><trkpt lat="39.9310237728" lon="3.0510536581"><ele>186.15</ele><time>2014-08-31T10:34:51Z</time></trkpt><trkpt lat="39.9309835397" lon="3.0509811547"><ele>188.08</ele><time>2014-08-31T10:34:57Z</time></trkpt><trkpt lat="39.9309784267" lon="3.0509596970"><ele>188.56</ele><time>2014-08-31T10:34:59Z</time></trkpt><trkpt lat="39.9309581425" lon="3.0509363115"><ele>189.52</ele><time>2014-08-31T10:35:04Z</time></trkpt><trkpt lat="39.9309628364" lon="3.0509086512"><ele>189.52</ele><time>2014-08-31T10:35:09Z</time></trkpt><trkpt lat="39.9309466593" lon="3.0508965813"><ele>190.48</ele><time>2014-08-31T10:35:11Z</time></trkpt><trkpt lat="39.9309368525" lon="3.0508712679"><ele>190.96</ele><time>2014-08-31T10:35:15Z</time></trkpt><trkpt lat="39.9309265427" lon="3.0508495588"><ele>191.92</ele><time>2014-08-31T10:35:19Z</time></trkpt><trkpt lat="39.9309032410" lon="3.0508570187"><ele>191.92</ele><time>2014-08-31T10:35:24Z</time></trkpt><trkpt lat="39.9308797717" lon="3.0508393329"><ele>191.44</ele><time>2014-08-31T10:35:28Z</time></trkpt><trkpt lat="39.9308651034" lon="3.0508180428"><ele>192.40</ele><time>2014-08-31T10:35:32Z</time></trkpt><trkpt lat="39.9308148120" lon="3.0507742055"><ele>194.32</ele><time>2014-08-31T10:35:41Z</time></trkpt><trkpt lat="39.9307856429" lon="3.0507022887"><ele>195.28</ele><time>2014-08-31T10:35:49Z</time></trkpt><trkpt lat="39.9307560548" lon="3.0506020412"><ele>196.73</ele><time>2014-08-31T10:35:58Z</time></trkpt><trkpt lat="39.9307173304" lon="3.0506059807"><ele>197.21</ele><time>2014-08-31T10:36:04Z</time></trkpt><trkpt lat="39.9306791089" lon="3.0506107584"><ele>196.73</ele><time>2014-08-31T10:36:09Z</time></trkpt><trkpt lat="39.9306341819" lon="3.0505706090"><ele>197.69</ele><time>2014-08-31T10:36:16Z</time></trkpt><trkpt lat="39.9306184240" lon="3.0505376682"><ele>197.69</ele><time>2014-08-31T10:36:21Z</time></trkpt><trkpt lat="39.9305760115" lon="3.0504867062"><ele>198.65</ele><time>2014-08-31T10:36:26Z</time></trkpt><trkpt lat="39.9305689707" lon="3.0504710320"><ele>199.13</ele><time>2014-08-31T10:36:28Z</time></trkpt><trkpt lat="39.9305158295" lon="3.0504004564"><ele>200.09</ele><time>2014-08-31T10:36:36Z</time></trkpt><trkpt lat="39.9304553121" lon="3.0503919907"><ele>199.61</ele><time>2014-08-31T10:36:43Z</time></trkpt><trkpt lat="39.9304164201" lon="3.0504273623"><ele>199.61</ele><time>2014-08-31T10:36:50Z</time></trkpt><trkpt lat="39.9303552322" lon="3.0503836088"><ele>201.05</ele><time>2014-08-31T10:37:03Z</time></trkpt><trkpt lat="39.9303552322" lon="3.0503836088"><ele>201.05</ele><time>2014-08-31T10:37:06Z</time></trkpt><trkpt lat="39.9303533882" lon="3.0503849499"><ele>200.57</ele><time>2014-08-31T10:37:08Z</time></trkpt><trkpt lat="39.9303740077" lon="3.0503563676"><ele>200.09</ele><time>2014-08-31T10:37:13Z</time></trkpt><trkpt lat="39.9304029252" lon="3.0503453873"><ele>200.57</ele><time>2014-08-31T10:37:16Z</time></trkpt><trkpt lat="39.9304285739" lon="3.0503262766"><ele>200.57</ele><time>2014-08-31T10:37:22Z</time></trkpt><trkpt lat="39.9304547254" lon="3.0503186490"><ele>201.05</ele><time>2014-08-31T10:37:31Z</time></trkpt><trkpt lat="39.9304586649" lon="3.0502915755"><ele>201.53</ele><time>2014-08-31T10:37:42Z</time></trkpt><trkpt lat="39.9304586649" lon="3.0502915755"><ele>201.53</ele><time>2014-08-31T10:37:51Z</time></trkpt><trkpt lat="39.9304721598" lon="3.0502912402"><ele>201.53</ele><time>2014-08-31T10:37:53Z</time></trkpt><trkpt lat="39.9305814598" lon="3.0502396077"><ele>202.01</ele><time>2014-08-31T10:38:04Z</time></trkpt><trkpt lat="39.9305842258" lon="3.0502326507"><ele>202.98</ele><time>2014-08-31T10:38:12Z</time></trkpt><trkpt lat="39.9305853993" lon="3.0501293857"><ele>202.49</ele><time>2014-08-31T10:38:18Z</time></trkpt><trkpt lat="39.9306100421" lon="3.0500998814"><ele>202.01</ele><time>2014-08-31T10:38:26Z</time></trkpt><trkpt lat="39.9306361098" lon="3.0500521045"><ele>201.05</ele><time>2014-08-31T10:38:33Z</time></trkpt><trkpt lat="39.9306354392" lon="3.0500087701"><ele>200.57</ele><time>2014-08-31T10:38:36Z</time></trkpt><trkpt lat="39.9306359421" lon="3.0499749072"><ele>200.57</ele><time>2014-08-31T10:38:40Z</time></trkpt><trkpt lat="39.9306326732" lon="3.0499432236"><ele>201.05</ele><time>2014-08-31T10:38:44Z</time></trkpt><trkpt lat="39.9306392949" lon="3.0499065947"><ele>200.57</ele><time>2014-08-31T10:38:47Z</time></trkpt><trkpt lat="39.9306793604" lon="3.0498709716"><ele>199.61</ele><time>2014-08-31T10:38:51Z</time></trkpt><trkpt lat="39.9306853954" lon="3.0498305708"><ele>199.13</ele><time>2014-08-31T10:38:56Z</time></trkpt><trkpt lat="39.9306891672" lon="3.0497987196"><ele>198.65</ele><time>2014-08-31T10:38:58Z</time></trkpt><trkpt lat="39.9306796119" lon="3.0497214384"><ele>197.69</ele><time>2014-08-31T10:39:08Z</time></trkpt><trkpt lat="39.9306801986" lon="3.0496747512"><ele>197.69</ele><time>2014-08-31T10:39:13Z</time></trkpt><trkpt lat="39.9306638539" lon="3.0496092886"><ele>196.73</ele><time>2014-08-31T10:39:17Z</time></trkpt><trkpt lat="39.9306396302" lon="3.0494821351"><ele>197.21</ele><time>2014-08-31T10:39:28Z</time></trkpt><trkpt lat="39.9306359421" lon="3.0494619347"><ele>197.21</ele><time>2014-08-31T10:39:30Z</time></trkpt><trkpt lat="39.9306303263" lon="3.0494219530"><ele>197.21</ele><time>2014-08-31T10:39:34Z</time></trkpt><trkpt lat="39.9306331761" lon="3.0493947957"><ele>197.69</ele><time>2014-08-31T10:39:37Z</time></trkpt><trkpt lat="39.9306195136" lon="3.0493413191"><ele>197.21</ele><time>2014-08-31T10:39:43Z</time></trkpt><trkpt lat="39.9305972178" lon="3.0493194424"><ele>198.17</ele><time>2014-08-31T10:39:47Z</time></trkpt><trkpt lat="39.9305799510" lon="3.0492851604"><ele>197.69</ele><time>2014-08-31T10:39:52Z</time></trkpt><trkpt lat="39.9305527098" lon="3.0491564143"><ele>198.17</ele><time>2014-08-31T10:40:01Z</time></trkpt><trkpt lat="39.9304865766" lon="3.0490823183"><ele>198.17</ele><time>2014-08-31T10:40:11Z</time></trkpt><trkpt lat="39.9304766860" lon="3.0490673985"><ele>198.17</ele><time>2014-08-31T10:40:15Z</time></trkpt><trkpt lat="39.9304636940" lon="3.0490403250"><ele>198.17</ele><time>2014-08-31T10:40:17Z</time></trkpt><trkpt lat="39.9304408114" lon="3.0490054563"><ele>199.13</ele><time>2014-08-31T10:40:23Z</time></trkpt><trkpt lat="39.9304436613" lon="3.0489939731"><ele>198.65</ele><time>2014-08-31T10:40:46Z</time></trkpt><trkpt lat="39.9304423202" lon="3.0489441846"><ele>199.13</ele><time>2014-08-31T10:40:49Z</time></trkpt><trkpt lat="39.9304315913" lon="3.0488954019"><ele>198.65</ele><time>2014-08-31T10:40:53Z</time></trkpt><trkpt lat="39.9304106366" lon="3.0488489661"><ele>199.13</ele><time>2014-08-31T10:40:56Z</time></trkpt><trkpt lat="39.9303874187" lon="3.0488094036"><ele>199.13</ele><time>2014-08-31T10:40:59Z</time></trkpt><trkpt lat="39.9303661287" lon="3.0486585293"><ele>200.09</ele><time>2014-08-31T10:41:10Z</time></trkpt><trkpt lat="39.9303499516" lon="3.0486034602"><ele>199.61</ele><time>2014-08-31T10:41:15Z</time></trkpt><trkpt lat="39.9303508736" lon="3.0485759676"><ele>200.09</ele><time>2014-08-31T10:41:18Z</time></trkpt><trkpt lat="39.9303454254" lon="3.0485012848"><ele>200.57</ele><time>2014-08-31T10:41:25Z</time></trkpt><trkpt lat="39.9303460121" lon="3.0484732054"><ele>200.57</ele><time>2014-08-31T10:41:28Z</time></trkpt><trkpt lat="39.9303412344" lon="3.0484345648"><ele>200.57</ele><time>2014-08-31T10:41:32Z</time></trkpt><trkpt lat="39.9303450901" lon="3.0483842734"><ele>201.53</ele><time>2014-08-31T10:41:36Z</time></trkpt><trkpt lat="39.9303579982" lon="3.0483383406"><ele>201.05</ele><time>2014-08-31T10:41:40Z</time></trkpt><trkpt lat="39.9303565733" lon="3.0482758116"><ele>202.01</ele><time>2014-08-31T10:41:47Z</time></trkpt><trkpt lat="39.9303491972" lon="3.0482290406"><ele>202.49</ele><time>2014-08-31T10:41:51Z</time></trkpt><trkpt lat="39.9303243868" lon="3.0481383484"><ele>202.98</ele><time>2014-08-31T10:42:01Z</time></trkpt><trkpt lat="39.9303116463" lon="3.0481230933"><ele>199.61</ele><time>2014-08-31T10:42:03Z</time></trkpt><trkpt lat="39.9303074554" lon="3.0481237639"><ele>203.94</ele><time>2014-08-31T10:42:04Z</time></trkpt><trkpt lat="39.9303086288" lon="3.0481236801"><ele>202.98</ele><time>2014-08-31T10:42:20Z</time></trkpt><trkpt lat="39.9303086288" lon="3.0481236801"><ele>199.61</ele><time>2014-08-31T10:42:33Z</time></trkpt><trkpt lat="39.9303086288" lon="3.0481236801"><ele>206.34</ele><time>2014-08-31T10:42:34Z</time></trkpt><trkpt lat="39.9303086288" lon="3.0481236801"><ele>202.49</ele><time>2014-08-31T10:42:35Z</time></trkpt><trkpt lat="39.9303084612" lon="3.0480536912"><ele>204.42</ele><time>2014-08-31T10:42:41Z</time></trkpt><trkpt lat="39.9303112272" lon="3.0480163917"><ele>203.46</ele><time>2014-08-31T10:42:46Z</time></trkpt><trkpt lat="39.9303039350" lon="3.0479694530"><ele>204.42</ele><time>2014-08-31T10:42:52Z</time></trkpt><trkpt lat="39.9302798789" lon="3.0478580575"><ele>205.38</ele><time>2014-08-31T10:43:03Z</time></trkpt><trkpt lat="39.9302725866" lon="3.0477915052"><ele>205.86</ele><time>2014-08-31T10:43:09Z</time></trkpt><trkpt lat="39.9302674737" lon="3.0476542935"><ele>207.78</ele><time>2014-08-31T10:43:20Z</time></trkpt><trkpt lat="39.9302642047" lon="3.0476257112"><ele>207.78</ele><time>2014-08-31T10:43:22Z</time></trkpt><trkpt lat="39.9302497040" lon="3.0475332588"><ele>208.74</ele><time>2014-08-31T10:43:31Z</time></trkpt><trkpt lat="39.9302071240" lon="3.0474602524"><ele>210.19</ele><time>2014-08-31T10:43:42Z</time></trkpt><trkpt lat="39.9301833194" lon="3.0473626032"><ele>211.15</ele><time>2014-08-31T10:43:51Z</time></trkpt><trkpt lat="39.9301681481" lon="3.0473393854"><ele>211.63</ele><time>2014-08-31T10:43:53Z</time></trkpt><trkpt lat="39.9301305134" lon="3.0472388864"><ele>212.11</ele><time>2014-08-31T10:44:04Z</time></trkpt><trkpt lat="39.9300907832" lon="3.0471411534"><ele>213.07</ele><time>2014-08-31T10:44:14Z</time></trkpt><trkpt lat="39.9300791323" lon="3.0471223779"><ele>214.03</ele><time>2014-08-31T10:44:22Z</time></trkpt><trkpt lat="39.9300508853" lon="3.0470770318"><ele>214.03</ele><time>2014-08-31T10:44:28Z</time></trkpt><trkpt lat="39.9300307687" lon="3.0470611900"><ele>214.03</ele><time>2014-08-31T10:44:41Z</time></trkpt><trkpt lat="39.9299895298" lon="3.0469382275"><ele>215.95</ele><time>2014-08-31T10:44:52Z</time></trkpt><trkpt lat="39.9299508892" lon="3.0469034426"><ele>217.40</ele><time>2014-08-31T10:45:02Z</time></trkpt><trkpt lat="39.9299014360" lon="3.0468060449"><ele>218.36</ele><time>2014-08-31T10:45:10Z</time></trkpt><trkpt lat="39.9298783019" lon="3.0467789713"><ele>218.36</ele><time>2014-08-31T10:45:20Z</time></trkpt><trkpt lat="39.9298684951" lon="3.0467680749"><ele>218.84</ele><time>2014-08-31T10:45:24Z</time></trkpt><trkpt lat="39.9298038706" lon="3.0467501376"><ele>218.84</ele><time>2014-08-31T10:45:34Z</time></trkpt><trkpt lat="39.9297581892" lon="3.0466835853"><ele>220.76</ele><time>2014-08-31T10:45:44Z</time></trkpt><trkpt lat="39.9297114182" lon="3.0466038734"><ele>222.20</ele><time>2014-08-31T10:45:53Z</time></trkpt><trkpt lat="39.9297005218" lon="3.0465435237"><ele>224.12</ele><time>2014-08-31T10:46:04Z</time></trkpt><trkpt lat="39.9297036231" lon="3.0465126783"><ele>226.53</ele><time>2014-08-31T10:46:15Z</time></trkpt><trkpt lat="39.9296975881" lon="3.0464720260"><ele>227.01</ele><time>2014-08-31T10:46:18Z</time></trkpt><trkpt lat="39.9297050480" lon="3.0463954993"><ele>228.45</ele><time>2014-08-31T10:46:28Z</time></trkpt><trkpt lat="39.9296929780" lon="3.0463554338"><ele>230.37</ele><time>2014-08-31T10:46:35Z</time></trkpt><trkpt lat="39.9296769686" lon="3.0462934077"><ele>231.33</ele><time>2014-08-31T10:46:44Z</time></trkpt><trkpt lat="39.9296619650" lon="3.0462758057"><ele>232.30</ele><time>2014-08-31T10:46:46Z</time></trkpt><trkpt lat="39.9296524096" lon="3.0462514982"><ele>232.78</ele><time>2014-08-31T10:46:49Z</time></trkpt><trkpt lat="39.9296581093" lon="3.0462379195"><ele>234.22</ele><time>2014-08-31T10:46:56Z</time></trkpt><trkpt lat="39.9296517391" lon="3.0462960899"><ele>234.70</ele><time>2014-08-31T10:47:04Z</time></trkpt><trkpt lat="39.9296524934" lon="3.0462101754"><ele>235.18</ele><time>2014-08-31T10:47:09Z</time></trkpt><trkpt lat="39.9296352267" lon="3.0461479817"><ele>236.14</ele><time>2014-08-31T10:47:21Z</time></trkpt><trkpt lat="39.9296372384" lon="3.0461241771"><ele>237.10</ele><time>2014-08-31T10:47:24Z</time></trkpt><trkpt lat="39.9296266772" lon="3.0460948404"><ele>238.06</ele><time>2014-08-31T10:47:27Z</time></trkpt><trkpt lat="39.9295993522" lon="3.0460567027"><ele>239.99</ele><time>2014-08-31T10:47:35Z</time></trkpt><trkpt lat="39.9295984302" lon="3.0460496619"><ele>239.51</ele><time>2014-08-31T10:47:37Z</time></trkpt><trkpt lat="39.9296033755" lon="3.0460332334"><ele>239.99</ele><time>2014-08-31T10:47:39Z</time></trkpt><trkpt lat="39.9296071474" lon="3.0459827743"><ele>240.95</ele><time>2014-08-31T10:47:52Z</time></trkpt><trkpt lat="39.9295970891" lon="3.0459418707"><ele>240.95</ele><time>2014-08-31T10:47:57Z</time></trkpt><trkpt lat="39.9295775592" lon="3.0458424613"><ele>242.39</ele><time>2014-08-31T10:48:06Z</time></trkpt><trkpt lat="39.9295627233" lon="3.0457988754"><ele>242.39</ele><time>2014-08-31T10:48:13Z</time></trkpt><trkpt lat="39.9295360688" lon="3.0457459018"><ele>241.91</ele><time>2014-08-31T10:48:22Z</time></trkpt><trkpt lat="39.9294900522" lon="3.0457021482"><ele>240.95</ele><time>2014-08-31T10:48:30Z</time></trkpt><trkpt lat="39.9294750486" lon="3.0456566345"><ele>241.91</ele><time>2014-08-31T10:48:35Z</time></trkpt><trkpt lat="39.9294439517" lon="3.0455907527"><ele>243.35</ele><time>2014-08-31T10:48:42Z</time></trkpt><trkpt lat="39.9294298701" lon="3.0455478374"><ele>244.79</ele><time>2014-08-31T10:48:51Z</time></trkpt><trkpt lat="39.9294064846" lon="3.0454993062"><ele>246.23</ele><time>2014-08-31T10:48:59Z</time></trkpt><trkpt lat="39.9293922354" lon="3.0454479251"><ele>247.20</ele><time>2014-08-31T10:49:07Z</time></trkpt><trkpt lat="39.9293880444" lon="3.0454017408"><ele>247.68</ele><time>2014-08-31T10:49:10Z</time></trkpt><trkpt lat="39.9293710291" lon="3.0453116354"><ele>248.64</ele><time>2014-08-31T10:49:20Z</time></trkpt><trkpt lat="39.9293697719" lon="3.0453050137"><ele>248.64</ele><time>2014-08-31T10:49:25Z</time></trkpt><trkpt lat="39.9293476436" lon="3.0452803709"><ele>250.08</ele><time>2014-08-31T10:49:36Z</time></trkpt><trkpt lat="39.9293401837" lon="3.0452641100"><ele>250.08</ele><time>2014-08-31T10:49:38Z</time></trkpt><trkpt lat="39.9293287005" lon="3.0452299956"><ele>251.04</ele><time>2014-08-31T10:49:42Z</time></trkpt><trkpt lat="39.9292771518" lon="3.0451423209"><ele>252.00</ele><time>2014-08-31T10:49:54Z</time></trkpt><trkpt lat="39.9292733800" lon="3.0451388843"><ele>252.00</ele><time>2014-08-31T10:49:55Z</time></trkpt><trkpt lat="39.9292490724" lon="3.0450678058"><ele>252.96</ele><time>2014-08-31T10:50:03Z</time></trkpt><trkpt lat="39.9292398524" lon="3.0450196099"><ele>254.41</ele><time>2014-08-31T10:50:11Z</time></trkpt><trkpt lat="39.9292462226" lon="3.0449715815"><ele>254.89</ele><time>2014-08-31T10:50:18Z</time></trkpt><trkpt lat="39.9292462226" lon="3.0449715815"><ele>256.33</ele><time>2014-08-31T10:50:30Z</time></trkpt><trkpt lat="39.9292457197" lon="3.0449560750"><ele>255.85</ele><time>2014-08-31T10:50:42Z</time></trkpt><trkpt lat="39.9292475637" lon="3.0449493695"><ele>255.85</ele><time>2014-08-31T10:50:51Z</time></trkpt><trkpt lat="39.9292475637" lon="3.0449493695"><ele>259.69</ele><time>2014-08-31T10:51:13Z</time></trkpt><trkpt lat="39.9292475637" lon="3.0449493695"><ele>256.33</ele><time>2014-08-31T10:51:14Z</time></trkpt><trkpt lat="39.9292475637" lon="3.0449493695"><ele>252.96</ele><time>2014-08-31T10:51:20Z</time></trkpt><trkpt lat="39.9292475637" lon="3.0449493695"><ele>258.73</ele><time>2014-08-31T10:51:21Z</time></trkpt><trkpt lat="39.9292566162" lon="3.0449277442"><ele>252.96</ele><time>2014-08-31T10:51:23Z</time></trkpt><trkpt lat="39.9292587116" lon="3.0449263193"><ele>259.21</ele><time>2014-08-31T10:51:24Z</time></trkpt><trkpt lat="39.9292561132" lon="3.0449279957"><ele>256.33</ele><time>2014-08-31T10:51:26Z</time></trkpt><trkpt lat="39.9292566162" lon="3.0449277442"><ele>252.96</ele><time>2014-08-31T10:51:30Z</time></trkpt><trkpt lat="39.9292556942" lon="3.0449262355"><ele>258.73</ele><time>2014-08-31T10:51:31Z</time></trkpt><trkpt lat="39.9292566162" lon="3.0449277442"><ele>257.77</ele><time>2014-08-31T10:51:32Z</time></trkpt><trkpt lat="39.9292566162" lon="3.0449277442"><ele>256.81</ele><time>2014-08-31T10:51:34Z</time></trkpt><trkpt lat="39.9292566162" lon="3.0449277442"><ele>255.85</ele><time>2014-08-31T10:52:00Z</time></trkpt><trkpt lat="39.9292654172" lon="3.0448920373"><ele>251.52</ele><time>2014-08-31T10:52:05Z</time></trkpt><trkpt lat="39.9292654172" lon="3.0448920373"><ele>257.77</ele><time>2014-08-31T10:52:06Z</time></trkpt><trkpt lat="39.9292577896" lon="3.0448549055"><ele>254.89</ele><time>2014-08-31T10:52:17Z</time></trkpt><trkpt lat="39.9292582925" lon="3.0448504630"><ele>258.73</ele><time>2014-08-31T10:52:19Z</time></trkpt><trkpt lat="39.9292585440" lon="3.0448490381"><ele>256.81</ele><time>2014-08-31T10:52:20Z</time></trkpt><trkpt lat="39.9292582087" lon="3.0448507983"><ele>259.21</ele><time>2014-08-31T10:52:43Z</time></trkpt><trkpt lat="39.9292538501" lon="3.0448397342"><ele>256.81</ele><time>2014-08-31T10:53:01Z</time></trkpt><trkpt lat="39.9292538501" lon="3.0448397342"><ele>256.33</ele><time>2014-08-31T10:53:11Z</time></trkpt><trkpt lat="39.9292553589" lon="3.0448352080"><ele>256.81</ele><time>2014-08-31T10:53:38Z</time></trkpt><trkpt lat="39.9292538501" lon="3.0448370520"><ele>256.33</ele><time>2014-08-31T10:54:02Z</time></trkpt><trkpt lat="39.9292449653" lon="3.0448212102"><ele>257.29</ele><time>2014-08-31T10:54:11Z</time></trkpt><trkpt lat="39.9292141199" lon="3.0447702482"><ele>257.29</ele><time>2014-08-31T10:54:21Z</time></trkpt><trkpt lat="39.9291846994" lon="3.0447572563"><ele>256.81</ele><time>2014-08-31T10:54:34Z</time></trkpt><trkpt lat="39.9291770719" lon="3.0447613634"><ele>255.37</ele><time>2014-08-31T10:54:46Z</time></trkpt><trkpt lat="39.9291638285" lon="3.0447464436"><ele>255.37</ele><time>2014-08-31T10:55:01Z</time></trkpt><trkpt lat="39.9291620683" lon="3.0447430070"><ele>256.33</ele><time>2014-08-31T10:55:20Z</time></trkpt><trkpt lat="39.9291361682" lon="3.0447010137"><ele>255.85</ele><time>2014-08-31T10:55:33Z</time></trkpt><trkpt lat="39.9291243497" lon="3.0446856748"><ele>256.33</ele><time>2014-08-31T10:55:44Z</time></trkpt><trkpt lat="39.9290944263" lon="3.0446192902"><ele>256.81</ele><time>2014-08-31T10:55:56Z</time></trkpt><trkpt lat="39.9290913250" lon="3.0446170270"><ele>257.29</ele><time>2014-08-31T10:56:07Z</time></trkpt><trkpt lat="39.9290828593" lon="3.0446252413"><ele>257.77</ele><time>2014-08-31T10:56:13Z</time></trkpt><trkpt lat="39.9290899001" lon="3.0446663126"><ele>257.77</ele><time>2014-08-31T10:56:22Z</time></trkpt><trkpt lat="39.9291152135" lon="3.0447073840"><ele>257.29</ele><time>2014-08-31T10:56:33Z</time></trkpt><trkpt lat="39.9291493278" lon="3.0446747784"><ele>258.73</ele><time>2014-08-31T10:56:44Z</time></trkpt><trkpt lat="39.9291556980" lon="3.0446751136"><ele>262.10</ele><time>2014-08-31T10:56:53Z</time></trkpt><trkpt lat="39.9291556980" lon="3.0446751136"><ele>257.29</ele><time>2014-08-31T10:56:54Z</time></trkpt><trkpt lat="39.9291575421" lon="3.0446723476"><ele>254.41</ele><time>2014-08-31T10:56:55Z</time></trkpt><trkpt lat="39.9291556980" lon="3.0446751136"><ele>262.10</ele><time>2014-08-31T10:56:56Z</time></trkpt><trkpt lat="39.9291556980" lon="3.0446751136"><ele>258.25</ele><time>2014-08-31T10:56:57Z</time></trkpt><trkpt lat="39.9291556980" lon="3.0446751136"><ele>255.37</ele><time>2014-08-31T10:57:00Z</time></trkpt><trkpt lat="39.9291556980" lon="3.0446751136"><ele>260.17</ele><time>2014-08-31T10:57:01Z</time></trkpt><trkpt lat="39.9291556980" lon="3.0446751136"><ele>257.29</ele><time>2014-08-31T10:57:02Z</time></trkpt><trkpt lat="39.9291556980" lon="3.0446751136"><ele>252.48</ele><time>2014-08-31T10:57:05Z</time></trkpt><trkpt lat="39.9291546922" lon="3.0446761195"><ele>257.29</ele><time>2014-08-31T10:57:06Z</time></trkpt><trkpt lat="39.9291556980" lon="3.0446751136"><ele>257.29</ele><time>2014-08-31T10:57:12Z</time></trkpt><trkpt lat="39.9291514233" lon="3.0446782149"><ele>253.93</ele><time>2014-08-31T10:57:18Z</time></trkpt><trkpt lat="39.9291556980" lon="3.0446751136"><ele>260.65</ele><time>2014-08-31T10:57:19Z</time></trkpt><trkpt lat="39.9291556980" lon="3.0446751136"><ele>256.81</ele><time>2014-08-31T10:57:20Z</time></trkpt><trkpt lat="39.9291644990" lon="3.0446853396"><ele>260.65</ele><time>2014-08-31T10:57:22Z</time></trkpt><trkpt lat="39.9291634094" lon="3.0446909554"><ele>259.21</ele><time>2014-08-31T10:57:23Z</time></trkpt><trkpt lat="39.9291713722" lon="3.0446946435"><ele>242.87</ele><time>2014-08-31T10:57:25Z</time></trkpt><trkpt lat="39.9291707017" lon="3.0446920451"><ele>257.77</ele><time>2014-08-31T10:57:26Z</time></trkpt><trkpt lat="39.9291707017" lon="3.0446920451"><ele>265.46</ele><time>2014-08-31T10:57:32Z</time></trkpt><trkpt lat="39.9291669298" lon="3.0446950626"><ele>258.73</ele><time>2014-08-31T10:57:33Z</time></trkpt><trkpt lat="39.9291707017" lon="3.0446920451"><ele>256.81</ele><time>2014-08-31T10:57:55Z</time></trkpt><trkpt lat="39.9291700311" lon="3.0446878541"><ele>257.29</ele><time>2014-08-31T10:58:22Z</time></trkpt><trkpt lat="39.9291699473" lon="3.0446841661"><ele>258.25</ele><time>2014-08-31T10:58:42Z</time></trkpt><trkpt lat="39.9291699473" lon="3.0446841661"><ele>255.85</ele><time>2014-08-31T10:58:46Z</time></trkpt><trkpt lat="39.9291704502" lon="3.0446866807"><ele>259.21</ele><time>2014-08-31T10:58:57Z</time></trkpt><trkpt lat="39.9291499984" lon="3.0446548294"><ele>259.21</ele><time>2014-08-31T10:59:04Z</time></trkpt><trkpt lat="39.9291571230" lon="3.0446817353"><ele>258.25</ele><time>2014-08-31T10:59:14Z</time></trkpt><trkpt lat="39.9291571230" lon="3.0446817353"><ele>259.69</ele><time>2014-08-31T10:59:31Z</time></trkpt><trkpt lat="39.9291571230" lon="3.0446817353"><ele>258.25</ele><time>2014-08-31T10:59:33Z</time></trkpt><trkpt lat="39.9291571230" lon="3.0446817353"><ele>254.89</ele><time>2014-08-31T10:59:47Z</time></trkpt><trkpt lat="39.9291571230" lon="3.0446817353"><ele>258.73</ele><time>2014-08-31T10:59:48Z</time></trkpt><trkpt lat="39.9291574582" lon="3.0446818192"><ele>258.25</ele><time>2014-08-31T11:00:18Z</time></trkpt><trkpt lat="39.9291577097" lon="3.0446814839"><ele>257.77</ele><time>2014-08-31T11:00:48Z</time></trkpt><trkpt lat="39.9291542731" lon="3.0446771253"><ele>258.25</ele><time>2014-08-31T11:01:14Z</time></trkpt><trkpt lat="39.9291542731" lon="3.0446771253"><ele>254.89</ele><time>2014-08-31T11:01:23Z</time></trkpt><trkpt lat="39.9291542731" lon="3.0446771253"><ele>258.25</ele><time>2014-08-31T11:01:24Z</time></trkpt><trkpt lat="39.9291479029" lon="3.0446751975"><ele>258.73</ele><time>2014-08-31T11:02:00Z</time></trkpt><trkpt lat="39.9291484896" lon="3.0446768738"><ele>258.73</ele><time>2014-08-31T11:02:33Z</time></trkpt><trkpt lat="39.9291484896" lon="3.0446768738"><ele>257.77</ele><time>2014-08-31T11:02:55Z</time></trkpt><trkpt lat="39.9291492440" lon="3.0446784664"><ele>257.77</ele><time>2014-08-31T11:03:24Z</time></trkpt><trkpt lat="39.9291475676" lon="3.0446763709"><ele>258.73</ele><time>2014-08-31T11:03:55Z</time></trkpt><trkpt lat="39.9291475676" lon="3.0446757004"><ele>258.25</ele><time>2014-08-31T11:04:30Z</time></trkpt><trkpt lat="39.9291475676" lon="3.0446757004"><ele>257.29</ele><time>2014-08-31T11:04:59Z</time></trkpt><trkpt lat="39.9291508365" lon="3.0446753651"><ele>257.29</ele><time>2014-08-31T11:05:24Z</time></trkpt><trkpt lat="39.9291559495" lon="3.0446734373"><ele>257.29</ele><time>2014-08-31T11:05:50Z</time></trkpt><trkpt lat="39.9291559495" lon="3.0446734373"><ele>258.25</ele><time>2014-08-31T11:06:24Z</time></trkpt><trkpt lat="39.9291539378" lon="3.0446719285"><ele>258.25</ele><time>2014-08-31T11:06:54Z</time></trkpt><trkpt lat="39.9291528482" lon="3.0446770415"><ele>258.25</ele><time>2014-08-31T11:07:26Z</time></trkpt><trkpt lat="39.9291526806" lon="3.0446779635"><ele>258.25</ele><time>2014-08-31T11:07:53Z</time></trkpt><trkpt lat="39.9291503336" lon="3.0446726829"><ele>258.25</ele><time>2014-08-31T11:08:16Z</time></trkpt><trkpt lat="39.9291445501" lon="3.0446742754"><ele>257.77</ele><time>2014-08-31T11:08:52Z</time></trkpt><trkpt lat="39.9291445501" lon="3.0446742754"><ele>258.25</ele><time>2014-08-31T11:09:12Z</time></trkpt><trkpt lat="39.9291419517" lon="3.0446679890"><ele>258.25</ele><time>2014-08-31T11:09:47Z</time></trkpt><trkpt lat="39.9291411135" lon="3.0446657259"><ele>258.73</ele><time>2014-08-31T11:10:09Z</time></trkpt><trkpt lat="39.9291478191" lon="3.0446675699"><ele>258.73</ele><time>2014-08-31T11:10:40Z</time></trkpt><trkpt lat="39.9291503336" lon="3.0446677376"><ele>257.77</ele><time>2014-08-31T11:11:11Z</time></trkpt><trkpt lat="39.9291506689" lon="3.0446520634"><ele>256.81</ele><time>2014-08-31T11:11:30Z</time></trkpt><trkpt lat="39.9291506689" lon="3.0446520634"><ele>258.73</ele><time>2014-08-31T11:11:33Z</time></trkpt><trkpt lat="39.9291506689" lon="3.0446520634"><ele>258.73</ele><time>2014-08-31T11:11:56Z</time></trkpt><trkpt lat="39.9291477352" lon="3.0446506385"><ele>258.73</ele><time>2014-08-31T11:12:25Z</time></trkpt><trkpt lat="39.9291520938" lon="3.0446508899"><ele>261.62</ele><time>2014-08-31T11:12:30Z</time></trkpt><trkpt lat="39.9291399401" lon="3.0446720961"><ele>258.73</ele><time>2014-08-31T11:12:33Z</time></trkpt><trkpt lat="39.9291148782" lon="3.0446864292"><ele>258.25</ele><time>2014-08-31T11:12:46Z</time></trkpt><trkpt lat="39.9291241821" lon="3.0447040312"><ele>257.29</ele><time>2014-08-31T11:12:59Z</time></trkpt><trkpt lat="39.9291303009" lon="3.0447312724"><ele>261.14</ele><time>2014-08-31T11:13:04Z</time></trkpt><trkpt lat="39.9291303009" lon="3.0447312724"><ele>258.73</ele><time>2014-08-31T11:13:05Z</time></trkpt><trkpt lat="39.9291399401" lon="3.0447746068"><ele>253.44</ele><time>2014-08-31T11:13:14Z</time></trkpt><trkpt lat="39.9291471485" lon="3.0447836593"><ele>253.44</ele><time>2014-08-31T11:13:15Z</time></trkpt><trkpt lat="39.9291542731" lon="3.0447919574"><ele>257.77</ele><time>2014-08-31T11:13:16Z</time></trkpt><trkpt lat="39.9291589670" lon="3.0448012613"><ele>253.93</ele><time>2014-08-31T11:13:17Z</time></trkpt><trkpt lat="39.9291758984" lon="3.0448201206"><ele>257.29</ele><time>2014-08-31T11:13:20Z</time></trkpt><trkpt lat="39.9291744735" lon="3.0448195338"><ele>256.81</ele><time>2014-08-31T11:13:25Z</time></trkpt><trkpt lat="39.9292038940" lon="3.0448906124"><ele>255.85</ele><time>2014-08-31T11:13:36Z</time></trkpt><trkpt lat="39.9292043969" lon="3.0448882654"><ele>256.81</ele><time>2014-08-31T11:13:39Z</time></trkpt><trkpt lat="39.9292248487" lon="3.0449219607"><ele>253.44</ele><time>2014-08-31T11:13:50Z</time></trkpt><trkpt lat="39.9292287882" lon="3.0449328572"><ele>256.33</ele><time>2014-08-31T11:13:51Z</time></trkpt><trkpt lat="39.9292349909" lon="3.0449524708"><ele>252.96</ele><time>2014-08-31T11:13:53Z</time></trkpt><trkpt lat="39.9292317219" lon="3.0449621938"><ele>256.33</ele><time>2014-08-31T11:13:54Z</time></trkpt><trkpt lat="39.9292387627" lon="3.0450343620"><ele>253.93</ele><time>2014-08-31T11:14:13Z</time></trkpt><trkpt lat="39.9292416126" lon="3.0450535566"><ele>257.29</ele><time>2014-08-31T11:14:15Z</time></trkpt><trkpt lat="39.9292463902" lon="3.0450647045"><ele>252.48</ele><time>2014-08-31T11:14:17Z</time></trkpt><trkpt lat="39.9292514194" lon="3.0450721644"><ele>253.44</ele><time>2014-08-31T11:14:18Z</time></trkpt><trkpt lat="39.9292552751" lon="3.0450972263"><ele>253.93</ele><time>2014-08-31T11:14:22Z</time></trkpt><trkpt lat="39.9293136131" lon="3.0452097114"><ele>252.48</ele><time>2014-08-31T11:14:32Z</time></trkpt><trkpt lat="39.9293085840" lon="3.0452144891"><ele>252.48</ele><time>2014-08-31T11:14:34Z</time></trkpt><trkpt lat="39.9293066561" lon="3.0452896748"><ele>251.04</ele><time>2014-08-31T11:14:42Z</time></trkpt><trkpt lat="39.9293150380" lon="3.0453765113"><ele>250.08</ele><time>2014-08-31T11:14:53Z</time></trkpt><trkpt lat="39.9293183908" lon="3.0453837197"><ele>249.60</ele><time>2014-08-31T11:14:54Z</time></trkpt><trkpt lat="39.9293287843" lon="3.0454169121"><ele>248.64</ele><time>2014-08-31T11:14:59Z</time></trkpt><trkpt lat="39.9293398485" lon="3.0454638507"><ele>248.64</ele><time>2014-08-31T11:15:03Z</time></trkpt><trkpt lat="39.9293463863" lon="3.0454993062"><ele>248.64</ele><time>2014-08-31T11:15:06Z</time></trkpt><trkpt lat="39.9293662515" lon="3.0455428082"><ele>246.72</ele><time>2014-08-31T11:15:12Z</time></trkpt><trkpt lat="39.9293683469" lon="3.0455485079"><ele>247.20</ele><time>2014-08-31T11:15:13Z</time></trkpt><trkpt lat="39.9293726217" lon="3.0455834605"><ele>247.20</ele><time>2014-08-31T11:15:20Z</time></trkpt><trkpt lat="39.9293763097" lon="3.0456115399"><ele>245.27</ele><time>2014-08-31T11:15:30Z</time></trkpt><trkpt lat="39.9293753877" lon="3.0456548743"><ele>244.79</ele><time>2014-08-31T11:15:35Z</time></trkpt><trkpt lat="39.9294209015" lon="3.0456719734"><ele>243.83</ele><time>2014-08-31T11:15:39Z</time></trkpt><trkpt lat="39.9294483941" lon="3.0456916708"><ele>244.79</ele><time>2014-08-31T11:15:45Z</time></trkpt><trkpt lat="39.9294550158" lon="3.0457049981"><ele>244.79</ele><time>2014-08-31T11:15:46Z</time></trkpt><trkpt lat="39.9294894654" lon="3.0457318202"><ele>244.31</ele><time>2014-08-31T11:15:51Z</time></trkpt><trkpt lat="39.9295162875" lon="3.0457454827"><ele>245.27</ele><time>2014-08-31T11:15:55Z</time></trkpt><trkpt lat="39.9295191374" lon="3.0457525235"><ele>245.27</ele><time>2014-08-31T11:15:58Z</time></trkpt><trkpt lat="39.9295488093" lon="3.0458254460"><ele>245.27</ele><time>2014-08-31T11:16:09Z</time></trkpt><trkpt lat="39.9295478873" lon="3.0458308104"><ele>245.75</ele><time>2014-08-31T11:16:11Z</time></trkpt><trkpt lat="39.9295659922" lon="3.0458615720"><ele>244.31</ele><time>2014-08-31T11:16:15Z</time></trkpt><trkpt lat="39.9295968376" lon="3.0459216703"><ele>244.31</ele><time>2014-08-31T11:16:25Z</time></trkpt><trkpt lat="39.9295979273" lon="3.0459751468"><ele>243.35</ele><time>2014-08-31T11:16:31Z</time></trkpt><trkpt lat="39.9296106678" lon="3.0460276175"><ele>240.95</ele><time>2014-08-31T11:16:40Z</time></trkpt><trkpt lat="39.9296350591" lon="3.0460774899"><ele>239.99</ele><time>2014-08-31T11:16:50Z</time></trkpt><trkpt lat="39.9296463747" lon="3.0461074132"><ele>239.51</ele><time>2014-08-31T11:16:59Z</time></trkpt><trkpt lat="39.9296500627" lon="3.0461928248"><ele>236.62</ele><time>2014-08-31T11:17:09Z</time></trkpt><trkpt lat="39.9296553433" lon="3.0462734587"><ele>235.18</ele><time>2014-08-31T11:17:19Z</time></trkpt><trkpt lat="39.9296694249" lon="3.0463201459"><ele>233.26</ele><time>2014-08-31T11:17:26Z</time></trkpt><trkpt lat="39.9296841770" lon="3.0463614687"><ele>231.81</ele><time>2014-08-31T11:17:32Z</time></trkpt><trkpt lat="39.9296843447" lon="3.0463663302"><ele>231.33</ele><time>2014-08-31T11:17:36Z</time></trkpt><trkpt lat="39.9297234043" lon="3.0464421026"><ele>230.37</ele><time>2014-08-31T11:17:45Z</time></trkpt><trkpt lat="39.9297118373" lon="3.0464792345"><ele>228.93</ele><time>2014-08-31T11:17:51Z</time></trkpt><trkpt lat="39.9297161959" lon="3.0465260893"><ele>227.49</ele><time>2014-08-31T11:17:56Z</time></trkpt><trkpt lat="39.9297265057" lon="3.0465460382"><ele>226.53</ele><time>2014-08-31T11:17:58Z</time></trkpt><trkpt lat="39.9297446944" lon="3.0465798173"><ele>226.53</ele><time>2014-08-31T11:18:02Z</time></trkpt><trkpt lat="39.9297562614" lon="3.0466285162"><ele>227.01</ele><time>2014-08-31T11:18:12Z</time></trkpt><trkpt lat="39.9297606200" lon="3.0466317013"><ele>226.05</ele><time>2014-08-31T11:18:28Z</time></trkpt><trkpt lat="39.9297488015" lon="3.0466282647"><ele>226.05</ele><time>2014-08-31T11:18:42Z</time></trkpt><trkpt lat="39.9297250807" lon="3.0466586910"><ele>223.64</ele><time>2014-08-31T11:18:52Z</time></trkpt><trkpt lat="39.9297197163" lon="3.0466708448"><ele>222.68</ele><time>2014-08-31T11:18:59Z</time></trkpt><trkpt lat="39.9296820816" lon="3.0466878600"><ele>221.72</ele><time>2014-08-31T11:19:09Z</time></trkpt><trkpt lat="39.9296752084" lon="3.0467115808"><ele>221.72</ele><time>2014-08-31T11:19:22Z</time></trkpt><trkpt lat="39.9296911340" lon="3.0467307754"><ele>220.28</ele><time>2014-08-31T11:19:40Z</time></trkpt><trkpt lat="39.9296989292" lon="3.0467786361"><ele>218.84</ele><time>2014-08-31T11:19:51Z</time></trkpt><trkpt lat="39.9296985939" lon="3.0467931367"><ele>217.40</ele><time>2014-08-31T11:19:57Z</time></trkpt><trkpt lat="39.9296973366" lon="3.0468509719"><ele>215.47</ele><time>2014-08-31T11:20:07Z</time></trkpt><trkpt lat="39.9297112506" lon="3.0468762852"><ele>214.51</ele><time>2014-08-31T11:20:12Z</time></trkpt><trkpt lat="39.9297001027" lon="3.0469703302"><ele>214.03</ele><time>2014-08-31T11:20:23Z</time></trkpt><trkpt lat="39.9296830036" lon="3.0470259860"><ele>211.63</ele><time>2014-08-31T11:20:32Z</time></trkpt><trkpt lat="39.9296767171" lon="3.0470474437"><ele>210.19</ele><time>2014-08-31T11:20:41Z</time></trkpt><trkpt lat="39.9296420161" lon="3.0470640399"><ele>209.22</ele><time>2014-08-31T11:20:52Z</time></trkpt><trkpt lat="39.9296198040" lon="3.0470688175"><ele>208.74</ele><time>2014-08-31T11:20:55Z</time></trkpt><trkpt lat="39.9296009447" lon="3.0470751040"><ele>208.74</ele><time>2014-08-31T11:20:58Z</time></trkpt><trkpt lat="39.9295730330" lon="3.0471336935"><ele>205.86</ele><time>2014-08-31T11:21:09Z</time></trkpt><trkpt lat="39.9295992684" lon="3.0472008325"><ele>205.38</ele><time>2014-08-31T11:21:22Z</time></trkpt><trkpt lat="39.9295978434" lon="3.0472496990"><ele>202.98</ele><time>2014-08-31T11:21:33Z</time></trkpt><trkpt lat="39.9296029564" lon="3.0472816341"><ele>202.98</ele><time>2014-08-31T11:21:37Z</time></trkpt><trkpt lat="39.9295920599" lon="3.0473420676"><ele>200.09</ele><time>2014-08-31T11:21:47Z</time></trkpt><trkpt lat="39.9295461271" lon="3.0474042613"><ele>199.13</ele><time>2014-08-31T11:21:58Z</time></trkpt><trkpt lat="39.9295469653" lon="3.0474543013"><ele>198.17</ele><time>2014-08-31T11:22:05Z</time></trkpt><trkpt lat="39.9295089114" lon="3.0475145672"><ele>196.25</ele><time>2014-08-31T11:22:15Z</time></trkpt><trkpt lat="39.9294989370" lon="3.0475193448"><ele>195.77</ele><time>2014-08-31T11:22:23Z</time></trkpt><trkpt lat="39.9294989370" lon="3.0475193448"><ele>195.77</ele><time>2014-08-31T11:22:27Z</time></trkpt><trkpt lat="39.9294774793" lon="3.0474685505"><ele>194.80</ele><time>2014-08-31T11:22:37Z</time></trkpt><trkpt lat="39.9294735398" lon="3.0474600010"><ele>194.80</ele><time>2014-08-31T11:22:38Z</time></trkpt><trkpt lat="39.9294515792" lon="3.0474408064"><ele>193.36</ele><time>2014-08-31T11:22:48Z</time></trkpt><trkpt lat="39.9294405151" lon="3.0474729929"><ele>192.88</ele><time>2014-08-31T11:22:59Z</time></trkpt><trkpt lat="39.9294307921" lon="3.0474767648"><ele>191.44</ele><time>2014-08-31T11:23:11Z</time></trkpt><trkpt lat="39.9293985218" lon="3.0474815425"><ele>189.52</ele><time>2014-08-31T11:23:23Z</time></trkpt><trkpt lat="39.9293946661" lon="3.0475246254"><ele>189.52</ele><time>2014-08-31T11:23:35Z</time></trkpt><trkpt lat="39.9293700233" lon="3.0475630146"><ele>186.63</ele><time>2014-08-31T11:23:45Z</time></trkpt><trkpt lat="39.9293713644" lon="3.0476252921"><ele>186.63</ele><time>2014-08-31T11:23:53Z</time></trkpt><trkpt lat="39.9293804169" lon="3.0476837978"><ele>185.19</ele><time>2014-08-31T11:24:01Z</time></trkpt><trkpt lat="39.9293795787" lon="3.0477013998"><ele>185.19</ele><time>2014-08-31T11:24:06Z</time></trkpt><trkpt lat="39.9293584563" lon="3.0476434808"><ele>184.71</ele><time>2014-08-31T11:24:18Z</time></trkpt><trkpt lat="39.9293083325" lon="3.0476131383"><ele>184.23</ele><time>2014-08-31T11:24:27Z</time></trkpt><trkpt lat="39.9292939156" lon="3.0475966260"><ele>182.31</ele><time>2014-08-31T11:24:37Z</time></trkpt><trkpt lat="39.9292836897" lon="3.0475986376"><ele>181.83</ele><time>2014-08-31T11:24:44Z</time></trkpt><trkpt lat="39.9292643275" lon="3.0475908425"><ele>180.87</ele><time>2014-08-31T11:24:50Z</time></trkpt><trkpt lat="39.9292765651" lon="3.0476385355"><ele>180.38</ele><time>2014-08-31T11:24:58Z</time></trkpt><trkpt lat="39.9292763975" lon="3.0476498511"><ele>179.42</ele><time>2014-08-31T11:25:01Z</time></trkpt><trkpt lat="39.9292537663" lon="3.0476627592"><ele>178.94</ele><time>2014-08-31T11:25:12Z</time></trkpt><trkpt lat="39.9292189814" lon="3.0476521980"><ele>177.02</ele><time>2014-08-31T11:25:21Z</time></trkpt><trkpt lat="39.9292130303" lon="3.0476540420"><ele>177.02</ele><time>2014-08-31T11:25:22Z</time></trkpt><trkpt lat="39.9291859567" lon="3.0476464983"><ele>176.54</ele><time>2014-08-31T11:25:25Z</time></trkpt><trkpt lat="39.9291585479" lon="3.0476398766"><ele>175.58</ele><time>2014-08-31T11:25:31Z</time></trkpt><trkpt lat="39.9291183148" lon="3.0476215202"><ele>174.14</ele><time>2014-08-31T11:25:42Z</time></trkpt><trkpt lat="39.9291181471" lon="3.0476152338"><ele>173.66</ele><time>2014-08-31T11:25:52Z</time></trkpt><trkpt lat="39.9290935881" lon="3.0476222746"><ele>172.21</ele><time>2014-08-31T11:26:02Z</time></trkpt><trkpt lat="39.9290859606" lon="3.0476129707"><ele>170.29</ele><time>2014-08-31T11:26:09Z</time></trkpt><trkpt lat="39.9290292989" lon="3.0475776829"><ele>168.85</ele><time>2014-08-31T11:26:19Z</time></trkpt><trkpt lat="39.9290002137" lon="3.0475768447"><ele>166.93</ele><time>2014-08-31T11:26:30Z</time></trkpt><trkpt lat="39.9289913289" lon="3.0475698877"><ele>166.93</ele><time>2014-08-31T11:26:37Z</time></trkpt><trkpt lat="39.9289582204" lon="3.0475801975"><ele>165.96</ele><time>2014-08-31T11:26:41Z</time></trkpt><trkpt lat="39.9289092701" lon="3.0475638527"><ele>165.00</ele><time>2014-08-31T11:26:51Z</time></trkpt><trkpt lat="39.9289019778" lon="3.0475768447"><ele>163.56</ele><time>2014-08-31T11:26:55Z</time></trkpt><trkpt lat="39.9288873095" lon="3.0475716479"><ele>162.60</ele><time>2014-08-31T11:26:58Z</time></trkpt><trkpt lat="39.9288450647" lon="3.0475745816"><ele>161.64</ele><time>2014-08-31T11:27:10Z</time></trkpt><trkpt lat="39.9287946057" lon="3.0475915130"><ele>160.68</ele><time>2014-08-31T11:27:21Z</time></trkpt><trkpt lat="39.9287962820" lon="3.0476000626"><ele>159.24</ele><time>2014-08-31T11:27:24Z</time></trkpt><trkpt lat="39.9287970364" lon="3.0476150662"><ele>159.72</ele><time>2014-08-31T11:27:26Z</time></trkpt><trkpt lat="39.9287843797" lon="3.0476441514"><ele>158.27</ele><time>2014-08-31T11:27:36Z</time></trkpt><trkpt lat="39.9287853856" lon="3.0476470850"><ele>158.27</ele><time>2014-08-31T11:27:38Z</time></trkpt><trkpt lat="39.9287867267" lon="3.0477158166"><ele>156.83</ele><time>2014-08-31T11:27:47Z</time></trkpt><trkpt lat="39.9287852179" lon="3.0477229413"><ele>156.35</ele><time>2014-08-31T11:27:50Z</time></trkpt><trkpt lat="39.9287919234" lon="3.0477553792"><ele>154.43</ele><time>2014-08-31T11:28:01Z</time></trkpt><trkpt lat="39.9287927616" lon="3.0477573909"><ele>154.43</ele><time>2014-08-31T11:28:02Z</time></trkpt><trkpt lat="39.9287718907" lon="3.0478102807"><ele>152.99</ele><time>2014-08-31T11:28:13Z</time></trkpt><trkpt lat="39.9287427217" lon="3.0478024855"><ele>152.51</ele><time>2014-08-31T11:28:17Z</time></trkpt><trkpt lat="39.9287096970" lon="3.0478428025"><ele>150.10</ele><time>2014-08-31T11:28:27Z</time></trkpt><trkpt lat="39.9287096970" lon="3.0478428025"><ele>151.06</ele><time>2014-08-31T11:28:30Z</time></trkpt><trkpt lat="39.9287096970" lon="3.0478428025"><ele>152.51</ele><time>2014-08-31T11:28:51Z</time></trkpt><trkpt lat="39.9287076015" lon="3.0478721391"><ele>150.10</ele><time>2014-08-31T11:28:53Z</time></trkpt><trkpt lat="39.9287287239" lon="3.0479324888"><ele>145.78</ele><time>2014-08-31T11:28:59Z</time></trkpt><trkpt lat="39.9287297297" lon="3.0479416251"><ele>150.58</ele><time>2014-08-31T11:29:00Z</time></trkpt><trkpt lat="39.9287210125" lon="3.0479465704"><ele>147.22</ele><time>2014-08-31T11:29:02Z</time></trkpt><trkpt lat="39.9287185818" lon="3.0479480792"><ele>148.66</ele><time>2014-08-31T11:29:03Z</time></trkpt><trkpt lat="39.9287153967" lon="3.0480222590"><ele>146.74</ele><time>2014-08-31T11:29:15Z</time></trkpt><trkpt lat="39.9287112895" lon="3.0480365083"><ele>145.30</ele><time>2014-08-31T11:29:20Z</time></trkpt><trkpt lat="39.9287115410" lon="3.0480577983"><ele>146.26</ele><time>2014-08-31T11:29:26Z</time></trkpt><trkpt lat="39.9286946096" lon="3.0480546970"><ele>144.82</ele><time>2014-08-31T11:29:36Z</time></trkpt><trkpt lat="39.9286720622" lon="3.0480641685"><ele>143.37</ele><time>2014-08-31T11:29:48Z</time></trkpt><trkpt lat="39.9286521971" lon="3.0480904039"><ele>141.93</ele><time>2014-08-31T11:29:55Z</time></trkpt><trkpt lat="39.9286511913" lon="3.0481021386"><ele>141.45</ele><time>2014-08-31T11:29:57Z</time></trkpt><trkpt lat="39.9286661949" lon="3.0481660087"><ele>140.97</ele><time>2014-08-31T11:30:06Z</time></trkpt><trkpt lat="39.9286662787" lon="3.0482245982"><ele>139.05</ele><time>2014-08-31T11:30:18Z</time></trkpt><trkpt lat="39.9286713079" lon="3.0482926592"><ele>138.09</ele><time>2014-08-31T11:30:30Z</time></trkpt><trkpt lat="39.9286617525" lon="3.0483287852"><ele>136.64</ele><time>2014-08-31T11:30:40Z</time></trkpt><trkpt lat="39.9286831263" lon="3.0483928230"><ele>134.24</ele><time>2014-08-31T11:30:51Z</time></trkpt><trkpt lat="39.9286711402" lon="3.0484371632"><ele>131.84</ele><time>2014-08-31T11:31:03Z</time></trkpt><trkpt lat="39.9286578130" lon="3.0484481435"><ele>131.36</ele><time>2014-08-31T11:31:07Z</time></trkpt><trkpt lat="39.9286407139" lon="3.0484674219"><ele>131.36</ele><time>2014-08-31T11:31:10Z</time></trkpt><trkpt lat="39.9286474194" lon="3.0484845210"><ele>131.36</ele><time>2014-08-31T11:31:12Z</time></trkpt><trkpt lat="39.9286511913" lon="3.0485125165"><ele>131.84</ele><time>2014-08-31T11:31:19Z</time></trkpt><trkpt lat="39.9286602437" lon="3.0485568568"><ele>128.95</ele><time>2014-08-31T11:31:31Z</time></trkpt><trkpt lat="39.9286643509" lon="3.0486096628"><ele>127.51</ele><time>2014-08-31T11:31:45Z</time></trkpt><trkpt lat="39.9286397919" lon="3.0486592837"><ele>127.99</ele><time>2014-08-31T11:31:54Z</time></trkpt><trkpt lat="39.9286255427" lon="3.0486718565"><ele>124.15</ele><time>2014-08-31T11:32:00Z</time></trkpt><trkpt lat="39.9286154006" lon="3.0487266742"><ele>124.15</ele><time>2014-08-31T11:32:05Z</time></trkpt><trkpt lat="39.9285940267" lon="3.0487948190"><ele>124.15</ele><time>2014-08-31T11:32:12Z</time></trkpt><trkpt lat="39.9285742454" lon="3.0488289334"><ele>122.22</ele><time>2014-08-31T11:32:16Z</time></trkpt><trkpt lat="39.9285743292" lon="3.0488362256"><ele>121.26</ele><time>2014-08-31T11:32:17Z</time></trkpt><trkpt lat="39.9285723176" lon="3.0488620419"><ele>121.74</ele><time>2014-08-31T11:32:20Z</time></trkpt><trkpt lat="39.9285527039" lon="3.0489285942"><ele>119.82</ele><time>2014-08-31T11:32:29Z</time></trkpt><trkpt lat="39.9285365269" lon="3.0490061268"><ele>119.34</ele><time>2014-08-31T11:32:40Z</time></trkpt><trkpt lat="39.9285435677" lon="3.0490171071"><ele>119.34</ele><time>2014-08-31T11:32:50Z</time></trkpt><trkpt lat="39.9285232835" lon="3.0490277521"><ele>118.86</ele><time>2014-08-31T11:32:55Z</time></trkpt><trkpt lat="39.9285128899" lon="3.0490436777"><ele>117.42</ele><time>2014-08-31T11:32:58Z</time></trkpt><trkpt lat="39.9285074417" lon="3.0490507185"><ele>119.34</ele><time>2014-08-31T11:32:59Z</time></trkpt><trkpt lat="39.9284670409" lon="3.0490694102"><ele>117.90</ele><time>2014-08-31T11:33:02Z</time></trkpt><trkpt lat="39.9284590781" lon="3.0490701646"><ele>117.90</ele><time>2014-08-31T11:33:03Z</time></trkpt><trkpt lat="39.9284420628" lon="3.0490899459"><ele>117.42</ele><time>2014-08-31T11:33:12Z</time></trkpt><trkpt lat="39.9284374528" lon="3.0490858387"><ele>117.42</ele><time>2014-08-31T11:33:13Z</time></trkpt><trkpt lat="39.9284036737" lon="3.0491187796"><ele>115.98</ele><time>2014-08-31T11:33:23Z</time></trkpt><trkpt lat="39.9283786956" lon="3.0491271615"><ele>114.53</ele><time>2014-08-31T11:33:27Z</time></trkpt><trkpt lat="39.9283631891" lon="3.0491367169"><ele>113.09</ele><time>2014-08-31T11:33:33Z</time></trkpt><trkpt lat="39.9283349421" lon="3.0491601862"><ele>113.57</ele><time>2014-08-31T11:33:39Z</time></trkpt><trkpt lat="39.9283017498" lon="3.0491992459"><ele>112.61</ele><time>2014-08-31T11:33:47Z</time></trkpt><trkpt lat="39.9282336887" lon="3.0492669716"><ele>113.09</ele><time>2014-08-31T11:33:56Z</time></trkpt><trkpt lat="39.9281587545" lon="3.0492920335"><ele>108.77</ele><time>2014-08-31T11:34:04Z</time></trkpt><trkpt lat="39.9281587545" lon="3.0492920335"><ele>109.73</ele><time>2014-08-31T11:34:05Z</time></trkpt><trkpt lat="39.9281587545" lon="3.0492920335"><ele>113.57</ele><time>2014-08-31T11:34:06Z</time></trkpt><trkpt lat="39.9281414039" lon="3.0492789578"><ele>112.61</ele><time>2014-08-31T11:34:15Z</time></trkpt><trkpt lat="39.9281522166" lon="3.0492798798"><ele>109.73</ele><time>2014-08-31T11:34:32Z</time></trkpt><trkpt lat="39.9281502049" lon="3.0492803827"><ele>114.53</ele><time>2014-08-31T11:34:33Z</time></trkpt><trkpt lat="39.9281454273" lon="3.0492813047"><ele>111.17</ele><time>2014-08-31T11:34:34Z</time></trkpt><trkpt lat="39.9281315133" lon="3.0493145809"><ele>104.92</ele><time>2014-08-31T11:34:38Z</time></trkpt><trkpt lat="39.9281403143" lon="3.0493157543"><ele>113.57</ele><time>2014-08-31T11:34:39Z</time></trkpt><trkpt lat="39.9281403143" lon="3.0493157543"><ele>106.84</ele><time>2014-08-31T11:34:40Z</time></trkpt><trkpt lat="39.9281468522" lon="3.0493305065"><ele>112.61</ele><time>2014-08-31T11:34:41Z</time></trkpt><trkpt lat="39.9281274062" lon="3.0493435822"><ele>110.21</ele><time>2014-08-31T11:34:51Z</time></trkpt><trkpt lat="39.9281098042" lon="3.0493461806"><ele>108.77</ele><time>2014-08-31T11:34:59Z</time></trkpt><trkpt lat="39.9280920345" lon="3.0493704043"><ele>105.88</ele><time>2014-08-31T11:35:06Z</time></trkpt><trkpt lat="39.9280786235" lon="3.0493725836"><ele>107.32</ele><time>2014-08-31T11:35:14Z</time></trkpt><trkpt lat="39.9280701578" lon="3.0493776966"><ele>103.96</ele><time>2014-08-31T11:35:18Z</time></trkpt><trkpt lat="39.9280194473" lon="3.0493992381"><ele>103.00</ele><time>2014-08-31T11:35:29Z</time></trkpt><trkpt lat="39.9280061200" lon="3.0494163372"><ele>102.04</ele><time>2014-08-31T11:35:38Z</time></trkpt><trkpt lat="39.9279824831" lon="3.0494132359"><ele>102.52</ele><time>2014-08-31T11:35:49Z</time></trkpt><trkpt lat="39.9279394839" lon="3.0494159181"><ele>98.67</ele><time>2014-08-31T11:35:56Z</time></trkpt><trkpt lat="39.9279207923" lon="3.0494053569"><ele>98.67</ele><time>2014-08-31T11:35:58Z</time></trkpt><trkpt lat="39.9279186130" lon="3.0493978132"><ele>102.04</ele><time>2014-08-31T11:35:59Z</time></trkpt><trkpt lat="39.9279195350" lon="3.0493936222"><ele>96.75</ele><time>2014-08-31T11:36:00Z</time></trkpt><trkpt lat="39.9279188644" lon="3.0493919458"><ele>101.56</ele><time>2014-08-31T11:36:01Z</time></trkpt><trkpt lat="39.9279188644" lon="3.0493919458"><ele>100.11</ele><time>2014-08-31T11:36:03Z</time></trkpt><trkpt lat="39.9279106501" lon="3.0494028423"><ele>96.75</ele><time>2014-08-31T11:36:08Z</time></trkpt><trkpt lat="39.9278989155" lon="3.0494035967"><ele>102.04</ele><time>2014-08-31T11:36:10Z</time></trkpt><trkpt lat="39.9278814811" lon="3.0494056921"><ele>94.35</ele><time>2014-08-31T11:36:12Z</time></trkpt><trkpt lat="39.9278758653" lon="3.0494010821"><ele>95.79</ele><time>2014-08-31T11:36:13Z</time></trkpt><trkpt lat="39.9278712552" lon="3.0493978970"><ele>100.60</ele><time>2014-08-31T11:36:14Z</time></trkpt><trkpt lat="39.9278649688" lon="3.0493938737"><ele>100.60</ele><time>2014-08-31T11:36:15Z</time></trkpt><trkpt lat="39.9278467800" lon="3.0493895151"><ele>100.60</ele><time>2014-08-31T11:36:18Z</time></trkpt><trkpt lat="39.9278338719" lon="3.0493803788"><ele>99.15</ele><time>2014-08-31T11:36:29Z</time></trkpt><trkpt lat="39.9278365541" lon="3.0493764393"><ele>94.83</ele><time>2014-08-31T11:36:31Z</time></trkpt><trkpt lat="39.9278386496" lon="3.0493669678"><ele>101.08</ele><time>2014-08-31T11:36:32Z</time></trkpt><trkpt lat="39.9278368894" lon="3.0493636150"><ele>96.75</ele><time>2014-08-31T11:36:33Z</time></trkpt><trkpt lat="39.9278383143" lon="3.0493626092"><ele>93.39</ele><time>2014-08-31T11:36:34Z</time></trkpt><trkpt lat="39.9278383143" lon="3.0493626092"><ele>98.67</ele><time>2014-08-31T11:36:35Z</time></trkpt><trkpt lat="39.9278352968" lon="3.0493623577"><ele>93.39</ele><time>2014-08-31T11:36:36Z</time></trkpt><trkpt lat="39.9278365541" lon="3.0493602622"><ele>98.19</ele><time>2014-08-31T11:36:37Z</time></trkpt><trkpt lat="39.9278365541" lon="3.0493602622"><ele>94.35</ele><time>2014-08-31T11:36:40Z</time></trkpt><trkpt lat="39.9278260767" lon="3.0493657105"><ele>90.98</ele><time>2014-08-31T11:36:49Z</time></trkpt><trkpt lat="39.9278265797" lon="3.0493629444"><ele>99.15</ele><time>2014-08-31T11:36:50Z</time></trkpt><trkpt lat="39.9278265797" lon="3.0493629444"><ele>95.31</ele><time>2014-08-31T11:36:51Z</time></trkpt><trkpt lat="39.9278202932" lon="3.0493722484"><ele>90.02</ele><time>2014-08-31T11:36:53Z</time></trkpt><trkpt lat="39.9278194550" lon="3.0494048540"><ele>100.11</ele><time>2014-08-31T11:36:55Z</time></trkpt><trkpt lat="39.9278123304" lon="3.0494074523"><ele>90.98</ele><time>2014-08-31T11:36:57Z</time></trkpt><trkpt lat="39.9278098159" lon="3.0494019203"><ele>90.98</ele><time>2014-08-31T11:36:58Z</time></trkpt><trkpt lat="39.9278076366" lon="3.0494101346"><ele>96.75</ele><time>2014-08-31T11:36:59Z</time></trkpt><trkpt lat="39.9277744442" lon="3.0494534690"><ele>92.90</ele><time>2014-08-31T11:37:08Z</time></trkpt><trkpt lat="39.9277460296" lon="3.0494679697"><ele>91.46</ele><time>2014-08-31T11:37:11Z</time></trkpt><trkpt lat="39.9277032819" lon="3.0494555645"><ele>91.94</ele><time>2014-08-31T11:37:21Z</time></trkpt><trkpt lat="39.9277008511" lon="3.0494622700"><ele>91.94</ele><time>2014-08-31T11:37:26Z</time></trkpt><trkpt lat="39.9276912119" lon="3.0494726636"><ele>91.46</ele><time>2014-08-31T11:37:28Z</time></trkpt><trkpt lat="39.9276558403" lon="3.0495243799"><ele>90.02</ele><time>2014-08-31T11:37:36Z</time></trkpt><trkpt lat="39.9276077282" lon="3.0495400541"><ele>89.06</ele><time>2014-08-31T11:37:41Z</time></trkpt><trkpt lat="39.9275170360" lon="3.0495745037"><ele>88.58</ele><time>2014-08-31T11:37:50Z</time></trkpt><trkpt lat="39.9274694268" lon="3.0495906807"><ele>87.62</ele><time>2014-08-31T11:37:57Z</time></trkpt><trkpt lat="39.9274340551" lon="3.0495982245"><ele>86.18</ele><time>2014-08-31T11:38:03Z</time></trkpt><trkpt lat="39.9273953307" lon="3.0496404693"><ele>86.66</ele><time>2014-08-31T11:38:14Z</time></trkpt><trkpt lat="39.9273649883" lon="3.0496805348"><ele>85.21</ele><time>2014-08-31T11:38:24Z</time></trkpt><trkpt lat="39.9273082428" lon="3.0496871565"><ele>84.73</ele><time>2014-08-31T11:38:31Z</time></trkpt><trkpt lat="39.9272992741" lon="3.0496863183"><ele>84.73</ele><time>2014-08-31T11:38:36Z</time></trkpt><trkpt lat="39.9272402655" lon="3.0497224443"><ele>83.29</ele><time>2014-08-31T11:38:47Z</time></trkpt><trkpt lat="39.9272242561" lon="3.0497483443"><ele>82.81</ele><time>2014-08-31T11:38:51Z</time></trkpt><trkpt lat="39.9272121023" lon="3.0497585703"><ele>83.29</ele><time>2014-08-31T11:38:54Z</time></trkpt><trkpt lat="39.9271778204" lon="3.0497709755"><ele>82.33</ele><time>2014-08-31T11:39:00Z</time></trkpt><trkpt lat="39.9271466397" lon="3.0498002283"><ele>81.85</ele><time>2014-08-31T11:39:09Z</time></trkpt><trkpt lat="39.9271245115" lon="3.0498050060"><ele>81.37</ele><time>2014-08-31T11:39:13Z</time></trkpt><trkpt lat="39.9271012936" lon="3.0498330016"><ele>80.41</ele><time>2014-08-31T11:39:16Z</time></trkpt><trkpt lat="39.9270792492" lon="3.0498159025"><ele>80.89</ele><time>2014-08-31T11:39:20Z</time></trkpt><trkpt lat="39.9270193186" lon="3.0498310737"><ele>79.93</ele><time>2014-08-31T11:39:29Z</time></trkpt><trkpt lat="39.9269788340" lon="3.0498531181"><ele>79.45</ele><time>2014-08-31T11:39:34Z</time></trkpt><trkpt lat="39.9269245192" lon="3.0497796088"><ele>78.97</ele><time>2014-08-31T11:39:42Z</time></trkpt><trkpt lat="39.9269185681" lon="3.0497663654"><ele>78.97</ele><time>2014-08-31T11:39:45Z</time></trkpt><trkpt lat="39.9268434662" lon="3.0497029983"><ele>72.72</ele><time>2014-08-31T11:39:52Z</time></trkpt><trkpt lat="39.9268369284" lon="3.0496931076"><ele>82.33</ele><time>2014-08-31T11:39:53Z</time></trkpt><trkpt lat="39.9268106930" lon="3.0496732425"><ele>78.48</ele><time>2014-08-31T11:39:55Z</time></trkpt><trkpt lat="39.9267984554" lon="3.0496664532"><ele>78.97</ele><time>2014-08-31T11:39:56Z</time></trkpt><trkpt lat="39.9267288018" lon="3.0496268906"><ele>77.52</ele><time>2014-08-31T11:40:03Z</time></trkpt><trkpt lat="39.9267084338" lon="3.0495917704"><ele>78.00</ele><time>2014-08-31T11:40:07Z</time></trkpt><trkpt lat="39.9267051648" lon="3.0495830532"><ele>79.93</ele><time>2014-08-31T11:40:08Z</time></trkpt><trkpt lat="39.9266530294" lon="3.0495466758"><ele>78.48</ele><time>2014-08-31T11:40:13Z</time></trkpt><trkpt lat="39.9265919253" lon="3.0495700613"><ele>78.48</ele><time>2014-08-31T11:40:18Z</time></trkpt><trkpt lat="39.9265608285" lon="3.0496216938"><ele>78.48</ele><time>2014-08-31T11:40:23Z</time></trkpt><trkpt lat="39.9265485071" lon="3.0496356916"><ele>77.04</ele><time>2014-08-31T11:40:26Z</time></trkpt><trkpt lat="39.9265282229" lon="3.0497554690"><ele>77.52</ele><time>2014-08-31T11:40:35Z</time></trkpt><trkpt lat="39.9265365209" lon="3.0497974623"><ele>77.52</ele><time>2014-08-31T11:40:37Z</time></trkpt><trkpt lat="39.9265449028" lon="3.0498340912"><ele>78.97</ele><time>2014-08-31T11:40:39Z</time></trkpt><trkpt lat="39.9265505187" lon="3.0498490110"><ele>78.48</ele><time>2014-08-31T11:40:40Z</time></trkpt><trkpt lat="39.9265532009" lon="3.0498661939"><ele>76.08</ele><time>2014-08-31T11:40:41Z</time></trkpt><trkpt lat="39.9265542068" lon="3.0498908367"><ele>78.48</ele><time>2014-08-31T11:40:43Z</time></trkpt><trkpt lat="39.9265627563" lon="3.0499058403"><ele>76.56</ele><time>2014-08-31T11:40:46Z</time></trkpt><trkpt lat="39.9265627563" lon="3.0499058403"><ele>76.56</ele><time>2014-08-31T11:40:56Z</time></trkpt><trkpt lat="39.9265584815" lon="3.0499821156"><ele>78.48</ele><time>2014-08-31T11:41:01Z</time></trkpt><trkpt lat="39.9265571404" lon="3.0500052497"><ele>76.56</ele><time>2014-08-31T11:41:03Z</time></trkpt><trkpt lat="39.9265504349" lon="3.0500890687"><ele>77.04</ele><time>2014-08-31T11:41:09Z</time></trkpt><trkpt lat="39.9265458249" lon="3.0501002166"><ele>75.12</ele><time>2014-08-31T11:41:10Z</time></trkpt><trkpt lat="39.9265266303" lon="3.0501395278"><ele>76.08</ele><time>2014-08-31T11:41:13Z</time></trkpt><trkpt lat="39.9265221041" lon="3.0501452275"><ele>75.60</ele><time>2014-08-31T11:41:14Z</time></trkpt><trkpt lat="39.9264754169" lon="3.0502684414"><ele>74.16</ele><time>2014-08-31T11:41:23Z</time></trkpt><trkpt lat="39.9264388718" lon="3.0503226724"><ele>74.16</ele><time>2014-08-31T11:41:29Z</time></trkpt><trkpt lat="39.9263279792" lon="3.0504407734"><ele>73.68</ele><time>2014-08-31T11:41:41Z</time></trkpt><trkpt lat="39.9262970500" lon="3.0504542682"><ele>75.60</ele><time>2014-08-31T11:41:44Z</time></trkpt><trkpt lat="39.9262758438" lon="3.0504730437"><ele>73.20</ele><time>2014-08-31T11:41:46Z</time></trkpt><trkpt lat="39.9261454213" lon="3.0504670087"><ele>72.72</ele><time>2014-08-31T11:41:59Z</time></trkpt><trkpt lat="39.9260585848" lon="3.0503587145"><ele>72.24</ele><time>2014-08-31T11:42:07Z</time></trkpt><trkpt lat="39.9259704072" lon="3.0502334889"><ele>72.72</ele><time>2014-08-31T11:42:15Z</time></trkpt><trkpt lat="39.9259564932" lon="3.0502211675"><ele>72.72</ele><time>2014-08-31T11:42:19Z</time></trkpt><trkpt lat="39.9258974008" lon="3.0501687806"><ele>72.72</ele><time>2014-08-31T11:42:25Z</time></trkpt><trkpt lat="39.9258321896" lon="3.0500983726"><ele>72.24</ele><time>2014-08-31T11:42:32Z</time></trkpt><trkpt lat="39.9257443473" lon="3.0500403699"><ele>70.79</ele><time>2014-08-31T11:42:41Z</time></trkpt><trkpt lat="39.9256694131" lon="3.0499759968"><ele>70.31</ele><time>2014-08-31T11:42:48Z</time></trkpt><trkpt lat="39.9255915452" lon="3.0499245320"><ele>70.31</ele><time>2014-08-31T11:42:56Z</time></trkpt><trkpt lat="39.9255373981" lon="3.0498776771"><ele>69.83</ele><time>2014-08-31T11:43:04Z</time></trkpt><trkpt lat="39.9254546687" lon="3.0497823749"><ele>68.39</ele><time>2014-08-31T11:43:12Z</time></trkpt><trkpt lat="39.9253778905" lon="3.0496711470"><ele>68.39</ele><time>2014-08-31T11:43:23Z</time></trkpt><trkpt lat="39.9253271800" lon="3.0496101268"><ele>67.91</ele><time>2014-08-31T11:43:28Z</time></trkpt><trkpt lat="39.9252718594" lon="3.0495154113"><ele>67.91</ele><time>2014-08-31T11:43:34Z</time></trkpt><trkpt lat="39.9252036307" lon="3.0494274851"><ele>67.43</ele><time>2014-08-31T11:43:42Z</time></trkpt><trkpt lat="39.9251247570" lon="3.0494039319"><ele>67.91</ele><time>2014-08-31T11:43:52Z</time></trkpt><trkpt lat="39.9251255952" lon="3.0494012497"><ele>67.91</ele><time>2014-08-31T11:44:13Z</time></trkpt><trkpt lat="39.9251247570" lon="3.0494039319"><ele>63.58</ele><time>2014-08-31T11:44:17Z</time></trkpt><trkpt lat="39.9251283612" lon="3.0494270660"><ele>70.31</ele><time>2014-08-31T11:44:18Z</time></trkpt><trkpt lat="39.9251215719" lon="3.0494541395"><ele>66.47</ele><time>2014-08-31T11:44:20Z</time></trkpt><trkpt lat="39.9251104239" lon="3.0494946241"><ele>68.87</ele><time>2014-08-31T11:44:23Z</time></trkpt><trkpt lat="39.9250998627" lon="3.0495009944"><ele>69.83</ele><time>2014-08-31T11:44:24Z</time></trkpt><trkpt lat="39.9250655808" lon="3.0495135672"><ele>63.58</ele><time>2014-08-31T11:44:26Z</time></trkpt><trkpt lat="39.9250552710" lon="3.0495163333"><ele>65.99</ele><time>2014-08-31T11:44:27Z</time></trkpt><trkpt lat="39.9250471406" lon="3.0495146569"><ele>70.31</ele><time>2014-08-31T11:44:28Z</time></trkpt><trkpt lat="39.9250448775" lon="3.0495150760"><ele>67.43</ele><time>2014-08-31T11:44:29Z</time></trkpt><trkpt lat="39.9250475597" lon="3.0495150760"><ele>68.87</ele><time>2014-08-31T11:44:35Z</time></trkpt><trkpt lat="39.9250626471" lon="3.0495381262"><ele>66.95</ele><time>2014-08-31T11:44:38Z</time></trkpt><trkpt lat="39.9250814226" lon="3.0495906807"><ele>67.91</ele><time>2014-08-31T11:44:42Z</time></trkpt><trkpt lat="39.9251086637" lon="3.0497241206"><ele>65.51</ele><time>2014-08-31T11:44:53Z</time></trkpt><trkpt lat="39.9251606315" lon="3.0498759169"><ele>65.03</ele><time>2014-08-31T11:45:03Z</time></trkpt><trkpt lat="39.9251778983" lon="3.0499360990"><ele>65.03</ele><time>2014-08-31T11:45:07Z</time></trkpt><trkpt lat="39.9252118450" lon="3.0500241928"><ele>64.55</ele><time>2014-08-31T11:45:14Z</time></trkpt><trkpt lat="39.9252587836" lon="3.0501366779"><ele>64.07</ele><time>2014-08-31T11:45:23Z</time></trkpt><trkpt lat="39.9252880365" lon="3.0501832813"><ele>64.55</ele><time>2014-08-31T11:45:26Z</time></trkpt><trkpt lat="39.9252938200" lon="3.0502136238"><ele>64.55</ele><time>2014-08-31T11:45:35Z</time></trkpt><trkpt lat="39.9253441952" lon="3.0503909849"><ele>63.58</ele><time>2014-08-31T11:45:46Z</time></trkpt><trkpt lat="39.9253615458" lon="3.0504338164"><ele>63.58</ele><time>2014-08-31T11:45:51Z</time></trkpt><trkpt lat="39.9254095741" lon="3.0505119357"><ele>63.58</ele><time>2014-08-31T11:45:58Z</time></trkpt><trkpt lat="39.9254365638" lon="3.0505950004"><ele>63.10</ele><time>2014-08-31T11:46:06Z</time></trkpt><trkpt lat="39.9254565965" lon="3.0506953318"><ele>63.10</ele><time>2014-08-31T11:46:12Z</time></trkpt><trkpt lat="39.9254570156" lon="3.0508031230"><ele>62.62</ele><time>2014-08-31T11:46:20Z</time></trkpt><trkpt lat="39.9254212249" lon="3.0508809071"><ele>62.14</ele><time>2014-08-31T11:46:27Z</time></trkpt><trkpt lat="39.9253403395" lon="3.0509677436"><ele>62.14</ele><time>2014-08-31T11:46:36Z</time></trkpt><trkpt lat="39.9252683390" lon="3.0510452762"><ele>61.66</ele><time>2014-08-31T11:46:44Z</time></trkpt><trkpt lat="39.9252062291" lon="3.0511138402"><ele>61.18</ele><time>2014-08-31T11:46:51Z</time></trkpt><trkpt lat="39.9251459632" lon="3.0512562487"><ele>60.22</ele><time>2014-08-31T11:46:59Z</time></trkpt><trkpt lat="39.9251079094" lon="3.0513579212"><ele>60.22</ele><time>2014-08-31T11:47:07Z</time></trkpt><trkpt lat="39.9250452127" lon="3.0514031835"><ele>59.26</ele><time>2014-08-31T11:47:16Z</time></trkpt><trkpt lat="39.9249644112" lon="3.0514260661"><ele>59.74</ele><time>2014-08-31T11:47:24Z</time></trkpt><trkpt lat="39.9249014631" lon="3.0515147466"><ele>59.74</ele><time>2014-08-31T11:47:32Z</time></trkpt><trkpt lat="39.9248518422" lon="3.0516662914"><ele>59.74</ele><time>2014-08-31T11:47:41Z</time></trkpt><trkpt lat="39.9248057418" lon="3.0517382082"><ele>58.78</ele><time>2014-08-31T11:47:48Z</time></trkpt><trkpt lat="39.9247022253" lon="3.0517784413"><ele>58.78</ele><time>2014-08-31T11:47:57Z</time></trkpt><trkpt lat="39.9246227648" lon="3.0517854821"><ele>58.30</ele><time>2014-08-31T11:48:04Z</time></trkpt><trkpt lat="39.9245287199" lon="3.0518019944"><ele>58.30</ele><time>2014-08-31T11:48:13Z</time></trkpt><trkpt lat="39.9244296458" lon="3.0518060178"><ele>58.30</ele><time>2014-08-31T11:48:21Z</time></trkpt><trkpt lat="39.9243529513" lon="3.0518203508"><ele>58.30</ele><time>2014-08-31T11:48:29Z</time></trkpt><trkpt lat="39.9242694676" lon="3.0518246256"><ele>57.82</ele><time>2014-08-31T11:48:36Z</time></trkpt><trkpt lat="39.9241725728" lon="3.0518308282"><ele>57.82</ele><time>2014-08-31T11:48:44Z</time></trkpt><trkpt lat="39.9240781926" lon="3.0518216081"><ele>57.34</ele><time>2014-08-31T11:48:52Z</time></trkpt><trkpt lat="39.9240172561" lon="3.0517714005"><ele>57.82</ele><time>2014-08-31T11:48:57Z</time></trkpt><trkpt lat="39.9239942059" lon="3.0517489370"><ele>57.34</ele><time>2014-08-31T11:49:00Z</time></trkpt><trkpt lat="39.9239089619" lon="3.0516768526"><ele>56.86</ele><time>2014-08-31T11:49:10Z</time></trkpt><trkpt lat="39.9238909408" lon="3.0516626034"><ele>56.86</ele><time>2014-08-31T11:49:11Z</time></trkpt><trkpt lat="39.9237812217" lon="3.0516477674"><ele>56.86</ele><time>2014-08-31T11:49:21Z</time></trkpt><trkpt lat="39.9237787910" lon="3.0516455043"><ele>56.37</ele><time>2014-08-31T11:49:22Z</time></trkpt><trkpt lat="39.9236668088" lon="3.0517101288"><ele>56.37</ele><time>2014-08-31T11:49:32Z</time></trkpt><trkpt lat="39.9236564152" lon="3.0517418962"><ele>55.41</ele><time>2014-08-31T11:49:36Z</time></trkpt><trkpt lat="39.9236564152" lon="3.0517418962"><ele>56.86</ele><time>2014-08-31T11:49:43Z</time></trkpt><trkpt lat="39.9236373883" lon="3.0517537147"><ele>57.34</ele><time>2014-08-31T11:49:45Z</time></trkpt><trkpt lat="39.9236070458" lon="3.0517976359"><ele>56.86</ele><time>2014-08-31T11:49:49Z</time></trkpt><trkpt lat="39.9235979933" lon="3.0518100411"><ele>56.86</ele><time>2014-08-31T11:49:51Z</time></trkpt><trkpt lat="39.9235706683" lon="3.0518364441"><ele>58.78</ele><time>2014-08-31T11:49:53Z</time></trkpt><trkpt lat="39.9235664774" lon="3.0518474244"><ele>58.78</ele><time>2014-08-31T11:49:54Z</time></trkpt><trkpt lat="39.9235523120" lon="3.0518791918"><ele>55.89</ele><time>2014-08-31T11:49:57Z</time></trkpt><trkpt lat="39.9235418346" lon="3.0518912617"><ele>54.93</ele><time>2014-08-31T11:49:58Z</time></trkpt><trkpt lat="39.9235300161" lon="3.0519266333"><ele>57.82</ele><time>2014-08-31T11:50:01Z</time></trkpt><trkpt lat="39.9235270824" lon="3.0519361887"><ele>56.37</ele><time>2014-08-31T11:50:02Z</time></trkpt><trkpt lat="39.9235063791" lon="3.0519490968"><ele>55.41</ele><time>2014-08-31T11:50:04Z</time></trkpt><trkpt lat="39.9234236497" lon="3.0520033278"><ele>58.30</ele><time>2014-08-31T11:50:12Z</time></trkpt><trkpt lat="39.9233823270" lon="3.0520083569"><ele>53.01</ele><time>2014-08-31T11:50:15Z</time></trkpt><trkpt lat="39.9233674910" lon="3.0520139728"><ele>53.97</ele><time>2014-08-31T11:50:16Z</time></trkpt><trkpt lat="39.9233419262" lon="3.0520274676"><ele>57.82</ele><time>2014-08-31T11:50:19Z</time></trkpt><trkpt lat="39.9233313650" lon="3.0520241149"><ele>56.86</ele><time>2014-08-31T11:50:20Z</time></trkpt><trkpt lat="39.9233037047" lon="3.0520152301"><ele>54.93</ele><time>2014-08-31T11:50:22Z</time></trkpt><trkpt lat="39.9232872762" lon="3.0520033278"><ele>56.37</ele><time>2014-08-31T11:50:24Z</time></trkpt><trkpt lat="39.9232713506" lon="3.0519972928"><ele>53.49</ele><time>2014-08-31T11:50:26Z</time></trkpt><trkpt lat="39.9232563470" lon="3.0519857258"><ele>57.82</ele><time>2014-08-31T11:50:28Z</time></trkpt><trkpt lat="39.9232441932" lon="3.0519832112"><ele>54.45</ele><time>2014-08-31T11:50:29Z</time></trkpt><trkpt lat="39.9232125096" lon="3.0519708898"><ele>55.89</ele><time>2014-08-31T11:50:33Z</time></trkpt><trkpt lat="39.9231851846" lon="3.0519549642"><ele>49.65</ele><time>2014-08-31T11:50:37Z</time></trkpt><trkpt lat="39.9231801555" lon="3.0519478396"><ele>57.34</ele><time>2014-08-31T11:50:38Z</time></trkpt><trkpt lat="39.9231754616" lon="3.0519453250"><ele>54.45</ele><time>2014-08-31T11:50:40Z</time></trkpt><trkpt lat="39.9231771380" lon="3.0519442353"><ele>54.45</ele><time>2014-08-31T11:50:41Z</time></trkpt><trkpt lat="39.9231771380" lon="3.0519442353"><ele>52.53</ele><time>2014-08-31T11:50:44Z</time></trkpt><trkpt lat="39.9231643137" lon="3.0519236159"><ele>54.93</ele><time>2014-08-31T11:50:46Z</time></trkpt><trkpt lat="39.9231329653" lon="3.0518880766"><ele>56.86</ele><time>2014-08-31T11:50:50Z</time></trkpt><trkpt lat="39.9231089093" lon="3.0518587399"><ele>53.01</ele><time>2014-08-31T11:50:53Z</time></trkpt><trkpt lat="39.9231010303" lon="3.0518472567"><ele>53.49</ele><time>2014-08-31T11:50:54Z</time></trkpt><trkpt lat="39.9230908044" lon="3.0518256314"><ele>57.82</ele><time>2014-08-31T11:50:56Z</time></trkpt><trkpt lat="39.9230701849" lon="3.0517908465"><ele>51.09</ele><time>2014-08-31T11:50:59Z</time></trkpt><trkpt lat="39.9230633955" lon="3.0517810397"><ele>52.53</ele><time>2014-08-31T11:51:00Z</time></trkpt><trkpt lat="39.9230507389" lon="3.0517621804"><ele>56.37</ele><time>2014-08-31T11:51:02Z</time></trkpt><trkpt lat="39.9230317120" lon="3.0517286528"><ele>51.09</ele><time>2014-08-31T11:51:05Z</time></trkpt><trkpt lat="39.9230202287" lon="3.0517066084"><ele>55.89</ele><time>2014-08-31T11:51:07Z</time></trkpt><trkpt lat="39.9229978491" lon="3.0516746733"><ele>53.49</ele><time>2014-08-31T11:51:10Z</time></trkpt><trkpt lat="39.9229783192" lon="3.0516561493"><ele>52.05</ele><time>2014-08-31T11:51:12Z</time></trkpt><trkpt lat="39.9229670037" lon="3.0516304169"><ele>55.41</ele><time>2014-08-31T11:51:14Z</time></trkpt><trkpt lat="39.9229112640" lon="3.0515566561"><ele>53.49</ele><time>2014-08-31T11:51:22Z</time></trkpt><trkpt lat="39.9228934944" lon="3.0515180994"><ele>53.49</ele><time>2014-08-31T11:51:25Z</time></trkpt><trkpt lat="39.9228382576" lon="3.0514415726"><ele>53.49</ele><time>2014-08-31T11:51:34Z</time></trkpt><trkpt lat="39.9227907322" lon="3.0513673928"><ele>53.01</ele><time>2014-08-31T11:51:41Z</time></trkpt><trkpt lat="39.9227136187" lon="3.0512609426"><ele>49.65</ele><time>2014-08-31T11:51:50Z</time></trkpt><trkpt lat="39.9226968549" lon="3.0512299296"><ele>57.34</ele><time>2014-08-31T11:51:53Z</time></trkpt><trkpt lat="39.9226921611" lon="3.0512188654"><ele>53.01</ele><time>2014-08-31T11:51:54Z</time></trkpt><trkpt lat="39.9226059113" lon="3.0510989204"><ele>52.05</ele><time>2014-08-31T11:52:05Z</time></trkpt><trkpt lat="39.9225111119" lon="3.0510695837"><ele>52.05</ele><time>2014-08-31T11:52:17Z</time></trkpt><trkpt lat="39.9223775882" lon="3.0510829110"><ele>51.57</ele><time>2014-08-31T11:52:28Z</time></trkpt><trkpt lat="39.9222430587" lon="3.0510874372"><ele>51.09</ele><time>2014-08-31T11:52:36Z</time></trkpt><trkpt lat="39.9222264625" lon="3.0510838330"><ele>51.09</ele><time>2014-08-31T11:52:38Z</time></trkpt><trkpt lat="39.9221478403" lon="3.0511027761"><ele>50.13</ele><time>2014-08-31T11:52:45Z</time></trkpt><trkpt lat="39.9220533762" lon="3.0511299334"><ele>50.13</ele><time>2014-08-31T11:52:54Z</time></trkpt><trkpt lat="39.9219916016" lon="3.0511526484"><ele>49.65</ele><time>2014-08-31T11:52:59Z</time></trkpt><trkpt lat="39.9219456688" lon="3.0511772074"><ele>50.13</ele><time>2014-08-31T11:53:03Z</time></trkpt><trkpt lat="39.9218476843" lon="3.0512901116"><ele>49.16</ele><time>2014-08-31T11:53:16Z</time></trkpt><trkpt lat="39.9217638653" lon="3.0513340328"><ele>49.16</ele><time>2014-08-31T11:53:22Z</time></trkpt><trkpt lat="39.9216811359" lon="3.0514155887"><ele>49.16</ele><time>2014-08-31T11:53:32Z</time></trkpt><trkpt lat="39.9216440041" lon="3.0514508765"><ele>49.16</ele><time>2014-08-31T11:53:36Z</time></trkpt><trkpt lat="39.9216318503" lon="3.0514632817"><ele>49.16</ele><time>2014-08-31T11:53:38Z</time></trkpt><trkpt lat="39.9215858337" lon="3.0515055265"><ele>48.68</ele><time>2014-08-31T11:53:43Z</time></trkpt><trkpt lat="39.9214912020" lon="3.0515838135"><ele>48.68</ele><time>2014-08-31T11:53:52Z</time></trkpt><trkpt lat="39.9214676488" lon="3.0516025051"><ele>48.20</ele><time>2014-08-31T11:53:57Z</time></trkpt><trkpt lat="39.9214468617" lon="3.0516333506"><ele>48.20</ele><time>2014-08-31T11:54:07Z</time></trkpt><trkpt lat="39.9214341212" lon="3.0516284890"><ele>48.68</ele><time>2014-08-31T11:54:10Z</time></trkpt><trkpt lat="39.9214195367" lon="3.0516398046"><ele>48.20</ele><time>2014-08-31T11:54:12Z</time></trkpt><trkpt lat="39.9214131664" lon="3.0516549759"><ele>48.20</ele><time>2014-08-31T11:54:13Z</time></trkpt><trkpt lat="39.9214041978" lon="3.0516785290"><ele>48.20</ele><time>2014-08-31T11:54:14Z</time></trkpt><trkpt lat="39.9213970732" lon="3.0517061893"><ele>47.72</ele><time>2014-08-31T11:54:15Z</time></trkpt><trkpt lat="39.9213943072" lon="3.0517352745"><ele>47.72</ele><time>2014-08-31T11:54:18Z</time></trkpt><trkpt lat="39.9213891104" lon="3.0517503619"><ele>47.72</ele><time>2014-08-31T11:54:19Z</time></trkpt><trkpt lat="39.9213807285" lon="3.0517957918"><ele>47.24</ele><time>2014-08-31T11:54:25Z</time></trkpt><trkpt lat="39.9213891942" lon="3.0518365279"><ele>46.76</ele><time>2014-08-31T11:54:28Z</time></trkpt><trkpt lat="39.9213834107" lon="3.0518588237"><ele>46.76</ele><time>2014-08-31T11:54:29Z</time></trkpt><trkpt lat="39.9213773757" lon="3.0518766772"><ele>46.76</ele><time>2014-08-31T11:54:30Z</time></trkpt><trkpt lat="39.9213736039" lon="3.0518962070"><ele>46.76</ele><time>2014-08-31T11:54:31Z</time></trkpt><trkpt lat="39.9213694129" lon="3.0519191734"><ele>45.80</ele><time>2014-08-31T11:54:34Z</time></trkpt><trkpt lat="39.9213686585" lon="3.0519474205"><ele>45.80</ele><time>2014-08-31T11:54:35Z</time></trkpt><trkpt lat="39.9213474523" lon="3.0520423874"><ele>45.80</ele><time>2014-08-31T11:54:42Z</time></trkpt><trkpt lat="39.9213044532" lon="3.0521039106"><ele>45.32</ele><time>2014-08-31T11:54:49Z</time></trkpt><trkpt lat="39.9212947302" lon="3.0521236081"><ele>44.84</ele><time>2014-08-31T11:54:50Z</time></trkpt><trkpt lat="39.9212816544" lon="3.0521415453"><ele>44.84</ele><time>2014-08-31T11:54:51Z</time></trkpt><trkpt lat="39.9212379009" lon="3.0522207543"><ele>43.40</ele><time>2014-08-31T11:55:01Z</time></trkpt><trkpt lat="39.9212161917" lon="3.0522533599"><ele>43.40</ele><time>2014-08-31T11:55:06Z</time></trkpt><trkpt lat="39.9211966619" lon="3.0522699561"><ele>42.92</ele><time>2014-08-31T11:55:07Z</time></trkpt><trkpt lat="39.9211593624" lon="3.0523380172"><ele>42.44</ele><time>2014-08-31T11:55:12Z</time></trkpt><trkpt lat="39.9211473763" lon="3.0523596425"><ele>42.44</ele><time>2014-08-31T11:55:13Z</time></trkpt><trkpt lat="39.9211291037" lon="3.0523863807"><ele>42.44</ele><time>2014-08-31T11:55:14Z</time></trkpt><trkpt lat="39.9210837577" lon="3.0524666794"><ele>41.95</ele><time>2014-08-31T11:55:23Z</time></trkpt><trkpt lat="39.9209799059" lon="3.0524999555"><ele>41.47</ele><time>2014-08-31T11:55:32Z</time></trkpt><trkpt lat="39.9208652414" lon="3.0524448864"><ele>41.95</ele><time>2014-08-31T11:55:43Z</time></trkpt><trkpt lat="39.9208437838" lon="3.0524300504"><ele>41.95</ele><time>2014-08-31T11:55:51Z</time></trkpt><trkpt lat="39.9208253436" lon="3.0524189025"><ele>41.95</ele><time>2014-08-31T11:55:52Z</time></trkpt><trkpt lat="39.9206957594" lon="3.0523337424"><ele>42.44</ele><time>2014-08-31T11:56:04Z</time></trkpt><trkpt lat="39.9206059054" lon="3.0522987060"><ele>41.95</ele><time>2014-08-31T11:56:10Z</time></trkpt><trkpt lat="39.9205733836" lon="3.0522990413"><ele>41.47</ele><time>2014-08-31T11:56:12Z</time></trkpt><trkpt lat="39.9205158837" lon="3.0523335747"><ele>41.47</ele><time>2014-08-31T11:56:17Z</time></trkpt><trkpt lat="39.9204987008" lon="3.0523551162"><ele>40.99</ele><time>2014-08-31T11:56:18Z</time></trkpt><trkpt lat="39.9204822723" lon="3.0523758195"><ele>41.47</ele><time>2014-08-31T11:56:19Z</time></trkpt><trkpt lat="39.9204712920" lon="3.0523918290"><ele>41.47</ele><time>2014-08-31T11:56:20Z</time></trkpt><trkpt lat="39.9204102717" lon="3.0524857901"><ele>40.51</ele><time>2014-08-31T11:56:28Z</time></trkpt><trkpt lat="39.9202883989" lon="3.0525755603"><ele>40.51</ele><time>2014-08-31T11:56:39Z</time></trkpt><trkpt lat="39.9202615768" lon="3.0525922403"><ele>39.07</ele><time>2014-08-31T11:56:41Z</time></trkpt><trkpt lat="39.9202466570" lon="3.0526009575"><ele>39.07</ele><time>2014-08-31T11:56:42Z</time></trkpt><trkpt lat="39.9202340003" lon="3.0526306294"><ele>39.55</ele><time>2014-08-31T11:56:46Z</time></trkpt><trkpt lat="39.9202117044" lon="3.0526941642"><ele>40.03</ele><time>2014-08-31T11:56:52Z</time></trkpt><trkpt lat="39.9202096090" lon="3.0527276080"><ele>40.03</ele><time>2014-08-31T11:56:55Z</time></trkpt><trkpt lat="39.9202079326" lon="3.0527385883"><ele>39.55</ele><time>2014-08-31T11:57:05Z</time></trkpt><trkpt lat="39.9202079326" lon="3.0527385883"><ele>39.55</ele><time>2014-08-31T11:57:24Z</time></trkpt><trkpt lat="39.9202381074" lon="3.0528122652"><ele>38.11</ele><time>2014-08-31T11:57:38Z</time></trkpt><trkpt lat="39.9202480819" lon="3.0529345572"><ele>35.71</ele><time>2014-08-31T11:57:51Z</time></trkpt><trkpt lat="39.9202360958" lon="3.0530584417"><ele>33.30</ele><time>2014-08-31T11:58:02Z</time></trkpt><trkpt lat="39.9202188291" lon="3.0530806538"><ele>33.78</ele><time>2014-08-31T11:58:04Z</time></trkpt><trkpt lat="39.9201824516" lon="3.0531746149"><ele>32.82</ele><time>2014-08-31T11:58:12Z</time></trkpt><trkpt lat="39.9201114569" lon="3.0532550812"><ele>31.38</ele><time>2014-08-31T11:58:21Z</time></trkpt><trkpt lat="39.9200656917" lon="3.0533284228"><ele>28.98</ele><time>2014-08-31T11:58:31Z</time></trkpt><trkpt lat="39.9200690445" lon="3.0533787142"><ele>30.42</ele><time>2014-08-31T11:58:40Z</time></trkpt><trkpt lat="39.9200858921" lon="3.0534126610"><ele>29.94</ele><time>2014-08-31T11:58:42Z</time></trkpt><trkpt lat="39.9201159831" lon="3.0534471106"><ele>28.98</ele><time>2014-08-31T11:58:44Z</time></trkpt><trkpt lat="39.9201140553" lon="3.0534709152"><ele>28.98</ele><time>2014-08-31T11:58:45Z</time></trkpt><trkpt lat="39.9201284721" lon="3.0535457656"><ele>28.02</ele><time>2014-08-31T11:58:52Z</time></trkpt><trkpt lat="39.9201412126" lon="3.0535678100"><ele>28.50</ele><time>2014-08-31T11:58:53Z</time></trkpt><trkpt lat="39.9202092737" lon="3.0536777806"><ele>27.05</ele><time>2014-08-31T11:59:03Z</time></trkpt><trkpt lat="39.9202230200" lon="3.0536989868"><ele>27.05</ele><time>2014-08-31T11:59:04Z</time></trkpt><trkpt lat="39.9203288835" lon="3.0538402218"><ele>26.57</ele><time>2014-08-31T11:59:14Z</time></trkpt><trkpt lat="39.9204432126" lon="3.0539452471"><ele>26.09</ele><time>2014-08-31T11:59:25Z</time></trkpt><trkpt lat="39.9205441307" lon="3.0540429801"><ele>25.61</ele><time>2014-08-31T11:59:34Z</time></trkpt><trkpt lat="39.9205579609" lon="3.0540580675"><ele>25.13</ele><time>2014-08-31T11:59:35Z</time></trkpt><trkpt lat="39.9205735512" lon="3.0540713109"><ele>25.13</ele><time>2014-08-31T11:59:36Z</time></trkpt><trkpt lat="39.9205910694" lon="3.0540895835"><ele>24.65</ele><time>2014-08-31T11:59:37Z</time></trkpt><trkpt lat="39.9206069112" lon="3.0541097838"><ele>25.61</ele><time>2014-08-31T11:59:38Z</time></trkpt><trkpt lat="39.9206214957" lon="3.0541254580"><ele>24.65</ele><time>2014-08-31T11:59:39Z</time></trkpt><trkpt lat="39.9206349067" lon="3.0541402940"><ele>24.65</ele><time>2014-08-31T11:59:44Z</time></trkpt><trkpt lat="39.9206484016" lon="3.0541529506"><ele>24.65</ele><time>2014-08-31T11:59:45Z</time></trkpt><trkpt lat="39.9206974357" lon="3.0542265438"><ele>24.17</ele><time>2014-08-31T11:59:53Z</time></trkpt><trkpt lat="39.9206893891" lon="3.0542511865"><ele>24.65</ele><time>2014-08-31T11:59:54Z</time></trkpt><trkpt lat="39.9206808396" lon="3.0542767514"><ele>24.17</ele><time>2014-08-31T11:59:55Z</time></trkpt><trkpt lat="39.9206719548" lon="3.0542973708"><ele>24.17</ele><time>2014-08-31T11:59:56Z</time></trkpt><trkpt lat="39.9206635728" lon="3.0543132965"><ele>24.17</ele><time>2014-08-31T11:59:57Z</time></trkpt><trkpt lat="39.9206566997" lon="3.0543264560"><ele>24.17</ele><time>2014-08-31T12:00:01Z</time></trkpt><trkpt lat="39.9206533469" lon="3.0543487519"><ele>24.17</ele><time>2014-08-31T12:00:02Z</time></trkpt><trkpt lat="39.9206528440" lon="3.0543733109"><ele>23.69</ele><time>2014-08-31T12:00:03Z</time></trkpt><trkpt lat="39.9206476472" lon="3.0544015579"><ele>24.17</ele><time>2014-08-31T12:00:04Z</time></trkpt><trkpt lat="39.9206383433" lon="3.0544268712"><ele>23.69</ele><time>2014-08-31T12:00:05Z</time></trkpt><trkpt lat="39.9206217472" lon="3.0544637516"><ele>24.17</ele><time>2014-08-31T12:00:10Z</time></trkpt><trkpt lat="39.9206141196" lon="3.0544898193"><ele>24.17</ele><time>2014-08-31T12:00:11Z</time></trkpt><trkpt lat="39.9206059054" lon="3.0545202456"><ele>23.69</ele><time>2014-08-31T12:00:12Z</time></trkpt><trkpt lat="39.9205974396" lon="3.0545490794"><ele>23.69</ele><time>2014-08-31T12:00:13Z</time></trkpt><trkpt lat="39.9205890577" lon="3.0545718782"><ele>23.21</ele><time>2014-08-31T12:00:14Z</time></trkpt><trkpt lat="39.9205825198" lon="3.0545877200"><ele>23.69</ele><time>2014-08-31T12:00:15Z</time></trkpt><trkpt lat="39.9205385149" lon="3.0547409412"><ele>24.17</ele><time>2014-08-31T12:00:24Z</time></trkpt><trkpt lat="39.9204981141" lon="3.0548929051"><ele>23.21</ele><time>2014-08-31T12:00:33Z</time></trkpt><trkpt lat="39.9204752315" lon="3.0549635645"><ele>24.17</ele><time>2014-08-31T12:00:41Z</time></trkpt><trkpt lat="39.9204677716" lon="3.0549980979"><ele>23.69</ele><time>2014-08-31T12:00:58Z</time></trkpt><trkpt lat="39.9204639997" lon="3.0550202262"><ele>23.69</ele><time>2014-08-31T12:00:59Z</time></trkpt><trkpt lat="39.9204432964" lon="3.0551002733"><ele>23.69</ele><time>2014-08-31T12:01:04Z</time></trkpt><trkpt lat="39.9204420391" lon="3.0551277660"><ele>23.69</ele><time>2014-08-31T12:01:05Z</time></trkpt><trkpt lat="39.9204362556" lon="3.0551497266"><ele>24.17</ele><time>2014-08-31T12:01:06Z</time></trkpt><trkpt lat="39.9204297177" lon="3.0551652331"><ele>24.17</ele><time>2014-08-31T12:01:07Z</time></trkpt><trkpt lat="39.9204049911" lon="3.0552104115"><ele>25.13</ele><time>2014-08-31T12:01:11Z</time></trkpt><trkpt lat="39.9203422945" lon="3.0553596094"><ele>25.13</ele><time>2014-08-31T12:01:21Z</time></trkpt><trkpt lat="39.9203037377" lon="3.0554779619"><ele>26.09</ele><time>2014-08-31T12:01:32Z</time></trkpt><trkpt lat="39.9203037377" lon="3.0554779619"><ele>25.61</ele><time>2014-08-31T12:01:33Z</time></trkpt><trkpt lat="39.9202897400" lon="3.0554965697"><ele>25.61</ele><time>2014-08-31T12:01:34Z</time></trkpt><trkpt lat="39.9202619959" lon="3.0555300135"><ele>26.09</ele><time>2014-08-31T12:01:44Z</time></trkpt><trkpt lat="39.9202619959" lon="3.0555300135"><ele>27.05</ele><time>2014-08-31T12:01:57Z</time></trkpt><trkpt lat="39.9202562962" lon="3.0555171054"><ele>27.05</ele><time>2014-08-31T12:02:00Z</time></trkpt><trkpt lat="39.9202447291" lon="3.0555401556"><ele>26.09</ele><time>2014-08-31T12:02:04Z</time></trkpt><trkpt lat="39.9201905821" lon="3.0555692408"><ele>25.61</ele><time>2014-08-31T12:02:11Z</time></trkpt><trkpt lat="39.9201473314" lon="3.0556159280"><ele>26.57</ele><time>2014-08-31T12:02:18Z</time></trkpt><trkpt lat="39.9201378599" lon="3.0556318536"><ele>26.57</ele><time>2014-08-31T12:02:19Z</time></trkpt><trkpt lat="39.9201298971" lon="3.0556496233"><ele>26.09</ele><time>2014-08-31T12:02:20Z</time></trkpt><trkpt lat="39.9201192521" lon="3.0556670576"><ele>26.57</ele><time>2014-08-31T12:02:21Z</time></trkpt><trkpt lat="39.9200097006" lon="3.0557674728"><ele>26.57</ele><time>2014-08-31T12:02:33Z</time></trkpt><trkpt lat="39.9199423939" lon="3.0558120646"><ele>26.57</ele><time>2014-08-31T12:02:39Z</time></trkpt><trkpt lat="39.9199375324" lon="3.0558244698"><ele>26.57</ele><time>2014-08-31T12:02:40Z</time></trkpt><trkpt lat="39.9198952038" lon="3.0559495278"><ele>26.09</ele><time>2014-08-31T12:02:49Z</time></trkpt><trkpt lat="39.9198988918" lon="3.0559938680"><ele>25.61</ele><time>2014-08-31T12:02:54Z</time></trkpt><trkpt lat="39.9199059326" lon="3.0560127273"><ele>25.13</ele><time>2014-08-31T12:02:55Z</time></trkpt><trkpt lat="39.9199588224" lon="3.0561187584"><ele>25.13</ele><time>2014-08-31T12:03:05Z</time></trkpt><trkpt lat="39.9199800286" lon="3.0561379530"><ele>25.13</ele><time>2014-08-31T12:03:06Z</time></trkpt><trkpt lat="39.9199991394" lon="3.0561612546"><ele>24.65</ele><time>2014-08-31T12:03:07Z</time></trkpt><trkpt lat="39.9200335052" lon="3.0562652741"><ele>24.65</ele><time>2014-08-31T12:03:18Z</time></trkpt><trkpt lat="39.9200273864" lon="3.0562730692"><ele>24.65</ele><time>2014-08-31T12:03:21Z</time></trkpt><trkpt lat="39.9200160708" lon="3.0562633462"><ele>24.17</ele><time>2014-08-31T12:03:22Z</time></trkpt><trkpt lat="39.9200015701" lon="3.0562512763"><ele>24.17</ele><time>2014-08-31T12:03:23Z</time></trkpt><trkpt lat="39.9199818727" lon="3.0562559702"><ele>24.65</ele><time>2014-08-31T12:03:30Z</time></trkpt><trkpt lat="39.9200223573" lon="3.0563778430"><ele>21.77</ele><time>2014-08-31T12:03:39Z</time></trkpt><trkpt lat="39.9200225249" lon="3.0564186629"><ele>21.29</ele><time>2014-08-31T12:03:42Z</time></trkpt><trkpt lat="39.9199966248" lon="3.0564837903"><ele>19.36</ele><time>2014-08-31T12:03:47Z</time></trkpt><trkpt lat="39.9199959543" lon="3.0565051641"><ele>17.92</ele><time>2014-08-31T12:03:52Z</time></trkpt><trkpt lat="39.9199538771" lon="3.0566475727"><ele>16.00</ele><time>2014-08-31T12:04:04Z</time></trkpt><trkpt lat="39.9199217744" lon="3.0566791724"><ele>15.04</ele><time>2014-08-31T12:04:07Z</time></trkpt><trkpt lat="39.9198932759" lon="3.0566956848"><ele>14.56</ele><time>2014-08-31T12:04:10Z</time></trkpt><trkpt lat="39.9198558927" lon="3.0567461438"><ele>13.12</ele><time>2014-08-31T12:04:17Z</time></trkpt><trkpt lat="39.9198034219" lon="3.0567076709"><ele>12.15</ele><time>2014-08-31T12:04:25Z</time></trkpt><trkpt lat="39.9198044278" lon="3.0567100178"><ele>13.12</ele><time>2014-08-31T12:04:29Z</time></trkpt><trkpt lat="39.9197283201" lon="3.0567280389"><ele>12.63</ele><time>2014-08-31T12:04:40Z</time></trkpt><trkpt lat="39.9196850695" lon="3.0567747261"><ele>13.12</ele><time>2014-08-31T12:04:51Z</time></trkpt><trkpt lat="39.9196850695" lon="3.0567747261"><ele>12.15</ele><time>2014-08-31T12:05:18Z</time></trkpt><trkpt lat="39.9196863268" lon="3.0567712896"><ele>12.15</ele><time>2014-08-31T12:05:38Z</time></trkpt><trkpt lat="39.9196863268" lon="3.0567712896"><ele>12.15</ele><time>2014-08-31T12:06:06Z</time></trkpt><trkpt lat="39.9196848180" lon="3.0567702837"><ele>12.15</ele><time>2014-08-31T12:06:37Z</time></trkpt><trkpt lat="39.9196760170" lon="3.0567727145"><ele>12.15</ele><time>2014-08-31T12:07:10Z</time></trkpt><trkpt lat="39.9196760170" lon="3.0567727145"><ele>11.19</ele><time>2014-08-31T12:07:37Z</time></trkpt><trkpt lat="39.9196777772" lon="3.0567711219"><ele>11.67</ele><time>2014-08-31T12:08:08Z</time></trkpt><trkpt lat="39.9196746759" lon="3.0567666795"><ele>11.67</ele><time>2014-08-31T12:08:39Z</time></trkpt><trkpt lat="39.9196679704" lon="3.0567560345"><ele>10.71</ele><time>2014-08-31T12:09:07Z</time></trkpt><trkpt lat="39.9196665455" lon="3.0567506701"><ele>10.71</ele><time>2014-08-31T12:09:37Z</time></trkpt><trkpt lat="39.9196665455" lon="3.0567506701"><ele>10.71</ele><time>2014-08-31T12:10:04Z</time></trkpt><trkpt lat="39.9196667131" lon="3.0567519274"><ele>10.23</ele><time>2014-08-31T12:10:34Z</time></trkpt><trkpt lat="39.9196678866" lon="3.0567509215"><ele>10.23</ele><time>2014-08-31T12:11:08Z</time></trkpt><trkpt lat="39.9196678866" lon="3.0567509215"><ele>10.23</ele><time>2014-08-31T12:11:33Z</time></trkpt><trkpt lat="39.9196673837" lon="3.0567489099"><ele>10.23</ele><time>2014-08-31T12:11:54Z</time></trkpt><trkpt lat="39.9196691439" lon="3.0567454733"><ele>10.71</ele><time>2014-08-31T12:12:22Z</time></trkpt><trkpt lat="39.9196691439" lon="3.0567454733"><ele>10.23</ele><time>2014-08-31T12:12:49Z</time></trkpt><trkpt lat="39.9196707364" lon="3.0567432940"><ele>9.75</ele><time>2014-08-31T12:13:19Z</time></trkpt><trkpt lat="39.9196709041" lon="3.0567405280"><ele>10.23</ele><time>2014-08-31T12:13:58Z</time></trkpt><trkpt lat="39.9196695630" lon="3.0567380972"><ele>9.75</ele><time>2014-08-31T12:14:28Z</time></trkpt><trkpt lat="39.9196695630" lon="3.0567380972"><ele>10.23</ele><time>2014-08-31T12:15:00Z</time></trkpt><trkpt lat="39.9196681380" lon="3.0567334872"><ele>10.71</ele><time>2014-08-31T12:15:32Z</time></trkpt><trkpt lat="39.9196654558" lon="3.0567301344"><ele>9.27</ele><time>2014-08-31T12:15:59Z</time></trkpt><trkpt lat="39.9196654558" lon="3.0567301344"><ele>9.27</ele><time>2014-08-31T12:16:19Z</time></trkpt><trkpt lat="39.9196667131" lon="3.0567349959"><ele>10.23</ele><time>2014-08-31T12:16:51Z</time></trkpt><trkpt lat="39.9196684733" lon="3.0567408632"><ele>9.75</ele><time>2014-08-31T12:17:17Z</time></trkpt><trkpt lat="39.9196631927" lon="3.0567491613"><ele>9.27</ele><time>2014-08-31T12:17:48Z</time></trkpt><trkpt lat="39.9196646176" lon="3.0567468144"><ele>9.27</ele><time>2014-08-31T12:18:21Z</time></trkpt><trkpt lat="39.9196646176" lon="3.0567468144"><ele>8.79</ele><time>2014-08-31T12:18:48Z</time></trkpt><trkpt lat="39.9196623545" lon="3.0567521788"><ele>9.27</ele><time>2014-08-31T12:19:13Z</time></trkpt><trkpt lat="39.9196614325" lon="3.0567516759"><ele>8.79</ele><time>2014-08-31T12:19:41Z</time></trkpt><trkpt lat="39.9196614325" lon="3.0567516759"><ele>8.79</ele><time>2014-08-31T12:20:11Z</time></trkpt><trkpt lat="39.9196640309" lon="3.0567505024"><ele>8.79</ele><time>2014-08-31T12:20:42Z</time></trkpt><trkpt lat="39.9196610134" lon="3.0567541067"><ele>8.79</ele><time>2014-08-31T12:21:07Z</time></trkpt><trkpt lat="39.9196610134" lon="3.0567541067"><ele>8.79</ele><time>2014-08-31T12:21:29Z</time></trkpt><trkpt lat="39.9196629412" lon="3.0567549448"><ele>9.27</ele><time>2014-08-31T12:21:59Z</time></trkpt><trkpt lat="39.9196610972" lon="3.0567568727"><ele>8.31</ele><time>2014-08-31T12:22:29Z</time></trkpt><trkpt lat="39.9196610972" lon="3.0567568727"><ele>8.79</ele><time>2014-08-31T12:22:58Z</time></trkpt><trkpt lat="39.9196578283" lon="3.0567529332"><ele>8.31</ele><time>2014-08-31T12:23:28Z</time></trkpt><trkpt lat="39.9196557328" lon="3.0567538552"><ele>8.79</ele><time>2014-08-31T12:23:58Z</time></trkpt><trkpt lat="39.9196560681" lon="3.0567533523"><ele>8.79</ele><time>2014-08-31T12:24:27Z</time></trkpt><trkpt lat="39.9196560681" lon="3.0567533523"><ele>8.31</ele><time>2014-08-31T12:24:59Z</time></trkpt><trkpt lat="39.9196619354" lon="3.0567530170"><ele>8.31</ele><time>2014-08-31T12:25:30Z</time></trkpt><trkpt lat="39.9196608458" lon="3.0567525141"><ele>8.79</ele><time>2014-08-31T12:25:54Z</time></trkpt><trkpt lat="39.9196642824" lon="3.0567544419"><ele>8.79</ele><time>2014-08-31T12:26:23Z</time></trkpt><trkpt lat="39.9196642824" lon="3.0567544419"><ele>9.27</ele><time>2014-08-31T12:26:55Z</time></trkpt><trkpt lat="39.9196623545" lon="3.0567537714"><ele>8.79</ele><time>2014-08-31T12:27:18Z</time></trkpt><trkpt lat="39.9196625222" lon="3.0567544419"><ele>8.31</ele><time>2014-08-31T12:27:44Z</time></trkpt><trkpt lat="39.9196625222" lon="3.0567544419"><ele>8.31</ele><time>2014-08-31T12:28:11Z</time></trkpt><trkpt lat="39.9196652044" lon="3.0567547772"><ele>8.79</ele><time>2014-08-31T12:28:36Z</time></trkpt><trkpt lat="39.9196652044" lon="3.0567547772"><ele>8.79</ele><time>2014-08-31T12:29:00Z</time></trkpt><trkpt lat="39.9196622707" lon="3.0567511730"><ele>8.31</ele><time>2014-08-31T12:29:27Z</time></trkpt><trkpt lat="39.9196633603" lon="3.0567552801"><ele>8.79</ele><time>2014-08-31T12:30:01Z</time></trkpt><trkpt lat="39.9196564872" lon="3.0567601416"><ele>8.79</ele><time>2014-08-31T12:30:32Z</time></trkpt><trkpt lat="39.9196533021" lon="3.0567619018"><ele>8.79</ele><time>2014-08-31T12:31:10Z</time></trkpt><trkpt lat="39.9196476024" lon="3.0567627400"><ele>8.79</ele><time>2014-08-31T12:31:48Z</time></trkpt><trkpt lat="39.9196380470" lon="3.0567554478"><ele>8.79</ele><time>2014-08-31T12:32:26Z</time></trkpt><trkpt lat="39.9196382985" lon="3.0567588005"><ele>8.79</ele><time>2014-08-31T12:33:03Z</time></trkpt><trkpt lat="39.9196372088" lon="3.0567589682"><ele>8.31</ele><time>2014-08-31T12:33:41Z</time></trkpt><trkpt lat="39.9196372088" lon="3.0567589682"><ele>8.31</ele><time>2014-08-31T12:34:15Z</time></trkpt><trkpt lat="39.9196305871" lon="3.0567622371"><ele>8.79</ele><time>2014-08-31T12:34:53Z</time></trkpt><trkpt lat="39.9196364544" lon="3.0567652546"><ele>9.27</ele><time>2014-08-31T12:35:33Z</time></trkpt><trkpt lat="39.9196274858" lon="3.0567687750"><ele>9.27</ele><time>2014-08-31T12:36:13Z</time></trkpt><trkpt lat="39.9196300004" lon="3.0567683559"><ele>9.27</ele><time>2014-08-31T12:36:49Z</time></trkpt><trkpt lat="39.9196310900" lon="3.0567680206"><ele>9.27</ele><time>2014-08-31T12:37:24Z</time></trkpt><trkpt lat="39.9196315091" lon="3.0567676015"><ele>9.75</ele><time>2014-08-31T12:38:05Z</time></trkpt><trkpt lat="39.9196346104" lon="3.0567640811"><ele>9.75</ele><time>2014-08-31T12:38:44Z</time></trkpt><trkpt lat="39.9196385499" lon="3.0567675177"><ele>9.75</ele><time>2014-08-31T12:39:24Z</time></trkpt><trkpt lat="39.9196442496" lon="3.0567727145"><ele>9.75</ele><time>2014-08-31T12:39:58Z</time></trkpt><trkpt lat="39.9196457583" lon="3.0567766540"><ele>9.27</ele><time>2014-08-31T12:40:21Z</time></trkpt><trkpt lat="39.9196514580" lon="3.0567683559"><ele>8.79</ele><time>2014-08-31T12:40:50Z</time></trkpt><trkpt lat="39.9196501169" lon="3.0567621533"><ele>9.27</ele><time>2014-08-31T12:41:28Z</time></trkpt><trkpt lat="39.9196493626" lon="3.0567605607"><ele>9.75</ele><time>2014-08-31T12:42:06Z</time></trkpt><trkpt lat="39.9196503684" lon="3.0567638297"><ele>10.23</ele><time>2014-08-31T12:42:42Z</time></trkpt><trkpt lat="39.9196483567" lon="3.0567649193"><ele>9.75</ele><time>2014-08-31T12:43:24Z</time></trkpt><trkpt lat="39.9196483567" lon="3.0567649193"><ele>9.75</ele><time>2014-08-31T12:43:54Z</time></trkpt><trkpt lat="39.9196485244" lon="3.0567645002"><ele>9.75</ele><time>2014-08-31T12:44:26Z</time></trkpt><trkpt lat="39.9196515419" lon="3.0567618180"><ele>9.27</ele><time>2014-08-31T12:44:48Z</time></trkpt><trkpt lat="39.9196584150" lon="3.0567564536"><ele>9.75</ele><time>2014-08-31T12:45:19Z</time></trkpt><trkpt lat="39.9196543917" lon="3.0567611475"><ele>10.23</ele><time>2014-08-31T12:45:51Z</time></trkpt><trkpt lat="39.9196605943" lon="3.0567757320"><ele>10.71</ele><time>2014-08-31T12:46:08Z</time></trkpt><trkpt lat="39.9196605943" lon="3.0567757320"><ele>10.23</ele><time>2014-08-31T12:46:35Z</time></trkpt><trkpt lat="39.9196606781" lon="3.0567753967"><ele>10.23</ele><time>2014-08-31T12:47:06Z</time></trkpt><trkpt lat="39.9196606781" lon="3.0567753967"><ele>10.71</ele><time>2014-08-31T12:47:13Z</time></trkpt><trkpt lat="39.9196607620" lon="3.0567750614"><ele>10.23</ele><time>2014-08-31T12:47:40Z</time></trkpt><trkpt lat="39.9196602590" lon="3.0567738879"><ele>10.23</ele><time>2014-08-31T12:48:08Z</time></trkpt><trkpt lat="39.9196625222" lon="3.0567806773"><ele>10.71</ele><time>2014-08-31T12:48:36Z</time></trkpt><trkpt lat="39.9196625222" lon="3.0567806773"><ele>10.23</ele><time>2014-08-31T12:49:00Z</time></trkpt><trkpt lat="39.9196669646" lon="3.0567909870"><ele>10.23</ele><time>2014-08-31T12:49:14Z</time></trkpt><trkpt lat="39.9196737539" lon="3.0567919929"><ele>10.23</ele><time>2014-08-31T12:49:20Z</time></trkpt><trkpt lat="39.9197217822" lon="3.0567380972"><ele>9.75</ele><time>2014-08-31T12:49:30Z</time></trkpt><trkpt lat="39.9197316729" lon="3.0567349121"><ele>10.23</ele><time>2014-08-31T12:49:31Z</time></trkpt><trkpt lat="39.9196913559" lon="3.0566484947"><ele>10.23</ele><time>2014-08-31T12:49:36Z</time></trkpt><trkpt lat="39.9196750950" lon="3.0566253606"><ele>10.71</ele><time>2014-08-31T12:49:38Z</time></trkpt><trkpt lat="39.9196678028" lon="3.0566106923"><ele>10.23</ele><time>2014-08-31T12:49:39Z</time></trkpt><trkpt lat="39.9196353648" lon="3.0565542821"><ele>11.19</ele><time>2014-08-31T12:49:46Z</time></trkpt><trkpt lat="39.9196292460" lon="3.0565389432"><ele>11.19</ele><time>2014-08-31T12:49:47Z</time></trkpt><trkpt lat="39.9196088780" lon="3.0565022305"><ele>10.71</ele><time>2014-08-31T12:49:53Z</time></trkpt><trkpt lat="39.9195984006" lon="3.0564831197"><ele>10.71</ele><time>2014-08-31T12:49:54Z</time></trkpt><trkpt lat="39.9195864983" lon="3.0564635899"><ele>10.71</ele><time>2014-08-31T12:49:55Z</time></trkpt><trkpt lat="39.9195676390" lon="3.0563865602"><ele>10.71</ele><time>2014-08-31T12:50:01Z</time></trkpt><trkpt lat="39.9195547309" lon="3.0563604925"><ele>10.71</ele><time>2014-08-31T12:50:02Z</time></trkpt><trkpt lat="39.9195131566" lon="3.0562948622"><ele>10.71</ele><time>2014-08-31T12:50:09Z</time></trkpt><trkpt lat="39.9194950517" lon="3.0562726501"><ele>11.19</ele><time>2014-08-31T12:50:10Z</time></trkpt><trkpt lat="39.9194792937" lon="3.0562478397"><ele>10.71</ele><time>2014-08-31T12:50:11Z</time></trkpt><trkpt lat="39.9194634520" lon="3.0562280584"><ele>10.71</ele><time>2014-08-31T12:50:12Z</time></trkpt><trkpt lat="39.9194482807" lon="3.0562170781"><ele>10.71</ele><time>2014-08-31T12:50:13Z</time></trkpt><trkpt lat="39.9194213748" lon="3.0561963748"><ele>11.19</ele><time>2014-08-31T12:50:17Z</time></trkpt><trkpt lat="39.9194106460" lon="3.0561814550"><ele>10.71</ele><time>2014-08-31T12:50:18Z</time></trkpt><trkpt lat="39.9193900265" lon="3.0561605003"><ele>10.23</ele><time>2014-08-31T12:50:19Z</time></trkpt><trkpt lat="39.9193684012" lon="3.0561389588"><ele>10.71</ele><time>2014-08-31T12:50:20Z</time></trkpt><trkpt lat="39.9193498772" lon="3.0561243743"><ele>11.19</ele><time>2014-08-31T12:50:21Z</time></trkpt><trkpt lat="39.9192855880" lon="3.0559947900"><ele>11.19</ele><time>2014-08-31T12:50:30Z</time></trkpt><trkpt lat="39.9192248192" lon="3.0559421517"><ele>11.67</ele><time>2014-08-31T12:50:38Z</time></trkpt><trkpt lat="39.9191710912" lon="3.0558651220"><ele>12.15</ele><time>2014-08-31T12:50:46Z</time></trkpt><trkpt lat="39.9191521481" lon="3.0558447540"><ele>12.63</ele><time>2014-08-31T12:50:47Z</time></trkpt><trkpt lat="39.9190641381" lon="3.0557409022"><ele>11.67</ele><time>2014-08-31T12:50:57Z</time></trkpt><trkpt lat="39.9189596158" lon="3.0555992480"><ele>12.15</ele><time>2014-08-31T12:51:07Z</time></trkpt><trkpt lat="39.9189303629" lon="3.0555510521"><ele>12.63</ele><time>2014-08-31T12:51:10Z</time></trkpt><trkpt lat="39.9188534170" lon="3.0554512236"><ele>12.15</ele><time>2014-08-31T12:51:19Z</time></trkpt><trkpt lat="39.9188060593" lon="3.0553553347"><ele>12.63</ele><time>2014-08-31T12:51:26Z</time></trkpt><trkpt lat="39.9186940771" lon="3.0552602001"><ele>13.12</ele><time>2014-08-31T12:51:35Z</time></trkpt><trkpt lat="39.9186380021" lon="3.0551405903"><ele>13.12</ele><time>2014-08-31T12:51:44Z</time></trkpt><trkpt lat="39.9186292849" lon="3.0551281851"><ele>13.12</ele><time>2014-08-31T12:51:45Z</time></trkpt><trkpt lat="39.9186168797" lon="3.0551127624"><ele>13.12</ele><time>2014-08-31T12:51:46Z</time></trkpt><trkpt lat="39.9186064862" lon="3.0550938193"><ele>12.63</ele><time>2014-08-31T12:51:47Z</time></trkpt><trkpt lat="39.9185947515" lon="3.0550750438"><ele>12.63</ele><time>2014-08-31T12:51:48Z</time></trkpt><trkpt lat="39.9185822625" lon="3.0550574418"><ele>13.12</ele><time>2014-08-31T12:51:49Z</time></trkpt><trkpt lat="39.9185359105" lon="3.0550100002"><ele>13.60</ele><time>2014-08-31T12:51:56Z</time></trkpt><trkpt lat="39.9185262714" lon="3.0549908057"><ele>13.12</ele><time>2014-08-31T12:51:57Z</time></trkpt><trkpt lat="39.9184528459" lon="3.0548896361"><ele>14.08</ele><time>2014-08-31T12:52:06Z</time></trkpt><trkpt lat="39.9183902331" lon="3.0547860358"><ele>13.60</ele><time>2014-08-31T12:52:14Z</time></trkpt><trkpt lat="39.9183759000" lon="3.0547707807"><ele>14.08</ele><time>2014-08-31T12:52:15Z</time></trkpt><trkpt lat="39.9183245189" lon="3.0547026359"><ele>14.08</ele><time>2014-08-31T12:52:22Z</time></trkpt><trkpt lat="39.9183158018" lon="3.0546904821"><ele>14.56</ele><time>2014-08-31T12:52:23Z</time></trkpt><trkpt lat="39.9182218406" lon="3.0545729678"><ele>14.56</ele><time>2014-08-31T12:52:31Z</time></trkpt><trkpt lat="39.9181133788" lon="3.0544517655"><ele>15.04</ele><time>2014-08-31T12:52:41Z</time></trkpt><trkpt lat="39.9180873111" lon="3.0544215068"><ele>14.56</ele><time>2014-08-31T12:52:43Z</time></trkpt><trkpt lat="39.9180795159" lon="3.0544077605"><ele>15.04</ele><time>2014-08-31T12:52:44Z</time></trkpt><trkpt lat="39.9180107005" lon="3.0542999692"><ele>15.04</ele><time>2014-08-31T12:52:55Z</time></trkpt><trkpt lat="39.9180107005" lon="3.0542999692"><ele>14.56</ele><time>2014-08-31T12:52:56Z</time></trkpt><trkpt lat="39.9179986306" lon="3.0542366859"><ele>16.96</ele><time>2014-08-31T12:53:05Z</time></trkpt><trkpt lat="39.9180086050" lon="3.0542258732"><ele>17.92</ele><time>2014-08-31T12:53:17Z</time></trkpt><trkpt lat="39.9180086050" lon="3.0542258732"><ele>17.44</ele><time>2014-08-31T12:53:42Z</time></trkpt><trkpt lat="39.9180091079" lon="3.0542245321"><ele>17.92</ele><time>2014-08-31T12:53:59Z</time></trkpt><trkpt lat="39.9180065095" lon="3.0542256217"><ele>32.34</ele><time>2014-08-31T15:14:13Z</time></trkpt><trkpt lat="39.9181175698" lon="3.0541616678"><ele>31.86</ele><time>2014-08-31T15:14:14Z</time></trkpt><trkpt lat="39.9181547016" lon="3.0541262962"><ele>29.46</ele><time>2014-08-31T15:14:24Z</time></trkpt><trkpt lat="39.9181500077" lon="3.0541312415"><ele>26.09</ele><time>2014-08-31T15:14:29Z</time></trkpt><trkpt lat="39.9181484990" lon="3.0541328341"><ele>26.57</ele><time>2014-08-31T15:14:30Z</time></trkpt><trkpt lat="39.9181444757" lon="3.0541419704"><ele>25.13</ele><time>2014-08-31T15:14:33Z</time></trkpt><trkpt lat="39.9181450624" lon="3.0541444849"><ele>23.21</ele><time>2014-08-31T15:14:39Z</time></trkpt><trkpt lat="39.9181566294" lon="3.0541383661"><ele>20.32</ele><time>2014-08-31T15:14:50Z</time></trkpt><trkpt lat="39.9182226788" lon="3.0539983884"><ele>17.92</ele><time>2014-08-31T15:15:14Z</time></trkpt><trkpt lat="39.9182116147" lon="3.0539814569"><ele>15.52</ele><time>2014-08-31T15:15:32Z</time></trkpt><trkpt lat="39.9181867205" lon="3.0540335085"><ele>16.00</ele><time>2014-08-31T15:15:48Z</time></trkpt><trkpt lat="39.9181584734" lon="3.0541014858"><ele>15.52</ele><time>2014-08-31T15:16:15Z</time></trkpt><trkpt lat="39.9181584734" lon="3.0541014858"><ele>16.00</ele><time>2014-08-31T15:16:36Z</time></trkpt><trkpt lat="39.9181588925" lon="3.0541111249"><ele>16.00</ele><time>2014-08-31T15:16:55Z</time></trkpt><trkpt lat="39.9181588925" lon="3.0541111249"><ele>15.52</ele><time>2014-08-31T15:17:17Z</time></trkpt><trkpt lat="39.9181587249" lon="3.0541113764"><ele>15.04</ele><time>2014-08-31T15:17:43Z</time></trkpt><trkpt lat="39.9181458168" lon="3.0541212671"><ele>14.56</ele><time>2014-08-31T15:18:07Z</time></trkpt><trkpt lat="39.9181228504" lon="3.0541481730"><ele>15.04</ele><time>2014-08-31T15:18:31Z</time></trkpt><trkpt lat="39.9181228504" lon="3.0541481730"><ele>15.04</ele><time>2014-08-31T15:18:59Z</time></trkpt><trkpt lat="39.9181268737" lon="3.0541259609"><ele>15.04</ele><time>2014-08-31T15:19:29Z</time></trkpt><trkpt lat="39.9181272089" lon="3.0541253742"><ele>15.04</ele><time>2014-08-31T15:19:59Z</time></trkpt><trkpt lat="39.9181288015" lon="3.0541230273"><ele>15.04</ele><time>2014-08-31T15:20:29Z</time></trkpt><trkpt lat="39.9181288015" lon="3.0541230273"><ele>14.56</ele><time>2014-08-31T15:20:56Z</time></trkpt><trkpt lat="39.9181297235" lon="3.0541217700"><ele>15.04</ele><time>2014-08-31T15:21:23Z</time></trkpt><trkpt lat="39.9181422964" lon="3.0541107059"><ele>14.56</ele><time>2014-08-31T15:21:48Z</time></trkpt><trkpt lat="39.9181434698" lon="3.0541097838"><ele>15.04</ele><time>2014-08-31T15:22:17Z</time></trkpt><trkpt lat="39.9181433022" lon="3.0541110411"><ele>15.04</ele><time>2014-08-31T15:22:49Z</time></trkpt><trkpt lat="39.9181433022" lon="3.0541110411"><ele>15.04</ele><time>2014-08-31T15:23:20Z</time></trkpt><trkpt lat="39.9181419611" lon="3.0541105382"><ele>15.04</ele><time>2014-08-31T15:23:54Z</time></trkpt><trkpt lat="39.9181419611" lon="3.0541095324"><ele>15.04</ele><time>2014-08-31T15:24:25Z</time></trkpt><trkpt lat="39.9181391951" lon="3.0541098677"><ele>15.04</ele><time>2014-08-31T15:24:59Z</time></trkpt><trkpt lat="39.9181407876" lon="3.0541115440"><ele>14.56</ele><time>2014-08-31T15:25:23Z</time></trkpt><trkpt lat="39.9181592278" lon="3.0540511943"><ele>15.04</ele><time>2014-08-31T15:25:54Z</time></trkpt><trkpt lat="39.9181789253" lon="3.0540147331"><ele>14.56</ele><time>2014-08-31T15:26:22Z</time></trkpt><trkpt lat="39.9181767460" lon="3.0540153198"><ele>14.08</ele><time>2014-08-31T15:26:54Z</time></trkpt><trkpt lat="39.9181584734" lon="3.0540161580"><ele>14.56</ele><time>2014-08-31T15:27:22Z</time></trkpt><trkpt lat="39.9181614071" lon="3.0540187564"><ele>15.52</ele><time>2014-08-31T15:27:51Z</time></trkpt><trkpt lat="39.9181614071" lon="3.0540185887"><ele>15.04</ele><time>2014-08-31T15:28:18Z</time></trkpt><trkpt lat="39.9181614071" lon="3.0540190078"><ele>15.04</ele><time>2014-08-31T15:28:42Z</time></trkpt><trkpt lat="39.9181498401" lon="3.0540535413"><ele>15.04</ele><time>2014-08-31T15:29:07Z</time></trkpt><trkpt lat="39.9181718007" lon="3.0540516973"><ele>15.52</ele><time>2014-08-31T15:29:33Z</time></trkpt><trkpt lat="39.9181525223" lon="3.0540952832"><ele>15.52</ele><time>2014-08-31T15:29:53Z</time></trkpt><trkpt lat="39.9181525223" lon="3.0540952832"><ele>15.04</ele><time>2014-08-31T15:30:20Z</time></trkpt><trkpt lat="39.9181516841" lon="3.0541061796"><ele>14.56</ele><time>2014-08-31T15:30:36Z</time></trkpt><trkpt lat="39.9181516841" lon="3.0541061796"><ele>15.52</ele><time>2014-08-31T15:30:59Z</time></trkpt><trkpt lat="39.9181281310" lon="3.0541611649"><ele>15.52</ele><time>2014-08-31T15:31:20Z</time></trkpt><trkpt lat="39.9181378540" lon="3.0541748274"><ele>15.52</ele><time>2014-08-31T15:31:40Z</time></trkpt><trkpt lat="39.9181403685" lon="3.0541956984"><ele>16.00</ele><time>2014-08-31T15:31:55Z</time></trkpt><trkpt lat="39.9181375187" lon="3.0541984644"><ele>15.04</ele><time>2014-08-31T15:32:10Z</time></trkpt><trkpt lat="39.9181029014" lon="3.0542485043"><ele>15.04</ele><time>2014-08-31T15:32:24Z</time></trkpt><trkpt lat="39.9181029014" lon="3.0542485043"><ele>15.04</ele><time>2014-08-31T15:32:45Z</time></trkpt><trkpt lat="39.9180749059" lon="3.0542559642"><ele>15.52</ele><time>2014-08-31T15:33:02Z</time></trkpt><trkpt lat="39.9180795997" lon="3.0542593170"><ele>15.04</ele><time>2014-08-31T15:33:20Z</time></trkpt><trkpt lat="39.9180791806" lon="3.0542604066"><ele>16.00</ele><time>2014-08-31T15:33:53Z</time></trkpt><trkpt lat="39.9180782586" lon="3.0542665254"><ele>15.04</ele><time>2014-08-31T15:34:10Z</time></trkpt><trkpt lat="39.9180740677" lon="3.0542744044"><ele>14.56</ele><time>2014-08-31T15:34:28Z</time></trkpt><trkpt lat="39.9180702958" lon="3.0542773381"><ele>15.04</ele><time>2014-08-31T15:34:43Z</time></trkpt><trkpt lat="39.9180697091" lon="3.0542729795"><ele>15.04</ele><time>2014-08-31T15:35:03Z</time></trkpt><trkpt lat="39.9180654343" lon="3.0542376917"><ele>14.08</ele><time>2014-08-31T15:35:23Z</time></trkpt><trkpt lat="39.9180427194" lon="3.0542058405"><ele>15.04</ele><time>2014-08-31T15:35:39Z</time></trkpt><trkpt lat="39.9180101138" lon="3.0542699620"><ele>13.60</ele><time>2014-08-31T15:35:57Z</time></trkpt><trkpt lat="39.9180060066" lon="3.0542717222"><ele>13.12</ele><time>2014-08-31T15:36:19Z</time></trkpt><trkpt lat="39.9180082697" lon="3.0542687047"><ele>13.12</ele><time>2014-08-31T15:36:21Z</time></trkpt><trkpt lat="39.9180054199" lon="3.0542730633"><ele>9.27</ele><time>2014-08-31T15:36:24Z</time></trkpt><trkpt lat="39.9180028215" lon="3.0542757455"><ele>16.00</ele><time>2014-08-31T15:36:25Z</time></trkpt><trkpt lat="39.9180004746" lon="3.0542769190"><ele>12.63</ele><time>2014-08-31T15:36:26Z</time></trkpt><trkpt lat="39.9179999717" lon="3.0542853009"><ele>12.15</ele><time>2014-08-31T15:36:40Z</time></trkpt><trkpt lat="39.9179963674" lon="3.0542861391"><ele>13.60</ele><time>2014-08-31T15:36:54Z</time></trkpt><trkpt lat="39.9179962836" lon="3.0542889889"><ele>13.12</ele><time>2014-08-31T15:37:20Z</time></trkpt><trkpt lat="39.9179851357" lon="3.0542797688"><ele>12.63</ele><time>2014-08-31T15:37:34Z</time></trkpt><trkpt lat="39.9179851357" lon="3.0542797688"><ele>13.12</ele><time>2014-08-31T15:38:01Z</time></trkpt><trkpt lat="39.9179798551" lon="3.0542817805"><ele>13.12</ele><time>2014-08-31T15:38:26Z</time></trkpt><trkpt lat="39.9179780949" lon="3.0542806070"><ele>13.12</ele><time>2014-08-31T15:38:53Z</time></trkpt><trkpt lat="39.9179780949" lon="3.0542806070"><ele>13.60</ele><time>2014-08-31T15:39:04Z</time></trkpt><trkpt lat="39.9179780949" lon="3.0542806070"><ele>15.04</ele><time>2014-08-31T15:39:27Z</time></trkpt><trkpt lat="39.9179122970" lon="3.0542184133"><ele>13.60</ele><time>2014-08-31T15:39:38Z</time></trkpt><trkpt lat="39.9178841338" lon="3.0541874841"><ele>13.60</ele><time>2014-08-31T15:39:50Z</time></trkpt><trkpt lat="39.9178758357" lon="3.0541834608"><ele>13.60</ele><time>2014-08-31T15:39:51Z</time></trkpt><trkpt lat="39.9178558867" lon="3.0541458260"><ele>13.60</ele><time>2014-08-31T15:39:56Z</time></trkpt><trkpt lat="39.9178174976" lon="3.0540861469"><ele>13.12</ele><time>2014-08-31T15:40:04Z</time></trkpt><trkpt lat="39.9178174976" lon="3.0540861469"><ele>13.60</ele><time>2014-08-31T15:40:05Z</time></trkpt><trkpt lat="39.9177999794" lon="3.0540763400"><ele>13.60</ele><time>2014-08-31T15:40:06Z</time></trkpt><trkpt lat="39.9177750852" lon="3.0540546309"><ele>13.60</ele><time>2014-08-31T15:40:09Z</time></trkpt><trkpt lat="39.9177633505" lon="3.0540397950"><ele>13.60</ele><time>2014-08-31T15:40:10Z</time></trkpt><trkpt lat="39.9177583214" lon="3.0539926048"><ele>13.60</ele><time>2014-08-31T15:40:13Z</time></trkpt><trkpt lat="39.9177371152" lon="3.0539656989"><ele>14.56</ele><time>2014-08-31T15:40:18Z</time></trkpt><trkpt lat="39.9177253805" lon="3.0539574847"><ele>14.08</ele><time>2014-08-31T15:40:19Z</time></trkpt><trkpt lat="39.9176687188" lon="3.0539081153"><ele>14.56</ele><time>2014-08-31T15:40:27Z</time></trkpt><trkpt lat="39.9176555593" lon="3.0538924411"><ele>14.56</ele><time>2014-08-31T15:40:28Z</time></trkpt><trkpt lat="39.9175832234" lon="3.0538232066"><ele>15.52</ele><time>2014-08-31T15:40:37Z</time></trkpt><trkpt lat="39.9175675493" lon="3.0537904333"><ele>15.04</ele><time>2014-08-31T15:40:40Z</time></trkpt><trkpt lat="39.9175530486" lon="3.0537547264"><ele>15.52</ele><time>2014-08-31T15:40:43Z</time></trkpt><trkpt lat="39.9175476842" lon="3.0537399743"><ele>15.52</ele><time>2014-08-31T15:40:44Z</time></trkpt><trkpt lat="39.9175289925" lon="3.0537153315"><ele>15.52</ele><time>2014-08-31T15:40:48Z</time></trkpt><trkpt lat="39.9175008293" lon="3.0536875036"><ele>16.00</ele><time>2014-08-31T15:40:51Z</time></trkpt><trkpt lat="39.9174213689" lon="3.0535999965"><ele>16.00</ele><time>2014-08-31T15:41:02Z</time></trkpt><trkpt lat="39.9173917808" lon="3.0535599310"><ele>16.00</ele><time>2014-08-31T15:41:06Z</time></trkpt><trkpt lat="39.9173290841" lon="3.0534980725"><ele>17.44</ele><time>2014-08-31T15:41:16Z</time></trkpt><trkpt lat="39.9172573350" lon="3.0534092244"><ele>18.40</ele><time>2014-08-31T15:41:28Z</time></trkpt><trkpt lat="39.9172462709" lon="3.0534036923"><ele>18.40</ele><time>2014-08-31T15:41:29Z</time></trkpt><trkpt lat="39.9172351230" lon="3.0533930473"><ele>17.92</ele><time>2014-08-31T15:41:30Z</time></trkpt><trkpt lat="39.9171342887" lon="3.0532604456"><ele>18.88</ele><time>2014-08-31T15:41:43Z</time></trkpt><trkpt lat="39.9171001744" lon="3.0532342102"><ele>19.36</ele><time>2014-08-31T15:41:47Z</time></trkpt><trkpt lat="39.9170581810" lon="3.0531719327"><ele>19.84</ele><time>2014-08-31T15:41:54Z</time></trkpt><trkpt lat="39.9170508049" lon="3.0531588569"><ele>20.32</ele><time>2014-08-31T15:41:55Z</time></trkpt><trkpt lat="39.9170093983" lon="3.0530440249"><ele>21.29</ele><time>2014-08-31T15:42:07Z</time></trkpt><trkpt lat="39.9170033634" lon="3.0530337151"><ele>20.81</ele><time>2014-08-31T15:42:08Z</time></trkpt><trkpt lat="39.9169378169" lon="3.0529369041"><ele>21.29</ele><time>2014-08-31T15:42:19Z</time></trkpt><trkpt lat="39.9169191252" lon="3.0528939888"><ele>21.29</ele><time>2014-08-31T15:42:25Z</time></trkpt><trkpt lat="39.9169107433" lon="3.0528340582"><ele>21.77</ele><time>2014-08-31T15:42:31Z</time></trkpt><trkpt lat="39.9169010203" lon="3.0527812522"><ele>21.77</ele><time>2014-08-31T15:42:37Z</time></trkpt><trkpt lat="39.9168806523" lon="3.0527183879"><ele>22.25</ele><time>2014-08-31T15:42:42Z</time></trkpt><trkpt lat="39.9168706778" lon="3.0526960921"><ele>22.25</ele><time>2014-08-31T15:42:43Z</time></trkpt><trkpt lat="39.9168430176" lon="3.0526488181"><ele>22.25</ele><time>2014-08-31T15:42:47Z</time></trkpt><trkpt lat="39.9168433528" lon="3.0526307970"><ele>22.25</ele><time>2014-08-31T15:42:48Z</time></trkpt><trkpt lat="39.9168434367" lon="3.0526240077"><ele>22.25</ele><time>2014-08-31T15:42:50Z</time></trkpt><trkpt lat="39.9168417603" lon="3.0525985267"><ele>22.25</ele><time>2014-08-31T15:42:51Z</time></trkpt><trkpt lat="39.9168366473" lon="3.0525351595"><ele>22.25</ele><time>2014-08-31T15:42:59Z</time></trkpt><trkpt lat="39.9168351386" lon="3.0524995364"><ele>23.21</ele><time>2014-08-31T15:43:03Z</time></trkpt><trkpt lat="39.9168185424" lon="3.0524901487"><ele>22.73</ele><time>2014-08-31T15:43:15Z</time></trkpt><trkpt lat="39.9167731125" lon="3.0524190702"><ele>23.21</ele><time>2014-08-31T15:43:24Z</time></trkpt><trkpt lat="39.9167463742" lon="3.0523890629"><ele>22.73</ele><time>2014-08-31T15:43:28Z</time></trkpt><trkpt lat="39.9167301971" lon="3.0523767415"><ele>22.73</ele><time>2014-08-31T15:43:31Z</time></trkpt><trkpt lat="39.9167239945" lon="3.0523589719"><ele>22.73</ele><time>2014-08-31T15:43:32Z</time></trkpt><trkpt lat="39.9166690931" lon="3.0522967782"><ele>23.21</ele><time>2014-08-31T15:43:40Z</time></trkpt><trkpt lat="39.9166379124" lon="3.0522370990"><ele>22.73</ele><time>2014-08-31T15:43:48Z</time></trkpt><trkpt lat="39.9166265130" lon="3.0522190779"><ele>23.21</ele><time>2014-08-31T15:43:54Z</time></trkpt><trkpt lat="39.9165589549" lon="3.0521661043"><ele>23.69</ele><time>2014-08-31T15:44:02Z</time></trkpt><trkpt lat="39.9165486451" lon="3.0521511845"><ele>23.21</ele><time>2014-08-31T15:44:03Z</time></trkpt><trkpt lat="39.9165219069" lon="3.0521258712"><ele>23.21</ele><time>2014-08-31T15:44:07Z</time></trkpt><trkpt lat="39.9165092502" lon="3.0521115381"><ele>23.21</ele><time>2014-08-31T15:44:08Z</time></trkpt><trkpt lat="39.9164858647" lon="3.0520887394"><ele>23.69</ele><time>2014-08-31T15:44:11Z</time></trkpt><trkpt lat="39.9164734595" lon="3.0520759150"><ele>23.69</ele><time>2014-08-31T15:44:12Z</time></trkpt><trkpt lat="39.9164596293" lon="3.0520691257"><ele>23.69</ele><time>2014-08-31T15:44:15Z</time></trkpt><trkpt lat="39.9164500739" lon="3.0520584807"><ele>23.21</ele><time>2014-08-31T15:44:16Z</time></trkpt><trkpt lat="39.9164305441" lon="3.0520371068"><ele>23.69</ele><time>2014-08-31T15:44:19Z</time></trkpt><trkpt lat="39.9164209887" lon="3.0520295631"><ele>23.69</ele><time>2014-08-31T15:44:20Z</time></trkpt><trkpt lat="39.9163924064" lon="3.0519957840"><ele>23.69</ele><time>2014-08-31T15:44:25Z</time></trkpt><trkpt lat="39.9163696915" lon="3.0519757513"><ele>23.21</ele><time>2014-08-31T15:44:28Z</time></trkpt><trkpt lat="39.9163572025" lon="3.0519747455"><ele>23.69</ele><time>2014-08-31T15:44:29Z</time></trkpt><trkpt lat="39.9163406901" lon="3.0519622564"><ele>23.69</ele><time>2014-08-31T15:44:32Z</time></trkpt><trkpt lat="39.9163173884" lon="3.0519029126"><ele>23.69</ele><time>2014-08-31T15:44:39Z</time></trkpt><trkpt lat="39.9162867945" lon="3.0518614221"><ele>23.69</ele><time>2014-08-31T15:44:43Z</time></trkpt><trkpt lat="39.9162716232" lon="3.0518331751"><ele>23.69</ele><time>2014-08-31T15:44:46Z</time></trkpt><trkpt lat="39.9162630737" lon="3.0518195126"><ele>23.69</ele><time>2014-08-31T15:44:47Z</time></trkpt><trkpt lat="39.9162287917" lon="3.0517737474"><ele>23.69</ele><time>2014-08-31T15:44:56Z</time></trkpt><trkpt lat="39.9162178114" lon="3.0517612584"><ele>23.69</ele><time>2014-08-31T15:44:57Z</time></trkpt><trkpt lat="39.9161976948" lon="3.0517212767"><ele>24.17</ele><time>2014-08-31T15:45:01Z</time></trkpt><trkpt lat="39.9161909893" lon="3.0517048482"><ele>23.69</ele><time>2014-08-31T15:45:02Z</time></trkpt><trkpt lat="39.9161644187" lon="3.0516397208"><ele>24.65</ele><time>2014-08-31T15:45:09Z</time></trkpt><trkpt lat="39.9161518458" lon="3.0516219512"><ele>24.17</ele><time>2014-08-31T15:45:10Z</time></trkpt><trkpt lat="39.9161227606" lon="3.0515739229"><ele>24.65</ele><time>2014-08-31T15:45:14Z</time></trkpt><trkpt lat="39.9161149655" lon="3.0515538901"><ele>24.17</ele><time>2014-08-31T15:45:15Z</time></trkpt><trkpt lat="39.9160982855" lon="3.0515088793"><ele>24.17</ele><time>2014-08-31T15:45:20Z</time></trkpt><trkpt lat="39.9160434678" lon="3.0514339451"><ele>24.17</ele><time>2014-08-31T15:45:29Z</time></trkpt><trkpt lat="39.9160070065" lon="3.0513799656"><ele>24.65</ele><time>2014-08-31T15:45:37Z</time></trkpt><trkpt lat="39.9160041567" lon="3.0513604358"><ele>24.65</ele><time>2014-08-31T15:45:38Z</time></trkpt><trkpt lat="39.9159893207" lon="3.0513140000"><ele>25.13</ele><time>2014-08-31T15:45:42Z</time></trkpt><trkpt lat="39.9159102794" lon="3.0512262415"><ele>24.65</ele><time>2014-08-31T15:45:51Z</time></trkpt><trkpt lat="39.9158507679" lon="3.0511648022"><ele>24.65</ele><time>2014-08-31T15:45:58Z</time></trkpt><trkpt lat="39.9158142228" lon="3.0510119162"><ele>25.13</ele><time>2014-08-31T15:46:12Z</time></trkpt><trkpt lat="39.9158267956" lon="3.0509472080"><ele>25.61</ele><time>2014-08-31T15:46:17Z</time></trkpt><trkpt lat="39.9158432242" lon="3.0509025324"><ele>26.57</ele><time>2014-08-31T15:46:22Z</time></trkpt><trkpt lat="39.9158632569" lon="3.0508967489"><ele>27.05</ele><time>2014-08-31T15:46:25Z</time></trkpt><trkpt lat="39.9159549549" lon="3.0508561805"><ele>28.98</ele><time>2014-08-31T15:46:34Z</time></trkpt><trkpt lat="39.9159911647" lon="3.0508213956"><ele>29.94</ele><time>2014-08-31T15:46:39Z</time></trkpt><trkpt lat="39.9160527717" lon="3.0507555977"><ele>30.90</ele><time>2014-08-31T15:46:46Z</time></trkpt><trkpt lat="39.9160790071" lon="3.0507383309"><ele>30.90</ele><time>2014-08-31T15:46:49Z</time></trkpt><trkpt lat="39.9161148816" lon="3.0507056415"><ele>32.82</ele><time>2014-08-31T15:47:02Z</time></trkpt><trkpt lat="39.9161215033" lon="3.0506920628"><ele>32.82</ele><time>2014-08-31T15:47:09Z</time></trkpt><trkpt lat="39.9161126185" lon="3.0506529193"><ele>32.82</ele><time>2014-08-31T15:47:12Z</time></trkpt><trkpt lat="39.9160798453" lon="3.0505054817"><ele>33.30</ele><time>2014-08-31T15:47:21Z</time></trkpt><trkpt lat="39.9160664342" lon="3.0504854489"><ele>33.78</ele><time>2014-08-31T15:47:23Z</time></trkpt><trkpt lat="39.9160597287" lon="3.0504658353"><ele>34.26</ele><time>2014-08-31T15:47:24Z</time></trkpt><trkpt lat="39.9160504248" lon="3.0504496582"><ele>33.78</ele><time>2014-08-31T15:47:25Z</time></trkpt><trkpt lat="39.9160031509" lon="3.0503892247"><ele>34.74</ele><time>2014-08-31T15:47:32Z</time></trkpt><trkpt lat="39.9159917515" lon="3.0503741372"><ele>34.26</ele><time>2014-08-31T15:47:33Z</time></trkpt><trkpt lat="39.9159826990" lon="3.0503567867"><ele>34.26</ele><time>2014-08-31T15:47:34Z</time></trkpt><trkpt lat="39.9159706291" lon="3.0503376760"><ele>34.74</ele><time>2014-08-31T15:47:36Z</time></trkpt><trkpt lat="39.9159614090" lon="3.0503251031"><ele>34.74</ele><time>2014-08-31T15:47:37Z</time></trkpt><trkpt lat="39.9159548711" lon="3.0503090937"><ele>34.74</ele><time>2014-08-31T15:47:38Z</time></trkpt><trkpt lat="39.9159189966" lon="3.0502453912"><ele>35.71</ele><time>2014-08-31T15:47:45Z</time></trkpt><trkpt lat="39.9159076810" lon="3.0502256937"><ele>35.23</ele><time>2014-08-31T15:47:48Z</time></trkpt><trkpt lat="39.9159033224" lon="3.0502104387"><ele>35.71</ele><time>2014-08-31T15:47:49Z</time></trkpt><trkpt lat="39.9158838764" lon="3.0501710437"><ele>36.19</ele><time>2014-08-31T15:47:59Z</time></trkpt><trkpt lat="39.9158687051" lon="3.0501558725"><ele>35.71</ele><time>2014-08-31T15:48:07Z</time></trkpt><trkpt lat="39.9158617482" lon="3.0501374323"><ele>35.23</ele><time>2014-08-31T15:48:08Z</time></trkpt><trkpt lat="39.9158285558" lon="3.0500972830"><ele>35.71</ele><time>2014-08-31T15:48:20Z</time></trkpt><trkpt lat="39.9158246163" lon="3.0500810221"><ele>36.19</ele><time>2014-08-31T15:48:22Z</time></trkpt><trkpt lat="39.9158091936" lon="3.0500557087"><ele>35.71</ele><time>2014-08-31T15:48:25Z</time></trkpt><trkpt lat="39.9158039968" lon="3.0500064231"><ele>36.19</ele><time>2014-08-31T15:48:27Z</time></trkpt><trkpt lat="39.9157945253" lon="3.0499842111"><ele>36.19</ele><time>2014-08-31T15:48:28Z</time></trkpt><trkpt lat="39.9157621711" lon="3.0499268789"><ele>36.67</ele><time>2014-08-31T15:48:32Z</time></trkpt><trkpt lat="39.9157566391" lon="3.0499042477"><ele>36.19</ele><time>2014-08-31T15:48:33Z</time></trkpt><trkpt lat="39.9157407973" lon="3.0498682056"><ele>36.67</ele><time>2014-08-31T15:48:37Z</time></trkpt><trkpt lat="39.9157349300" lon="3.0498490110"><ele>36.67</ele><time>2014-08-31T15:48:38Z</time></trkpt><trkpt lat="39.9157256261" lon="3.0498014856"><ele>36.67</ele><time>2014-08-31T15:48:42Z</time></trkpt><trkpt lat="39.9157241173" lon="3.0497820396"><ele>36.19</ele><time>2014-08-31T15:48:43Z</time></trkpt><trkpt lat="39.9157207645" lon="3.0497629289"><ele>36.19</ele><time>2014-08-31T15:48:44Z</time></trkpt><trkpt lat="39.9157107901" lon="3.0497336760"><ele>36.67</ele><time>2014-08-31T15:48:48Z</time></trkpt><trkpt lat="39.9157071020" lon="3.0497131404"><ele>36.19</ele><time>2014-08-31T15:48:49Z</time></trkpt><trkpt lat="39.9157036655" lon="3.0496613402"><ele>36.67</ele><time>2014-08-31T15:48:54Z</time></trkpt><trkpt lat="39.9156967085" lon="3.0495567340"><ele>36.67</ele><time>2014-08-31T15:49:02Z</time></trkpt><trkpt lat="39.9156860635" lon="3.0494801234"><ele>37.15</ele><time>2014-08-31T15:49:08Z</time></trkpt><trkpt lat="39.9156899191" lon="3.0494608451"><ele>37.15</ele><time>2014-08-31T15:49:09Z</time></trkpt><trkpt lat="39.9156931043" lon="3.0494416505"><ele>37.15</ele><time>2014-08-31T15:49:10Z</time></trkpt><trkpt lat="39.9156817049" lon="3.0493807979"><ele>37.15</ele><time>2014-08-31T15:49:17Z</time></trkpt><trkpt lat="39.9156806152" lon="3.0493545625"><ele>36.67</ele><time>2014-08-31T15:49:18Z</time></trkpt><trkpt lat="39.9156775139" lon="3.0493000802"><ele>37.15</ele><time>2014-08-31T15:49:23Z</time></trkpt><trkpt lat="39.9156738259" lon="3.0492797121"><ele>36.67</ele><time>2014-08-31T15:49:24Z</time></trkpt><trkpt lat="39.9156784359" lon="3.0492348690"><ele>36.67</ele><time>2014-08-31T15:49:27Z</time></trkpt><trkpt lat="39.9156836327" lon="3.0492124055"><ele>36.67</ele><time>2014-08-31T15:49:28Z</time></trkpt><trkpt lat="39.9156665336" lon="3.0491373036"><ele>36.67</ele><time>2014-08-31T15:49:34Z</time></trkpt><trkpt lat="39.9156600796" lon="3.0491254851"><ele>36.67</ele><time>2014-08-31T15:49:35Z</time></trkpt><trkpt lat="39.9156592414" lon="3.0490797199"><ele>35.71</ele><time>2014-08-31T15:49:40Z</time></trkpt><trkpt lat="39.9156569783" lon="3.0490591843"><ele>36.19</ele><time>2014-08-31T15:49:41Z</time></trkpt><trkpt lat="39.9156487640" lon="3.0490457732"><ele>36.19</ele><time>2014-08-31T15:49:44Z</time></trkpt><trkpt lat="39.9156561401" lon="3.0490350444"><ele>37.15</ele><time>2014-08-31T15:49:47Z</time></trkpt><trkpt lat="39.9156541284" lon="3.0490232259"><ele>36.19</ele><time>2014-08-31T15:49:51Z</time></trkpt><trkpt lat="39.9156525359" lon="3.0490036123"><ele>35.71</ele><time>2014-08-31T15:49:52Z</time></trkpt><trkpt lat="39.9156382866" lon="3.0489062145"><ele>35.71</ele><time>2014-08-31T15:50:00Z</time></trkpt><trkpt lat="39.9156338442" lon="3.0488829967"><ele>36.19</ele><time>2014-08-31T15:50:01Z</time></trkpt><trkpt lat="39.9156334251" lon="3.0488648918"><ele>36.19</ele><time>2014-08-31T15:50:02Z</time></trkpt><trkpt lat="39.9156216905" lon="3.0488545820"><ele>36.19</ele><time>2014-08-31T15:50:04Z</time></trkpt><trkpt lat="39.9156049266" lon="3.0488406681"><ele>35.71</ele><time>2014-08-31T15:50:05Z</time></trkpt><trkpt lat="39.9155589938" lon="3.0488308612"><ele>38.59</ele><time>2014-08-31T15:50:15Z</time></trkpt><trkpt lat="39.9155036733" lon="3.0488197971"><ele>39.55</ele><time>2014-08-31T15:50:25Z</time></trkpt><trkpt lat="39.9154906813" lon="3.0488158576"><ele>39.55</ele><time>2014-08-31T15:50:28Z</time></trkpt><trkpt lat="39.9154742528" lon="3.0487381574"><ele>39.55</ele><time>2014-08-31T15:50:40Z</time></trkpt><trkpt lat="39.9154698942" lon="3.0487176217"><ele>39.07</ele><time>2014-08-31T15:50:41Z</time></trkpt><trkpt lat="39.9154698104" lon="3.0486964993"><ele>39.07</ele><time>2014-08-31T15:50:42Z</time></trkpt><trkpt lat="39.9154713191" lon="3.0486864410"><ele>39.07</ele><time>2014-08-31T15:50:45Z</time></trkpt><trkpt lat="39.9154688884" lon="3.0486579426"><ele>39.55</ele><time>2014-08-31T15:50:46Z</time></trkpt><trkpt lat="39.9154633563" lon="3.0486306176"><ele>39.07</ele><time>2014-08-31T15:50:47Z</time></trkpt><trkpt lat="39.9154499453" lon="3.0485762190"><ele>38.59</ele><time>2014-08-31T15:50:52Z</time></trkpt><trkpt lat="39.9154318403" lon="3.0485203117"><ele>38.11</ele><time>2014-08-31T15:51:04Z</time></trkpt><trkpt lat="39.9153996538" lon="3.0484541785"><ele>36.67</ele><time>2014-08-31T15:51:16Z</time></trkpt><trkpt lat="39.9153902661" lon="3.0484164599"><ele>37.15</ele><time>2014-08-31T15:51:28Z</time></trkpt><trkpt lat="39.9153915234" lon="3.0484011211"><ele>36.67</ele><time>2014-08-31T15:51:34Z</time></trkpt><trkpt lat="39.9153858237" lon="3.0483827647"><ele>36.19</ele><time>2014-08-31T15:51:35Z</time></trkpt><trkpt lat="39.9153678864" lon="3.0482919049"><ele>34.74</ele><time>2014-08-31T15:51:45Z</time></trkpt><trkpt lat="39.9153281562" lon="3.0481724627"><ele>33.78</ele><time>2014-08-31T15:51:57Z</time></trkpt><trkpt lat="39.9153232109" lon="3.0481493287"><ele>33.30</ele><time>2014-08-31T15:51:58Z</time></trkpt><trkpt lat="39.9153016694" lon="3.0480974447"><ele>31.86</ele><time>2014-08-31T15:52:04Z</time></trkpt><trkpt lat="39.9152945448" lon="3.0480833631"><ele>31.86</ele><time>2014-08-31T15:52:05Z</time></trkpt><trkpt lat="39.9152854923" lon="3.0480627436"><ele>31.86</ele><time>2014-08-31T15:52:08Z</time></trkpt><trkpt lat="39.9152778648" lon="3.0480478238"><ele>31.86</ele><time>2014-08-31T15:52:09Z</time></trkpt><trkpt lat="39.9152668845" lon="3.0480405316"><ele>31.38</ele><time>2014-08-31T15:52:20Z</time></trkpt><trkpt lat="39.9152638670" lon="3.0480259471"><ele>32.34</ele><time>2014-08-31T15:52:35Z</time></trkpt><trkpt lat="39.9152365420" lon="3.0479888152"><ele>31.38</ele><time>2014-08-31T15:52:49Z</time></trkpt><trkpt lat="39.9151973985" lon="3.0479402840"><ele>30.90</ele><time>2014-08-31T15:53:05Z</time></trkpt><trkpt lat="39.9151654635" lon="3.0478664394"><ele>30.90</ele><time>2014-08-31T15:53:20Z</time></trkpt><trkpt lat="39.9150910322" lon="3.0477602407"><ele>28.98</ele><time>2014-08-31T15:53:33Z</time></trkpt><trkpt lat="39.9151000846" lon="3.0477497634"><ele>28.98</ele><time>2014-08-31T15:53:43Z</time></trkpt><trkpt lat="39.9150551576" lon="3.0477844644"><ele>29.46</ele><time>2014-08-31T15:53:54Z</time></trkpt><trkpt lat="39.9150404055" lon="3.0478000548"><ele>30.42</ele><time>2014-08-31T15:53:56Z</time></trkpt><trkpt lat="39.9150123261" lon="3.0478871427"><ele>30.90</ele><time>2014-08-31T15:54:07Z</time></trkpt><trkpt lat="39.9149865936" lon="3.0479788408"><ele>30.90</ele><time>2014-08-31T15:54:18Z</time></trkpt><trkpt lat="39.9149916228" lon="3.0480167270"><ele>30.90</ele><time>2014-08-31T15:54:28Z</time></trkpt><trkpt lat="39.9149722606" lon="3.0480158888"><ele>32.34</ele><time>2014-08-31T15:54:41Z</time></trkpt><trkpt lat="39.9149722606" lon="3.0480158888"><ele>30.90</ele><time>2014-08-31T15:54:42Z</time></trkpt><trkpt lat="39.9149722606" lon="3.0480158888"><ele>30.90</ele><time>2014-08-31T15:55:05Z</time></trkpt><trkpt lat="39.9149735179" lon="3.0480330717"><ele>30.42</ele><time>2014-08-31T15:55:20Z</time></trkpt><trkpt lat="39.9149808940" lon="3.0480204988"><ele>27.53</ele><time>2014-08-31T15:55:27Z</time></trkpt><trkpt lat="39.9149848334" lon="3.0480179004"><ele>32.34</ele><time>2014-08-31T15:55:28Z</time></trkpt><trkpt lat="39.9149897788" lon="3.0480212532"><ele>28.50</ele><time>2014-08-31T15:55:30Z</time></trkpt><trkpt lat="39.9149945565" lon="3.0480229296"><ele>28.98</ele><time>2014-08-31T15:55:31Z</time></trkpt><trkpt lat="39.9150068779" lon="3.0480202474"><ele>29.94</ele><time>2014-08-31T15:55:33Z</time></trkpt><trkpt lat="39.9150579236" lon="3.0479846243"><ele>29.94</ele><time>2014-08-31T15:55:39Z</time></trkpt><trkpt lat="39.9152097199" lon="3.0478821136"><ele>28.98</ele><time>2014-08-31T15:56:00Z</time></trkpt><trkpt lat="39.9149828218" lon="3.0479635857"><ele>29.94</ele><time>2014-08-31T15:56:44Z</time></trkpt><trkpt lat="39.9149664771" lon="3.0480003823"><ele>27.05</ele><time>2014-08-31T15:56:54Z</time></trkpt><trkpt lat="39.9149623699" lon="3.0480019748"><ele>31.86</ele><time>2014-08-31T15:56:55Z</time></trkpt><trkpt lat="39.9149544910" lon="3.0480633304"><ele>31.38</ele><time>2014-08-31T15:57:09Z</time></trkpt><trkpt lat="39.9149406608" lon="3.0480800942"><ele>31.38</ele><time>2014-08-31T15:57:20Z</time></trkpt><trkpt lat="39.9149666447" lon="3.0480678566"><ele>30.90</ele><time>2014-08-31T15:57:31Z</time></trkpt><trkpt lat="39.9149785470" lon="3.0480862129"><ele>31.38</ele><time>2014-08-31T15:57:49Z</time></trkpt><trkpt lat="39.9149764515" lon="3.0480849557"><ele>17.44</ele><time>2014-08-31T15:57:50Z</time></trkpt><trkpt lat="39.9149754457" lon="3.0480805133"><ele>32.82</ele><time>2014-08-31T15:57:51Z</time></trkpt><trkpt lat="39.9149746075" lon="3.0480774958"><ele>32.82</ele><time>2014-08-31T15:57:52Z</time></trkpt><trkpt lat="39.9149724282" lon="3.0480723828"><ele>31.86</ele><time>2014-08-31T15:57:54Z</time></trkpt><trkpt lat="39.9149698298" lon="3.0480689462"><ele>28.02</ele><time>2014-08-31T15:57:56Z</time></trkpt><trkpt lat="39.9149687402" lon="3.0480671860"><ele>32.82</ele><time>2014-08-31T15:57:57Z</time></trkpt><trkpt lat="39.9149555806" lon="3.0480562896"><ele>28.98</ele><time>2014-08-31T15:58:05Z</time></trkpt><trkpt lat="39.9149497971" lon="3.0480532721"><ele>29.94</ele><time>2014-08-31T15:58:09Z</time></trkpt><trkpt lat="39.9149547424" lon="3.0480465665"><ele>36.67</ele><time>2014-08-31T15:58:14Z</time></trkpt><trkpt lat="39.9149495456" lon="3.0480494164"><ele>31.38</ele><time>2014-08-31T15:58:15Z</time></trkpt><trkpt lat="39.9149565864" lon="3.0480754841"><ele>30.90</ele><time>2014-08-31T15:58:17Z</time></trkpt><trkpt lat="39.9149802234" lon="3.0481346603"><ele>31.38</ele><time>2014-08-31T15:58:31Z</time></trkpt><trkpt lat="39.9149802234" lon="3.0481346603"><ele>28.02</ele><time>2014-08-31T15:58:34Z</time></trkpt><trkpt lat="39.9149802234" lon="3.0481346603"><ele>32.34</ele><time>2014-08-31T15:58:35Z</time></trkpt><trkpt lat="39.9149763677" lon="3.0481765699"><ele>31.86</ele><time>2014-08-31T15:58:48Z</time></trkpt><trkpt lat="39.9149790499" lon="3.0481681880"><ele>31.38</ele><time>2014-08-31T15:59:08Z</time></trkpt><trkpt lat="39.9150007591" lon="3.0481685232"><ele>26.57</ele><time>2014-08-31T15:59:18Z</time></trkpt><trkpt lat="39.9150007591" lon="3.0481685232"><ele>32.34</ele><time>2014-08-31T15:59:19Z</time></trkpt><trkpt lat="39.9150007591" lon="3.0481685232"><ele>25.61</ele><time>2014-08-31T15:59:21Z</time></trkpt><trkpt lat="39.9150026869" lon="3.0481690262"><ele>19.84</ele><time>2014-08-31T15:59:22Z</time></trkpt><trkpt lat="39.9150007591" lon="3.0481685232"><ele>40.03</ele><time>2014-08-31T15:59:23Z</time></trkpt><trkpt lat="39.9150007591" lon="3.0481685232"><ele>7.35</ele><time>2014-08-31T15:59:24Z</time></trkpt><trkpt lat="39.9150007591" lon="3.0481685232"><ele>27.05</ele><time>2014-08-31T15:59:25Z</time></trkpt><trkpt lat="39.9150012620" lon="3.0482698604"><ele>28.50</ele><time>2014-08-31T16:00:04Z</time></trkpt><trkpt lat="39.9150012620" lon="3.0482787453"><ele>33.78</ele><time>2014-08-31T16:00:05Z</time></trkpt><trkpt lat="39.9149847496" lon="3.0482144561"><ele>29.94</ele><time>2014-08-31T16:00:06Z</time></trkpt><trkpt lat="39.9149752781" lon="3.0482553598"><ele>36.67</ele><time>2014-08-31T16:00:10Z</time></trkpt><trkpt lat="39.9149731826" lon="3.0482678488"><ele>31.86</ele><time>2014-08-31T16:00:11Z</time></trkpt><trkpt lat="39.9150765315" lon="3.0481002945"><ele>31.38</ele><time>2014-08-31T16:01:43Z</time></trkpt><trkpt lat="39.9150674790" lon="3.0481021386"><ele>37.63</ele><time>2014-08-31T16:01:44Z</time></trkpt><trkpt lat="39.9150403216" lon="3.0481684394"><ele>32.82</ele><time>2014-08-31T16:01:45Z</time></trkpt><trkpt lat="39.9149338715" lon="3.0481642485"><ele>33.30</ele><time>2014-08-31T16:01:58Z</time></trkpt><trkpt lat="39.9149220530" lon="3.0482278671"><ele>31.38</ele><time>2014-08-31T16:02:20Z</time></trkpt><trkpt lat="39.9149626214" lon="3.0482579581"><ele>31.86</ele><time>2014-08-31T16:02:34Z</time></trkpt><trkpt lat="39.9149773736" lon="3.0482722074"><ele>31.86</ele><time>2014-08-31T16:02:43Z</time></trkpt><trkpt lat="39.9150003400" lon="3.0483390111"><ele>32.34</ele><time>2014-08-31T16:02:53Z</time></trkpt><trkpt lat="39.9150475301" lon="3.0483582057"><ele>31.86</ele><time>2014-08-31T16:03:06Z</time></trkpt><trkpt lat="39.9150627013" lon="3.0483623128"><ele>32.34</ele><time>2014-08-31T16:03:09Z</time></trkpt><trkpt lat="39.9150755256" lon="3.0484068207"><ele>33.78</ele><time>2014-08-31T16:03:20Z</time></trkpt><trkpt lat="39.9150786269" lon="3.0484170467"><ele>33.78</ele><time>2014-08-31T16:03:31Z</time></trkpt><trkpt lat="39.9150862545" lon="3.0484140292"><ele>33.78</ele><time>2014-08-31T16:03:42Z</time></trkpt><trkpt lat="39.9150953908" lon="3.0484084133"><ele>33.78</ele><time>2014-08-31T16:03:58Z</time></trkpt><trkpt lat="39.9150242284" lon="3.0484630633"><ele>33.30</ele><time>2014-08-31T16:04:13Z</time></trkpt><trkpt lat="39.9149500486" lon="3.0485288613"><ele>29.46</ele><time>2014-08-31T16:04:24Z</time></trkpt><trkpt lat="39.9149432592" lon="3.0485348962"><ele>33.30</ele><time>2014-08-31T16:04:25Z</time></trkpt><trkpt lat="39.9150572531" lon="3.0485126004"><ele>33.78</ele><time>2014-08-31T16:07:05Z</time></trkpt><trkpt lat="39.9151231349" lon="3.0484730378"><ele>34.26</ele><time>2014-08-31T16:07:26Z</time></trkpt><trkpt lat="39.9151413236" lon="3.0485200603"><ele>33.30</ele><time>2014-08-31T16:07:42Z</time></trkpt><trkpt lat="39.9151720852" lon="3.0485989340"><ele>33.30</ele><time>2014-08-31T16:07:56Z</time></trkpt><trkpt lat="39.9151674751" lon="3.0486229900"><ele>36.19</ele><time>2014-08-31T16:08:03Z</time></trkpt><trkpt lat="39.9151649605" lon="3.0486265104"><ele>32.34</ele><time>2014-08-31T16:08:04Z</time></trkpt><trkpt lat="39.9151639547" lon="3.0486303661"><ele>32.34</ele><time>2014-08-31T16:08:05Z</time></trkpt><trkpt lat="39.9151673075" lon="3.0487070605"><ele>31.86</ele><time>2014-08-31T16:08:19Z</time></trkpt><trkpt lat="39.9151704088" lon="3.0487516522"><ele>32.34</ele><time>2014-08-31T16:08:22Z</time></trkpt><trkpt lat="39.9151934590" lon="3.0488126725"><ele>31.38</ele><time>2014-08-31T16:08:33Z</time></trkpt><trkpt lat="39.9152274895" lon="3.0488484632"><ele>30.42</ele><time>2014-08-31T16:08:45Z</time></trkpt><trkpt lat="39.9151959736" lon="3.0488473736"><ele>30.42</ele><time>2014-08-31T16:09:07Z</time></trkpt><trkpt lat="39.9151977338" lon="3.0488094874"><ele>31.38</ele><time>2014-08-31T16:09:21Z</time></trkpt><trkpt lat="39.9151977338" lon="3.0488094874"><ele>31.38</ele><time>2014-08-31T16:09:39Z</time></trkpt><trkpt lat="39.9152158387" lon="3.0488265026"><ele>31.38</ele><time>2014-08-31T16:10:00Z</time></trkpt><trkpt lat="39.9152341951" lon="3.0488897022"><ele>31.38</ele><time>2014-08-31T16:10:21Z</time></trkpt><trkpt lat="39.9152588379" lon="3.0489109922"><ele>31.38</ele><time>2014-08-31T16:10:34Z</time></trkpt><trkpt lat="39.9152197782" lon="3.0489518121"><ele>30.42</ele><time>2014-08-31T16:10:53Z</time></trkpt><trkpt lat="39.9152468517" lon="3.0490715895"><ele>27.53</ele><time>2014-08-31T16:11:08Z</time></trkpt><trkpt lat="39.9152471870" lon="3.0490692426"><ele>31.86</ele><time>2014-08-31T16:11:09Z</time></trkpt><trkpt lat="39.9152451754" lon="3.0490729306"><ele>31.38</ele><time>2014-08-31T16:11:29Z</time></trkpt><trkpt lat="39.9152595084" lon="3.0490917061"><ele>30.42</ele><time>2014-08-31T16:11:57Z</time></trkpt><trkpt lat="39.9152589217" lon="3.0490927119"><ele>30.42</ele><time>2014-08-31T16:12:26Z</time></trkpt><trkpt lat="39.9152512942" lon="3.0491604377"><ele>30.42</ele><time>2014-08-31T16:12:48Z</time></trkpt><trkpt lat="39.9152512942" lon="3.0491604377"><ele>30.42</ele><time>2014-08-31T16:13:18Z</time></trkpt><trkpt lat="39.9152362067" lon="3.0491590127"><ele>30.42</ele><time>2014-08-31T16:13:41Z</time></trkpt><trkpt lat="39.9152196106" lon="3.0491641257"><ele>30.90</ele><time>2014-08-31T16:14:04Z</time></trkpt><trkpt lat="39.9152196106" lon="3.0491641257"><ele>31.38</ele><time>2014-08-31T16:14:30Z</time></trkpt><trkpt lat="39.9152103905" lon="3.0491571687"><ele>31.38</ele><time>2014-08-31T16:14:55Z</time></trkpt><trkpt lat="39.9153018370" lon="3.0492684804"><ele>31.38</ele><time>2014-08-31T16:15:24Z</time></trkpt><trkpt lat="39.9152421579" lon="3.0492347851"><ele>31.38</ele><time>2014-08-31T16:15:42Z</time></trkpt><trkpt lat="39.9152041879" lon="3.0492746830"><ele>31.38</ele><time>2014-08-31T16:15:55Z</time></trkpt><trkpt lat="39.9151981529" lon="3.0492575001"><ele>30.42</ele><time>2014-08-31T16:16:05Z</time></trkpt><trkpt lat="39.9151439220" lon="3.0493736733"><ele>32.82</ele><time>2014-08-31T16:16:16Z</time></trkpt><trkpt lat="39.9151358753" lon="3.0493916944"><ele>29.46</ele><time>2014-08-31T16:16:18Z</time></trkpt><trkpt lat="39.9151250627" lon="3.0495315883"><ele>31.38</ele><time>2014-08-31T16:16:31Z</time></trkpt><trkpt lat="39.9151155073" lon="3.0495997332"><ele>31.38</ele><time>2014-08-31T16:16:42Z</time></trkpt><trkpt lat="39.9151239730" lon="3.0496044271"><ele>30.90</ele><time>2014-08-31T16:16:59Z</time></trkpt><trkpt lat="39.9151341990" lon="3.0496642739"><ele>30.90</ele><time>2014-08-31T16:17:07Z</time></trkpt><trkpt lat="39.9151272420" lon="3.0497565586"><ele>30.42</ele><time>2014-08-31T16:17:13Z</time></trkpt><trkpt lat="39.9151541479" lon="3.0499138869"><ele>31.38</ele><time>2014-08-31T16:17:25Z</time></trkpt><trkpt lat="39.9151632842" lon="3.0499325786"><ele>30.90</ele><time>2014-08-31T16:17:27Z</time></trkpt><trkpt lat="39.9152591731" lon="3.0500187445"><ele>30.90</ele><time>2014-08-31T16:17:43Z</time></trkpt><trkpt lat="39.9153173435" lon="3.0501054972"><ele>30.90</ele><time>2014-08-31T16:17:57Z</time></trkpt><trkpt lat="39.9153277371" lon="3.0501697864"><ele>29.94</ele><time>2014-08-31T16:18:03Z</time></trkpt><trkpt lat="39.9153415672" lon="3.0502114445"><ele>29.94</ele><time>2014-08-31T16:18:06Z</time></trkpt><trkpt lat="39.9153492786" lon="3.0502631608"><ele>29.94</ele><time>2014-08-31T16:18:18Z</time></trkpt><trkpt lat="39.9153853208" lon="3.0502802599"><ele>29.94</ele><time>2014-08-31T16:18:33Z</time></trkpt><trkpt lat="39.9154022522" lon="3.0503088422"><ele>29.94</ele><time>2014-08-31T16:18:38Z</time></trkpt><trkpt lat="39.9154280685" lon="3.0503695272"><ele>28.98</ele><time>2014-08-31T16:18:47Z</time></trkpt><trkpt lat="39.9154444132" lon="3.0503869615"><ele>28.98</ele><time>2014-08-31T16:18:49Z</time></trkpt><trkpt lat="39.9154573213" lon="3.0504001211"><ele>28.98</ele><time>2014-08-31T16:18:50Z</time></trkpt><trkpt lat="39.9154808745" lon="3.0504845269"><ele>28.02</ele><time>2014-08-31T16:18:59Z</time></trkpt><trkpt lat="39.9154828861" lon="3.0504950043"><ele>28.02</ele><time>2014-08-31T16:19:00Z</time></trkpt><trkpt lat="39.9154828023" lon="3.0505155399"><ele>28.02</ele><time>2014-08-31T16:19:01Z</time></trkpt><trkpt lat="39.9154845625" lon="3.0505326390"><ele>28.50</ele><time>2014-08-31T16:19:02Z</time></trkpt><trkpt lat="39.9154855683" lon="3.0505409371"><ele>27.53</ele><time>2014-08-31T16:19:12Z</time></trkpt><trkpt lat="39.9154810421" lon="3.0505297054"><ele>28.02</ele><time>2014-08-31T16:19:19Z</time></trkpt><trkpt lat="39.9154512864" lon="3.0505202338"><ele>27.05</ele><time>2014-08-31T16:19:23Z</time></trkpt><trkpt lat="39.9154232908" lon="3.0505312979"><ele>26.57</ele><time>2014-08-31T16:19:35Z</time></trkpt><trkpt lat="39.9154512864" lon="3.0505312141"><ele>27.53</ele><time>2014-08-31T16:19:54Z</time></trkpt><trkpt lat="39.9154987279" lon="3.0505524203"><ele>28.02</ele><time>2014-08-31T16:19:59Z</time></trkpt><trkpt lat="39.9155288190" lon="3.0505840201"><ele>28.02</ele><time>2014-08-31T16:20:02Z</time></trkpt><trkpt lat="39.9155614246" lon="3.0506038014"><ele>27.05</ele><time>2014-08-31T16:20:07Z</time></trkpt><trkpt lat="39.9155765120" lon="3.0506073218"><ele>27.53</ele><time>2014-08-31T16:20:08Z</time></trkpt><trkpt lat="39.9155893363" lon="3.0506120995"><ele>27.53</ele><time>2014-08-31T16:20:09Z</time></trkpt><trkpt lat="39.9156091176" lon="3.0506291986"><ele>27.53</ele><time>2014-08-31T16:20:14Z</time></trkpt><trkpt lat="39.9156097043" lon="3.0506530870"><ele>27.53</ele><time>2014-08-31T16:20:25Z</time></trkpt><trkpt lat="39.9156246241" lon="3.0506775621"><ele>28.02</ele><time>2014-08-31T16:20:32Z</time></trkpt><trkpt lat="39.9156389572" lon="3.0507362355"><ele>27.05</ele><time>2014-08-31T16:20:39Z</time></trkpt><trkpt lat="39.9156458303" lon="3.0507970043"><ele>27.05</ele><time>2014-08-31T16:20:43Z</time></trkpt><trkpt lat="39.9156615883" lon="3.0508316215"><ele>25.61</ele><time>2014-08-31T16:20:53Z</time></trkpt><trkpt lat="39.9156615883" lon="3.0508316215"><ele>27.05</ele><time>2014-08-31T16:20:55Z</time></trkpt><trkpt lat="39.9156586546" lon="3.0508355610"><ele>27.05</ele><time>2014-08-31T16:21:13Z</time></trkpt><trkpt lat="39.9156796932" lon="3.0508529115"><ele>27.05</ele><time>2014-08-31T16:21:22Z</time></trkpt><trkpt lat="39.9156895000" lon="3.0508650653"><ele>26.57</ele><time>2014-08-31T16:21:23Z</time></trkpt><trkpt lat="39.9157025758" lon="3.0509001017"><ele>27.05</ele><time>2014-08-31T16:21:34Z</time></trkpt><trkpt lat="39.9157551304" lon="3.0509783886"><ele>26.09</ele><time>2014-08-31T16:21:44Z</time></trkpt><trkpt lat="39.9157640990" lon="3.0509888660"><ele>26.09</ele><time>2014-08-31T16:21:45Z</time></trkpt><trkpt lat="39.9157636799" lon="3.0509934761"><ele>25.61</ele><time>2014-08-31T16:21:53Z</time></trkpt><trkpt lat="39.9157868978" lon="3.0510302726"><ele>26.09</ele><time>2014-08-31T16:22:01Z</time></trkpt><trkpt lat="39.9157904182" lon="3.0510456953"><ele>26.09</ele><time>2014-08-31T16:22:02Z</time></trkpt><trkpt lat="39.9157877360" lon="3.0510626268"><ele>26.09</ele><time>2014-08-31T16:22:03Z</time></trkpt><trkpt lat="39.9157852214" lon="3.0510689970"><ele>26.09</ele><time>2014-08-31T16:22:06Z</time></trkpt><trkpt lat="39.9157969560" lon="3.0510900356"><ele>26.09</ele><time>2014-08-31T16:22:07Z</time></trkpt><trkpt lat="39.9158057570" lon="3.0511053745"><ele>25.61</ele><time>2014-08-31T16:22:08Z</time></trkpt><trkpt lat="39.9158153124" lon="3.0511207972"><ele>26.09</ele><time>2014-08-31T16:22:10Z</time></trkpt><trkpt lat="39.9158189166" lon="3.0511416681"><ele>26.09</ele><time>2014-08-31T16:22:11Z</time></trkpt><trkpt lat="39.9158387817" lon="3.0511729326"><ele>25.61</ele><time>2014-08-31T16:22:14Z</time></trkpt><trkpt lat="39.9158413801" lon="3.0511933006"><ele>25.61</ele><time>2014-08-31T16:22:15Z</time></trkpt><trkpt lat="39.9158434756" lon="3.0512119085"><ele>25.13</ele><time>2014-08-31T16:22:16Z</time></trkpt><trkpt lat="39.9158556294" lon="3.0512306001"><ele>25.61</ele><time>2014-08-31T16:22:18Z</time></trkpt><trkpt lat="39.9158619996" lon="3.0512391496"><ele>25.61</ele><time>2014-08-31T16:22:19Z</time></trkpt><trkpt lat="39.9158898275" lon="3.0513228010"><ele>25.13</ele><time>2014-08-31T16:22:30Z</time></trkpt><trkpt lat="39.9159215949" lon="3.0513642915"><ele>25.13</ele><time>2014-08-31T16:22:35Z</time></trkpt><trkpt lat="39.9159400351" lon="3.0513865873"><ele>25.61</ele><time>2014-08-31T16:22:43Z</time></trkpt><trkpt lat="39.9159729760" lon="3.0514258984"><ele>25.61</ele><time>2014-08-31T16:22:50Z</time></trkpt><trkpt lat="39.9159764126" lon="3.0514460988"><ele>25.61</ele><time>2014-08-31T16:22:51Z</time></trkpt><trkpt lat="39.9160044082" lon="3.0514864158"><ele>25.13</ele><time>2014-08-31T16:22:57Z</time></trkpt><trkpt lat="39.9160118680" lon="3.0515049398"><ele>24.65</ele><time>2014-08-31T16:23:00Z</time></trkpt><trkpt lat="39.9160351697" lon="3.0515274033"><ele>24.65</ele><time>2014-08-31T16:23:09Z</time></trkpt><trkpt lat="39.9160355050" lon="3.0515341088"><ele>25.13</ele><time>2014-08-31T16:23:23Z</time></trkpt><trkpt lat="39.9160473235" lon="3.0515463464"><ele>25.13</ele><time>2014-08-31T16:23:37Z</time></trkpt><trkpt lat="39.9160720501" lon="3.0515814666"><ele>24.65</ele><time>2014-08-31T16:23:40Z</time></trkpt><trkpt lat="39.9161031470" lon="3.0516840611"><ele>25.13</ele><time>2014-08-31T16:23:50Z</time></trkpt><trkpt lat="39.9160984531" lon="3.0516948737"><ele>25.13</ele><time>2014-08-31T16:23:51Z</time></trkpt><trkpt lat="39.9160938431" lon="3.0517015792"><ele>24.65</ele><time>2014-08-31T16:23:54Z</time></trkpt><trkpt lat="39.9160844553" lon="3.0517002381"><ele>25.13</ele><time>2014-08-31T16:23:56Z</time></trkpt><trkpt lat="39.9160633329" lon="3.0516937841"><ele>24.65</ele><time>2014-08-31T16:24:00Z</time></trkpt><trkpt lat="39.9160510954" lon="3.0517361127"><ele>23.69</ele><time>2014-08-31T16:24:14Z</time></trkpt><trkpt lat="39.9160362594" lon="3.0517630186"><ele>22.73</ele><time>2014-08-31T16:24:34Z</time></trkpt><trkpt lat="39.9160362594" lon="3.0517630186"><ele>22.25</ele><time>2014-08-31T16:24:36Z</time></trkpt><trkpt lat="39.9160003010" lon="3.0518016592"><ele>22.25</ele><time>2014-08-31T16:24:42Z</time></trkpt><trkpt lat="39.9159997981" lon="3.0518326722"><ele>21.77</ele><time>2014-08-31T16:24:53Z</time></trkpt><trkpt lat="39.9159997981" lon="3.0518326722"><ele>21.77</ele><time>2014-08-31T16:25:02Z</time></trkpt><trkpt lat="39.9159904104" lon="3.0518484302"><ele>21.77</ele><time>2014-08-31T16:25:04Z</time></trkpt><trkpt lat="39.9159729760" lon="3.0518795270"><ele>21.77</ele><time>2014-08-31T16:25:07Z</time></trkpt><trkpt lat="39.9159407057" lon="3.0519293156"><ele>19.84</ele><time>2014-08-31T16:25:16Z</time></trkpt><trkpt lat="39.9158635084" lon="3.0519786011"><ele>17.92</ele><time>2014-08-31T16:25:27Z</time></trkpt><trkpt lat="39.9158366024" lon="3.0520025734"><ele>17.92</ele><time>2014-08-31T16:25:48Z</time></trkpt><trkpt lat="39.9158417154" lon="3.0519985501"><ele>17.44</ele><time>2014-08-31T16:25:49Z</time></trkpt><trkpt lat="39.9158252031" lon="3.0520102847"><ele>16.96</ele><time>2014-08-31T16:25:53Z</time></trkpt><trkpt lat="39.9157857243" lon="3.0520542897"><ele>15.52</ele><time>2014-08-31T16:25:58Z</time></trkpt><trkpt lat="39.9157726485" lon="3.0520846322"><ele>15.52</ele><time>2014-08-31T16:26:03Z</time></trkpt><trkpt lat="39.9157648534" lon="3.0520957801"><ele>15.52</ele><time>2014-08-31T16:26:07Z</time></trkpt><trkpt lat="39.9157512747" lon="3.0521063413"><ele>15.52</ele><time>2014-08-31T16:26:10Z</time></trkpt><trkpt lat="39.9157346785" lon="3.0521221831"><ele>15.52</ele><time>2014-08-31T16:26:14Z</time></trkpt><trkpt lat="39.9157401267" lon="3.0522248615"><ele>15.52</ele><time>2014-08-31T16:26:25Z</time></trkpt><trkpt lat="39.9157449044" lon="3.0522267055"><ele>15.52</ele><time>2014-08-31T16:26:41Z</time></trkpt><trkpt lat="39.9157620035" lon="3.0522603169"><ele>15.04</ele><time>2014-08-31T16:27:00Z</time></trkpt><trkpt lat="39.9158313219" lon="3.0523396935"><ele>15.04</ele><time>2014-08-31T16:27:12Z</time></trkpt><trkpt lat="39.9158617482" lon="3.0523674376"><ele>15.04</ele><time>2014-08-31T16:27:16Z</time></trkpt><trkpt lat="39.9159018137" lon="3.0524562020"><ele>15.04</ele><time>2014-08-31T16:27:25Z</time></trkpt><trkpt lat="39.9159089383" lon="3.0524792522"><ele>15.04</ele><time>2014-08-31T16:27:28Z</time></trkpt><trkpt lat="39.9159215111" lon="3.0524948426"><ele>14.56</ele><time>2014-08-31T16:27:31Z</time></trkpt><trkpt lat="39.9159432203" lon="3.0525085889"><ele>15.04</ele><time>2014-08-31T16:27:35Z</time></trkpt><trkpt lat="39.9159604032" lon="3.0525316391"><ele>14.56</ele><time>2014-08-31T16:27:37Z</time></trkpt><trkpt lat="39.9159748200" lon="3.0525561143"><ele>15.04</ele><time>2014-08-31T16:27:40Z</time></trkpt><trkpt lat="39.9159965292" lon="3.0525830202"><ele>15.04</ele><time>2014-08-31T16:27:43Z</time></trkpt><trkpt lat="39.9160480779" lon="3.0526510812"><ele>14.56</ele><time>2014-08-31T16:27:52Z</time></trkpt><trkpt lat="39.9160733074" lon="3.0526701920"><ele>15.04</ele><time>2014-08-31T16:27:55Z</time></trkpt><trkpt lat="39.9160945974" lon="3.0527003668"><ele>15.04</ele><time>2014-08-31T16:28:01Z</time></trkpt><trkpt lat="39.9161194917" lon="3.0527201481"><ele>15.04</ele><time>2014-08-31T16:28:04Z</time></trkpt><trkpt lat="39.9161418714" lon="3.0527462997"><ele>14.56</ele><time>2014-08-31T16:28:08Z</time></trkpt><trkpt lat="39.9161685258" lon="3.0527556036"><ele>14.56</ele><time>2014-08-31T16:28:12Z</time></trkpt><trkpt lat="39.9161966052" lon="3.0527810846"><ele>14.56</ele><time>2014-08-31T16:28:23Z</time></trkpt><trkpt lat="39.9162086751" lon="3.0527801625"><ele>14.56</ele><time>2014-08-31T16:28:25Z</time></trkpt><trkpt lat="39.9162246846" lon="3.0527956691"><ele>14.56</ele><time>2014-08-31T16:28:27Z</time></trkpt><trkpt lat="39.9162735511" lon="3.0528299510"><ele>14.56</ele><time>2014-08-31T16:28:32Z</time></trkpt><trkpt lat="39.9162852019" lon="3.0528702680"><ele>15.04</ele><time>2014-08-31T16:28:36Z</time></trkpt><trkpt lat="39.9163324758" lon="3.0529254209"><ele>15.04</ele><time>2014-08-31T16:28:43Z</time></trkpt><trkpt lat="39.9163494073" lon="3.0529573560"><ele>15.52</ele><time>2014-08-31T16:28:47Z</time></trkpt><trkpt lat="39.9163815100" lon="3.0529975053"><ele>14.56</ele><time>2014-08-31T16:28:52Z</time></trkpt><trkpt lat="39.9163981061" lon="3.0530282669"><ele>15.04</ele><time>2014-08-31T16:28:55Z</time></trkpt><trkpt lat="39.9164229166" lon="3.0530665722"><ele>14.56</ele><time>2014-08-31T16:28:59Z</time></trkpt><trkpt lat="39.9164480623" lon="3.0531398300"><ele>15.04</ele><time>2014-08-31T16:29:06Z</time></trkpt><trkpt lat="39.9164794944" lon="3.0532935541"><ele>14.56</ele><time>2014-08-31T16:29:18Z</time></trkpt><trkpt lat="39.9165111780" lon="3.0533719249"><ele>14.08</ele><time>2014-08-31T16:29:27Z</time></trkpt><trkpt lat="39.9165162072" lon="3.0534093082"><ele>13.60</ele><time>2014-08-31T16:29:37Z</time></trkpt><trkpt lat="39.9165282771" lon="3.0534168519"><ele>14.08</ele><time>2014-08-31T16:29:41Z</time></trkpt><trkpt lat="39.9165450409" lon="3.0534367170"><ele>14.08</ele><time>2014-08-31T16:29:52Z</time></trkpt><trkpt lat="39.9165780656" lon="3.0534830689"><ele>14.08</ele><time>2014-08-31T16:30:02Z</time></trkpt><trkpt lat="39.9166384153" lon="3.0535572488"><ele>13.60</ele><time>2014-08-31T16:30:12Z</time></trkpt><trkpt lat="39.9166602921" lon="3.0535952188"><ele>13.12</ele><time>2014-08-31T16:30:20Z</time></trkpt><trkpt lat="39.9166985136" lon="3.0536243040"><ele>13.60</ele><time>2014-08-31T16:30:26Z</time></trkpt><trkpt lat="39.9167161994" lon="3.0536432471"><ele>13.60</ele><time>2014-08-31T16:30:29Z</time></trkpt><trkpt lat="39.9167441949" lon="3.0536849052"><ele>13.60</ele><time>2014-08-31T16:30:35Z</time></trkpt><trkpt lat="39.9167754594" lon="3.0537079554"><ele>14.08</ele><time>2014-08-31T16:30:39Z</time></trkpt><trkpt lat="39.9168020301" lon="3.0537413154"><ele>14.08</ele><time>2014-08-31T16:30:43Z</time></trkpt><trkpt lat="39.9168139324" lon="3.0537766870"><ele>13.60</ele><time>2014-08-31T16:30:47Z</time></trkpt><trkpt lat="39.9168231525" lon="3.0538251344"><ele>13.12</ele><time>2014-08-31T16:30:51Z</time></trkpt><trkpt lat="39.9168527406" lon="3.0538456701"><ele>13.12</ele><time>2014-08-31T16:30:55Z</time></trkpt><trkpt lat="39.9168633856" lon="3.0538679659"><ele>13.12</ele><time>2014-08-31T16:30:59Z</time></trkpt><trkpt lat="39.9169124197" lon="3.0539180897"><ele>13.60</ele><time>2014-08-31T16:31:09Z</time></trkpt><trkpt lat="39.9169717636" lon="3.0539842229"><ele>13.60</ele><time>2014-08-31T16:31:17Z</time></trkpt><trkpt lat="39.9169942271" lon="3.0539962929"><ele>13.12</ele><time>2014-08-31T16:31:21Z</time></trkpt><trkpt lat="39.9170224741" lon="3.0540190917"><ele>12.63</ele><time>2014-08-31T16:31:24Z</time></trkpt><trkpt lat="39.9170700833" lon="3.0541153159"><ele>12.63</ele><time>2014-08-31T16:31:36Z</time></trkpt><trkpt lat="39.9170934688" lon="3.0541235302"><ele>12.63</ele><time>2014-08-31T16:31:40Z</time></trkpt><trkpt lat="39.9171221349" lon="3.0541440658"><ele>13.12</ele><time>2014-08-31T16:31:43Z</time></trkpt><trkpt lat="39.9171503820" lon="3.0541732349"><ele>12.63</ele><time>2014-08-31T16:31:47Z</time></trkpt><trkpt lat="39.9172148388" lon="3.0542363506"><ele>12.15</ele><time>2014-08-31T16:31:58Z</time></trkpt><trkpt lat="39.9172310159" lon="3.0542632565"><ele>12.15</ele><time>2014-08-31T16:32:00Z</time></trkpt><trkpt lat="39.9172730092" lon="3.0542899948"><ele>12.63</ele><time>2014-08-31T16:32:04Z</time></trkpt><trkpt lat="39.9173154216" lon="3.0543068424"><ele>12.15</ele><time>2014-08-31T16:32:08Z</time></trkpt><trkpt lat="39.9173473567" lon="3.0543617439"><ele>12.15</ele><time>2014-08-31T16:32:16Z</time></trkpt><trkpt lat="39.9173677247" lon="3.0543774180"><ele>12.15</ele><time>2014-08-31T16:32:27Z</time></trkpt><trkpt lat="39.9173739273" lon="3.0543827824"><ele>12.15</ele><time>2014-08-31T16:32:30Z</time></trkpt><trkpt lat="39.9174029287" lon="3.0544155557"><ele>12.15</ele><time>2014-08-31T16:32:34Z</time></trkpt><trkpt lat="39.9174326845" lon="3.0544415396"><ele>11.67</ele><time>2014-08-31T16:32:39Z</time></trkpt><trkpt lat="39.9174553156" lon="3.0544794258"><ele>12.15</ele><time>2014-08-31T16:32:43Z</time></trkpt><trkpt lat="39.9174683075" lon="3.0545028951"><ele>11.67</ele><time>2014-08-31T16:32:48Z</time></trkpt><trkpt lat="39.9174956325" lon="3.0545294657"><ele>11.67</ele><time>2014-08-31T16:32:51Z</time></trkpt><trkpt lat="39.9175995681" lon="3.0545899831"><ele>11.67</ele><time>2014-08-31T16:33:04Z</time></trkpt><trkpt lat="39.9176469259" lon="3.0546482373"><ele>11.67</ele><time>2014-08-31T16:33:12Z</time></trkpt><trkpt lat="39.9176586606" lon="3.0546736345"><ele>12.15</ele><time>2014-08-31T16:33:16Z</time></trkpt><trkpt lat="39.9176809564" lon="3.0546989478"><ele>11.19</ele><time>2014-08-31T16:33:26Z</time></trkpt><trkpt lat="39.9176809564" lon="3.0546989478"><ele>11.19</ele><time>2014-08-31T16:33:30Z</time></trkpt><trkpt lat="39.9177506939" lon="3.0547954235"><ele>11.19</ele><time>2014-08-31T16:33:40Z</time></trkpt><trkpt lat="39.9177760072" lon="3.0548325554"><ele>11.19</ele><time>2014-08-31T16:33:42Z</time></trkpt><trkpt lat="39.9177821260" lon="3.0548880436"><ele>11.67</ele><time>2014-08-31T16:33:46Z</time></trkpt><trkpt lat="39.9177867360" lon="3.0549054779"><ele>11.19</ele><time>2014-08-31T16:33:47Z</time></trkpt><trkpt lat="39.9178003147" lon="3.0549257621"><ele>11.67</ele><time>2014-08-31T16:33:48Z</time></trkpt><trkpt lat="39.9178133067" lon="3.0549379997"><ele>10.71</ele><time>2014-08-31T16:33:49Z</time></trkpt><trkpt lat="39.9178382847" lon="3.0549514107"><ele>11.19</ele><time>2014-08-31T16:33:53Z</time></trkpt><trkpt lat="39.9178464152" lon="3.0549725331"><ele>10.71</ele><time>2014-08-31T16:33:54Z</time></trkpt><trkpt lat="39.9178557191" lon="3.0549848545"><ele>10.71</ele><time>2014-08-31T16:33:55Z</time></trkpt><trkpt lat="39.9178674538" lon="3.0550028756"><ele>11.19</ele><time>2014-08-31T16:33:58Z</time></trkpt><trkpt lat="39.9178777635" lon="3.0550233275"><ele>11.19</ele><time>2014-08-31T16:33:59Z</time></trkpt><trkpt lat="39.9178990535" lon="3.0550452042"><ele>11.19</ele><time>2014-08-31T16:34:03Z</time></trkpt><trkpt lat="39.9179093633" lon="3.0550576933"><ele>11.19</ele><time>2014-08-31T16:34:04Z</time></trkpt><trkpt lat="39.9179224391" lon="3.0550666619"><ele>11.19</ele><time>2014-08-31T16:34:07Z</time></trkpt><trkpt lat="39.9179417174" lon="3.0550998542"><ele>6.87</ele><time>2014-08-31T16:34:10Z</time></trkpt><trkpt lat="39.9179527815" lon="3.0551046319"><ele>12.15</ele><time>2014-08-31T16:34:11Z</time></trkpt><trkpt lat="39.9180524424" lon="3.0552075617"><ele>11.19</ele><time>2014-08-31T16:34:24Z</time></trkpt><trkpt lat="39.9180650990" lon="3.0552275106"><ele>11.19</ele><time>2014-08-31T16:34:26Z</time></trkpt><trkpt lat="39.9180725589" lon="3.0552493874"><ele>10.71</ele><time>2014-08-31T16:34:27Z</time></trkpt><trkpt lat="39.9180826172" lon="3.0552743655"><ele>10.71</ele><time>2014-08-31T16:34:30Z</time></trkpt><trkpt lat="39.9180859700" lon="3.0552916322"><ele>10.71</ele><time>2014-08-31T16:34:31Z</time></trkpt><trkpt lat="39.9181301426" lon="3.0553404149"><ele>10.71</ele><time>2014-08-31T16:34:38Z</time></trkpt><trkpt lat="39.9181614071" lon="3.0553948134"><ele>10.71</ele><time>2014-08-31T16:34:45Z</time></trkpt><trkpt lat="39.9181662686" lon="3.0554071348"><ele>10.71</ele><time>2014-08-31T16:34:46Z</time></trkpt><trkpt lat="39.9181815237" lon="3.0554314423"><ele>10.71</ele><time>2014-08-31T16:34:49Z</time></trkpt><trkpt lat="39.9181859661" lon="3.0554407462"><ele>10.71</ele><time>2014-08-31T16:34:52Z</time></trkpt><trkpt lat="39.9182153866" lon="3.0555049516"><ele>10.71</ele><time>2014-08-31T16:34:59Z</time></trkpt><trkpt lat="39.9182220083" lon="3.0555185303"><ele>10.71</ele><time>2014-08-31T16:35:00Z</time></trkpt><trkpt lat="39.9182295520" lon="3.0555382278"><ele>10.71</ele><time>2014-08-31T16:35:02Z</time></trkpt><trkpt lat="39.9182347488" lon="3.0555566680"><ele>10.71</ele><time>2014-08-31T16:35:03Z</time></trkpt><trkpt lat="39.9182576314" lon="3.0555885192"><ele>10.71</ele><time>2014-08-31T16:35:09Z</time></trkpt><trkpt lat="39.9182655104" lon="3.0556026008"><ele>10.71</ele><time>2014-08-31T16:35:10Z</time></trkpt><trkpt lat="39.9182819389" lon="3.0556312669"><ele>10.71</ele><time>2014-08-31T16:35:13Z</time></trkpt><trkpt lat="39.9182909075" lon="3.0556466058"><ele>10.71</ele><time>2014-08-31T16:35:16Z</time></trkpt><trkpt lat="39.9183265306" lon="3.0557375494"><ele>10.71</ele><time>2014-08-31T16:35:24Z</time></trkpt><trkpt lat="39.9183309730" lon="3.0557556543"><ele>10.23</ele><time>2014-08-31T16:35:25Z</time></trkpt><trkpt lat="39.9183391035" lon="3.0557658803"><ele>10.23</ele><time>2014-08-31T16:35:28Z</time></trkpt><trkpt lat="39.9183445517" lon="3.0557855777"><ele>10.23</ele><time>2014-08-31T16:35:29Z</time></trkpt><trkpt lat="39.9183551967" lon="3.0558045208"><ele>10.23</ele><time>2014-08-31T16:35:32Z</time></trkpt><trkpt lat="39.9183711223" lon="3.0558411498"><ele>10.23</ele><time>2014-08-31T16:35:36Z</time></trkpt><trkpt lat="39.9183871318" lon="3.0558746774"><ele>9.75</ele><time>2014-08-31T16:35:39Z</time></trkpt><trkpt lat="39.9183930829" lon="3.0558945425"><ele>9.75</ele><time>2014-08-31T16:35:40Z</time></trkpt><trkpt lat="39.9184050690" lon="3.0559284054"><ele>10.23</ele><time>2014-08-31T16:35:43Z</time></trkpt><trkpt lat="39.9184262753" lon="3.0559742544"><ele>10.23</ele><time>2014-08-31T16:35:48Z</time></trkpt><trkpt lat="39.9184282869" lon="3.0559812114"><ele>9.75</ele><time>2014-08-31T16:35:50Z</time></trkpt><trkpt lat="39.9184350763" lon="3.0560004059"><ele>10.23</ele><time>2014-08-31T16:35:51Z</time></trkpt><trkpt lat="39.9184416141" lon="3.0560178403"><ele>10.23</ele><time>2014-08-31T16:35:52Z</time></trkpt><trkpt lat="39.9184504990" lon="3.0560369510"><ele>9.75</ele><time>2014-08-31T16:35:55Z</time></trkpt><trkpt lat="39.9184567016" lon="3.0560526252"><ele>10.23</ele><time>2014-08-31T16:35:56Z</time></trkpt><trkpt lat="39.9184603896" lon="3.0560616776"><ele>9.75</ele><time>2014-08-31T16:35:58Z</time></trkpt><trkpt lat="39.9184642453" lon="3.0560796987"><ele>10.23</ele><time>2014-08-31T16:35:59Z</time></trkpt><trkpt lat="39.9184748903" lon="3.0560979713"><ele>9.75</ele><time>2014-08-31T16:36:02Z</time></trkpt><trkpt lat="39.9185157940" lon="3.0561768450"><ele>9.75</ele><time>2014-08-31T16:36:11Z</time></trkpt><trkpt lat="39.9185348209" lon="3.0562174972"><ele>9.75</ele><time>2014-08-31T16:36:23Z</time></trkpt><trkpt lat="39.9185406882" lon="3.0562359374"><ele>9.27</ele><time>2014-08-31T16:36:26Z</time></trkpt><trkpt lat="39.9185537640" lon="3.0562521145"><ele>9.75</ele><time>2014-08-31T16:36:29Z</time></trkpt><trkpt lat="39.9185660854" lon="3.0562612507"><ele>9.75</ele><time>2014-08-31T16:36:30Z</time></trkpt><trkpt lat="39.9185729586" lon="3.0562686268"><ele>9.27</ele><time>2014-08-31T16:36:32Z</time></trkpt><trkpt lat="39.9185839389" lon="3.0562836304"><ele>9.27</ele><time>2014-08-31T16:36:33Z</time></trkpt><trkpt lat="39.9185886327" lon="3.0562943593"><ele>9.75</ele><time>2014-08-31T16:36:36Z</time></trkpt><trkpt lat="39.9185970146" lon="3.0563128833"><ele>9.27</ele><time>2014-08-31T16:36:37Z</time></trkpt><trkpt lat="39.9186034687" lon="3.0563225225"><ele>9.27</ele><time>2014-08-31T16:36:39Z</time></trkpt><trkpt lat="39.9186119344" lon="3.0563407112"><ele>9.75</ele><time>2014-08-31T16:36:40Z</time></trkpt><trkpt lat="39.9186205678" lon="3.0563620012"><ele>9.27</ele><time>2014-08-31T16:36:43Z</time></trkpt><trkpt lat="39.9186409358" lon="3.0564030726"><ele>9.27</ele><time>2014-08-31T16:36:47Z</time></trkpt><trkpt lat="39.9186469708" lon="3.0564143043"><ele>8.79</ele><time>2014-08-31T16:36:49Z</time></trkpt><trkpt lat="39.9186596274" lon="3.0564299785"><ele>9.27</ele><time>2014-08-31T16:36:50Z</time></trkpt><trkpt lat="39.9187013693" lon="3.0564687867"><ele>9.27</ele><time>2014-08-31T16:36:56Z</time></trkpt><trkpt lat="39.9187162053" lon="3.0564861372"><ele>9.27</ele><time>2014-08-31T16:37:00Z</time></trkpt><trkpt lat="39.9187398423" lon="3.0565260351"><ele>9.27</ele><time>2014-08-31T16:37:04Z</time></trkpt><trkpt lat="39.9187641498" lon="3.0565643404"><ele>8.79</ele><time>2014-08-31T16:37:08Z</time></trkpt><trkpt lat="39.9188232422" lon="3.0566189904"><ele>8.79</ele><time>2014-08-31T16:37:17Z</time></trkpt><trkpt lat="39.9188405927" lon="3.0566350836"><ele>8.31</ele><time>2014-08-31T16:37:21Z</time></trkpt><trkpt lat="39.9188897945" lon="3.0566129554"><ele>8.31</ele><time>2014-08-31T16:37:24Z</time></trkpt><trkpt lat="39.9189394154" lon="3.0566025618"><ele>8.31</ele><time>2014-08-31T16:37:31Z</time></trkpt><trkpt lat="39.9189827498" lon="3.0566784181"><ele>8.31</ele><time>2014-08-31T16:37:40Z</time></trkpt><trkpt lat="39.9190390762" lon="3.0567426234"><ele>8.31</ele><time>2014-08-31T16:37:48Z</time></trkpt><trkpt lat="39.9190615397" lon="3.0567733012"><ele>7.83</ele><time>2014-08-31T16:37:52Z</time></trkpt><trkpt lat="39.9190786388" lon="3.0567986984"><ele>8.31</ele><time>2014-08-31T16:37:55Z</time></trkpt><trkpt lat="39.9191022757" lon="3.0568288732"><ele>8.79</ele><time>2014-08-31T16:37:59Z</time></trkpt><trkpt lat="39.9191195425" lon="3.0568520073"><ele>7.83</ele><time>2014-08-31T16:38:03Z</time></trkpt><trkpt lat="39.9191746954" lon="3.0569173023"><ele>7.83</ele><time>2014-08-31T16:38:11Z</time></trkpt><trkpt lat="39.9192021880" lon="3.0569531769"><ele>7.83</ele><time>2014-08-31T16:38:15Z</time></trkpt><trkpt lat="39.9192274176" lon="3.0569788255"><ele>7.83</ele><time>2014-08-31T16:38:19Z</time></trkpt><trkpt lat="39.9192352965" lon="3.0569881294"><ele>7.35</ele><time>2014-08-31T16:38:21Z</time></trkpt><trkpt lat="39.9193153437" lon="3.0570583697"><ele>7.35</ele><time>2014-08-31T16:38:33Z</time></trkpt><trkpt lat="39.9193189479" lon="3.0570672546"><ele>7.35</ele><time>2014-08-31T16:38:34Z</time></trkpt><trkpt lat="39.9193429202" lon="3.0570931546"><ele>6.87</ele><time>2014-08-31T16:38:37Z</time></trkpt><trkpt lat="39.9193950556" lon="3.0570912268"><ele>6.87</ele><time>2014-08-31T16:38:44Z</time></trkpt><trkpt lat="39.9194202013" lon="3.0570582021"><ele>6.87</ele><time>2014-08-31T16:38:47Z</time></trkpt><trkpt lat="39.9194621947" lon="3.0570309609"><ele>6.87</ele><time>2014-08-31T16:38:53Z</time></trkpt><trkpt lat="39.9194877595" lon="3.0569823459"><ele>7.35</ele><time>2014-08-31T16:38:58Z</time></trkpt><trkpt lat="39.9195632804" lon="3.0569024663"><ele>7.35</ele><time>2014-08-31T16:39:08Z</time></trkpt><trkpt lat="39.9196118116" lon="3.0568546057"><ele>7.35</ele><time>2014-08-31T16:39:15Z</time></trkpt><trkpt lat="39.9196419865" lon="3.0568161327"><ele>6.87</ele><time>2014-08-31T16:39:25Z</time></trkpt><trkpt lat="39.9196681380" lon="3.0567905679"><ele>6.87</ele><time>2014-08-31T16:39:38Z</time></trkpt><trkpt lat="39.9196544755" lon="3.0567441322"><ele>6.87</ele><time>2014-08-31T16:39:51Z</time></trkpt><trkpt lat="39.9196630251" lon="3.0567267817"><ele>7.35</ele><time>2014-08-31T16:40:03Z</time></trkpt><trkpt lat="39.9196702335" lon="3.0567158852"><ele>6.87</ele><time>2014-08-31T16:40:16Z</time></trkpt><trkpt lat="39.9196839798" lon="3.0567076709"><ele>6.39</ele><time>2014-08-31T16:40:36Z</time></trkpt><trkpt lat="39.9196933676" lon="3.0567002948"><ele>6.39</ele><time>2014-08-31T16:40:47Z</time></trkpt><trkpt lat="39.9196933676" lon="3.0567002948"><ele>6.39</ele><time>2014-08-31T16:41:09Z</time></trkpt><trkpt lat="39.9196932837" lon="3.0567032285"><ele>6.39</ele><time>2014-08-31T16:41:35Z</time></trkpt><trkpt lat="39.9196999893" lon="3.0567025580"><ele>5.91</ele><time>2014-08-31T16:42:00Z</time></trkpt><trkpt lat="39.9197005760" lon="3.0567051563"><ele>6.39</ele><time>2014-08-31T16:42:30Z</time></trkpt><trkpt lat="39.9197005760" lon="3.0567051563"><ele>5.91</ele><time>2014-08-31T16:43:00Z</time></trkpt><trkpt lat="39.9197004084" lon="3.0567042343"><ele>5.42</ele><time>2014-08-31T16:43:30Z</time></trkpt><trkpt lat="39.9196989834" lon="3.0567058269"><ele>5.42</ele><time>2014-08-31T16:43:57Z</time></trkpt><trkpt lat="39.9196982291" lon="3.0567044858"><ele>5.42</ele><time>2014-08-31T16:44:34Z</time></trkpt><trkpt lat="39.9196982291" lon="3.0567044858"><ele>5.42</ele><time>2014-08-31T16:45:07Z</time></trkpt><trkpt lat="39.9196974747" lon="3.0567048211"><ele>5.42</ele><time>2014-08-31T16:45:39Z</time></trkpt><trkpt lat="39.9196974747" lon="3.0567048211"><ele>15.04</ele><time>2014-08-31T19:17:59Z</time></trkpt><trkpt lat="39.9180905800" lon="3.0541582312"><ele>14.56</ele><time>2014-08-31T19:18:00Z</time></trkpt><trkpt lat="39.9181003030" lon="3.0541474186"><ele>14.56</ele><time>2014-08-31T19:18:01Z</time></trkpt><trkpt lat="39.9196974747" lon="3.0567048211"><ele>9.75</ele><time>2014-08-31T21:23:48Z</time></trkpt><trkpt lat="39.9181436375" lon="3.0540637672"><ele>9.75</ele><time>2014-08-31T21:23:49Z</time></trkpt><trkpt lat="39.9181461520" lon="3.0540633481"><ele>9.27</ele><time>2014-08-31T21:23:51Z</time></trkpt></trkseg></trk></gpx>